<?xml version="1.0" encoding="UTF-8" standalone="no" ?>
<gpx xmlns="http://www.topografix.com/GPX/1/1" xmlns:xsi="http://www.w3.org/2001/XMLSchema-instance" xsi:schemaLocation="http://www.topografix.com/GPX/1/1 http://www.topografix.com/GPX/1/1/gpx.xsd" version="1.1" creator="VisuGPX - https://www.visugpx.com">
  <metadata>
    <name>Bagnols en Foret</name>
    <desc><![CDATA[Bagnols en Foret
==========
2 Mai 2010]]></desc>
  </metadata>
  <trk>
    <name><![CDATA[Track 30]]></name>
    <desc><![CDATA[]]></desc>
    <trkseg>
      <trkpt lat="43.53616" lon="6.68873">
        <ele>300</ele>
        <time>2010-05-02T06:45:48Z</time>
      </trkpt>
      <trkpt lat="43.53616" lon="6.68871">
        <ele>295</ele>
        <time>2010-05-02T06:47:21Z</time>
      </trkpt>
      <trkpt lat="43.5361" lon="6.68868">
        <ele>294</ele>
        <time>2010-05-02T06:47:22Z</time>
      </trkpt>
      <trkpt lat="43.53609" lon="6.68867">
        <ele>295</ele>
        <time>2010-05-02T06:47:25Z</time>
      </trkpt>
      <trkpt lat="43.53609" lon="6.68866">
        <ele>295</ele>
        <time>2010-05-02T06:48:40Z</time>
      </trkpt>
      <trkpt lat="43.53606" lon="6.68874">
        <ele>296</ele>
        <time>2010-05-02T06:48:41Z</time>
      </trkpt>
      <trkpt lat="43.53606" lon="6.68874">
        <ele>296</ele>
        <time>2010-05-02T06:48:42Z</time>
      </trkpt>
      <trkpt lat="43.53608" lon="6.68874">
        <ele>300</ele>
        <time>2010-05-02T06:49:19Z</time>
      </trkpt>
      <trkpt lat="43.53608" lon="6.68866">
        <ele>301</ele>
        <time>2010-05-02T06:49:20Z</time>
      </trkpt>
      <trkpt lat="43.53613" lon="6.68865">
        <ele>300</ele>
        <time>2010-05-02T06:49:25Z</time>
      </trkpt>
      <trkpt lat="43.53615" lon="6.68871">
        <ele>299</ele>
        <time>2010-05-02T06:49:31Z</time>
      </trkpt>
      <trkpt lat="43.53613" lon="6.68871">
        <ele>299</ele>
        <time>2010-05-02T06:49:36Z</time>
      </trkpt>
      <trkpt lat="43.53611" lon="6.68876">
        <ele>298</ele>
        <time>2010-05-02T06:50:00Z</time>
      </trkpt>
      <trkpt lat="43.53611" lon="6.68877">
        <ele>298</ele>
        <time>2010-05-02T06:50:01Z</time>
      </trkpt>
      <trkpt lat="43.53611" lon="6.68877">
        <ele>298</ele>
        <time>2010-05-02T06:50:01Z</time>
      </trkpt>
      <trkpt lat="43.53609" lon="6.68877">
        <ele>300</ele>
        <time>2010-05-02T06:50:49Z</time>
      </trkpt>
      <trkpt lat="43.53604" lon="6.68884">
        <ele>305</ele>
        <time>2010-05-02T06:50:50Z</time>
      </trkpt>
      <trkpt lat="43.53605" lon="6.68884">
        <ele>306</ele>
        <time>2010-05-02T06:50:51Z</time>
      </trkpt>
      <trkpt lat="43.53608" lon="6.68881">
        <ele>302</ele>
        <time>2010-05-02T06:51:28Z</time>
      </trkpt>
      <trkpt lat="43.53608" lon="6.6888">
        <ele>302</ele>
        <time>2010-05-02T06:51:29Z</time>
      </trkpt>
      <trkpt lat="43.5361" lon="6.68876">
        <ele>302</ele>
        <time>2010-05-02T06:51:36Z</time>
      </trkpt>
      <trkpt lat="43.53611" lon="6.68874">
        <ele>301</ele>
        <time>2010-05-02T06:51:44Z</time>
      </trkpt>
      <trkpt lat="43.53615" lon="6.6887">
        <ele>299</ele>
        <time>2010-05-02T06:51:45Z</time>
      </trkpt>
      <trkpt lat="43.53616" lon="6.68869">
        <ele>299</ele>
        <time>2010-05-02T06:51:47Z</time>
      </trkpt>
      <trkpt lat="43.53616" lon="6.68869">
        <ele>295</ele>
        <time>2010-05-02T06:52:20Z</time>
      </trkpt>
      <trkpt lat="43.53608" lon="6.68864">
        <ele>296</ele>
        <time>2010-05-02T06:52:23Z</time>
      </trkpt>
      <trkpt lat="43.53603" lon="6.68861">
        <ele>296</ele>
        <time>2010-05-02T06:52:25Z</time>
      </trkpt>
      <trkpt lat="43.53599" lon="6.68858">
        <ele>296</ele>
        <time>2010-05-02T06:52:28Z</time>
      </trkpt>
      <trkpt lat="43.53594" lon="6.68857">
        <ele>297</ele>
        <time>2010-05-02T06:52:32Z</time>
      </trkpt>
      <trkpt lat="43.53589" lon="6.68857">
        <ele>297</ele>
        <time>2010-05-02T06:52:36Z</time>
      </trkpt>
      <trkpt lat="43.53587" lon="6.68864">
        <ele>296</ele>
        <time>2010-05-02T06:52:40Z</time>
      </trkpt>
      <trkpt lat="43.53587" lon="6.68872">
        <ele>297</ele>
        <time>2010-05-02T06:52:43Z</time>
      </trkpt>
      <trkpt lat="43.53587" lon="6.6888">
        <ele>297</ele>
        <time>2010-05-02T06:52:46Z</time>
      </trkpt>
      <trkpt lat="43.53588" lon="6.68887">
        <ele>298</ele>
        <time>2010-05-02T06:52:49Z</time>
      </trkpt>
      <trkpt lat="43.53586" lon="6.68894">
        <ele>299</ele>
        <time>2010-05-02T06:52:52Z</time>
      </trkpt>
      <trkpt lat="43.53579" lon="6.68905">
        <ele>301</ele>
        <time>2010-05-02T06:52:57Z</time>
      </trkpt>
      <trkpt lat="43.53576" lon="6.6891">
        <ele>301</ele>
        <time>2010-05-02T06:52:59Z</time>
      </trkpt>
      <trkpt lat="43.53571" lon="6.68916">
        <ele>301</ele>
        <time>2010-05-02T06:53:02Z</time>
      </trkpt>
      <trkpt lat="43.53567" lon="6.6892">
        <ele>301</ele>
        <time>2010-05-02T06:53:04Z</time>
      </trkpt>
      <trkpt lat="43.53563" lon="6.68924">
        <ele>301</ele>
        <time>2010-05-02T06:53:06Z</time>
      </trkpt>
      <trkpt lat="43.53552" lon="6.68928">
        <ele>301</ele>
        <time>2010-05-02T06:53:10Z</time>
      </trkpt>
      <trkpt lat="43.53548" lon="6.68932">
        <ele>301</ele>
        <time>2010-05-02T06:53:12Z</time>
      </trkpt>
      <trkpt lat="43.53543" lon="6.68935">
        <ele>300</ele>
        <time>2010-05-02T06:53:14Z</time>
      </trkpt>
      <trkpt lat="43.53539" lon="6.68938">
        <ele>300</ele>
        <time>2010-05-02T06:53:16Z</time>
      </trkpt>
      <trkpt lat="43.53533" lon="6.68941">
        <ele>301</ele>
        <time>2010-05-02T06:53:19Z</time>
      </trkpt>
      <trkpt lat="43.53524" lon="6.68946">
        <ele>302</ele>
        <time>2010-05-02T06:53:23Z</time>
      </trkpt>
      <trkpt lat="43.53518" lon="6.68951">
        <ele>302</ele>
        <time>2010-05-02T06:53:26Z</time>
      </trkpt>
      <trkpt lat="43.53512" lon="6.68954">
        <ele>301</ele>
        <time>2010-05-02T06:53:28Z</time>
      </trkpt>
      <trkpt lat="43.53506" lon="6.68956">
        <ele>301</ele>
        <time>2010-05-02T06:53:30Z</time>
      </trkpt>
      <trkpt lat="43.535" lon="6.68958">
        <ele>301</ele>
        <time>2010-05-02T06:53:32Z</time>
      </trkpt>
      <trkpt lat="43.53489" lon="6.68961">
        <ele>301</ele>
        <time>2010-05-02T06:53:36Z</time>
      </trkpt>
      <trkpt lat="43.53483" lon="6.68962">
        <ele>301</ele>
        <time>2010-05-02T06:53:38Z</time>
      </trkpt>
      <trkpt lat="43.53476" lon="6.68963">
        <ele>301</ele>
        <time>2010-05-02T06:53:40Z</time>
      </trkpt>
      <trkpt lat="43.5347" lon="6.68964">
        <ele>302</ele>
        <time>2010-05-02T06:53:42Z</time>
      </trkpt>
      <trkpt lat="43.53463" lon="6.68965">
        <ele>302</ele>
        <time>2010-05-02T06:53:44Z</time>
      </trkpt>
      <trkpt lat="43.53458" lon="6.68966">
        <ele>302</ele>
        <time>2010-05-02T06:53:46Z</time>
      </trkpt>
      <trkpt lat="43.53452" lon="6.68968">
        <ele>302</ele>
        <time>2010-05-02T06:53:48Z</time>
      </trkpt>
      <trkpt lat="43.53446" lon="6.68969">
        <ele>302</ele>
        <time>2010-05-02T06:53:50Z</time>
      </trkpt>
      <trkpt lat="43.53441" lon="6.68971">
        <ele>302</ele>
        <time>2010-05-02T06:53:52Z</time>
      </trkpt>
      <trkpt lat="43.53436" lon="6.68972">
        <ele>302</ele>
        <time>2010-05-02T06:53:54Z</time>
      </trkpt>
      <trkpt lat="43.53429" lon="6.68975">
        <ele>302</ele>
        <time>2010-05-02T06:53:57Z</time>
      </trkpt>
      <trkpt lat="43.53422" lon="6.68977">
        <ele>302</ele>
        <time>2010-05-02T06:54:00Z</time>
      </trkpt>
      <trkpt lat="43.53416" lon="6.68979">
        <ele>302</ele>
        <time>2010-05-02T06:54:03Z</time>
      </trkpt>
      <trkpt lat="43.53411" lon="6.68981">
        <ele>303</ele>
        <time>2010-05-02T06:54:05Z</time>
      </trkpt>
      <trkpt lat="43.53407" lon="6.68984">
        <ele>302</ele>
        <time>2010-05-02T06:54:07Z</time>
      </trkpt>
      <trkpt lat="43.53401" lon="6.68989">
        <ele>303</ele>
        <time>2010-05-02T06:54:10Z</time>
      </trkpt>
      <trkpt lat="43.53396" lon="6.68991">
        <ele>303</ele>
        <time>2010-05-02T06:54:12Z</time>
      </trkpt>
      <trkpt lat="43.53391" lon="6.68994">
        <ele>303</ele>
        <time>2010-05-02T06:54:14Z</time>
      </trkpt>
      <trkpt lat="43.53386" lon="6.68997">
        <ele>304</ele>
        <time>2010-05-02T06:54:16Z</time>
      </trkpt>
      <trkpt lat="43.5338" lon="6.69">
        <ele>304</ele>
        <time>2010-05-02T06:54:18Z</time>
      </trkpt>
      <trkpt lat="43.53375" lon="6.69002">
        <ele>305</ele>
        <time>2010-05-02T06:54:20Z</time>
      </trkpt>
      <trkpt lat="43.53367" lon="6.69006">
        <ele>305</ele>
        <time>2010-05-02T06:54:23Z</time>
      </trkpt>
      <trkpt lat="43.53363" lon="6.69008">
        <ele>305</ele>
        <time>2010-05-02T06:54:25Z</time>
      </trkpt>
      <trkpt lat="43.53357" lon="6.69012">
        <ele>306</ele>
        <time>2010-05-02T06:54:28Z</time>
      </trkpt>
      <trkpt lat="43.5335" lon="6.69013">
        <ele>306</ele>
        <time>2010-05-02T06:54:31Z</time>
      </trkpt>
      <trkpt lat="43.53346" lon="6.69015">
        <ele>306</ele>
        <time>2010-05-02T06:54:33Z</time>
      </trkpt>
      <trkpt lat="43.53341" lon="6.69018">
        <ele>306</ele>
        <time>2010-05-02T06:54:36Z</time>
      </trkpt>
      <trkpt lat="43.53336" lon="6.69021">
        <ele>308</ele>
        <time>2010-05-02T06:54:39Z</time>
      </trkpt>
      <trkpt lat="43.53331" lon="6.69026">
        <ele>308</ele>
        <time>2010-05-02T06:54:41Z</time>
      </trkpt>
      <trkpt lat="43.53326" lon="6.69031">
        <ele>309</ele>
        <time>2010-05-02T06:54:44Z</time>
      </trkpt>
      <trkpt lat="43.53321" lon="6.69036">
        <ele>310</ele>
        <time>2010-05-02T06:54:46Z</time>
      </trkpt>
      <trkpt lat="43.53316" lon="6.69041">
        <ele>311</ele>
        <time>2010-05-02T06:54:48Z</time>
      </trkpt>
      <trkpt lat="43.53312" lon="6.69046">
        <ele>311</ele>
        <time>2010-05-02T06:54:50Z</time>
      </trkpt>
      <trkpt lat="43.53308" lon="6.6905">
        <ele>312</ele>
        <time>2010-05-02T06:54:52Z</time>
      </trkpt>
      <trkpt lat="43.53304" lon="6.69056">
        <ele>312</ele>
        <time>2010-05-02T06:54:54Z</time>
      </trkpt>
      <trkpt lat="43.53298" lon="6.69066">
        <ele>311</ele>
        <time>2010-05-02T06:54:57Z</time>
      </trkpt>
      <trkpt lat="43.53294" lon="6.6907">
        <ele>311</ele>
        <time>2010-05-02T06:54:59Z</time>
      </trkpt>
      <trkpt lat="43.53289" lon="6.69074">
        <ele>311</ele>
        <time>2010-05-02T06:55:01Z</time>
      </trkpt>
      <trkpt lat="43.53283" lon="6.69078">
        <ele>311</ele>
        <time>2010-05-02T06:55:03Z</time>
      </trkpt>
      <trkpt lat="43.53278" lon="6.69081">
        <ele>311</ele>
        <time>2010-05-02T06:55:05Z</time>
      </trkpt>
      <trkpt lat="43.53274" lon="6.69086">
        <ele>311</ele>
        <time>2010-05-02T06:55:07Z</time>
      </trkpt>
      <trkpt lat="43.53264" lon="6.6909">
        <ele>312</ele>
        <time>2010-05-02T06:55:10Z</time>
      </trkpt>
      <trkpt lat="43.53259" lon="6.69094">
        <ele>312</ele>
        <time>2010-05-02T06:55:12Z</time>
      </trkpt>
      <trkpt lat="43.53254" lon="6.69099">
        <ele>312</ele>
        <time>2010-05-02T06:55:14Z</time>
      </trkpt>
      <trkpt lat="43.53248" lon="6.69102">
        <ele>312</ele>
        <time>2010-05-02T06:55:16Z</time>
      </trkpt>
      <trkpt lat="43.53242" lon="6.69105">
        <ele>312</ele>
        <time>2010-05-02T06:55:18Z</time>
      </trkpt>
      <trkpt lat="43.53236" lon="6.69108">
        <ele>312</ele>
        <time>2010-05-02T06:55:20Z</time>
      </trkpt>
      <trkpt lat="43.53227" lon="6.69112">
        <ele>310</ele>
        <time>2010-05-02T06:55:23Z</time>
      </trkpt>
      <trkpt lat="43.5322" lon="6.69114">
        <ele>310</ele>
        <time>2010-05-02T06:55:25Z</time>
      </trkpt>
      <trkpt lat="43.53215" lon="6.69117">
        <ele>310</ele>
        <time>2010-05-02T06:55:27Z</time>
      </trkpt>
      <trkpt lat="43.53209" lon="6.69118">
        <ele>310</ele>
        <time>2010-05-02T06:55:29Z</time>
      </trkpt>
      <trkpt lat="43.53204" lon="6.69121">
        <ele>310</ele>
        <time>2010-05-02T06:55:31Z</time>
      </trkpt>
      <trkpt lat="43.53198" lon="6.69123">
        <ele>311</ele>
        <time>2010-05-02T06:55:33Z</time>
      </trkpt>
      <trkpt lat="43.5319" lon="6.69125">
        <ele>311</ele>
        <time>2010-05-02T06:55:36Z</time>
      </trkpt>
      <trkpt lat="43.53186" lon="6.69128">
        <ele>312</ele>
        <time>2010-05-02T06:55:38Z</time>
      </trkpt>
      <trkpt lat="43.53181" lon="6.6913">
        <ele>312</ele>
        <time>2010-05-02T06:55:40Z</time>
      </trkpt>
      <trkpt lat="43.53176" lon="6.69131">
        <ele>312</ele>
        <time>2010-05-02T06:55:42Z</time>
      </trkpt>
      <trkpt lat="43.5317" lon="6.69132">
        <ele>313</ele>
        <time>2010-05-02T06:55:44Z</time>
      </trkpt>
      <trkpt lat="43.53165" lon="6.69133">
        <ele>313</ele>
        <time>2010-05-02T06:55:46Z</time>
      </trkpt>
      <trkpt lat="43.5316" lon="6.69134">
        <ele>313</ele>
        <time>2010-05-02T06:55:48Z</time>
      </trkpt>
      <trkpt lat="43.53154" lon="6.69134">
        <ele>314</ele>
        <time>2010-05-02T06:55:50Z</time>
      </trkpt>
      <trkpt lat="43.53149" lon="6.69135">
        <ele>314</ele>
        <time>2010-05-02T06:55:52Z</time>
      </trkpt>
      <trkpt lat="43.53143" lon="6.69135">
        <ele>315</ele>
        <time>2010-05-02T06:55:54Z</time>
      </trkpt>
      <trkpt lat="43.53135" lon="6.69136">
        <ele>316</ele>
        <time>2010-05-02T06:55:57Z</time>
      </trkpt>
      <trkpt lat="43.53128" lon="6.69134">
        <ele>316</ele>
        <time>2010-05-02T06:55:59Z</time>
      </trkpt>
      <trkpt lat="43.53121" lon="6.69132">
        <ele>316</ele>
        <time>2010-05-02T06:56:01Z</time>
      </trkpt>
      <trkpt lat="43.53115" lon="6.69131">
        <ele>316</ele>
        <time>2010-05-02T06:56:03Z</time>
      </trkpt>
      <trkpt lat="43.53108" lon="6.69129">
        <ele>316</ele>
        <time>2010-05-02T06:56:05Z</time>
      </trkpt>
      <trkpt lat="43.53101" lon="6.69126">
        <ele>315</ele>
        <time>2010-05-02T06:56:07Z</time>
      </trkpt>
      <trkpt lat="43.53092" lon="6.69122">
        <ele>315</ele>
        <time>2010-05-02T06:56:10Z</time>
      </trkpt>
      <trkpt lat="43.53086" lon="6.69119">
        <ele>315</ele>
        <time>2010-05-02T06:56:12Z</time>
      </trkpt>
      <trkpt lat="43.5308" lon="6.69117">
        <ele>315</ele>
        <time>2010-05-02T06:56:14Z</time>
      </trkpt>
      <trkpt lat="43.53074" lon="6.69114">
        <ele>314</ele>
        <time>2010-05-02T06:56:16Z</time>
      </trkpt>
      <trkpt lat="43.53068" lon="6.69111">
        <ele>314</ele>
        <time>2010-05-02T06:56:18Z</time>
      </trkpt>
      <trkpt lat="43.53062" lon="6.69108">
        <ele>314</ele>
        <time>2010-05-02T06:56:20Z</time>
      </trkpt>
      <trkpt lat="43.53054" lon="6.69105">
        <ele>314</ele>
        <time>2010-05-02T06:56:23Z</time>
      </trkpt>
      <trkpt lat="43.53048" lon="6.69103">
        <ele>314</ele>
        <time>2010-05-02T06:56:25Z</time>
      </trkpt>
      <trkpt lat="43.53043" lon="6.69101">
        <ele>314</ele>
        <time>2010-05-02T06:56:27Z</time>
      </trkpt>
      <trkpt lat="43.53036" lon="6.69099">
        <ele>314</ele>
        <time>2010-05-02T06:56:29Z</time>
      </trkpt>
      <trkpt lat="43.53031" lon="6.69097">
        <ele>314</ele>
        <time>2010-05-02T06:56:31Z</time>
      </trkpt>
      <trkpt lat="43.53025" lon="6.69096">
        <ele>314</ele>
        <time>2010-05-02T06:56:33Z</time>
      </trkpt>
      <trkpt lat="43.53016" lon="6.69094">
        <ele>314</ele>
        <time>2010-05-02T06:56:36Z</time>
      </trkpt>
      <trkpt lat="43.53011" lon="6.69092">
        <ele>314</ele>
        <time>2010-05-02T06:56:38Z</time>
      </trkpt>
      <trkpt lat="43.53005" lon="6.6909">
        <ele>313</ele>
        <time>2010-05-02T06:56:40Z</time>
      </trkpt>
      <trkpt lat="43.52999" lon="6.69089">
        <ele>313</ele>
        <time>2010-05-02T06:56:42Z</time>
      </trkpt>
      <trkpt lat="43.52993" lon="6.69086">
        <ele>313</ele>
        <time>2010-05-02T06:56:44Z</time>
      </trkpt>
      <trkpt lat="43.52987" lon="6.69085">
        <ele>313</ele>
        <time>2010-05-02T06:56:46Z</time>
      </trkpt>
      <trkpt lat="43.52981" lon="6.69083">
        <ele>313</ele>
        <time>2010-05-02T06:56:48Z</time>
      </trkpt>
      <trkpt lat="43.52976" lon="6.69083">
        <ele>313</ele>
        <time>2010-05-02T06:56:50Z</time>
      </trkpt>
      <trkpt lat="43.52971" lon="6.69084">
        <ele>314</ele>
        <time>2010-05-02T06:56:52Z</time>
      </trkpt>
      <trkpt lat="43.52966" lon="6.69086">
        <ele>314</ele>
        <time>2010-05-02T06:56:54Z</time>
      </trkpt>
      <trkpt lat="43.5296" lon="6.6909">
        <ele>315</ele>
        <time>2010-05-02T06:56:57Z</time>
      </trkpt>
      <trkpt lat="43.52954" lon="6.69094">
        <ele>315</ele>
        <time>2010-05-02T06:56:59Z</time>
      </trkpt>
      <trkpt lat="43.5295" lon="6.69097">
        <ele>316</ele>
        <time>2010-05-02T06:57:01Z</time>
      </trkpt>
      <trkpt lat="43.52945" lon="6.69102">
        <ele>316</ele>
        <time>2010-05-02T06:57:03Z</time>
      </trkpt>
      <trkpt lat="43.5294" lon="6.69106">
        <ele>316</ele>
        <time>2010-05-02T06:57:05Z</time>
      </trkpt>
      <trkpt lat="43.52937" lon="6.69111">
        <ele>316</ele>
        <time>2010-05-02T06:57:07Z</time>
      </trkpt>
      <trkpt lat="43.52932" lon="6.69118">
        <ele>318</ele>
        <time>2010-05-02T06:57:10Z</time>
      </trkpt>
      <trkpt lat="43.52927" lon="6.69126">
        <ele>319</ele>
        <time>2010-05-02T06:57:13Z</time>
      </trkpt>
      <trkpt lat="43.52923" lon="6.69131">
        <ele>320</ele>
        <time>2010-05-02T06:57:15Z</time>
      </trkpt>
      <trkpt lat="43.52918" lon="6.69136">
        <ele>320</ele>
        <time>2010-05-02T06:57:17Z</time>
      </trkpt>
      <trkpt lat="43.52914" lon="6.6914">
        <ele>320</ele>
        <time>2010-05-02T06:57:19Z</time>
      </trkpt>
      <trkpt lat="43.52903" lon="6.69148">
        <ele>321</ele>
        <time>2010-05-02T06:57:23Z</time>
      </trkpt>
      <trkpt lat="43.52899" lon="6.69152">
        <ele>321</ele>
        <time>2010-05-02T06:57:25Z</time>
      </trkpt>
      <trkpt lat="43.52894" lon="6.69155">
        <ele>321</ele>
        <time>2010-05-02T06:57:27Z</time>
      </trkpt>
      <trkpt lat="43.52889" lon="6.69159">
        <ele>322</ele>
        <time>2010-05-02T06:57:29Z</time>
      </trkpt>
      <trkpt lat="43.52884" lon="6.69163">
        <ele>322</ele>
        <time>2010-05-02T06:57:31Z</time>
      </trkpt>
      <trkpt lat="43.52879" lon="6.69168">
        <ele>323</ele>
        <time>2010-05-02T06:57:33Z</time>
      </trkpt>
      <trkpt lat="43.52873" lon="6.69178">
        <ele>322</ele>
        <time>2010-05-02T06:57:36Z</time>
      </trkpt>
      <trkpt lat="43.5287" lon="6.69184">
        <ele>321</ele>
        <time>2010-05-02T06:57:38Z</time>
      </trkpt>
      <trkpt lat="43.52867" lon="6.69192">
        <ele>322</ele>
        <time>2010-05-02T06:57:40Z</time>
      </trkpt>
      <trkpt lat="43.52864" lon="6.69199">
        <ele>322</ele>
        <time>2010-05-02T06:57:42Z</time>
      </trkpt>
      <trkpt lat="43.52861" lon="6.69208">
        <ele>322</ele>
        <time>2010-05-02T06:57:44Z</time>
      </trkpt>
      <trkpt lat="43.52858" lon="6.69217">
        <ele>321</ele>
        <time>2010-05-02T06:57:46Z</time>
      </trkpt>
      <trkpt lat="43.52856" lon="6.69223">
        <ele>322</ele>
        <time>2010-05-02T06:57:48Z</time>
      </trkpt>
      <trkpt lat="43.52853" lon="6.69231">
        <ele>322</ele>
        <time>2010-05-02T06:57:50Z</time>
      </trkpt>
      <trkpt lat="43.52851" lon="6.69239">
        <ele>322</ele>
        <time>2010-05-02T06:57:52Z</time>
      </trkpt>
      <trkpt lat="43.52848" lon="6.69245">
        <ele>323</ele>
        <time>2010-05-02T06:57:54Z</time>
      </trkpt>
      <trkpt lat="43.52844" lon="6.69256">
        <ele>323</ele>
        <time>2010-05-02T06:57:57Z</time>
      </trkpt>
      <trkpt lat="43.52841" lon="6.69264">
        <ele>323</ele>
        <time>2010-05-02T06:57:59Z</time>
      </trkpt>
      <trkpt lat="43.52839" lon="6.69272">
        <ele>323</ele>
        <time>2010-05-02T06:58:01Z</time>
      </trkpt>
      <trkpt lat="43.52836" lon="6.6928">
        <ele>323</ele>
        <time>2010-05-02T06:58:03Z</time>
      </trkpt>
      <trkpt lat="43.52834" lon="6.69287">
        <ele>323</ele>
        <time>2010-05-02T06:58:05Z</time>
      </trkpt>
      <trkpt lat="43.52831" lon="6.69294">
        <ele>323</ele>
        <time>2010-05-02T06:58:07Z</time>
      </trkpt>
      <trkpt lat="43.52827" lon="6.69306">
        <ele>324</ele>
        <time>2010-05-02T06:58:10Z</time>
      </trkpt>
      <trkpt lat="43.52825" lon="6.69314">
        <ele>324</ele>
        <time>2010-05-02T06:58:12Z</time>
      </trkpt>
      <trkpt lat="43.52822" lon="6.69322">
        <ele>323</ele>
        <time>2010-05-02T06:58:14Z</time>
      </trkpt>
      <trkpt lat="43.5282" lon="6.69331">
        <ele>323</ele>
        <time>2010-05-02T06:58:16Z</time>
      </trkpt>
      <trkpt lat="43.52817" lon="6.69339">
        <ele>323</ele>
        <time>2010-05-02T06:58:18Z</time>
      </trkpt>
      <trkpt lat="43.52814" lon="6.69347">
        <ele>323</ele>
        <time>2010-05-02T06:58:20Z</time>
      </trkpt>
      <trkpt lat="43.52809" lon="6.69358">
        <ele>323</ele>
        <time>2010-05-02T06:58:23Z</time>
      </trkpt>
      <trkpt lat="43.52805" lon="6.69365">
        <ele>323</ele>
        <time>2010-05-02T06:58:25Z</time>
      </trkpt>
      <trkpt lat="43.52801" lon="6.6937">
        <ele>323</ele>
        <time>2010-05-02T06:58:27Z</time>
      </trkpt>
      <trkpt lat="43.52797" lon="6.69376">
        <ele>323</ele>
        <time>2010-05-02T06:58:29Z</time>
      </trkpt>
      <trkpt lat="43.52792" lon="6.69381">
        <ele>323</ele>
        <time>2010-05-02T06:58:31Z</time>
      </trkpt>
      <trkpt lat="43.52787" lon="6.69386">
        <ele>323</ele>
        <time>2010-05-02T06:58:33Z</time>
      </trkpt>
      <trkpt lat="43.52781" lon="6.69392">
        <ele>324</ele>
        <time>2010-05-02T06:58:36Z</time>
      </trkpt>
      <trkpt lat="43.52776" lon="6.69396">
        <ele>324</ele>
        <time>2010-05-02T06:58:38Z</time>
      </trkpt>
      <trkpt lat="43.52771" lon="6.69401">
        <ele>325</ele>
        <time>2010-05-02T06:58:40Z</time>
      </trkpt>
      <trkpt lat="43.52766" lon="6.69404">
        <ele>325</ele>
        <time>2010-05-02T06:58:42Z</time>
      </trkpt>
      <trkpt lat="43.52761" lon="6.69409">
        <ele>325</ele>
        <time>2010-05-02T06:58:44Z</time>
      </trkpt>
      <trkpt lat="43.52757" lon="6.69414">
        <ele>325</ele>
        <time>2010-05-02T06:58:46Z</time>
      </trkpt>
      <trkpt lat="43.52753" lon="6.69418">
        <ele>325</ele>
        <time>2010-05-02T06:58:48Z</time>
      </trkpt>
      <trkpt lat="43.52748" lon="6.69423">
        <ele>326</ele>
        <time>2010-05-02T06:58:50Z</time>
      </trkpt>
      <trkpt lat="43.52744" lon="6.69427">
        <ele>326</ele>
        <time>2010-05-02T06:58:52Z</time>
      </trkpt>
      <trkpt lat="43.52739" lon="6.69431">
        <ele>327</ele>
        <time>2010-05-02T06:58:54Z</time>
      </trkpt>
      <trkpt lat="43.52733" lon="6.69437">
        <ele>327</ele>
        <time>2010-05-02T06:58:57Z</time>
      </trkpt>
      <trkpt lat="43.52729" lon="6.69441">
        <ele>328</ele>
        <time>2010-05-02T06:58:59Z</time>
      </trkpt>
      <trkpt lat="43.52725" lon="6.69445">
        <ele>328</ele>
        <time>2010-05-02T06:59:01Z</time>
      </trkpt>
      <trkpt lat="43.52721" lon="6.69449">
        <ele>329</ele>
        <time>2010-05-02T06:59:03Z</time>
      </trkpt>
      <trkpt lat="43.52716" lon="6.69453">
        <ele>329</ele>
        <time>2010-05-02T06:59:05Z</time>
      </trkpt>
      <trkpt lat="43.52711" lon="6.69456">
        <ele>329</ele>
        <time>2010-05-02T06:59:07Z</time>
      </trkpt>
      <trkpt lat="43.52704" lon="6.69461">
        <ele>329</ele>
        <time>2010-05-02T06:59:10Z</time>
      </trkpt>
      <trkpt lat="43.52699" lon="6.69464">
        <ele>330</ele>
        <time>2010-05-02T06:59:12Z</time>
      </trkpt>
      <trkpt lat="43.52694" lon="6.69468">
        <ele>330</ele>
        <time>2010-05-02T06:59:14Z</time>
      </trkpt>
      <trkpt lat="43.5269" lon="6.69471">
        <ele>331</ele>
        <time>2010-05-02T06:59:16Z</time>
      </trkpt>
      <trkpt lat="43.52685" lon="6.69475">
        <ele>332</ele>
        <time>2010-05-02T06:59:18Z</time>
      </trkpt>
      <trkpt lat="43.5268" lon="6.69478">
        <ele>332</ele>
        <time>2010-05-02T06:59:20Z</time>
      </trkpt>
      <trkpt lat="43.52674" lon="6.69485">
        <ele>332</ele>
        <time>2010-05-02T06:59:23Z</time>
      </trkpt>
      <trkpt lat="43.52671" lon="6.6949">
        <ele>333</ele>
        <time>2010-05-02T06:59:25Z</time>
      </trkpt>
      <trkpt lat="43.52666" lon="6.69493">
        <ele>333</ele>
        <time>2010-05-02T06:59:27Z</time>
      </trkpt>
      <trkpt lat="43.52661" lon="6.69498">
        <ele>334</ele>
        <time>2010-05-02T06:59:29Z</time>
      </trkpt>
      <trkpt lat="43.52657" lon="6.69502">
        <ele>334</ele>
        <time>2010-05-02T06:59:31Z</time>
      </trkpt>
      <trkpt lat="43.52653" lon="6.69507">
        <ele>334</ele>
        <time>2010-05-02T06:59:33Z</time>
      </trkpt>
      <trkpt lat="43.52647" lon="6.69513">
        <ele>335</ele>
        <time>2010-05-02T06:59:36Z</time>
      </trkpt>
      <trkpt lat="43.52643" lon="6.69517">
        <ele>335</ele>
        <time>2010-05-02T06:59:38Z</time>
      </trkpt>
      <trkpt lat="43.52639" lon="6.69522">
        <ele>336</ele>
        <time>2010-05-02T06:59:40Z</time>
      </trkpt>
      <trkpt lat="43.52636" lon="6.69527">
        <ele>336</ele>
        <time>2010-05-02T06:59:42Z</time>
      </trkpt>
      <trkpt lat="43.52631" lon="6.69531">
        <ele>337</ele>
        <time>2010-05-02T06:59:44Z</time>
      </trkpt>
      <trkpt lat="43.52628" lon="6.69536">
        <ele>337</ele>
        <time>2010-05-02T06:59:46Z</time>
      </trkpt>
      <trkpt lat="43.52624" lon="6.69542">
        <ele>337</ele>
        <time>2010-05-02T06:59:48Z</time>
      </trkpt>
      <trkpt lat="43.52621" lon="6.69546">
        <ele>338</ele>
        <time>2010-05-02T06:59:50Z</time>
      </trkpt>
      <trkpt lat="43.52617" lon="6.69552">
        <ele>339</ele>
        <time>2010-05-02T06:59:52Z</time>
      </trkpt>
      <trkpt lat="43.52613" lon="6.69557">
        <ele>339</ele>
        <time>2010-05-02T06:59:54Z</time>
      </trkpt>
      <trkpt lat="43.52609" lon="6.69562">
        <ele>339</ele>
        <time>2010-05-02T06:59:56Z</time>
      </trkpt>
      <trkpt lat="43.52605" lon="6.69566">
        <ele>340</ele>
        <time>2010-05-02T06:59:58Z</time>
      </trkpt>
      <trkpt lat="43.52599" lon="6.69573">
        <ele>340</ele>
        <time>2010-05-02T07:00:01Z</time>
      </trkpt>
      <trkpt lat="43.52594" lon="6.69577">
        <ele>340</ele>
        <time>2010-05-02T07:00:03Z</time>
      </trkpt>
      <trkpt lat="43.5259" lon="6.69581">
        <ele>341</ele>
        <time>2010-05-02T07:00:05Z</time>
      </trkpt>
      <trkpt lat="43.52586" lon="6.69585">
        <ele>341</ele>
        <time>2010-05-02T07:00:07Z</time>
      </trkpt>
      <trkpt lat="43.52582" lon="6.69588">
        <ele>342</ele>
        <time>2010-05-02T07:00:09Z</time>
      </trkpt>
      <trkpt lat="43.52577" lon="6.69591">
        <ele>342</ele>
        <time>2010-05-02T07:00:11Z</time>
      </trkpt>
      <trkpt lat="43.5257" lon="6.69596">
        <ele>343</ele>
        <time>2010-05-02T07:00:14Z</time>
      </trkpt>
      <trkpt lat="43.52566" lon="6.696">
        <ele>343</ele>
        <time>2010-05-02T07:00:16Z</time>
      </trkpt>
      <trkpt lat="43.52561" lon="6.69602">
        <ele>343</ele>
        <time>2010-05-02T07:00:18Z</time>
      </trkpt>
      <trkpt lat="43.52556" lon="6.69605">
        <ele>343</ele>
        <time>2010-05-02T07:00:20Z</time>
      </trkpt>
      <trkpt lat="43.5255" lon="6.69609">
        <ele>343</ele>
        <time>2010-05-02T07:00:23Z</time>
      </trkpt>
      <trkpt lat="43.52544" lon="6.69617">
        <ele>344</ele>
        <time>2010-05-02T07:00:27Z</time>
      </trkpt>
      <trkpt lat="43.52541" lon="6.69624">
        <ele>345</ele>
        <time>2010-05-02T07:00:30Z</time>
      </trkpt>
      <trkpt lat="43.52537" lon="6.69632">
        <ele>346</ele>
        <time>2010-05-02T07:00:33Z</time>
      </trkpt>
      <trkpt lat="43.52533" lon="6.69639">
        <ele>346</ele>
        <time>2010-05-02T07:00:36Z</time>
      </trkpt>
      <trkpt lat="43.52525" lon="6.69647">
        <ele>347</ele>
        <time>2010-05-02T07:00:40Z</time>
      </trkpt>
      <trkpt lat="43.52521" lon="6.69651">
        <ele>347</ele>
        <time>2010-05-02T07:00:42Z</time>
      </trkpt>
      <trkpt lat="43.52516" lon="6.69657">
        <ele>348</ele>
        <time>2010-05-02T07:00:45Z</time>
      </trkpt>
      <trkpt lat="43.52512" lon="6.69661">
        <ele>349</ele>
        <time>2010-05-02T07:00:47Z</time>
      </trkpt>
      <trkpt lat="43.52508" lon="6.69664">
        <ele>350</ele>
        <time>2010-05-02T07:00:49Z</time>
      </trkpt>
      <trkpt lat="43.52503" lon="6.69671">
        <ele>351</ele>
        <time>2010-05-02T07:00:52Z</time>
      </trkpt>
      <trkpt lat="43.52494" lon="6.69681">
        <ele>352</ele>
        <time>2010-05-02T07:00:57Z</time>
      </trkpt>
      <trkpt lat="43.52488" lon="6.69686">
        <ele>352</ele>
        <time>2010-05-02T07:01:00Z</time>
      </trkpt>
      <trkpt lat="43.52483" lon="6.69691">
        <ele>352</ele>
        <time>2010-05-02T07:01:03Z</time>
      </trkpt>
      <trkpt lat="43.52477" lon="6.69696">
        <ele>353</ele>
        <time>2010-05-02T07:01:06Z</time>
      </trkpt>
      <trkpt lat="43.52469" lon="6.69702">
        <ele>355</ele>
        <time>2010-05-02T07:01:10Z</time>
      </trkpt>
      <trkpt lat="43.52465" lon="6.69705">
        <ele>355</ele>
        <time>2010-05-02T07:01:12Z</time>
      </trkpt>
      <trkpt lat="43.5246" lon="6.69708">
        <ele>356</ele>
        <time>2010-05-02T07:01:15Z</time>
      </trkpt>
      <trkpt lat="43.52455" lon="6.69714">
        <ele>357</ele>
        <time>2010-05-02T07:01:18Z</time>
      </trkpt>
      <trkpt lat="43.52446" lon="6.69722">
        <ele>360</ele>
        <time>2010-05-02T07:01:23Z</time>
      </trkpt>
      <trkpt lat="43.52441" lon="6.69724">
        <ele>361</ele>
        <time>2010-05-02T07:01:26Z</time>
      </trkpt>
      <trkpt lat="43.52436" lon="6.69728">
        <ele>363</ele>
        <time>2010-05-02T07:01:30Z</time>
      </trkpt>
      <trkpt lat="43.52431" lon="6.69734">
        <ele>364</ele>
        <time>2010-05-02T07:01:33Z</time>
      </trkpt>
      <trkpt lat="43.52425" lon="6.69738">
        <ele>366</ele>
        <time>2010-05-02T07:01:36Z</time>
      </trkpt>
      <trkpt lat="43.52421" lon="6.69743">
        <ele>367</ele>
        <time>2010-05-02T07:01:38Z</time>
      </trkpt>
      <trkpt lat="43.52417" lon="6.69749">
        <ele>369</ele>
        <time>2010-05-02T07:01:40Z</time>
      </trkpt>
      <trkpt lat="43.52413" lon="6.69753">
        <ele>370</ele>
        <time>2010-05-02T07:01:42Z</time>
      </trkpt>
      <trkpt lat="43.52408" lon="6.69757">
        <ele>371</ele>
        <time>2010-05-02T07:01:44Z</time>
      </trkpt>
      <trkpt lat="43.52404" lon="6.69762">
        <ele>371</ele>
        <time>2010-05-02T07:01:46Z</time>
      </trkpt>
      <trkpt lat="43.52399" lon="6.69765">
        <ele>371</ele>
        <time>2010-05-02T07:01:48Z</time>
      </trkpt>
      <trkpt lat="43.52394" lon="6.69766">
        <ele>371</ele>
        <time>2010-05-02T07:01:50Z</time>
      </trkpt>
      <trkpt lat="43.52389" lon="6.69767">
        <ele>369</ele>
        <time>2010-05-02T07:01:52Z</time>
      </trkpt>
      <trkpt lat="43.52384" lon="6.69765">
        <ele>369</ele>
        <time>2010-05-02T07:01:54Z</time>
      </trkpt>
      <trkpt lat="43.52378" lon="6.69762">
        <ele>368</ele>
        <time>2010-05-02T07:01:57Z</time>
      </trkpt>
      <trkpt lat="43.52371" lon="6.69759">
        <ele>367</ele>
        <time>2010-05-02T07:02:00Z</time>
      </trkpt>
      <trkpt lat="43.52367" lon="6.69757">
        <ele>367</ele>
        <time>2010-05-02T07:02:02Z</time>
      </trkpt>
      <trkpt lat="43.52362" lon="6.69753">
        <ele>367</ele>
        <time>2010-05-02T07:02:05Z</time>
      </trkpt>
      <trkpt lat="43.52356" lon="6.69749">
        <ele>368</ele>
        <time>2010-05-02T07:02:08Z</time>
      </trkpt>
      <trkpt lat="43.52351" lon="6.69746">
        <ele>367</ele>
        <time>2010-05-02T07:02:10Z</time>
      </trkpt>
      <trkpt lat="43.52342" lon="6.69745">
        <ele>367</ele>
        <time>2010-05-02T07:02:13Z</time>
      </trkpt>
      <trkpt lat="43.52337" lon="6.69742">
        <ele>367</ele>
        <time>2010-05-02T07:02:15Z</time>
      </trkpt>
      <trkpt lat="43.52331" lon="6.69742">
        <ele>367</ele>
        <time>2010-05-02T07:02:18Z</time>
      </trkpt>
      <trkpt lat="43.52325" lon="6.6974">
        <ele>367</ele>
        <time>2010-05-02T07:02:21Z</time>
      </trkpt>
      <trkpt lat="43.52315" lon="6.69736">
        <ele>368</ele>
        <time>2010-05-02T07:02:26Z</time>
      </trkpt>
      <trkpt lat="43.5231" lon="6.69733">
        <ele>368</ele>
        <time>2010-05-02T07:02:29Z</time>
      </trkpt>
      <trkpt lat="43.52305" lon="6.69728">
        <ele>369</ele>
        <time>2010-05-02T07:02:32Z</time>
      </trkpt>
      <trkpt lat="43.523" lon="6.69723">
        <ele>369</ele>
        <time>2010-05-02T07:02:35Z</time>
      </trkpt>
      <trkpt lat="43.52295" lon="6.69714">
        <ele>370</ele>
        <time>2010-05-02T07:02:39Z</time>
      </trkpt>
      <trkpt lat="43.5229" lon="6.69709">
        <ele>370</ele>
        <time>2010-05-02T07:02:42Z</time>
      </trkpt>
      <trkpt lat="43.52285" lon="6.69704">
        <ele>371</ele>
        <time>2010-05-02T07:02:45Z</time>
      </trkpt>
      <trkpt lat="43.52279" lon="6.697">
        <ele>371</ele>
        <time>2010-05-02T07:02:48Z</time>
      </trkpt>
      <trkpt lat="43.52273" lon="6.69699">
        <ele>372</ele>
        <time>2010-05-02T07:02:51Z</time>
      </trkpt>
      <trkpt lat="43.52267" lon="6.69699">
        <ele>373</ele>
        <time>2010-05-02T07:02:54Z</time>
      </trkpt>
      <trkpt lat="43.5226" lon="6.69701">
        <ele>375</ele>
        <time>2010-05-02T07:02:57Z</time>
      </trkpt>
      <trkpt lat="43.52254" lon="6.69702">
        <ele>377</ele>
        <time>2010-05-02T07:03:00Z</time>
      </trkpt>
      <trkpt lat="43.52248" lon="6.69701">
        <ele>378</ele>
        <time>2010-05-02T07:03:03Z</time>
      </trkpt>
      <trkpt lat="43.52242" lon="6.69699">
        <ele>378</ele>
        <time>2010-05-02T07:03:06Z</time>
      </trkpt>
      <trkpt lat="43.52233" lon="6.69696">
        <ele>379</ele>
        <time>2010-05-02T07:03:10Z</time>
      </trkpt>
      <trkpt lat="43.52227" lon="6.69694">
        <ele>379</ele>
        <time>2010-05-02T07:03:13Z</time>
      </trkpt>
      <trkpt lat="43.52222" lon="6.69693">
        <ele>380</ele>
        <time>2010-05-02T07:03:16Z</time>
      </trkpt>
      <trkpt lat="43.52216" lon="6.69691">
        <ele>381</ele>
        <time>2010-05-02T07:03:19Z</time>
      </trkpt>
      <trkpt lat="43.52206" lon="6.69689">
        <ele>381</ele>
        <time>2010-05-02T07:03:23Z</time>
      </trkpt>
      <trkpt lat="43.522" lon="6.69686">
        <ele>382</ele>
        <time>2010-05-02T07:03:26Z</time>
      </trkpt>
      <trkpt lat="43.52193" lon="6.69685">
        <ele>383</ele>
        <time>2010-05-02T07:03:29Z</time>
      </trkpt>
      <trkpt lat="43.52188" lon="6.69683">
        <ele>383</ele>
        <time>2010-05-02T07:03:32Z</time>
      </trkpt>
      <trkpt lat="43.52183" lon="6.69683">
        <ele>384</ele>
        <time>2010-05-02T07:03:36Z</time>
      </trkpt>
      <trkpt lat="43.52178" lon="6.69688">
        <ele>386</ele>
        <time>2010-05-02T07:03:40Z</time>
      </trkpt>
      <trkpt lat="43.52172" lon="6.69691">
        <ele>389</ele>
        <time>2010-05-02T07:03:43Z</time>
      </trkpt>
      <trkpt lat="43.52167" lon="6.69694">
        <ele>390</ele>
        <time>2010-05-02T07:03:45Z</time>
      </trkpt>
      <trkpt lat="43.52162" lon="6.69699">
        <ele>392</ele>
        <time>2010-05-02T07:03:47Z</time>
      </trkpt>
      <trkpt lat="43.52156" lon="6.69703">
        <ele>393</ele>
        <time>2010-05-02T07:03:49Z</time>
      </trkpt>
      <trkpt lat="43.5215" lon="6.69709">
        <ele>393</ele>
        <time>2010-05-02T07:03:51Z</time>
      </trkpt>
      <trkpt lat="43.52145" lon="6.69714">
        <ele>393</ele>
        <time>2010-05-02T07:03:53Z</time>
      </trkpt>
      <trkpt lat="43.52135" lon="6.69722">
        <ele>394</ele>
        <time>2010-05-02T07:03:57Z</time>
      </trkpt>
      <trkpt lat="43.5213" lon="6.69726">
        <ele>395</ele>
        <time>2010-05-02T07:03:59Z</time>
      </trkpt>
      <trkpt lat="43.52126" lon="6.69728">
        <ele>395</ele>
        <time>2010-05-02T07:04:01Z</time>
      </trkpt>
      <trkpt lat="43.5212" lon="6.6973">
        <ele>395</ele>
        <time>2010-05-02T07:04:03Z</time>
      </trkpt>
      <trkpt lat="43.52113" lon="6.69733">
        <ele>396</ele>
        <time>2010-05-02T07:04:06Z</time>
      </trkpt>
      <trkpt lat="43.52104" lon="6.69735">
        <ele>397</ele>
        <time>2010-05-02T07:04:10Z</time>
      </trkpt>
      <trkpt lat="43.52099" lon="6.69737">
        <ele>397</ele>
        <time>2010-05-02T07:04:12Z</time>
      </trkpt>
      <trkpt lat="43.52094" lon="6.6974">
        <ele>399</ele>
        <time>2010-05-02T07:04:14Z</time>
      </trkpt>
      <trkpt lat="43.52088" lon="6.69742">
        <ele>400</ele>
        <time>2010-05-02T07:04:17Z</time>
      </trkpt>
      <trkpt lat="43.52083" lon="6.69744">
        <ele>400</ele>
        <time>2010-05-02T07:04:19Z</time>
      </trkpt>
      <trkpt lat="43.52072" lon="6.69744">
        <ele>400</ele>
        <time>2010-05-02T07:04:23Z</time>
      </trkpt>
      <trkpt lat="43.52067" lon="6.69744">
        <ele>400</ele>
        <time>2010-05-02T07:04:26Z</time>
      </trkpt>
      <trkpt lat="43.52061" lon="6.69743">
        <ele>400</ele>
        <time>2010-05-02T07:04:28Z</time>
      </trkpt>
      <trkpt lat="43.52056" lon="6.69741">
        <ele>399</ele>
        <time>2010-05-02T07:04:30Z</time>
      </trkpt>
      <trkpt lat="43.5205" lon="6.69739">
        <ele>399</ele>
        <time>2010-05-02T07:04:33Z</time>
      </trkpt>
      <trkpt lat="43.52045" lon="6.69737">
        <ele>399</ele>
        <time>2010-05-02T07:04:37Z</time>
      </trkpt>
      <trkpt lat="43.5204" lon="6.69738">
        <ele>398</ele>
        <time>2010-05-02T07:04:44Z</time>
      </trkpt>
      <trkpt lat="43.52039" lon="6.69739">
        <ele>398</ele>
        <time>2010-05-02T07:04:46Z</time>
      </trkpt>
      <trkpt lat="43.52037" lon="6.69736">
        <ele>398</ele>
        <time>2010-05-02T07:06:20Z</time>
      </trkpt>
      <trkpt lat="43.52024" lon="6.69738">
        <ele>400</ele>
        <time>2010-05-02T07:06:23Z</time>
      </trkpt>
      <trkpt lat="43.52017" lon="6.69738">
        <ele>400</ele>
        <time>2010-05-02T07:06:25Z</time>
      </trkpt>
      <trkpt lat="43.52012" lon="6.69738">
        <ele>400</ele>
        <time>2010-05-02T07:06:26Z</time>
      </trkpt>
      <trkpt lat="43.52006" lon="6.69738">
        <ele>400</ele>
        <time>2010-05-02T07:06:27Z</time>
      </trkpt>
      <trkpt lat="43.52001" lon="6.69738">
        <ele>400</ele>
        <time>2010-05-02T07:06:28Z</time>
      </trkpt>
      <trkpt lat="43.51995" lon="6.69738">
        <ele>400</ele>
        <time>2010-05-02T07:06:29Z</time>
      </trkpt>
      <trkpt lat="43.51989" lon="6.69738">
        <ele>400</ele>
        <time>2010-05-02T07:06:30Z</time>
      </trkpt>
      <trkpt lat="43.51983" lon="6.69737">
        <ele>400</ele>
        <time>2010-05-02T07:06:31Z</time>
      </trkpt>
      <trkpt lat="43.51976" lon="6.69735">
        <ele>400</ele>
        <time>2010-05-02T07:06:32Z</time>
      </trkpt>
      <trkpt lat="43.5197" lon="6.69735">
        <ele>400</ele>
        <time>2010-05-02T07:06:33Z</time>
      </trkpt>
      <trkpt lat="43.5195" lon="6.69736">
        <ele>400</ele>
        <time>2010-05-02T07:06:36Z</time>
      </trkpt>
      <trkpt lat="43.51942" lon="6.69735">
        <ele>399</ele>
        <time>2010-05-02T07:06:37Z</time>
      </trkpt>
      <trkpt lat="43.51934" lon="6.69733">
        <ele>399</ele>
        <time>2010-05-02T07:06:38Z</time>
      </trkpt>
      <trkpt lat="43.51925" lon="6.6973">
        <ele>399</ele>
        <time>2010-05-02T07:06:39Z</time>
      </trkpt>
      <trkpt lat="43.51917" lon="6.69726">
        <ele>399</ele>
        <time>2010-05-02T07:06:40Z</time>
      </trkpt>
      <trkpt lat="43.51908" lon="6.69722">
        <ele>398</ele>
        <time>2010-05-02T07:06:41Z</time>
      </trkpt>
      <trkpt lat="43.51899" lon="6.69717">
        <ele>398</ele>
        <time>2010-05-02T07:06:42Z</time>
      </trkpt>
      <trkpt lat="43.51891" lon="6.69712">
        <ele>397</ele>
        <time>2010-05-02T07:06:43Z</time>
      </trkpt>
      <trkpt lat="43.51883" lon="6.69708">
        <ele>397</ele>
        <time>2010-05-02T07:06:44Z</time>
      </trkpt>
      <trkpt lat="43.51873" lon="6.69704">
        <ele>397</ele>
        <time>2010-05-02T07:06:45Z</time>
      </trkpt>
      <trkpt lat="43.51865" lon="6.69699">
        <ele>396</ele>
        <time>2010-05-02T07:06:46Z</time>
      </trkpt>
      <trkpt lat="43.51855" lon="6.69695">
        <ele>396</ele>
        <time>2010-05-02T07:06:47Z</time>
      </trkpt>
      <trkpt lat="43.51846" lon="6.69691">
        <ele>395</ele>
        <time>2010-05-02T07:06:48Z</time>
      </trkpt>
      <trkpt lat="43.51836" lon="6.69686">
        <ele>395</ele>
        <time>2010-05-02T07:06:49Z</time>
      </trkpt>
      <trkpt lat="43.51827" lon="6.69684">
        <ele>395</ele>
        <time>2010-05-02T07:06:50Z</time>
      </trkpt>
      <trkpt lat="43.5182" lon="6.69681">
        <ele>394</ele>
        <time>2010-05-02T07:06:51Z</time>
      </trkpt>
      <trkpt lat="43.51813" lon="6.69679">
        <ele>394</ele>
        <time>2010-05-02T07:06:52Z</time>
      </trkpt>
      <trkpt lat="43.51808" lon="6.69678">
        <ele>393</ele>
        <time>2010-05-02T07:06:53Z</time>
      </trkpt>
      <trkpt lat="43.518" lon="6.69675">
        <ele>393</ele>
        <time>2010-05-02T07:06:55Z</time>
      </trkpt>
      <trkpt lat="43.51797" lon="6.69669">
        <ele>392</ele>
        <time>2010-05-02T07:06:58Z</time>
      </trkpt>
      <trkpt lat="43.51802" lon="6.69667">
        <ele>391</ele>
        <time>2010-05-02T07:07:01Z</time>
      </trkpt>
      <trkpt lat="43.51809" lon="6.69669">
        <ele>390</ele>
        <time>2010-05-02T07:07:04Z</time>
      </trkpt>
      <trkpt lat="43.51815" lon="6.69671">
        <ele>389</ele>
        <time>2010-05-02T07:07:06Z</time>
      </trkpt>
      <trkpt lat="43.5182" lon="6.69672">
        <ele>389</ele>
        <time>2010-05-02T07:07:08Z</time>
      </trkpt>
      <trkpt lat="43.51826" lon="6.69672">
        <ele>388</ele>
        <time>2010-05-02T07:07:11Z</time>
      </trkpt>
      <trkpt lat="43.51827" lon="6.69671">
        <ele>388</ele>
        <time>2010-05-02T07:07:12Z</time>
      </trkpt>
      <trkpt lat="43.5183" lon="6.69676">
        <ele>385</ele>
        <time>2010-05-02T07:07:20Z</time>
      </trkpt>
      <trkpt lat="43.5183" lon="6.69676">
        <ele>384</ele>
        <time>2010-05-02T07:07:21Z</time>
      </trkpt>
      <trkpt lat="43.51827" lon="6.69671">
        <ele>383</ele>
        <time>2010-05-02T07:07:28Z</time>
      </trkpt>
      <trkpt lat="43.51818" lon="6.69663">
        <ele>383</ele>
        <time>2010-05-02T07:07:29Z</time>
      </trkpt>
      <trkpt lat="43.51811" lon="6.69655">
        <ele>382</ele>
        <time>2010-05-02T07:07:31Z</time>
      </trkpt>
      <trkpt lat="43.51805" lon="6.6965">
        <ele>381</ele>
        <time>2010-05-02T07:07:33Z</time>
      </trkpt>
      <trkpt lat="43.51789" lon="6.69646">
        <ele>379</ele>
        <time>2010-05-02T07:07:37Z</time>
      </trkpt>
      <trkpt lat="43.51781" lon="6.69646">
        <ele>379</ele>
        <time>2010-05-02T07:07:39Z</time>
      </trkpt>
      <trkpt lat="43.51776" lon="6.69645">
        <ele>379</ele>
        <time>2010-05-02T07:07:40Z</time>
      </trkpt>
      <trkpt lat="43.5177" lon="6.69643">
        <ele>378</ele>
        <time>2010-05-02T07:07:41Z</time>
      </trkpt>
      <trkpt lat="43.51766" lon="6.69641">
        <ele>377</ele>
        <time>2010-05-02T07:07:42Z</time>
      </trkpt>
      <trkpt lat="43.51759" lon="6.69638">
        <ele>376</ele>
        <time>2010-05-02T07:07:44Z</time>
      </trkpt>
      <trkpt lat="43.51754" lon="6.69635">
        <ele>375</ele>
        <time>2010-05-02T07:07:46Z</time>
      </trkpt>
      <trkpt lat="43.51748" lon="6.69632">
        <ele>374</ele>
        <time>2010-05-02T07:07:49Z</time>
      </trkpt>
      <trkpt lat="43.51744" lon="6.69629">
        <ele>373</ele>
        <time>2010-05-02T07:07:52Z</time>
      </trkpt>
      <trkpt lat="43.51739" lon="6.69629">
        <ele>372</ele>
        <time>2010-05-02T07:07:57Z</time>
      </trkpt>
      <trkpt lat="43.51739" lon="6.6963">
        <ele>372</ele>
        <time>2010-05-02T07:07:58Z</time>
      </trkpt>
      <trkpt lat="43.51739" lon="6.69636">
        <ele>371</ele>
        <time>2010-05-02T07:08:13Z</time>
      </trkpt>
      <trkpt lat="43.51738" lon="6.69637">
        <ele>372</ele>
        <time>2010-05-02T07:08:14Z</time>
      </trkpt>
      <trkpt lat="43.51738" lon="6.69637">
        <ele>372</ele>
        <time>2010-05-02T07:08:14Z</time>
      </trkpt>
      <trkpt lat="43.51736" lon="6.69635">
        <ele>368</ele>
        <time>2010-05-02T07:09:03Z</time>
      </trkpt>
      <trkpt lat="43.51729" lon="6.69642">
        <ele>367</ele>
        <time>2010-05-02T07:09:04Z</time>
      </trkpt>
      <trkpt lat="43.51723" lon="6.69647">
        <ele>367</ele>
        <time>2010-05-02T07:09:06Z</time>
      </trkpt>
      <trkpt lat="43.51709" lon="6.69655">
        <ele>366</ele>
        <time>2010-05-02T07:09:10Z</time>
      </trkpt>
      <trkpt lat="43.51704" lon="6.69656">
        <ele>366</ele>
        <time>2010-05-02T07:09:13Z</time>
      </trkpt>
      <trkpt lat="43.51699" lon="6.69655">
        <ele>365</ele>
        <time>2010-05-02T07:09:20Z</time>
      </trkpt>
      <trkpt lat="43.51696" lon="6.69655">
        <ele>364</ele>
        <time>2010-05-02T07:09:26Z</time>
      </trkpt>
      <trkpt lat="43.51692" lon="6.69657">
        <ele>361</ele>
        <time>2010-05-02T07:09:50Z</time>
      </trkpt>
      <trkpt lat="43.51691" lon="6.69657">
        <ele>360</ele>
        <time>2010-05-02T07:09:51Z</time>
      </trkpt>
      <trkpt lat="43.51691" lon="6.69657">
        <ele>360</ele>
        <time>2010-05-02T07:09:52Z</time>
      </trkpt>
      <trkpt lat="43.51689" lon="6.69659">
        <ele>360</ele>
        <time>2010-05-02T07:15:03Z</time>
      </trkpt>
      <trkpt lat="43.51681" lon="6.69661">
        <ele>360</ele>
        <time>2010-05-02T07:15:04Z</time>
      </trkpt>
      <trkpt lat="43.51674" lon="6.69662">
        <ele>360</ele>
        <time>2010-05-02T07:15:07Z</time>
      </trkpt>
      <trkpt lat="43.51665" lon="6.69664">
        <ele>361</ele>
        <time>2010-05-02T07:15:10Z</time>
      </trkpt>
      <trkpt lat="43.51657" lon="6.69667">
        <ele>361</ele>
        <time>2010-05-02T07:15:12Z</time>
      </trkpt>
      <trkpt lat="43.5165" lon="6.69668">
        <ele>361</ele>
        <time>2010-05-02T07:15:14Z</time>
      </trkpt>
      <trkpt lat="43.51644" lon="6.6967">
        <ele>361</ele>
        <time>2010-05-02T07:15:16Z</time>
      </trkpt>
      <trkpt lat="43.51638" lon="6.69671">
        <ele>360</ele>
        <time>2010-05-02T07:15:18Z</time>
      </trkpt>
      <trkpt lat="43.51632" lon="6.69672">
        <ele>360</ele>
        <time>2010-05-02T07:15:20Z</time>
      </trkpt>
      <trkpt lat="43.51626" lon="6.69681">
        <ele>357</ele>
        <time>2010-05-02T07:15:23Z</time>
      </trkpt>
      <trkpt lat="43.51622" lon="6.69686">
        <ele>355</ele>
        <time>2010-05-02T07:15:25Z</time>
      </trkpt>
      <trkpt lat="43.51619" lon="6.69692">
        <ele>353</ele>
        <time>2010-05-02T07:15:27Z</time>
      </trkpt>
      <trkpt lat="43.51615" lon="6.697">
        <ele>352</ele>
        <time>2010-05-02T07:15:30Z</time>
      </trkpt>
      <trkpt lat="43.51613" lon="6.69708">
        <ele>351</ele>
        <time>2010-05-02T07:15:33Z</time>
      </trkpt>
      <trkpt lat="43.5161" lon="6.69721">
        <ele>348</ele>
        <time>2010-05-02T07:15:36Z</time>
      </trkpt>
      <trkpt lat="43.51609" lon="6.6973">
        <ele>347</ele>
        <time>2010-05-02T07:15:38Z</time>
      </trkpt>
      <trkpt lat="43.51609" lon="6.69739">
        <ele>346</ele>
        <time>2010-05-02T07:15:40Z</time>
      </trkpt>
      <trkpt lat="43.51608" lon="6.69748">
        <ele>345</ele>
        <time>2010-05-02T07:15:42Z</time>
      </trkpt>
      <trkpt lat="43.51607" lon="6.69757">
        <ele>343</ele>
        <time>2010-05-02T07:15:44Z</time>
      </trkpt>
      <trkpt lat="43.51608" lon="6.69765">
        <ele>343</ele>
        <time>2010-05-02T07:15:46Z</time>
      </trkpt>
      <trkpt lat="43.51608" lon="6.69772">
        <ele>342</ele>
        <time>2010-05-02T07:15:48Z</time>
      </trkpt>
      <trkpt lat="43.51608" lon="6.69781">
        <ele>342</ele>
        <time>2010-05-02T07:15:50Z</time>
      </trkpt>
      <trkpt lat="43.51607" lon="6.69792">
        <ele>341</ele>
        <time>2010-05-02T07:15:52Z</time>
      </trkpt>
      <trkpt lat="43.51607" lon="6.69801">
        <ele>340</ele>
        <time>2010-05-02T07:15:54Z</time>
      </trkpt>
      <trkpt lat="43.51607" lon="6.69816">
        <ele>339</ele>
        <time>2010-05-02T07:15:57Z</time>
      </trkpt>
      <trkpt lat="43.51609" lon="6.69825">
        <ele>339</ele>
        <time>2010-05-02T07:15:59Z</time>
      </trkpt>
      <trkpt lat="43.51613" lon="6.69832">
        <ele>339</ele>
        <time>2010-05-02T07:16:01Z</time>
      </trkpt>
      <trkpt lat="43.51618" lon="6.69837">
        <ele>339</ele>
        <time>2010-05-02T07:16:03Z</time>
      </trkpt>
      <trkpt lat="43.51624" lon="6.69843">
        <ele>340</ele>
        <time>2010-05-02T07:16:05Z</time>
      </trkpt>
      <trkpt lat="43.5163" lon="6.69848">
        <ele>340</ele>
        <time>2010-05-02T07:16:07Z</time>
      </trkpt>
      <trkpt lat="43.51637" lon="6.69855">
        <ele>340</ele>
        <time>2010-05-02T07:16:10Z</time>
      </trkpt>
      <trkpt lat="43.51642" lon="6.69859">
        <ele>341</ele>
        <time>2010-05-02T07:16:12Z</time>
      </trkpt>
      <trkpt lat="43.51646" lon="6.69862">
        <ele>341</ele>
        <time>2010-05-02T07:16:14Z</time>
      </trkpt>
      <trkpt lat="43.51651" lon="6.69866">
        <ele>341</ele>
        <time>2010-05-02T07:16:16Z</time>
      </trkpt>
      <trkpt lat="43.51656" lon="6.6987">
        <ele>342</ele>
        <time>2010-05-02T07:16:18Z</time>
      </trkpt>
      <trkpt lat="43.5166" lon="6.69874">
        <ele>342</ele>
        <time>2010-05-02T07:16:20Z</time>
      </trkpt>
      <trkpt lat="43.51665" lon="6.69883">
        <ele>343</ele>
        <time>2010-05-02T07:16:23Z</time>
      </trkpt>
      <trkpt lat="43.51668" lon="6.69888">
        <ele>344</ele>
        <time>2010-05-02T07:16:25Z</time>
      </trkpt>
      <trkpt lat="43.51671" lon="6.69896">
        <ele>344</ele>
        <time>2010-05-02T07:16:27Z</time>
      </trkpt>
      <trkpt lat="43.51672" lon="6.69903">
        <ele>344</ele>
        <time>2010-05-02T07:16:29Z</time>
      </trkpt>
      <trkpt lat="43.51675" lon="6.69912">
        <ele>344</ele>
        <time>2010-05-02T07:16:31Z</time>
      </trkpt>
      <trkpt lat="43.51676" lon="6.69924">
        <ele>343</ele>
        <time>2010-05-02T07:16:33Z</time>
      </trkpt>
      <trkpt lat="43.51675" lon="6.69937">
        <ele>342</ele>
        <time>2010-05-02T07:16:36Z</time>
      </trkpt>
      <trkpt lat="43.51675" lon="6.69946">
        <ele>342</ele>
        <time>2010-05-02T07:16:38Z</time>
      </trkpt>
      <trkpt lat="43.51675" lon="6.69952">
        <ele>343</ele>
        <time>2010-05-02T07:16:40Z</time>
      </trkpt>
      <trkpt lat="43.51677" lon="6.69961">
        <ele>343</ele>
        <time>2010-05-02T07:16:43Z</time>
      </trkpt>
      <trkpt lat="43.51677" lon="6.69971">
        <ele>343</ele>
        <time>2010-05-02T07:16:46Z</time>
      </trkpt>
      <trkpt lat="43.51674" lon="6.69978">
        <ele>344</ele>
        <time>2010-05-02T07:16:48Z</time>
      </trkpt>
      <trkpt lat="43.51672" lon="6.69985">
        <ele>345</ele>
        <time>2010-05-02T07:16:49Z</time>
      </trkpt>
      <trkpt lat="43.5167" lon="6.69992">
        <ele>346</ele>
        <time>2010-05-02T07:16:50Z</time>
      </trkpt>
      <trkpt lat="43.51668" lon="6.69998">
        <ele>346</ele>
        <time>2010-05-02T07:16:51Z</time>
      </trkpt>
      <trkpt lat="43.51665" lon="6.70006">
        <ele>346</ele>
        <time>2010-05-02T07:16:53Z</time>
      </trkpt>
      <trkpt lat="43.51664" lon="6.70013">
        <ele>346</ele>
        <time>2010-05-02T07:16:54Z</time>
      </trkpt>
      <trkpt lat="43.51658" lon="6.70025">
        <ele>347</ele>
        <time>2010-05-02T07:16:57Z</time>
      </trkpt>
      <trkpt lat="43.51656" lon="6.70032">
        <ele>347</ele>
        <time>2010-05-02T07:16:59Z</time>
      </trkpt>
      <trkpt lat="43.51653" lon="6.7004">
        <ele>347</ele>
        <time>2010-05-02T07:17:01Z</time>
      </trkpt>
      <trkpt lat="43.51649" lon="6.70045">
        <ele>347</ele>
        <time>2010-05-02T07:17:03Z</time>
      </trkpt>
      <trkpt lat="43.51644" lon="6.70052">
        <ele>346</ele>
        <time>2010-05-02T07:17:06Z</time>
      </trkpt>
      <trkpt lat="43.51637" lon="6.70061">
        <ele>347</ele>
        <time>2010-05-02T07:17:10Z</time>
      </trkpt>
      <trkpt lat="43.51634" lon="6.70067">
        <ele>347</ele>
        <time>2010-05-02T07:17:12Z</time>
      </trkpt>
      <trkpt lat="43.5163" lon="6.70073">
        <ele>348</ele>
        <time>2010-05-02T07:17:14Z</time>
      </trkpt>
      <trkpt lat="43.51624" lon="6.70079">
        <ele>348</ele>
        <time>2010-05-02T07:17:16Z</time>
      </trkpt>
      <trkpt lat="43.5162" lon="6.70085">
        <ele>349</ele>
        <time>2010-05-02T07:17:18Z</time>
      </trkpt>
      <trkpt lat="43.51612" lon="6.70091">
        <ele>349</ele>
        <time>2010-05-02T07:17:20Z</time>
      </trkpt>
      <trkpt lat="43.51599" lon="6.70097">
        <ele>349</ele>
        <time>2010-05-02T07:17:23Z</time>
      </trkpt>
      <trkpt lat="43.51595" lon="6.701">
        <ele>349</ele>
        <time>2010-05-02T07:17:24Z</time>
      </trkpt>
      <trkpt lat="43.5159" lon="6.70104">
        <ele>348</ele>
        <time>2010-05-02T07:17:25Z</time>
      </trkpt>
      <trkpt lat="43.51585" lon="6.70108">
        <ele>348</ele>
        <time>2010-05-02T07:17:26Z</time>
      </trkpt>
      <trkpt lat="43.51579" lon="6.70112">
        <ele>348</ele>
        <time>2010-05-02T07:17:27Z</time>
      </trkpt>
      <trkpt lat="43.51575" lon="6.70118">
        <ele>348</ele>
        <time>2010-05-02T07:17:28Z</time>
      </trkpt>
      <trkpt lat="43.51571" lon="6.70124">
        <ele>346</ele>
        <time>2010-05-02T07:17:29Z</time>
      </trkpt>
      <trkpt lat="43.51564" lon="6.70128">
        <ele>343</ele>
        <time>2010-05-02T07:17:30Z</time>
      </trkpt>
      <trkpt lat="43.5156" lon="6.70133">
        <ele>342</ele>
        <time>2010-05-02T07:17:31Z</time>
      </trkpt>
      <trkpt lat="43.51558" lon="6.70141">
        <ele>342</ele>
        <time>2010-05-02T07:17:33Z</time>
      </trkpt>
      <trkpt lat="43.5156" lon="6.70152">
        <ele>341</ele>
        <time>2010-05-02T07:17:36Z</time>
      </trkpt>
      <trkpt lat="43.51562" lon="6.70158">
        <ele>342</ele>
        <time>2010-05-02T07:17:38Z</time>
      </trkpt>
      <trkpt lat="43.51565" lon="6.70163">
        <ele>342</ele>
        <time>2010-05-02T07:17:40Z</time>
      </trkpt>
      <trkpt lat="43.51569" lon="6.70168">
        <ele>342</ele>
        <time>2010-05-02T07:17:42Z</time>
      </trkpt>
      <trkpt lat="43.51572" lon="6.70173">
        <ele>343</ele>
        <time>2010-05-02T07:17:44Z</time>
      </trkpt>
      <trkpt lat="43.51576" lon="6.70179">
        <ele>343</ele>
        <time>2010-05-02T07:17:46Z</time>
      </trkpt>
      <trkpt lat="43.51581" lon="6.70186">
        <ele>343</ele>
        <time>2010-05-02T07:17:48Z</time>
      </trkpt>
      <trkpt lat="43.51586" lon="6.70192">
        <ele>343</ele>
        <time>2010-05-02T07:17:50Z</time>
      </trkpt>
      <trkpt lat="43.51593" lon="6.70198">
        <ele>344</ele>
        <time>2010-05-02T07:17:52Z</time>
      </trkpt>
      <trkpt lat="43.51599" lon="6.70204">
        <ele>345</ele>
        <time>2010-05-02T07:17:54Z</time>
      </trkpt>
      <trkpt lat="43.51608" lon="6.70214">
        <ele>346</ele>
        <time>2010-05-02T07:17:57Z</time>
      </trkpt>
      <trkpt lat="43.51612" lon="6.70218">
        <ele>346</ele>
        <time>2010-05-02T07:17:58Z</time>
      </trkpt>
      <trkpt lat="43.51618" lon="6.70222">
        <ele>347</ele>
        <time>2010-05-02T07:18:00Z</time>
      </trkpt>
      <trkpt lat="43.51622" lon="6.70227">
        <ele>348</ele>
        <time>2010-05-02T07:18:01Z</time>
      </trkpt>
      <trkpt lat="43.5163" lon="6.70233">
        <ele>349</ele>
        <time>2010-05-02T07:18:03Z</time>
      </trkpt>
      <trkpt lat="43.51633" lon="6.70238">
        <ele>350</ele>
        <time>2010-05-02T07:18:04Z</time>
      </trkpt>
      <trkpt lat="43.51634" lon="6.70244">
        <ele>351</ele>
        <time>2010-05-02T07:18:06Z</time>
      </trkpt>
      <trkpt lat="43.51634" lon="6.7026">
        <ele>352</ele>
        <time>2010-05-02T07:18:10Z</time>
      </trkpt>
      <trkpt lat="43.51633" lon="6.7027">
        <ele>353</ele>
        <time>2010-05-02T07:18:12Z</time>
      </trkpt>
      <trkpt lat="43.51631" lon="6.70283">
        <ele>354</ele>
        <time>2010-05-02T07:18:14Z</time>
      </trkpt>
      <trkpt lat="43.51627" lon="6.70292">
        <ele>354</ele>
        <time>2010-05-02T07:18:16Z</time>
      </trkpt>
      <trkpt lat="43.51626" lon="6.70299">
        <ele>354</ele>
        <time>2010-05-02T07:18:17Z</time>
      </trkpt>
      <trkpt lat="43.51624" lon="6.70305">
        <ele>354</ele>
        <time>2010-05-02T07:18:18Z</time>
      </trkpt>
      <trkpt lat="43.51618" lon="6.70316">
        <ele>355</ele>
        <time>2010-05-02T07:18:20Z</time>
      </trkpt>
      <trkpt lat="43.51609" lon="6.70336">
        <ele>355</ele>
        <time>2010-05-02T07:18:23Z</time>
      </trkpt>
      <trkpt lat="43.51604" lon="6.70345">
        <ele>355</ele>
        <time>2010-05-02T07:18:25Z</time>
      </trkpt>
      <trkpt lat="43.51599" lon="6.70349">
        <ele>355</ele>
        <time>2010-05-02T07:18:26Z</time>
      </trkpt>
      <trkpt lat="43.51593" lon="6.70353">
        <ele>354</ele>
        <time>2010-05-02T07:18:27Z</time>
      </trkpt>
      <trkpt lat="43.51587" lon="6.70358">
        <ele>354</ele>
        <time>2010-05-02T07:18:28Z</time>
      </trkpt>
      <trkpt lat="43.51582" lon="6.70362">
        <ele>354</ele>
        <time>2010-05-02T07:18:29Z</time>
      </trkpt>
      <trkpt lat="43.51576" lon="6.70369">
        <ele>354</ele>
        <time>2010-05-02T07:18:30Z</time>
      </trkpt>
      <trkpt lat="43.5157" lon="6.70373">
        <ele>353</ele>
        <time>2010-05-02T07:18:31Z</time>
      </trkpt>
      <trkpt lat="43.51564" lon="6.70377">
        <ele>353</ele>
        <time>2010-05-02T07:18:32Z</time>
      </trkpt>
      <trkpt lat="43.51562" lon="6.70383">
        <ele>353</ele>
        <time>2010-05-02T07:18:33Z</time>
      </trkpt>
      <trkpt lat="43.51553" lon="6.704">
        <ele>352</ele>
        <time>2010-05-02T07:18:36Z</time>
      </trkpt>
      <trkpt lat="43.51549" lon="6.70406">
        <ele>352</ele>
        <time>2010-05-02T07:18:37Z</time>
      </trkpt>
      <trkpt lat="43.51542" lon="6.70415">
        <ele>352</ele>
        <time>2010-05-02T07:18:39Z</time>
      </trkpt>
      <trkpt lat="43.51538" lon="6.7042">
        <ele>352</ele>
        <time>2010-05-02T07:18:40Z</time>
      </trkpt>
      <trkpt lat="43.51534" lon="6.70425">
        <ele>352</ele>
        <time>2010-05-02T07:18:41Z</time>
      </trkpt>
      <trkpt lat="43.51532" lon="6.7043">
        <ele>352</ele>
        <time>2010-05-02T07:18:42Z</time>
      </trkpt>
      <trkpt lat="43.51528" lon="6.70436">
        <ele>351</ele>
        <time>2010-05-02T07:18:43Z</time>
      </trkpt>
      <trkpt lat="43.51524" lon="6.7044">
        <ele>351</ele>
        <time>2010-05-02T07:18:44Z</time>
      </trkpt>
      <trkpt lat="43.5152" lon="6.70446">
        <ele>351</ele>
        <time>2010-05-02T07:18:45Z</time>
      </trkpt>
      <trkpt lat="43.51516" lon="6.70449">
        <ele>351</ele>
        <time>2010-05-02T07:18:46Z</time>
      </trkpt>
      <trkpt lat="43.51511" lon="6.70455">
        <ele>350</ele>
        <time>2010-05-02T07:18:47Z</time>
      </trkpt>
      <trkpt lat="43.51507" lon="6.70461">
        <ele>349</ele>
        <time>2010-05-02T07:18:48Z</time>
      </trkpt>
      <trkpt lat="43.51503" lon="6.70467">
        <ele>348</ele>
        <time>2010-05-02T07:18:49Z</time>
      </trkpt>
      <trkpt lat="43.51502" lon="6.70474">
        <ele>346</ele>
        <time>2010-05-02T07:18:50Z</time>
      </trkpt>
      <trkpt lat="43.51499" lon="6.70485">
        <ele>344</ele>
        <time>2010-05-02T07:18:52Z</time>
      </trkpt>
      <trkpt lat="43.51497" lon="6.70494">
        <ele>342</ele>
        <time>2010-05-02T07:18:54Z</time>
      </trkpt>
      <trkpt lat="43.51496" lon="6.70512">
        <ele>337</ele>
        <time>2010-05-02T07:18:57Z</time>
      </trkpt>
      <trkpt lat="43.51497" lon="6.70523">
        <ele>335</ele>
        <time>2010-05-02T07:18:59Z</time>
      </trkpt>
      <trkpt lat="43.51497" lon="6.7053">
        <ele>335</ele>
        <time>2010-05-02T07:19:00Z</time>
      </trkpt>
      <trkpt lat="43.51499" lon="6.70543">
        <ele>334</ele>
        <time>2010-05-02T07:19:02Z</time>
      </trkpt>
      <trkpt lat="43.515" lon="6.70549">
        <ele>333</ele>
        <time>2010-05-02T07:19:03Z</time>
      </trkpt>
      <trkpt lat="43.51502" lon="6.70561">
        <ele>332</ele>
        <time>2010-05-02T07:19:05Z</time>
      </trkpt>
      <trkpt lat="43.51504" lon="6.70567">
        <ele>331</ele>
        <time>2010-05-02T07:19:06Z</time>
      </trkpt>
      <trkpt lat="43.51509" lon="6.70592">
        <ele>331</ele>
        <time>2010-05-02T07:19:10Z</time>
      </trkpt>
      <trkpt lat="43.5151" lon="6.70598">
        <ele>330</ele>
        <time>2010-05-02T07:19:11Z</time>
      </trkpt>
      <trkpt lat="43.51512" lon="6.70611">
        <ele>330</ele>
        <time>2010-05-02T07:19:13Z</time>
      </trkpt>
      <trkpt lat="43.51514" lon="6.70617">
        <ele>330</ele>
        <time>2010-05-02T07:19:14Z</time>
      </trkpt>
      <trkpt lat="43.51516" lon="6.70627">
        <ele>330</ele>
        <time>2010-05-02T07:19:16Z</time>
      </trkpt>
      <trkpt lat="43.51518" lon="6.70639">
        <ele>330</ele>
        <time>2010-05-02T07:19:18Z</time>
      </trkpt>
      <trkpt lat="43.51518" lon="6.70646">
        <ele>330</ele>
        <time>2010-05-02T07:19:19Z</time>
      </trkpt>
      <trkpt lat="43.51519" lon="6.70653">
        <ele>330</ele>
        <time>2010-05-02T07:19:20Z</time>
      </trkpt>
      <trkpt lat="43.51521" lon="6.70673">
        <ele>329</ele>
        <time>2010-05-02T07:19:23Z</time>
      </trkpt>
      <trkpt lat="43.51525" lon="6.70683">
        <ele>330</ele>
        <time>2010-05-02T07:19:25Z</time>
      </trkpt>
      <trkpt lat="43.51532" lon="6.70686">
        <ele>331</ele>
        <time>2010-05-02T07:19:27Z</time>
      </trkpt>
      <trkpt lat="43.5154" lon="6.70691">
        <ele>331</ele>
        <time>2010-05-02T07:19:29Z</time>
      </trkpt>
      <trkpt lat="43.51548" lon="6.70692">
        <ele>330</ele>
        <time>2010-05-02T07:19:31Z</time>
      </trkpt>
      <trkpt lat="43.51554" lon="6.70696">
        <ele>330</ele>
        <time>2010-05-02T07:19:33Z</time>
      </trkpt>
      <trkpt lat="43.51565" lon="6.70696">
        <ele>330</ele>
        <time>2010-05-02T07:19:36Z</time>
      </trkpt>
      <trkpt lat="43.5157" lon="6.70695">
        <ele>330</ele>
        <time>2010-05-02T07:19:37Z</time>
      </trkpt>
      <trkpt lat="43.51578" lon="6.70694">
        <ele>330</ele>
        <time>2010-05-02T07:19:39Z</time>
      </trkpt>
      <trkpt lat="43.51587" lon="6.70694">
        <ele>330</ele>
        <time>2010-05-02T07:19:41Z</time>
      </trkpt>
      <trkpt lat="43.51595" lon="6.70695">
        <ele>331</ele>
        <time>2010-05-02T07:19:43Z</time>
      </trkpt>
      <trkpt lat="43.516" lon="6.70701">
        <ele>332</ele>
        <time>2010-05-02T07:19:45Z</time>
      </trkpt>
      <trkpt lat="43.51602" lon="6.70708">
        <ele>332</ele>
        <time>2010-05-02T07:19:47Z</time>
      </trkpt>
      <trkpt lat="43.51604" lon="6.70718">
        <ele>332</ele>
        <time>2010-05-02T07:19:49Z</time>
      </trkpt>
      <trkpt lat="43.51606" lon="6.7073">
        <ele>332</ele>
        <time>2010-05-02T07:19:51Z</time>
      </trkpt>
      <trkpt lat="43.51607" lon="6.70737">
        <ele>332</ele>
        <time>2010-05-02T07:19:52Z</time>
      </trkpt>
      <trkpt lat="43.51608" lon="6.70743">
        <ele>332</ele>
        <time>2010-05-02T07:19:53Z</time>
      </trkpt>
      <trkpt lat="43.5161" lon="6.7075">
        <ele>331</ele>
        <time>2010-05-02T07:19:54Z</time>
      </trkpt>
      <trkpt lat="43.51615" lon="6.70772">
        <ele>331</ele>
        <time>2010-05-02T07:19:57Z</time>
      </trkpt>
      <trkpt lat="43.51617" lon="6.7078">
        <ele>331</ele>
        <time>2010-05-02T07:19:58Z</time>
      </trkpt>
      <trkpt lat="43.51619" lon="6.70787">
        <ele>331</ele>
        <time>2010-05-02T07:19:59Z</time>
      </trkpt>
      <trkpt lat="43.51621" lon="6.70794">
        <ele>333</ele>
        <time>2010-05-02T07:20:01Z</time>
      </trkpt>
      <trkpt lat="43.51625" lon="6.708">
        <ele>334</ele>
        <time>2010-05-02T07:20:03Z</time>
      </trkpt>
      <trkpt lat="43.51629" lon="6.70805">
        <ele>335</ele>
        <time>2010-05-02T07:20:05Z</time>
      </trkpt>
      <trkpt lat="43.51631" lon="6.70812">
        <ele>334</ele>
        <time>2010-05-02T07:20:10Z</time>
      </trkpt>
      <trkpt lat="43.51634" lon="6.70819">
        <ele>334</ele>
        <time>2010-05-02T07:20:16Z</time>
      </trkpt>
      <trkpt lat="43.51637" lon="6.70825">
        <ele>336</ele>
        <time>2010-05-02T07:20:19Z</time>
      </trkpt>
      <trkpt lat="43.51642" lon="6.70835">
        <ele>337</ele>
        <time>2010-05-02T07:20:23Z</time>
      </trkpt>
      <trkpt lat="43.51643" lon="6.70842">
        <ele>338</ele>
        <time>2010-05-02T07:20:25Z</time>
      </trkpt>
      <trkpt lat="43.51645" lon="6.70848">
        <ele>338</ele>
        <time>2010-05-02T07:20:27Z</time>
      </trkpt>
      <trkpt lat="43.51648" lon="6.70856">
        <ele>339</ele>
        <time>2010-05-02T07:20:29Z</time>
      </trkpt>
      <trkpt lat="43.51651" lon="6.70863">
        <ele>340</ele>
        <time>2010-05-02T07:20:31Z</time>
      </trkpt>
      <trkpt lat="43.51653" lon="6.70869">
        <ele>340</ele>
        <time>2010-05-02T07:20:33Z</time>
      </trkpt>
      <trkpt lat="43.51657" lon="6.70877">
        <ele>340</ele>
        <time>2010-05-02T07:20:36Z</time>
      </trkpt>
      <trkpt lat="43.51661" lon="6.70886">
        <ele>341</ele>
        <time>2010-05-02T07:20:39Z</time>
      </trkpt>
      <trkpt lat="43.51665" lon="6.70895">
        <ele>341</ele>
        <time>2010-05-02T07:20:41Z</time>
      </trkpt>
      <trkpt lat="43.51667" lon="6.70901">
        <ele>342</ele>
        <time>2010-05-02T07:20:43Z</time>
      </trkpt>
      <trkpt lat="43.51672" lon="6.70908">
        <ele>343</ele>
        <time>2010-05-02T07:20:45Z</time>
      </trkpt>
      <trkpt lat="43.51677" lon="6.70915">
        <ele>344</ele>
        <time>2010-05-02T07:20:47Z</time>
      </trkpt>
      <trkpt lat="43.51682" lon="6.70923">
        <ele>345</ele>
        <time>2010-05-02T07:20:49Z</time>
      </trkpt>
      <trkpt lat="43.51689" lon="6.70931">
        <ele>346</ele>
        <time>2010-05-02T07:20:51Z</time>
      </trkpt>
      <trkpt lat="43.51694" lon="6.70937">
        <ele>343</ele>
        <time>2010-05-02T07:20:52Z</time>
      </trkpt>
      <trkpt lat="43.51699" lon="6.70942">
        <ele>341</ele>
        <time>2010-05-02T07:20:53Z</time>
      </trkpt>
      <trkpt lat="43.51715" lon="6.70944">
        <ele>339</ele>
        <time>2010-05-02T07:20:57Z</time>
      </trkpt>
      <trkpt lat="43.51722" lon="6.70943">
        <ele>337</ele>
        <time>2010-05-02T07:20:59Z</time>
      </trkpt>
      <trkpt lat="43.5173" lon="6.70941">
        <ele>337</ele>
        <time>2010-05-02T07:21:01Z</time>
      </trkpt>
      <trkpt lat="43.51738" lon="6.7094">
        <ele>337</ele>
        <time>2010-05-02T07:21:03Z</time>
      </trkpt>
      <trkpt lat="43.51743" lon="6.70938">
        <ele>337</ele>
        <time>2010-05-02T07:21:04Z</time>
      </trkpt>
      <trkpt lat="43.51748" lon="6.70935">
        <ele>337</ele>
        <time>2010-05-02T07:21:05Z</time>
      </trkpt>
      <trkpt lat="43.51753" lon="6.70934">
        <ele>336</ele>
        <time>2010-05-02T07:21:06Z</time>
      </trkpt>
      <trkpt lat="43.51759" lon="6.70932">
        <ele>336</ele>
        <time>2010-05-02T07:21:07Z</time>
      </trkpt>
      <trkpt lat="43.51774" lon="6.70927">
        <ele>337</ele>
        <time>2010-05-02T07:21:10Z</time>
      </trkpt>
      <trkpt lat="43.51779" lon="6.70923">
        <ele>337</ele>
        <time>2010-05-02T07:21:11Z</time>
      </trkpt>
      <trkpt lat="43.51784" lon="6.70922">
        <ele>337</ele>
        <time>2010-05-02T07:21:12Z</time>
      </trkpt>
      <trkpt lat="43.51793" lon="6.70921">
        <ele>337</ele>
        <time>2010-05-02T07:21:14Z</time>
      </trkpt>
      <trkpt lat="43.518" lon="6.70921">
        <ele>337</ele>
        <time>2010-05-02T07:21:15Z</time>
      </trkpt>
      <trkpt lat="43.51806" lon="6.70918">
        <ele>336</ele>
        <time>2010-05-02T07:21:16Z</time>
      </trkpt>
      <trkpt lat="43.51812" lon="6.70917">
        <ele>336</ele>
        <time>2010-05-02T07:21:17Z</time>
      </trkpt>
      <trkpt lat="43.5182" lon="6.70918">
        <ele>337</ele>
        <time>2010-05-02T07:21:19Z</time>
      </trkpt>
      <trkpt lat="43.51825" lon="6.70918">
        <ele>337</ele>
        <time>2010-05-02T07:21:23Z</time>
      </trkpt>
      <trkpt lat="43.51824" lon="6.70924">
        <ele>337</ele>
        <time>2010-05-02T07:21:33Z</time>
      </trkpt>
      <trkpt lat="43.51822" lon="6.70932">
        <ele>338</ele>
        <time>2010-05-02T07:21:45Z</time>
      </trkpt>
      <trkpt lat="43.51819" lon="6.70938">
        <ele>338</ele>
        <time>2010-05-02T07:21:49Z</time>
      </trkpt>
      <trkpt lat="43.51817" lon="6.70945">
        <ele>338</ele>
        <time>2010-05-02T07:21:52Z</time>
      </trkpt>
      <trkpt lat="43.51814" lon="6.70952">
        <ele>337</ele>
        <time>2010-05-02T07:21:57Z</time>
      </trkpt>
      <trkpt lat="43.51811" lon="6.70958">
        <ele>337</ele>
        <time>2010-05-02T07:22:01Z</time>
      </trkpt>
      <trkpt lat="43.51808" lon="6.70966">
        <ele>337</ele>
        <time>2010-05-02T07:22:05Z</time>
      </trkpt>
      <trkpt lat="43.51806" lon="6.70972">
        <ele>337</ele>
        <time>2010-05-02T07:22:07Z</time>
      </trkpt>
      <trkpt lat="43.51806" lon="6.7098">
        <ele>337</ele>
        <time>2010-05-02T07:22:10Z</time>
      </trkpt>
      <trkpt lat="43.51806" lon="6.70986">
        <ele>336</ele>
        <time>2010-05-02T07:22:15Z</time>
      </trkpt>
      <trkpt lat="43.51806" lon="6.70988">
        <ele>336</ele>
        <time>2010-05-02T07:22:18Z</time>
      </trkpt>
      <trkpt lat="43.51805" lon="6.70993">
        <ele>336</ele>
        <time>2010-05-02T07:22:25Z</time>
      </trkpt>
      <trkpt lat="43.51805" lon="6.70995">
        <ele>335</ele>
        <time>2010-05-02T07:22:26Z</time>
      </trkpt>
      <trkpt lat="43.51805" lon="6.71002">
        <ele>333</ele>
        <time>2010-05-02T07:22:32Z</time>
      </trkpt>
      <trkpt lat="43.51804" lon="6.7101">
        <ele>332</ele>
        <time>2010-05-02T07:22:38Z</time>
      </trkpt>
      <trkpt lat="43.51803" lon="6.71018">
        <ele>331</ele>
        <time>2010-05-02T07:22:42Z</time>
      </trkpt>
      <trkpt lat="43.51803" lon="6.71029">
        <ele>330</ele>
        <time>2010-05-02T07:22:46Z</time>
      </trkpt>
      <trkpt lat="43.51803" lon="6.71035">
        <ele>329</ele>
        <time>2010-05-02T07:22:48Z</time>
      </trkpt>
      <trkpt lat="43.51802" lon="6.71043">
        <ele>330</ele>
        <time>2010-05-02T07:22:51Z</time>
      </trkpt>
      <trkpt lat="43.51802" lon="6.71052">
        <ele>331</ele>
        <time>2010-05-02T07:22:54Z</time>
      </trkpt>
      <trkpt lat="43.51803" lon="6.71061">
        <ele>332</ele>
        <time>2010-05-02T07:22:56Z</time>
      </trkpt>
      <trkpt lat="43.51802" lon="6.71074">
        <ele>333</ele>
        <time>2010-05-02T07:22:59Z</time>
      </trkpt>
      <trkpt lat="43.51805" lon="6.71085">
        <ele>333</ele>
        <time>2010-05-02T07:23:02Z</time>
      </trkpt>
      <trkpt lat="43.51806" lon="6.71091">
        <ele>332</ele>
        <time>2010-05-02T07:23:04Z</time>
      </trkpt>
      <trkpt lat="43.51806" lon="6.71099">
        <ele>332</ele>
        <time>2010-05-02T07:23:07Z</time>
      </trkpt>
      <trkpt lat="43.51806" lon="6.71106">
        <ele>332</ele>
        <time>2010-05-02T07:23:12Z</time>
      </trkpt>
      <trkpt lat="43.51808" lon="6.71113">
        <ele>329</ele>
        <time>2010-05-02T07:23:15Z</time>
      </trkpt>
      <trkpt lat="43.51811" lon="6.71119">
        <ele>328</ele>
        <time>2010-05-02T07:23:20Z</time>
      </trkpt>
      <trkpt lat="43.51814" lon="6.71125">
        <ele>327</ele>
        <time>2010-05-02T07:23:26Z</time>
      </trkpt>
      <trkpt lat="43.51815" lon="6.71131">
        <ele>327</ele>
        <time>2010-05-02T07:23:30Z</time>
      </trkpt>
      <trkpt lat="43.51818" lon="6.71137">
        <ele>326</ele>
        <time>2010-05-02T07:23:34Z</time>
      </trkpt>
      <trkpt lat="43.51819" lon="6.71143">
        <ele>326</ele>
        <time>2010-05-02T07:23:38Z</time>
      </trkpt>
      <trkpt lat="43.5182" lon="6.7115">
        <ele>328</ele>
        <time>2010-05-02T07:23:44Z</time>
      </trkpt>
      <trkpt lat="43.51821" lon="6.71156">
        <ele>328</ele>
        <time>2010-05-02T07:23:48Z</time>
      </trkpt>
      <trkpt lat="43.51823" lon="6.71163">
        <ele>328</ele>
        <time>2010-05-02T07:23:52Z</time>
      </trkpt>
      <trkpt lat="43.51827" lon="6.71167">
        <ele>328</ele>
        <time>2010-05-02T07:23:59Z</time>
      </trkpt>
      <trkpt lat="43.51826" lon="6.71173">
        <ele>328</ele>
        <time>2010-05-02T07:24:04Z</time>
      </trkpt>
      <trkpt lat="43.51828" lon="6.71185">
        <ele>328</ele>
        <time>2010-05-02T07:24:10Z</time>
      </trkpt>
      <trkpt lat="43.51833" lon="6.71191">
        <ele>329</ele>
        <time>2010-05-02T07:24:13Z</time>
      </trkpt>
      <trkpt lat="43.51837" lon="6.71197">
        <ele>331</ele>
        <time>2010-05-02T07:24:16Z</time>
      </trkpt>
      <trkpt lat="43.51841" lon="6.71201">
        <ele>331</ele>
        <time>2010-05-02T07:24:18Z</time>
      </trkpt>
      <trkpt lat="43.51843" lon="6.71207">
        <ele>332</ele>
        <time>2010-05-02T07:24:20Z</time>
      </trkpt>
      <trkpt lat="43.51849" lon="6.71218">
        <ele>333</ele>
        <time>2010-05-02T07:24:23Z</time>
      </trkpt>
      <trkpt lat="43.51852" lon="6.71224">
        <ele>335</ele>
        <time>2010-05-02T07:24:25Z</time>
      </trkpt>
      <trkpt lat="43.51856" lon="6.7123">
        <ele>336</ele>
        <time>2010-05-02T07:24:27Z</time>
      </trkpt>
      <trkpt lat="43.51858" lon="6.71237">
        <ele>336</ele>
        <time>2010-05-02T07:24:29Z</time>
      </trkpt>
      <trkpt lat="43.51861" lon="6.71249">
        <ele>335</ele>
        <time>2010-05-02T07:24:31Z</time>
      </trkpt>
      <trkpt lat="43.51864" lon="6.71259">
        <ele>333</ele>
        <time>2010-05-02T07:24:33Z</time>
      </trkpt>
      <trkpt lat="43.51867" lon="6.7127">
        <ele>334</ele>
        <time>2010-05-02T07:24:36Z</time>
      </trkpt>
      <trkpt lat="43.5187" lon="6.71278">
        <ele>334</ele>
        <time>2010-05-02T07:24:38Z</time>
      </trkpt>
      <trkpt lat="43.51873" lon="6.71285">
        <ele>336</ele>
        <time>2010-05-02T07:24:41Z</time>
      </trkpt>
      <trkpt lat="43.51876" lon="6.71292">
        <ele>335</ele>
        <time>2010-05-02T07:24:43Z</time>
      </trkpt>
      <trkpt lat="43.51879" lon="6.71298">
        <ele>335</ele>
        <time>2010-05-02T07:24:45Z</time>
      </trkpt>
      <trkpt lat="43.51883" lon="6.71304">
        <ele>336</ele>
        <time>2010-05-02T07:24:48Z</time>
      </trkpt>
      <trkpt lat="43.51887" lon="6.7131">
        <ele>336</ele>
        <time>2010-05-02T07:24:51Z</time>
      </trkpt>
      <trkpt lat="43.51893" lon="6.71321">
        <ele>339</ele>
        <time>2010-05-02T07:24:57Z</time>
      </trkpt>
      <trkpt lat="43.51896" lon="6.71327">
        <ele>339</ele>
        <time>2010-05-02T07:24:59Z</time>
      </trkpt>
      <trkpt lat="43.519" lon="6.71335">
        <ele>340</ele>
        <time>2010-05-02T07:25:02Z</time>
      </trkpt>
      <trkpt lat="43.51903" lon="6.7134">
        <ele>340</ele>
        <time>2010-05-02T07:25:04Z</time>
      </trkpt>
      <trkpt lat="43.51906" lon="6.71346">
        <ele>341</ele>
        <time>2010-05-02T07:25:06Z</time>
      </trkpt>
      <trkpt lat="43.51914" lon="6.71354">
        <ele>342</ele>
        <time>2010-05-02T07:25:10Z</time>
      </trkpt>
      <trkpt lat="43.51918" lon="6.7136">
        <ele>343</ele>
        <time>2010-05-02T07:25:13Z</time>
      </trkpt>
      <trkpt lat="43.51921" lon="6.71366">
        <ele>343</ele>
        <time>2010-05-02T07:25:16Z</time>
      </trkpt>
      <trkpt lat="43.51925" lon="6.71372">
        <ele>344</ele>
        <time>2010-05-02T07:25:19Z</time>
      </trkpt>
      <trkpt lat="43.5193" lon="6.71381">
        <ele>345</ele>
        <time>2010-05-02T07:25:23Z</time>
      </trkpt>
      <trkpt lat="43.51935" lon="6.71387">
        <ele>346</ele>
        <time>2010-05-02T07:25:26Z</time>
      </trkpt>
      <trkpt lat="43.51939" lon="6.71391">
        <ele>347</ele>
        <time>2010-05-02T07:25:29Z</time>
      </trkpt>
      <trkpt lat="43.51942" lon="6.71397">
        <ele>348</ele>
        <time>2010-05-02T07:25:31Z</time>
      </trkpt>
      <trkpt lat="43.51944" lon="6.71403">
        <ele>347</ele>
        <time>2010-05-02T07:25:32Z</time>
      </trkpt>
      <trkpt lat="43.51949" lon="6.71421">
        <ele>343</ele>
        <time>2010-05-02T07:25:36Z</time>
      </trkpt>
      <trkpt lat="43.5195" lon="6.71429">
        <ele>344</ele>
        <time>2010-05-02T07:25:39Z</time>
      </trkpt>
      <trkpt lat="43.51949" lon="6.71436">
        <ele>345</ele>
        <time>2010-05-02T07:25:42Z</time>
      </trkpt>
      <trkpt lat="43.5195" lon="6.71442">
        <ele>346</ele>
        <time>2010-05-02T07:25:45Z</time>
      </trkpt>
      <trkpt lat="43.51951" lon="6.71447">
        <ele>347</ele>
        <time>2010-05-02T07:25:50Z</time>
      </trkpt>
      <trkpt lat="43.5195" lon="6.71453">
        <ele>347</ele>
        <time>2010-05-02T07:26:03Z</time>
      </trkpt>
      <trkpt lat="43.5195" lon="6.71454">
        <ele>347</ele>
        <time>2010-05-02T07:26:04Z</time>
      </trkpt>
      <trkpt lat="43.5195" lon="6.71454">
        <ele>347</ele>
        <time>2010-05-02T07:26:04Z</time>
      </trkpt>
      <trkpt lat="43.51952" lon="6.71453">
        <ele>351</ele>
        <time>2010-05-02T07:28:10Z</time>
      </trkpt>
      <trkpt lat="43.51944" lon="6.71456">
        <ele>350</ele>
        <time>2010-05-02T07:28:11Z</time>
      </trkpt>
      <trkpt lat="43.51937" lon="6.71457">
        <ele>350</ele>
        <time>2010-05-02T07:28:14Z</time>
      </trkpt>
      <trkpt lat="43.5193" lon="6.71457">
        <ele>349</ele>
        <time>2010-05-02T07:28:16Z</time>
      </trkpt>
      <trkpt lat="43.51924" lon="6.71458">
        <ele>349</ele>
        <time>2010-05-02T07:28:18Z</time>
      </trkpt>
      <trkpt lat="43.51916" lon="6.71459">
        <ele>349</ele>
        <time>2010-05-02T07:28:20Z</time>
      </trkpt>
      <trkpt lat="43.51905" lon="6.71461">
        <ele>349</ele>
        <time>2010-05-02T07:28:23Z</time>
      </trkpt>
      <trkpt lat="43.51898" lon="6.71464">
        <ele>349</ele>
        <time>2010-05-02T07:28:25Z</time>
      </trkpt>
      <trkpt lat="43.51892" lon="6.71467">
        <ele>349</ele>
        <time>2010-05-02T07:28:27Z</time>
      </trkpt>
      <trkpt lat="43.51885" lon="6.71468">
        <ele>349</ele>
        <time>2010-05-02T07:28:29Z</time>
      </trkpt>
      <trkpt lat="43.51879" lon="6.71472">
        <ele>349</ele>
        <time>2010-05-02T07:28:31Z</time>
      </trkpt>
      <trkpt lat="43.51872" lon="6.71474">
        <ele>349</ele>
        <time>2010-05-02T07:28:33Z</time>
      </trkpt>
      <trkpt lat="43.51863" lon="6.71478">
        <ele>349</ele>
        <time>2010-05-02T07:28:36Z</time>
      </trkpt>
      <trkpt lat="43.51858" lon="6.71482">
        <ele>349</ele>
        <time>2010-05-02T07:28:38Z</time>
      </trkpt>
      <trkpt lat="43.5185" lon="6.71485">
        <ele>349</ele>
        <time>2010-05-02T07:28:40Z</time>
      </trkpt>
      <trkpt lat="43.51842" lon="6.71489">
        <ele>349</ele>
        <time>2010-05-02T07:28:42Z</time>
      </trkpt>
      <trkpt lat="43.51834" lon="6.71495">
        <ele>349</ele>
        <time>2010-05-02T07:28:44Z</time>
      </trkpt>
      <trkpt lat="43.51829" lon="6.71499">
        <ele>349</ele>
        <time>2010-05-02T07:28:45Z</time>
      </trkpt>
      <trkpt lat="43.51825" lon="6.71502">
        <ele>349</ele>
        <time>2010-05-02T07:28:46Z</time>
      </trkpt>
      <trkpt lat="43.5182" lon="6.71505">
        <ele>349</ele>
        <time>2010-05-02T07:28:47Z</time>
      </trkpt>
      <trkpt lat="43.51812" lon="6.71511">
        <ele>349</ele>
        <time>2010-05-02T07:28:49Z</time>
      </trkpt>
      <trkpt lat="43.51807" lon="6.71514">
        <ele>348</ele>
        <time>2010-05-02T07:28:50Z</time>
      </trkpt>
      <trkpt lat="43.51803" lon="6.71517">
        <ele>348</ele>
        <time>2010-05-02T07:28:51Z</time>
      </trkpt>
      <trkpt lat="43.51798" lon="6.71521">
        <ele>348</ele>
        <time>2010-05-02T07:28:52Z</time>
      </trkpt>
      <trkpt lat="43.51793" lon="6.71524">
        <ele>348</ele>
        <time>2010-05-02T07:28:53Z</time>
      </trkpt>
      <trkpt lat="43.51789" lon="6.71528">
        <ele>347</ele>
        <time>2010-05-02T07:28:54Z</time>
      </trkpt>
      <trkpt lat="43.51775" lon="6.7154">
        <ele>347</ele>
        <time>2010-05-02T07:28:57Z</time>
      </trkpt>
      <trkpt lat="43.51771" lon="6.71545">
        <ele>346</ele>
        <time>2010-05-02T07:28:58Z</time>
      </trkpt>
      <trkpt lat="43.51767" lon="6.7155">
        <ele>346</ele>
        <time>2010-05-02T07:28:59Z</time>
      </trkpt>
      <trkpt lat="43.51763" lon="6.71555">
        <ele>345</ele>
        <time>2010-05-02T07:29:00Z</time>
      </trkpt>
      <trkpt lat="43.51759" lon="6.71561">
        <ele>345</ele>
        <time>2010-05-02T07:29:01Z</time>
      </trkpt>
      <trkpt lat="43.51755" lon="6.71568">
        <ele>345</ele>
        <time>2010-05-02T07:29:02Z</time>
      </trkpt>
      <trkpt lat="43.51752" lon="6.71575">
        <ele>345</ele>
        <time>2010-05-02T07:29:03Z</time>
      </trkpt>
      <trkpt lat="43.51748" lon="6.71582">
        <ele>344</ele>
        <time>2010-05-02T07:29:04Z</time>
      </trkpt>
      <trkpt lat="43.51745" lon="6.71589">
        <ele>344</ele>
        <time>2010-05-02T07:29:05Z</time>
      </trkpt>
      <trkpt lat="43.51741" lon="6.71597">
        <ele>344</ele>
        <time>2010-05-02T07:29:06Z</time>
      </trkpt>
      <trkpt lat="43.51737" lon="6.71605">
        <ele>344</ele>
        <time>2010-05-02T07:29:07Z</time>
      </trkpt>
      <trkpt lat="43.51726" lon="6.7163">
        <ele>341</ele>
        <time>2010-05-02T07:29:10Z</time>
      </trkpt>
      <trkpt lat="43.51723" lon="6.71637">
        <ele>341</ele>
        <time>2010-05-02T07:29:11Z</time>
      </trkpt>
      <trkpt lat="43.51721" lon="6.71646">
        <ele>340</ele>
        <time>2010-05-02T07:29:12Z</time>
      </trkpt>
      <trkpt lat="43.51718" lon="6.71656">
        <ele>339</ele>
        <time>2010-05-02T07:29:13Z</time>
      </trkpt>
      <trkpt lat="43.51716" lon="6.71665">
        <ele>338</ele>
        <time>2010-05-02T07:29:14Z</time>
      </trkpt>
      <trkpt lat="43.51714" lon="6.71674">
        <ele>338</ele>
        <time>2010-05-02T07:29:15Z</time>
      </trkpt>
      <trkpt lat="43.51711" lon="6.71684">
        <ele>337</ele>
        <time>2010-05-02T07:29:16Z</time>
      </trkpt>
      <trkpt lat="43.51709" lon="6.71694">
        <ele>336</ele>
        <time>2010-05-02T07:29:17Z</time>
      </trkpt>
      <trkpt lat="43.51707" lon="6.71703">
        <ele>335</ele>
        <time>2010-05-02T07:29:18Z</time>
      </trkpt>
      <trkpt lat="43.51705" lon="6.71713">
        <ele>335</ele>
        <time>2010-05-02T07:29:19Z</time>
      </trkpt>
      <trkpt lat="43.51703" lon="6.71723">
        <ele>334</ele>
        <time>2010-05-02T07:29:20Z</time>
      </trkpt>
      <trkpt lat="43.51699" lon="6.71755">
        <ele>332</ele>
        <time>2010-05-02T07:29:23Z</time>
      </trkpt>
      <trkpt lat="43.51696" lon="6.71765">
        <ele>331</ele>
        <time>2010-05-02T07:29:24Z</time>
      </trkpt>
      <trkpt lat="43.51695" lon="6.71775">
        <ele>330</ele>
        <time>2010-05-02T07:29:25Z</time>
      </trkpt>
      <trkpt lat="43.51694" lon="6.71783">
        <ele>330</ele>
        <time>2010-05-02T07:29:26Z</time>
      </trkpt>
      <trkpt lat="43.51693" lon="6.7179">
        <ele>330</ele>
        <time>2010-05-02T07:29:27Z</time>
      </trkpt>
      <trkpt lat="43.51691" lon="6.71798">
        <ele>331</ele>
        <time>2010-05-02T07:29:29Z</time>
      </trkpt>
      <trkpt lat="43.51691" lon="6.71805">
        <ele>330</ele>
        <time>2010-05-02T07:29:31Z</time>
      </trkpt>
      <trkpt lat="43.51691" lon="6.71812">
        <ele>330</ele>
        <time>2010-05-02T07:29:33Z</time>
      </trkpt>
      <trkpt lat="43.51691" lon="6.7182">
        <ele>330</ele>
        <time>2010-05-02T07:29:36Z</time>
      </trkpt>
      <trkpt lat="43.5169" lon="6.71827">
        <ele>330</ele>
        <time>2010-05-02T07:29:39Z</time>
      </trkpt>
      <trkpt lat="43.5169" lon="6.71835">
        <ele>330</ele>
        <time>2010-05-02T07:29:42Z</time>
      </trkpt>
      <trkpt lat="43.51692" lon="6.71841">
        <ele>330</ele>
        <time>2010-05-02T07:29:44Z</time>
      </trkpt>
      <trkpt lat="43.51693" lon="6.71848">
        <ele>331</ele>
        <time>2010-05-02T07:29:47Z</time>
      </trkpt>
      <trkpt lat="43.51695" lon="6.71854">
        <ele>332</ele>
        <time>2010-05-02T07:29:50Z</time>
      </trkpt>
      <trkpt lat="43.51697" lon="6.71861">
        <ele>333</ele>
        <time>2010-05-02T07:29:53Z</time>
      </trkpt>
      <trkpt lat="43.51695" lon="6.71871">
        <ele>334</ele>
        <time>2010-05-02T07:29:57Z</time>
      </trkpt>
      <trkpt lat="43.51693" lon="6.71878">
        <ele>334</ele>
        <time>2010-05-02T07:30:00Z</time>
      </trkpt>
      <trkpt lat="43.51691" lon="6.71885">
        <ele>333</ele>
        <time>2010-05-02T07:30:03Z</time>
      </trkpt>
      <trkpt lat="43.51688" lon="6.71892">
        <ele>333</ele>
        <time>2010-05-02T07:30:06Z</time>
      </trkpt>
      <trkpt lat="43.51686" lon="6.71898">
        <ele>334</ele>
        <time>2010-05-02T07:30:10Z</time>
      </trkpt>
      <trkpt lat="43.51686" lon="6.71905">
        <ele>333</ele>
        <time>2010-05-02T07:30:13Z</time>
      </trkpt>
      <trkpt lat="43.51686" lon="6.71912">
        <ele>333</ele>
        <time>2010-05-02T07:30:18Z</time>
      </trkpt>
      <trkpt lat="43.51686" lon="6.71912">
        <ele>333</ele>
        <time>2010-05-02T07:30:18Z</time>
      </trkpt>
      <trkpt lat="43.51683" lon="6.71916">
        <ele>336</ele>
        <time>2010-05-02T07:30:33Z</time>
      </trkpt>
      <trkpt lat="43.51681" lon="6.71922">
        <ele>335</ele>
        <time>2010-05-02T07:30:36Z</time>
      </trkpt>
      <trkpt lat="43.5168" lon="6.7193">
        <ele>335</ele>
        <time>2010-05-02T07:30:38Z</time>
      </trkpt>
      <trkpt lat="43.51683" lon="6.71937">
        <ele>335</ele>
        <time>2010-05-02T07:30:40Z</time>
      </trkpt>
      <trkpt lat="43.51687" lon="6.71943">
        <ele>335</ele>
        <time>2010-05-02T07:30:42Z</time>
      </trkpt>
      <trkpt lat="43.51692" lon="6.7195">
        <ele>335</ele>
        <time>2010-05-02T07:30:44Z</time>
      </trkpt>
      <trkpt lat="43.51697" lon="6.71955">
        <ele>334</ele>
        <time>2010-05-02T07:30:46Z</time>
      </trkpt>
      <trkpt lat="43.51704" lon="6.7196">
        <ele>333</ele>
        <time>2010-05-02T07:30:48Z</time>
      </trkpt>
      <trkpt lat="43.51709" lon="6.71963">
        <ele>333</ele>
        <time>2010-05-02T07:30:49Z</time>
      </trkpt>
      <trkpt lat="43.51716" lon="6.71968">
        <ele>332</ele>
        <time>2010-05-02T07:30:51Z</time>
      </trkpt>
      <trkpt lat="43.51722" lon="6.71973">
        <ele>331</ele>
        <time>2010-05-02T07:30:53Z</time>
      </trkpt>
      <trkpt lat="43.51727" lon="6.71978">
        <ele>331</ele>
        <time>2010-05-02T07:30:55Z</time>
      </trkpt>
      <trkpt lat="43.51732" lon="6.71981">
        <ele>330</ele>
        <time>2010-05-02T07:30:58Z</time>
      </trkpt>
      <trkpt lat="43.51732" lon="6.71981">
        <ele>330</ele>
        <time>2010-05-02T07:31:01Z</time>
      </trkpt>
      <trkpt lat="43.51736" lon="6.71982">
        <ele>328</ele>
        <time>2010-05-02T07:31:11Z</time>
      </trkpt>
      <trkpt lat="43.51737" lon="6.71983">
        <ele>328</ele>
        <time>2010-05-02T07:31:14Z</time>
      </trkpt>
      <trkpt lat="43.51737" lon="6.71983">
        <ele>328</ele>
        <time>2010-05-02T07:31:14Z</time>
      </trkpt>
      <trkpt lat="43.5174" lon="6.71986">
        <ele>327</ele>
        <time>2010-05-02T07:31:22Z</time>
      </trkpt>
      <trkpt lat="43.5174" lon="6.71987">
        <ele>327</ele>
        <time>2010-05-02T07:31:23Z</time>
      </trkpt>
      <trkpt lat="43.5174" lon="6.71989">
        <ele>327</ele>
        <time>2010-05-02T07:31:27Z</time>
      </trkpt>
      <trkpt lat="43.51741" lon="6.71994">
        <ele>325</ele>
        <time>2010-05-02T07:31:34Z</time>
      </trkpt>
      <trkpt lat="43.5174" lon="6.71995">
        <ele>325</ele>
        <time>2010-05-02T07:31:35Z</time>
      </trkpt>
      <trkpt lat="43.51737" lon="6.72001">
        <ele>324</ele>
        <time>2010-05-02T07:31:40Z</time>
      </trkpt>
      <trkpt lat="43.51737" lon="6.72006">
        <ele>320</ele>
        <time>2010-05-02T07:31:48Z</time>
      </trkpt>
      <trkpt lat="43.51738" lon="6.72009">
        <ele>319</ele>
        <time>2010-05-02T07:32:00Z</time>
      </trkpt>
      <trkpt lat="43.51738" lon="6.72018">
        <ele>319</ele>
        <time>2010-05-02T07:32:01Z</time>
      </trkpt>
      <trkpt lat="43.51739" lon="6.72024">
        <ele>317</ele>
        <time>2010-05-02T07:32:04Z</time>
      </trkpt>
      <trkpt lat="43.51742" lon="6.72032">
        <ele>316</ele>
        <time>2010-05-02T07:32:06Z</time>
      </trkpt>
      <trkpt lat="43.51743" lon="6.72039">
        <ele>316</ele>
        <time>2010-05-02T07:32:07Z</time>
      </trkpt>
      <trkpt lat="43.51747" lon="6.72056">
        <ele>314</ele>
        <time>2010-05-02T07:32:10Z</time>
      </trkpt>
      <trkpt lat="43.51749" lon="6.72068">
        <ele>312</ele>
        <time>2010-05-02T07:32:12Z</time>
      </trkpt>
      <trkpt lat="43.51752" lon="6.72079">
        <ele>311</ele>
        <time>2010-05-02T07:32:14Z</time>
      </trkpt>
      <trkpt lat="43.51754" lon="6.72091">
        <ele>310</ele>
        <time>2010-05-02T07:32:16Z</time>
      </trkpt>
      <trkpt lat="43.51754" lon="6.72097">
        <ele>309</ele>
        <time>2010-05-02T07:32:17Z</time>
      </trkpt>
      <trkpt lat="43.51754" lon="6.72104">
        <ele>309</ele>
        <time>2010-05-02T07:32:18Z</time>
      </trkpt>
      <trkpt lat="43.51754" lon="6.72111">
        <ele>308</ele>
        <time>2010-05-02T07:32:19Z</time>
      </trkpt>
      <trkpt lat="43.51754" lon="6.72117">
        <ele>307</ele>
        <time>2010-05-02T07:32:20Z</time>
      </trkpt>
      <trkpt lat="43.51756" lon="6.72136">
        <ele>304</ele>
        <time>2010-05-02T07:32:23Z</time>
      </trkpt>
      <trkpt lat="43.51757" lon="6.72142">
        <ele>303</ele>
        <time>2010-05-02T07:32:24Z</time>
      </trkpt>
      <trkpt lat="43.51759" lon="6.72151">
        <ele>300</ele>
        <time>2010-05-02T07:32:26Z</time>
      </trkpt>
      <trkpt lat="43.51759" lon="6.72161">
        <ele>299</ele>
        <time>2010-05-02T07:32:28Z</time>
      </trkpt>
      <trkpt lat="43.51759" lon="6.72169">
        <ele>298</ele>
        <time>2010-05-02T07:32:30Z</time>
      </trkpt>
      <trkpt lat="43.5176" lon="6.72177">
        <ele>296</ele>
        <time>2010-05-02T07:32:32Z</time>
      </trkpt>
      <trkpt lat="43.5176" lon="6.72188">
        <ele>295</ele>
        <time>2010-05-02T07:32:36Z</time>
      </trkpt>
      <trkpt lat="43.5176" lon="6.72194">
        <ele>293</ele>
        <time>2010-05-02T07:32:38Z</time>
      </trkpt>
      <trkpt lat="43.5176" lon="6.72203">
        <ele>291</ele>
        <time>2010-05-02T07:32:41Z</time>
      </trkpt>
      <trkpt lat="43.5176" lon="6.72209">
        <ele>290</ele>
        <time>2010-05-02T07:32:43Z</time>
      </trkpt>
      <trkpt lat="43.5176" lon="6.72218">
        <ele>287</ele>
        <time>2010-05-02T07:32:47Z</time>
      </trkpt>
      <trkpt lat="43.51761" lon="6.72221">
        <ele>285</ele>
        <time>2010-05-02T07:32:50Z</time>
      </trkpt>
      <trkpt lat="43.51761" lon="6.72225">
        <ele>284</ele>
        <time>2010-05-02T07:32:54Z</time>
      </trkpt>
      <trkpt lat="43.5176" lon="6.7223">
        <ele>284</ele>
        <time>2010-05-02T07:32:57Z</time>
      </trkpt>
      <trkpt lat="43.51762" lon="6.72237">
        <ele>284</ele>
        <time>2010-05-02T07:33:01Z</time>
      </trkpt>
      <trkpt lat="43.51766" lon="6.72242">
        <ele>282</ele>
        <time>2010-05-02T07:33:06Z</time>
      </trkpt>
      <trkpt lat="43.51767" lon="6.7224">
        <ele>281</ele>
        <time>2010-05-02T07:33:13Z</time>
      </trkpt>
      <trkpt lat="43.51768" lon="6.72242">
        <ele>274</ele>
        <time>2010-05-02T07:34:24Z</time>
      </trkpt>
      <trkpt lat="43.51771" lon="6.72248">
        <ele>275</ele>
        <time>2010-05-02T07:34:25Z</time>
      </trkpt>
      <trkpt lat="43.51775" lon="6.72254">
        <ele>275</ele>
        <time>2010-05-02T07:34:28Z</time>
      </trkpt>
      <trkpt lat="43.51778" lon="6.72259">
        <ele>276</ele>
        <time>2010-05-02T07:34:30Z</time>
      </trkpt>
      <trkpt lat="43.51781" lon="6.72264">
        <ele>277</ele>
        <time>2010-05-02T07:34:32Z</time>
      </trkpt>
      <trkpt lat="43.51789" lon="6.72276">
        <ele>277</ele>
        <time>2010-05-02T07:34:36Z</time>
      </trkpt>
      <trkpt lat="43.51794" lon="6.72281">
        <ele>276</ele>
        <time>2010-05-02T07:34:38Z</time>
      </trkpt>
      <trkpt lat="43.51798" lon="6.72287">
        <ele>276</ele>
        <time>2010-05-02T07:34:40Z</time>
      </trkpt>
      <trkpt lat="43.51803" lon="6.72293">
        <ele>276</ele>
        <time>2010-05-02T07:34:42Z</time>
      </trkpt>
      <trkpt lat="43.51806" lon="6.72301">
        <ele>276</ele>
        <time>2010-05-02T07:34:44Z</time>
      </trkpt>
      <trkpt lat="43.51807" lon="6.72309">
        <ele>276</ele>
        <time>2010-05-02T07:34:46Z</time>
      </trkpt>
      <trkpt lat="43.51806" lon="6.72317">
        <ele>275</ele>
        <time>2010-05-02T07:34:48Z</time>
      </trkpt>
      <trkpt lat="43.51805" lon="6.72328">
        <ele>275</ele>
        <time>2010-05-02T07:34:50Z</time>
      </trkpt>
      <trkpt lat="43.51803" lon="6.7234">
        <ele>275</ele>
        <time>2010-05-02T07:34:52Z</time>
      </trkpt>
      <trkpt lat="43.51804" lon="6.72351">
        <ele>275</ele>
        <time>2010-05-02T07:34:54Z</time>
      </trkpt>
      <trkpt lat="43.51801" lon="6.7237">
        <ele>274</ele>
        <time>2010-05-02T07:34:57Z</time>
      </trkpt>
      <trkpt lat="43.51799" lon="6.72377">
        <ele>274</ele>
        <time>2010-05-02T07:34:58Z</time>
      </trkpt>
      <trkpt lat="43.51797" lon="6.72382">
        <ele>273</ele>
        <time>2010-05-02T07:34:59Z</time>
      </trkpt>
      <trkpt lat="43.51793" lon="6.72387">
        <ele>273</ele>
        <time>2010-05-02T07:35:00Z</time>
      </trkpt>
      <trkpt lat="43.51786" lon="6.72395">
        <ele>273</ele>
        <time>2010-05-02T07:35:02Z</time>
      </trkpt>
      <trkpt lat="43.51782" lon="6.72399">
        <ele>273</ele>
        <time>2010-05-02T07:35:03Z</time>
      </trkpt>
      <trkpt lat="43.51777" lon="6.72404">
        <ele>273</ele>
        <time>2010-05-02T07:35:04Z</time>
      </trkpt>
      <trkpt lat="43.51771" lon="6.72409">
        <ele>272</ele>
        <time>2010-05-02T07:35:05Z</time>
      </trkpt>
      <trkpt lat="43.51767" lon="6.72414">
        <ele>272</ele>
        <time>2010-05-02T07:35:06Z</time>
      </trkpt>
      <trkpt lat="43.51761" lon="6.7242">
        <ele>272</ele>
        <time>2010-05-02T07:35:07Z</time>
      </trkpt>
      <trkpt lat="43.51745" lon="6.72433">
        <ele>272</ele>
        <time>2010-05-02T07:35:10Z</time>
      </trkpt>
      <trkpt lat="43.5174" lon="6.72438">
        <ele>272</ele>
        <time>2010-05-02T07:35:11Z</time>
      </trkpt>
      <trkpt lat="43.51737" lon="6.72444">
        <ele>271</ele>
        <time>2010-05-02T07:35:12Z</time>
      </trkpt>
      <trkpt lat="43.51732" lon="6.72449">
        <ele>271</ele>
        <time>2010-05-02T07:35:13Z</time>
      </trkpt>
      <trkpt lat="43.51729" lon="6.72454">
        <ele>271</ele>
        <time>2010-05-02T07:35:14Z</time>
      </trkpt>
      <trkpt lat="43.51725" lon="6.72462">
        <ele>271</ele>
        <time>2010-05-02T07:35:16Z</time>
      </trkpt>
      <trkpt lat="43.51722" lon="6.7247">
        <ele>270</ele>
        <time>2010-05-02T07:35:18Z</time>
      </trkpt>
      <trkpt lat="43.5172" lon="6.72479">
        <ele>270</ele>
        <time>2010-05-02T07:35:20Z</time>
      </trkpt>
      <trkpt lat="43.51719" lon="6.72493">
        <ele>270</ele>
        <time>2010-05-02T07:35:23Z</time>
      </trkpt>
      <trkpt lat="43.5172" lon="6.72501">
        <ele>270</ele>
        <time>2010-05-02T07:35:25Z</time>
      </trkpt>
      <trkpt lat="43.51719" lon="6.72509">
        <ele>271</ele>
        <time>2010-05-02T07:35:28Z</time>
      </trkpt>
      <trkpt lat="43.51717" lon="6.72515">
        <ele>271</ele>
        <time>2010-05-02T07:35:31Z</time>
      </trkpt>
      <trkpt lat="43.51711" lon="6.72523">
        <ele>272</ele>
        <time>2010-05-02T07:35:36Z</time>
      </trkpt>
      <trkpt lat="43.51708" lon="6.7253">
        <ele>272</ele>
        <time>2010-05-02T07:35:39Z</time>
      </trkpt>
      <trkpt lat="43.51705" lon="6.72538">
        <ele>273</ele>
        <time>2010-05-02T07:35:42Z</time>
      </trkpt>
      <trkpt lat="43.51703" lon="6.72544">
        <ele>273</ele>
        <time>2010-05-02T07:35:44Z</time>
      </trkpt>
      <trkpt lat="43.51701" lon="6.72551">
        <ele>274</ele>
        <time>2010-05-02T07:35:47Z</time>
      </trkpt>
      <trkpt lat="43.51697" lon="6.72558">
        <ele>275</ele>
        <time>2010-05-02T07:35:50Z</time>
      </trkpt>
      <trkpt lat="43.51695" lon="6.72566">
        <ele>275</ele>
        <time>2010-05-02T07:35:53Z</time>
      </trkpt>
      <trkpt lat="43.5169" lon="6.72576">
        <ele>276</ele>
        <time>2010-05-02T07:35:57Z</time>
      </trkpt>
      <trkpt lat="43.51688" lon="6.72583">
        <ele>277</ele>
        <time>2010-05-02T07:36:00Z</time>
      </trkpt>
      <trkpt lat="43.51685" lon="6.7259">
        <ele>277</ele>
        <time>2010-05-02T07:36:03Z</time>
      </trkpt>
      <trkpt lat="43.51682" lon="6.72596">
        <ele>278</ele>
        <time>2010-05-02T07:36:07Z</time>
      </trkpt>
      <trkpt lat="43.5168" lon="6.72603">
        <ele>278</ele>
        <time>2010-05-02T07:36:10Z</time>
      </trkpt>
      <trkpt lat="43.51677" lon="6.7261">
        <ele>279</ele>
        <time>2010-05-02T07:36:13Z</time>
      </trkpt>
      <trkpt lat="43.51674" lon="6.72616">
        <ele>279</ele>
        <time>2010-05-02T07:36:16Z</time>
      </trkpt>
      <trkpt lat="43.51671" lon="6.72622">
        <ele>279</ele>
        <time>2010-05-02T07:36:19Z</time>
      </trkpt>
      <trkpt lat="43.51667" lon="6.72632">
        <ele>279</ele>
        <time>2010-05-02T07:36:23Z</time>
      </trkpt>
      <trkpt lat="43.51664" lon="6.72639">
        <ele>279</ele>
        <time>2010-05-02T07:36:26Z</time>
      </trkpt>
      <trkpt lat="43.51661" lon="6.72645">
        <ele>280</ele>
        <time>2010-05-02T07:36:29Z</time>
      </trkpt>
      <trkpt lat="43.51657" lon="6.72651">
        <ele>280</ele>
        <time>2010-05-02T07:36:32Z</time>
      </trkpt>
      <trkpt lat="43.51653" lon="6.72659">
        <ele>280</ele>
        <time>2010-05-02T07:36:36Z</time>
      </trkpt>
      <trkpt lat="43.5165" lon="6.72664">
        <ele>281</ele>
        <time>2010-05-02T07:36:39Z</time>
      </trkpt>
      <trkpt lat="43.51648" lon="6.7267">
        <ele>281</ele>
        <time>2010-05-02T07:36:42Z</time>
      </trkpt>
      <trkpt lat="43.51646" lon="6.72676">
        <ele>282</ele>
        <time>2010-05-02T07:36:47Z</time>
      </trkpt>
      <trkpt lat="43.51646" lon="6.72677">
        <ele>282</ele>
        <time>2010-05-02T07:36:48Z</time>
      </trkpt>
      <trkpt lat="43.51643" lon="6.72679">
        <ele>283</ele>
        <time>2010-05-02T07:37:30Z</time>
      </trkpt>
      <trkpt lat="43.5164" lon="6.72685">
        <ele>284</ele>
        <time>2010-05-02T07:37:31Z</time>
      </trkpt>
      <trkpt lat="43.51638" lon="6.727">
        <ele>283</ele>
        <time>2010-05-02T07:37:36Z</time>
      </trkpt>
      <trkpt lat="43.51638" lon="6.72707">
        <ele>282</ele>
        <time>2010-05-02T07:37:38Z</time>
      </trkpt>
      <trkpt lat="43.51638" lon="6.72715">
        <ele>282</ele>
        <time>2010-05-02T07:37:40Z</time>
      </trkpt>
      <trkpt lat="43.51636" lon="6.72724">
        <ele>281</ele>
        <time>2010-05-02T07:37:42Z</time>
      </trkpt>
      <trkpt lat="43.51635" lon="6.72731">
        <ele>280</ele>
        <time>2010-05-02T07:37:45Z</time>
      </trkpt>
      <trkpt lat="43.51635" lon="6.72733">
        <ele>279</ele>
        <time>2010-05-02T07:37:49Z</time>
      </trkpt>
      <trkpt lat="43.51636" lon="6.72738">
        <ele>277</ele>
        <time>2010-05-02T07:37:59Z</time>
      </trkpt>
      <trkpt lat="43.51637" lon="6.7274">
        <ele>277</ele>
        <time>2010-05-02T07:38:00Z</time>
      </trkpt>
      <trkpt lat="43.51637" lon="6.72744">
        <ele>276</ele>
        <time>2010-05-02T07:38:03Z</time>
      </trkpt>
      <trkpt lat="43.5164" lon="6.72749">
        <ele>273</ele>
        <time>2010-05-02T07:38:21Z</time>
      </trkpt>
      <trkpt lat="43.51641" lon="6.72754">
        <ele>272</ele>
        <time>2010-05-02T07:38:24Z</time>
      </trkpt>
      <trkpt lat="43.51641" lon="6.72755">
        <ele>272</ele>
        <time>2010-05-02T07:38:26Z</time>
      </trkpt>
      <trkpt lat="43.51642" lon="6.72758">
        <ele>271</ele>
        <time>2010-05-02T07:38:34Z</time>
      </trkpt>
      <trkpt lat="43.51644" lon="6.7276">
        <ele>270</ele>
        <time>2010-05-02T07:38:37Z</time>
      </trkpt>
      <trkpt lat="43.51648" lon="6.72763">
        <ele>269</ele>
        <time>2010-05-02T07:38:44Z</time>
      </trkpt>
      <trkpt lat="43.51648" lon="6.72764">
        <ele>269</ele>
        <time>2010-05-02T07:38:45Z</time>
      </trkpt>
      <trkpt lat="43.51647" lon="6.72769">
        <ele>269</ele>
        <time>2010-05-02T07:38:54Z</time>
      </trkpt>
      <trkpt lat="43.51648" lon="6.72773">
        <ele>268</ele>
        <time>2010-05-02T07:38:57Z</time>
      </trkpt>
      <trkpt lat="43.5165" lon="6.72776">
        <ele>266</ele>
        <time>2010-05-02T07:39:00Z</time>
      </trkpt>
      <trkpt lat="43.51654" lon="6.72779">
        <ele>263</ele>
        <time>2010-05-02T07:39:14Z</time>
      </trkpt>
      <trkpt lat="43.51655" lon="6.72779">
        <ele>262</ele>
        <time>2010-05-02T07:39:15Z</time>
      </trkpt>
      <trkpt lat="43.51656" lon="6.72779">
        <ele>261</ele>
        <time>2010-05-02T07:39:19Z</time>
      </trkpt>
      <trkpt lat="43.51657" lon="6.72782">
        <ele>260</ele>
        <time>2010-05-02T07:39:36Z</time>
      </trkpt>
      <trkpt lat="43.51659" lon="6.7279">
        <ele>260</ele>
        <time>2010-05-02T07:39:37Z</time>
      </trkpt>
      <trkpt lat="43.51662" lon="6.72796">
        <ele>259</ele>
        <time>2010-05-02T07:39:43Z</time>
      </trkpt>
      <trkpt lat="43.51665" lon="6.72802">
        <ele>258</ele>
        <time>2010-05-02T07:39:47Z</time>
      </trkpt>
      <trkpt lat="43.51668" lon="6.72805">
        <ele>258</ele>
        <time>2010-05-02T07:39:52Z</time>
      </trkpt>
      <trkpt lat="43.51673" lon="6.72809">
        <ele>258</ele>
        <time>2010-05-02T07:39:58Z</time>
      </trkpt>
      <trkpt lat="43.51677" lon="6.72811">
        <ele>257</ele>
        <time>2010-05-02T07:40:02Z</time>
      </trkpt>
      <trkpt lat="43.51681" lon="6.72813">
        <ele>257</ele>
        <time>2010-05-02T07:40:10Z</time>
      </trkpt>
      <trkpt lat="43.51681" lon="6.72814">
        <ele>257</ele>
        <time>2010-05-02T07:40:11Z</time>
      </trkpt>
      <trkpt lat="43.51684" lon="6.72818">
        <ele>250</ele>
        <time>2010-05-02T07:40:42Z</time>
      </trkpt>
      <trkpt lat="43.51685" lon="6.72818">
        <ele>250</ele>
        <time>2010-05-02T07:40:43Z</time>
      </trkpt>
      <trkpt lat="43.51685" lon="6.72818">
        <ele>250</ele>
        <time>2010-05-02T07:40:43Z</time>
      </trkpt>
      <trkpt lat="43.51685" lon="6.72819">
        <ele>248</ele>
        <time>2010-05-02T07:41:07Z</time>
      </trkpt>
      <trkpt lat="43.51677" lon="6.72829">
        <ele>246</ele>
        <time>2010-05-02T07:41:10Z</time>
      </trkpt>
      <trkpt lat="43.51674" lon="6.72836">
        <ele>246</ele>
        <time>2010-05-02T07:41:13Z</time>
      </trkpt>
      <trkpt lat="43.51676" lon="6.72842">
        <ele>246</ele>
        <time>2010-05-02T07:41:16Z</time>
      </trkpt>
      <trkpt lat="43.51679" lon="6.72847">
        <ele>246</ele>
        <time>2010-05-02T07:41:20Z</time>
      </trkpt>
      <trkpt lat="43.51681" lon="6.72848">
        <ele>246</ele>
        <time>2010-05-02T07:41:23Z</time>
      </trkpt>
      <trkpt lat="43.51681" lon="6.72854">
        <ele>245</ele>
        <time>2010-05-02T07:41:36Z</time>
      </trkpt>
      <trkpt lat="43.51681" lon="6.72855">
        <ele>245</ele>
        <time>2010-05-02T07:41:37Z</time>
      </trkpt>
      <trkpt lat="43.51681" lon="6.72855">
        <ele>245</ele>
        <time>2010-05-02T07:41:37Z</time>
      </trkpt>
      <trkpt lat="43.51681" lon="6.7286">
        <ele>243</ele>
        <time>2010-05-02T07:41:51Z</time>
      </trkpt>
      <trkpt lat="43.51681" lon="6.72861">
        <ele>243</ele>
        <time>2010-05-02T07:41:52Z</time>
      </trkpt>
      <trkpt lat="43.5168" lon="6.7287">
        <ele>242</ele>
        <time>2010-05-02T07:41:57Z</time>
      </trkpt>
      <trkpt lat="43.51675" lon="6.72875">
        <ele>241</ele>
        <time>2010-05-02T07:42:00Z</time>
      </trkpt>
      <trkpt lat="43.51673" lon="6.72883">
        <ele>241</ele>
        <time>2010-05-02T07:42:03Z</time>
      </trkpt>
      <trkpt lat="43.51675" lon="6.72893">
        <ele>239</ele>
        <time>2010-05-02T07:42:06Z</time>
      </trkpt>
      <trkpt lat="43.51679" lon="6.72903">
        <ele>238</ele>
        <time>2010-05-02T07:42:10Z</time>
      </trkpt>
      <trkpt lat="43.51683" lon="6.72909">
        <ele>237</ele>
        <time>2010-05-02T07:42:13Z</time>
      </trkpt>
      <trkpt lat="43.51688" lon="6.72915">
        <ele>237</ele>
        <time>2010-05-02T07:42:15Z</time>
      </trkpt>
      <trkpt lat="43.51692" lon="6.7292">
        <ele>235</ele>
        <time>2010-05-02T07:42:17Z</time>
      </trkpt>
      <trkpt lat="43.51694" lon="6.72926">
        <ele>234</ele>
        <time>2010-05-02T07:42:19Z</time>
      </trkpt>
      <trkpt lat="43.51696" lon="6.72936">
        <ele>232</ele>
        <time>2010-05-02T07:42:23Z</time>
      </trkpt>
      <trkpt lat="43.51695" lon="6.72943">
        <ele>231</ele>
        <time>2010-05-02T07:42:25Z</time>
      </trkpt>
      <trkpt lat="43.51691" lon="6.72951">
        <ele>231</ele>
        <time>2010-05-02T07:42:27Z</time>
      </trkpt>
      <trkpt lat="43.51685" lon="6.72958">
        <ele>231</ele>
        <time>2010-05-02T07:42:29Z</time>
      </trkpt>
      <trkpt lat="43.51681" lon="6.72966">
        <ele>230</ele>
        <time>2010-05-02T07:42:31Z</time>
      </trkpt>
      <trkpt lat="43.51678" lon="6.72973">
        <ele>230</ele>
        <time>2010-05-02T07:42:33Z</time>
      </trkpt>
      <trkpt lat="43.51674" lon="6.72984">
        <ele>229</ele>
        <time>2010-05-02T07:42:36Z</time>
      </trkpt>
      <trkpt lat="43.51673" lon="6.7299">
        <ele>227</ele>
        <time>2010-05-02T07:42:39Z</time>
      </trkpt>
      <trkpt lat="43.51673" lon="6.72994">
        <ele>225</ele>
        <time>2010-05-02T07:42:45Z</time>
      </trkpt>
      <trkpt lat="43.51677" lon="6.72996">
        <ele>219</ele>
        <time>2010-05-02T07:43:07Z</time>
      </trkpt>
      <trkpt lat="43.51678" lon="6.72997">
        <ele>218</ele>
        <time>2010-05-02T07:43:10Z</time>
      </trkpt>
      <trkpt lat="43.51679" lon="6.72997">
        <ele>218</ele>
        <time>2010-05-02T07:43:12Z</time>
      </trkpt>
      <trkpt lat="43.51675" lon="6.72999">
        <ele>218</ele>
        <time>2010-05-02T07:43:19Z</time>
      </trkpt>
      <trkpt lat="43.51674" lon="6.73">
        <ele>219</ele>
        <time>2010-05-02T07:43:20Z</time>
      </trkpt>
      <trkpt lat="43.51666" lon="6.73015">
        <ele>218</ele>
        <time>2010-05-02T07:43:23Z</time>
      </trkpt>
      <trkpt lat="43.51663" lon="6.73021">
        <ele>219</ele>
        <time>2010-05-02T07:43:25Z</time>
      </trkpt>
      <trkpt lat="43.51659" lon="6.73028">
        <ele>219</ele>
        <time>2010-05-02T07:43:27Z</time>
      </trkpt>
      <trkpt lat="43.51655" lon="6.73035">
        <ele>219</ele>
        <time>2010-05-02T07:43:29Z</time>
      </trkpt>
      <trkpt lat="43.51651" lon="6.73042">
        <ele>219</ele>
        <time>2010-05-02T07:43:31Z</time>
      </trkpt>
      <trkpt lat="43.51647" lon="6.73048">
        <ele>219</ele>
        <time>2010-05-02T07:43:33Z</time>
      </trkpt>
      <trkpt lat="43.51641" lon="6.73058">
        <ele>220</ele>
        <time>2010-05-02T07:43:36Z</time>
      </trkpt>
      <trkpt lat="43.51637" lon="6.73063">
        <ele>220</ele>
        <time>2010-05-02T07:43:38Z</time>
      </trkpt>
      <trkpt lat="43.51632" lon="6.73069">
        <ele>220</ele>
        <time>2010-05-02T07:43:40Z</time>
      </trkpt>
      <trkpt lat="43.51627" lon="6.73075">
        <ele>220</ele>
        <time>2010-05-02T07:43:42Z</time>
      </trkpt>
      <trkpt lat="43.51622" lon="6.73079">
        <ele>220</ele>
        <time>2010-05-02T07:43:44Z</time>
      </trkpt>
      <trkpt lat="43.51616" lon="6.73082">
        <ele>220</ele>
        <time>2010-05-02T07:43:46Z</time>
      </trkpt>
      <trkpt lat="43.5161" lon="6.73083">
        <ele>220</ele>
        <time>2010-05-02T07:43:48Z</time>
      </trkpt>
      <trkpt lat="43.51602" lon="6.73085">
        <ele>220</ele>
        <time>2010-05-02T07:43:50Z</time>
      </trkpt>
      <trkpt lat="43.51597" lon="6.73087">
        <ele>220</ele>
        <time>2010-05-02T07:43:52Z</time>
      </trkpt>
      <trkpt lat="43.51589" lon="6.73088">
        <ele>220</ele>
        <time>2010-05-02T07:43:54Z</time>
      </trkpt>
      <trkpt lat="43.51575" lon="6.73087">
        <ele>220</ele>
        <time>2010-05-02T07:43:57Z</time>
      </trkpt>
      <trkpt lat="43.5157" lon="6.73088">
        <ele>220</ele>
        <time>2010-05-02T07:43:58Z</time>
      </trkpt>
      <trkpt lat="43.51561" lon="6.73087">
        <ele>219</ele>
        <time>2010-05-02T07:44:00Z</time>
      </trkpt>
      <trkpt lat="43.51553" lon="6.73084">
        <ele>219</ele>
        <time>2010-05-02T07:44:02Z</time>
      </trkpt>
      <trkpt lat="43.51546" lon="6.73082">
        <ele>218</ele>
        <time>2010-05-02T07:44:04Z</time>
      </trkpt>
      <trkpt lat="43.51541" lon="6.73081">
        <ele>218</ele>
        <time>2010-05-02T07:44:05Z</time>
      </trkpt>
      <trkpt lat="43.51533" lon="6.73078">
        <ele>218</ele>
        <time>2010-05-02T07:44:07Z</time>
      </trkpt>
      <trkpt lat="43.51517" lon="6.73074">
        <ele>218</ele>
        <time>2010-05-02T07:44:10Z</time>
      </trkpt>
      <trkpt lat="43.51509" lon="6.73071">
        <ele>218</ele>
        <time>2010-05-02T07:44:12Z</time>
      </trkpt>
      <trkpt lat="43.515" lon="6.73068">
        <ele>217</ele>
        <time>2010-05-02T07:44:14Z</time>
      </trkpt>
      <trkpt lat="43.51492" lon="6.73065">
        <ele>217</ele>
        <time>2010-05-02T07:44:16Z</time>
      </trkpt>
      <trkpt lat="43.51485" lon="6.73067">
        <ele>217</ele>
        <time>2010-05-02T07:44:18Z</time>
      </trkpt>
      <trkpt lat="43.51479" lon="6.73068">
        <ele>216</ele>
        <time>2010-05-02T07:44:20Z</time>
      </trkpt>
      <trkpt lat="43.51473" lon="6.73074">
        <ele>216</ele>
        <time>2010-05-02T07:44:23Z</time>
      </trkpt>
      <trkpt lat="43.51468" lon="6.73081">
        <ele>216</ele>
        <time>2010-05-02T07:44:25Z</time>
      </trkpt>
      <trkpt lat="43.51461" lon="6.7309">
        <ele>215</ele>
        <time>2010-05-02T07:44:27Z</time>
      </trkpt>
      <trkpt lat="43.51454" lon="6.73098">
        <ele>216</ele>
        <time>2010-05-02T07:44:29Z</time>
      </trkpt>
      <trkpt lat="43.5145" lon="6.73102">
        <ele>215</ele>
        <time>2010-05-02T07:44:30Z</time>
      </trkpt>
      <trkpt lat="43.51444" lon="6.73109">
        <ele>215</ele>
        <time>2010-05-02T07:44:32Z</time>
      </trkpt>
      <trkpt lat="43.51432" lon="6.73123">
        <ele>215</ele>
        <time>2010-05-02T07:44:36Z</time>
      </trkpt>
      <trkpt lat="43.51425" lon="6.73129">
        <ele>215</ele>
        <time>2010-05-02T07:44:38Z</time>
      </trkpt>
      <trkpt lat="43.51419" lon="6.73135">
        <ele>214</ele>
        <time>2010-05-02T07:44:40Z</time>
      </trkpt>
      <trkpt lat="43.51414" lon="6.73142">
        <ele>214</ele>
        <time>2010-05-02T07:44:42Z</time>
      </trkpt>
      <trkpt lat="43.51385" lon="6.73177">
        <ele>213</ele>
        <time>2010-05-02T07:44:52Z</time>
      </trkpt>
      <trkpt lat="43.51386" lon="6.73185">
        <ele>212</ele>
        <time>2010-05-02T07:44:54Z</time>
      </trkpt>
      <trkpt lat="43.51386" lon="6.73192">
        <ele>212</ele>
        <time>2010-05-02T07:44:55Z</time>
      </trkpt>
      <trkpt lat="43.51385" lon="6.73199">
        <ele>212</ele>
        <time>2010-05-02T07:44:56Z</time>
      </trkpt>
      <trkpt lat="43.51384" lon="6.7321">
        <ele>211</ele>
        <time>2010-05-02T07:44:58Z</time>
      </trkpt>
      <trkpt lat="43.51382" lon="6.73221">
        <ele>210</ele>
        <time>2010-05-02T07:45:00Z</time>
      </trkpt>
      <trkpt lat="43.51379" lon="6.73229">
        <ele>210</ele>
        <time>2010-05-02T07:45:02Z</time>
      </trkpt>
      <trkpt lat="43.51374" lon="6.73239">
        <ele>209</ele>
        <time>2010-05-02T07:45:05Z</time>
      </trkpt>
      <trkpt lat="43.5137" lon="6.73245">
        <ele>209</ele>
        <time>2010-05-02T07:45:07Z</time>
      </trkpt>
      <trkpt lat="43.51367" lon="6.7325">
        <ele>209</ele>
        <time>2010-05-02T07:45:09Z</time>
      </trkpt>
      <trkpt lat="43.51364" lon="6.73255">
        <ele>209</ele>
        <time>2010-05-02T07:45:11Z</time>
      </trkpt>
      <trkpt lat="43.51359" lon="6.73261">
        <ele>209</ele>
        <time>2010-05-02T07:45:13Z</time>
      </trkpt>
      <trkpt lat="43.51354" lon="6.73269">
        <ele>209</ele>
        <time>2010-05-02T07:45:15Z</time>
      </trkpt>
      <trkpt lat="43.51347" lon="6.73284">
        <ele>208</ele>
        <time>2010-05-02T07:45:18Z</time>
      </trkpt>
      <trkpt lat="43.51342" lon="6.73296">
        <ele>207</ele>
        <time>2010-05-02T07:45:20Z</time>
      </trkpt>
      <trkpt lat="43.51338" lon="6.73306">
        <ele>207</ele>
        <time>2010-05-02T07:45:22Z</time>
      </trkpt>
      <trkpt lat="43.51336" lon="6.73314">
        <ele>206</ele>
        <time>2010-05-02T07:45:24Z</time>
      </trkpt>
      <trkpt lat="43.51334" lon="6.73321">
        <ele>207</ele>
        <time>2010-05-02T07:45:31Z</time>
      </trkpt>
      <trkpt lat="43.51333" lon="6.73329">
        <ele>206</ele>
        <time>2010-05-02T07:45:34Z</time>
      </trkpt>
      <trkpt lat="43.51334" lon="6.73336">
        <ele>206</ele>
        <time>2010-05-02T07:45:36Z</time>
      </trkpt>
      <trkpt lat="43.51333" lon="6.73345">
        <ele>206</ele>
        <time>2010-05-02T07:45:38Z</time>
      </trkpt>
      <trkpt lat="43.51334" lon="6.73355">
        <ele>206</ele>
        <time>2010-05-02T07:45:40Z</time>
      </trkpt>
      <trkpt lat="43.51335" lon="6.7338">
        <ele>205</ele>
        <time>2010-05-02T07:45:44Z</time>
      </trkpt>
      <trkpt lat="43.51335" lon="6.73388">
        <ele>205</ele>
        <time>2010-05-02T07:45:45Z</time>
      </trkpt>
      <trkpt lat="43.51334" lon="6.73396">
        <ele>205</ele>
        <time>2010-05-02T07:45:46Z</time>
      </trkpt>
      <trkpt lat="43.51334" lon="6.73405">
        <ele>204</ele>
        <time>2010-05-02T07:45:47Z</time>
      </trkpt>
      <trkpt lat="43.51333" lon="6.73413">
        <ele>204</ele>
        <time>2010-05-02T07:45:48Z</time>
      </trkpt>
      <trkpt lat="43.51332" lon="6.73421">
        <ele>204</ele>
        <time>2010-05-02T07:45:49Z</time>
      </trkpt>
      <trkpt lat="43.51332" lon="6.7343">
        <ele>204</ele>
        <time>2010-05-02T07:45:50Z</time>
      </trkpt>
      <trkpt lat="43.51332" lon="6.73439">
        <ele>204</ele>
        <time>2010-05-02T07:45:51Z</time>
      </trkpt>
      <trkpt lat="43.51331" lon="6.73448">
        <ele>203</ele>
        <time>2010-05-02T07:45:52Z</time>
      </trkpt>
      <trkpt lat="43.51331" lon="6.73458">
        <ele>203</ele>
        <time>2010-05-02T07:45:53Z</time>
      </trkpt>
      <trkpt lat="43.51332" lon="6.73466">
        <ele>203</ele>
        <time>2010-05-02T07:45:54Z</time>
      </trkpt>
      <trkpt lat="43.51333" lon="6.73491">
        <ele>203</ele>
        <time>2010-05-02T07:45:57Z</time>
      </trkpt>
      <trkpt lat="43.51333" lon="6.73499">
        <ele>202</ele>
        <time>2010-05-02T07:45:58Z</time>
      </trkpt>
      <trkpt lat="43.51333" lon="6.73508">
        <ele>202</ele>
        <time>2010-05-02T07:45:59Z</time>
      </trkpt>
      <trkpt lat="43.51333" lon="6.73515">
        <ele>202</ele>
        <time>2010-05-02T07:46:00Z</time>
      </trkpt>
      <trkpt lat="43.51332" lon="6.73523">
        <ele>202</ele>
        <time>2010-05-02T07:46:01Z</time>
      </trkpt>
      <trkpt lat="43.5133" lon="6.73531">
        <ele>202</ele>
        <time>2010-05-02T07:46:02Z</time>
      </trkpt>
      <trkpt lat="43.51328" lon="6.73538">
        <ele>202</ele>
        <time>2010-05-02T07:46:03Z</time>
      </trkpt>
      <trkpt lat="43.51326" lon="6.73545">
        <ele>202</ele>
        <time>2010-05-02T07:46:04Z</time>
      </trkpt>
      <trkpt lat="43.51322" lon="6.7355">
        <ele>202</ele>
        <time>2010-05-02T07:46:05Z</time>
      </trkpt>
      <trkpt lat="43.51318" lon="6.73556">
        <ele>202</ele>
        <time>2010-05-02T07:46:06Z</time>
      </trkpt>
      <trkpt lat="43.51313" lon="6.7356">
        <ele>201</ele>
        <time>2010-05-02T07:46:07Z</time>
      </trkpt>
      <trkpt lat="43.51294" lon="6.7357">
        <ele>201</ele>
        <time>2010-05-02T07:46:10Z</time>
      </trkpt>
      <trkpt lat="43.51287" lon="6.73576">
        <ele>200</ele>
        <time>2010-05-02T07:46:11Z</time>
      </trkpt>
      <trkpt lat="43.51281" lon="6.73583">
        <ele>200</ele>
        <time>2010-05-02T07:46:12Z</time>
      </trkpt>
      <trkpt lat="43.51274" lon="6.73591">
        <ele>200</ele>
        <time>2010-05-02T07:46:13Z</time>
      </trkpt>
      <trkpt lat="43.51268" lon="6.73598">
        <ele>200</ele>
        <time>2010-05-02T07:46:14Z</time>
      </trkpt>
      <trkpt lat="43.51261" lon="6.73607">
        <ele>200</ele>
        <time>2010-05-02T07:46:15Z</time>
      </trkpt>
      <trkpt lat="43.51255" lon="6.73616">
        <ele>200</ele>
        <time>2010-05-02T07:46:16Z</time>
      </trkpt>
      <trkpt lat="43.51249" lon="6.73624">
        <ele>199</ele>
        <time>2010-05-02T07:46:17Z</time>
      </trkpt>
      <trkpt lat="43.51242" lon="6.73633">
        <ele>198</ele>
        <time>2010-05-02T07:46:18Z</time>
      </trkpt>
      <trkpt lat="43.51234" lon="6.73641">
        <ele>198</ele>
        <time>2010-05-02T07:46:19Z</time>
      </trkpt>
      <trkpt lat="43.51227" lon="6.73648">
        <ele>198</ele>
        <time>2010-05-02T07:46:20Z</time>
      </trkpt>
      <trkpt lat="43.51204" lon="6.73662">
        <ele>197</ele>
        <time>2010-05-02T07:46:23Z</time>
      </trkpt>
      <trkpt lat="43.51197" lon="6.73666">
        <ele>197</ele>
        <time>2010-05-02T07:46:24Z</time>
      </trkpt>
      <trkpt lat="43.51189" lon="6.73671">
        <ele>197</ele>
        <time>2010-05-02T07:46:25Z</time>
      </trkpt>
      <trkpt lat="43.51182" lon="6.73675">
        <ele>197</ele>
        <time>2010-05-02T07:46:26Z</time>
      </trkpt>
      <trkpt lat="43.51175" lon="6.73679">
        <ele>196</ele>
        <time>2010-05-02T07:46:27Z</time>
      </trkpt>
      <trkpt lat="43.51169" lon="6.73681">
        <ele>196</ele>
        <time>2010-05-02T07:46:28Z</time>
      </trkpt>
      <trkpt lat="43.51163" lon="6.73686">
        <ele>196</ele>
        <time>2010-05-02T07:46:29Z</time>
      </trkpt>
      <trkpt lat="43.51158" lon="6.73689">
        <ele>196</ele>
        <time>2010-05-02T07:46:30Z</time>
      </trkpt>
      <trkpt lat="43.51153" lon="6.73693">
        <ele>196</ele>
        <time>2010-05-02T07:46:31Z</time>
      </trkpt>
      <trkpt lat="43.51148" lon="6.73696">
        <ele>197</ele>
        <time>2010-05-02T07:46:32Z</time>
      </trkpt>
      <trkpt lat="43.51142" lon="6.737">
        <ele>196</ele>
        <time>2010-05-02T07:46:33Z</time>
      </trkpt>
      <trkpt lat="43.51128" lon="6.73711">
        <ele>196</ele>
        <time>2010-05-02T07:46:36Z</time>
      </trkpt>
      <trkpt lat="43.51123" lon="6.73714">
        <ele>196</ele>
        <time>2010-05-02T07:46:37Z</time>
      </trkpt>
      <trkpt lat="43.51119" lon="6.73717">
        <ele>196</ele>
        <time>2010-05-02T07:46:38Z</time>
      </trkpt>
      <trkpt lat="43.51114" lon="6.7372">
        <ele>196</ele>
        <time>2010-05-02T07:46:39Z</time>
      </trkpt>
      <trkpt lat="43.5111" lon="6.73724">
        <ele>196</ele>
        <time>2010-05-02T07:46:40Z</time>
      </trkpt>
      <trkpt lat="43.51106" lon="6.73727">
        <ele>196</ele>
        <time>2010-05-02T07:46:41Z</time>
      </trkpt>
      <trkpt lat="43.51098" lon="6.73733">
        <ele>196</ele>
        <time>2010-05-02T07:46:43Z</time>
      </trkpt>
      <trkpt lat="43.5109" lon="6.73739">
        <ele>196</ele>
        <time>2010-05-02T07:46:45Z</time>
      </trkpt>
      <trkpt lat="43.51083" lon="6.73746">
        <ele>195</ele>
        <time>2010-05-02T07:46:47Z</time>
      </trkpt>
      <trkpt lat="43.51076" lon="6.73752">
        <ele>195</ele>
        <time>2010-05-02T07:46:49Z</time>
      </trkpt>
      <trkpt lat="43.51069" lon="6.73759">
        <ele>196</ele>
        <time>2010-05-02T07:46:51Z</time>
      </trkpt>
      <trkpt lat="43.51063" lon="6.73765">
        <ele>196</ele>
        <time>2010-05-02T07:46:53Z</time>
      </trkpt>
      <trkpt lat="43.51057" lon="6.73771">
        <ele>196</ele>
        <time>2010-05-02T07:46:55Z</time>
      </trkpt>
      <trkpt lat="43.51046" lon="6.73786">
        <ele>196</ele>
        <time>2010-05-02T07:46:59Z</time>
      </trkpt>
      <trkpt lat="43.51041" lon="6.73793">
        <ele>195</ele>
        <time>2010-05-02T07:47:01Z</time>
      </trkpt>
      <trkpt lat="43.51035" lon="6.738">
        <ele>195</ele>
        <time>2010-05-02T07:47:03Z</time>
      </trkpt>
      <trkpt lat="43.51029" lon="6.73807">
        <ele>195</ele>
        <time>2010-05-02T07:47:05Z</time>
      </trkpt>
      <trkpt lat="43.51022" lon="6.73814">
        <ele>195</ele>
        <time>2010-05-02T07:47:07Z</time>
      </trkpt>
      <trkpt lat="43.51015" lon="6.7382">
        <ele>195</ele>
        <time>2010-05-02T07:47:09Z</time>
      </trkpt>
      <trkpt lat="43.51004" lon="6.73829">
        <ele>194</ele>
        <time>2010-05-02T07:47:12Z</time>
      </trkpt>
      <trkpt lat="43.50997" lon="6.73834">
        <ele>194</ele>
        <time>2010-05-02T07:47:14Z</time>
      </trkpt>
      <trkpt lat="43.50993" lon="6.73837">
        <ele>194</ele>
        <time>2010-05-02T07:47:15Z</time>
      </trkpt>
      <trkpt lat="43.50986" lon="6.73843">
        <ele>195</ele>
        <time>2010-05-02T07:47:17Z</time>
      </trkpt>
      <trkpt lat="43.50979" lon="6.73847">
        <ele>195</ele>
        <time>2010-05-02T07:47:19Z</time>
      </trkpt>
      <trkpt lat="43.50972" lon="6.73851">
        <ele>195</ele>
        <time>2010-05-02T07:47:21Z</time>
      </trkpt>
      <trkpt lat="43.50959" lon="6.73859">
        <ele>195</ele>
        <time>2010-05-02T07:47:25Z</time>
      </trkpt>
      <trkpt lat="43.50953" lon="6.73863">
        <ele>196</ele>
        <time>2010-05-02T07:47:27Z</time>
      </trkpt>
      <trkpt lat="43.50947" lon="6.73866">
        <ele>196</ele>
        <time>2010-05-02T07:47:29Z</time>
      </trkpt>
      <trkpt lat="43.50942" lon="6.7387">
        <ele>196</ele>
        <time>2010-05-02T07:47:31Z</time>
      </trkpt>
      <trkpt lat="43.50936" lon="6.73874">
        <ele>196</ele>
        <time>2010-05-02T07:47:33Z</time>
      </trkpt>
      <trkpt lat="43.50929" lon="6.73879">
        <ele>196</ele>
        <time>2010-05-02T07:47:35Z</time>
      </trkpt>
      <trkpt lat="43.50921" lon="6.73886">
        <ele>196</ele>
        <time>2010-05-02T07:47:38Z</time>
      </trkpt>
      <trkpt lat="43.50916" lon="6.73891">
        <ele>196</ele>
        <time>2010-05-02T07:47:40Z</time>
      </trkpt>
      <trkpt lat="43.50911" lon="6.73895">
        <ele>196</ele>
        <time>2010-05-02T07:47:42Z</time>
      </trkpt>
      <trkpt lat="43.50907" lon="6.739">
        <ele>197</ele>
        <time>2010-05-02T07:47:44Z</time>
      </trkpt>
      <trkpt lat="43.50902" lon="6.73905">
        <ele>197</ele>
        <time>2010-05-02T07:47:46Z</time>
      </trkpt>
      <trkpt lat="43.50899" lon="6.7391">
        <ele>197</ele>
        <time>2010-05-02T07:47:48Z</time>
      </trkpt>
      <trkpt lat="43.50894" lon="6.73915">
        <ele>198</ele>
        <time>2010-05-02T07:47:50Z</time>
      </trkpt>
      <trkpt lat="43.5089" lon="6.7392">
        <ele>198</ele>
        <time>2010-05-02T07:47:52Z</time>
      </trkpt>
      <trkpt lat="43.50885" lon="6.73924">
        <ele>198</ele>
        <time>2010-05-02T07:47:54Z</time>
      </trkpt>
      <trkpt lat="43.50878" lon="6.73932">
        <ele>199</ele>
        <time>2010-05-02T07:47:57Z</time>
      </trkpt>
      <trkpt lat="43.50872" lon="6.73937">
        <ele>199</ele>
        <time>2010-05-02T07:47:59Z</time>
      </trkpt>
      <trkpt lat="43.50867" lon="6.73941">
        <ele>200</ele>
        <time>2010-05-02T07:48:01Z</time>
      </trkpt>
      <trkpt lat="43.50862" lon="6.73946">
        <ele>200</ele>
        <time>2010-05-02T07:48:03Z</time>
      </trkpt>
      <trkpt lat="43.50857" lon="6.73952">
        <ele>200</ele>
        <time>2010-05-02T07:48:05Z</time>
      </trkpt>
      <trkpt lat="43.50853" lon="6.73956">
        <ele>200</ele>
        <time>2010-05-02T07:48:07Z</time>
      </trkpt>
      <trkpt lat="43.50847" lon="6.7396">
        <ele>201</ele>
        <time>2010-05-02T07:48:10Z</time>
      </trkpt>
      <trkpt lat="43.50842" lon="6.73962">
        <ele>201</ele>
        <time>2010-05-02T07:48:13Z</time>
      </trkpt>
      <trkpt lat="43.50837" lon="6.73963">
        <ele>202</ele>
        <time>2010-05-02T07:48:19Z</time>
      </trkpt>
      <trkpt lat="43.50835" lon="6.73965">
        <ele>202</ele>
        <time>2010-05-02T07:48:27Z</time>
      </trkpt>
      <trkpt lat="43.50832" lon="6.73967">
        <ele>202</ele>
        <time>2010-05-02T07:48:39Z</time>
      </trkpt>
      <trkpt lat="43.50831" lon="6.73967">
        <ele>203</ele>
        <time>2010-05-02T07:48:40Z</time>
      </trkpt>
      <trkpt lat="43.50826" lon="6.73969">
        <ele>202</ele>
        <time>2010-05-02T07:48:46Z</time>
      </trkpt>
      <trkpt lat="43.50826" lon="6.73969">
        <ele>203</ele>
        <time>2010-05-02T07:48:47Z</time>
      </trkpt>
      <trkpt lat="43.50825" lon="6.73968">
        <ele>203</ele>
        <time>2010-05-02T07:54:01Z</time>
      </trkpt>
      <trkpt lat="43.5082" lon="6.73965">
        <ele>205</ele>
        <time>2010-05-02T07:54:02Z</time>
      </trkpt>
      <trkpt lat="43.50816" lon="6.73967">
        <ele>205</ele>
        <time>2010-05-02T07:54:05Z</time>
      </trkpt>
      <trkpt lat="43.5082" lon="6.73968">
        <ele>205</ele>
        <time>2010-05-02T07:54:14Z</time>
      </trkpt>
      <trkpt lat="43.50816" lon="6.7397">
        <ele>203</ele>
        <time>2010-05-02T07:55:49Z</time>
      </trkpt>
      <trkpt lat="43.50815" lon="6.7397">
        <ele>204</ele>
        <time>2010-05-02T07:55:50Z</time>
      </trkpt>
      <trkpt lat="43.50809" lon="6.73972">
        <ele>204</ele>
        <time>2010-05-02T07:55:53Z</time>
      </trkpt>
      <trkpt lat="43.508" lon="6.73977">
        <ele>204</ele>
        <time>2010-05-02T07:55:57Z</time>
      </trkpt>
      <trkpt lat="43.50795" lon="6.7398">
        <ele>204</ele>
        <time>2010-05-02T07:55:59Z</time>
      </trkpt>
      <trkpt lat="43.5079" lon="6.73983">
        <ele>204</ele>
        <time>2010-05-02T07:56:01Z</time>
      </trkpt>
      <trkpt lat="43.50784" lon="6.73987">
        <ele>205</ele>
        <time>2010-05-02T07:56:03Z</time>
      </trkpt>
      <trkpt lat="43.50779" lon="6.73992">
        <ele>205</ele>
        <time>2010-05-02T07:56:05Z</time>
      </trkpt>
      <trkpt lat="43.50773" lon="6.73997">
        <ele>205</ele>
        <time>2010-05-02T07:56:07Z</time>
      </trkpt>
      <trkpt lat="43.50764" lon="6.74006">
        <ele>206</ele>
        <time>2010-05-02T07:56:10Z</time>
      </trkpt>
      <trkpt lat="43.50759" lon="6.74012">
        <ele>206</ele>
        <time>2010-05-02T07:56:12Z</time>
      </trkpt>
      <trkpt lat="43.50754" lon="6.74019">
        <ele>207</ele>
        <time>2010-05-02T07:56:14Z</time>
      </trkpt>
      <trkpt lat="43.5075" lon="6.74027">
        <ele>207</ele>
        <time>2010-05-02T07:56:16Z</time>
      </trkpt>
      <trkpt lat="43.50746" lon="6.74035">
        <ele>207</ele>
        <time>2010-05-02T07:56:18Z</time>
      </trkpt>
      <trkpt lat="43.50744" lon="6.74044">
        <ele>208</ele>
        <time>2010-05-02T07:56:20Z</time>
      </trkpt>
      <trkpt lat="43.50741" lon="6.74058">
        <ele>209</ele>
        <time>2010-05-02T07:56:23Z</time>
      </trkpt>
      <trkpt lat="43.5074" lon="6.74069">
        <ele>208</ele>
        <time>2010-05-02T07:56:25Z</time>
      </trkpt>
      <trkpt lat="43.5074" lon="6.74079">
        <ele>208</ele>
        <time>2010-05-02T07:56:27Z</time>
      </trkpt>
      <trkpt lat="43.50741" lon="6.7409">
        <ele>208</ele>
        <time>2010-05-02T07:56:29Z</time>
      </trkpt>
      <trkpt lat="43.50743" lon="6.74101">
        <ele>208</ele>
        <time>2010-05-02T07:56:31Z</time>
      </trkpt>
      <trkpt lat="43.50744" lon="6.74112">
        <ele>207</ele>
        <time>2010-05-02T07:56:33Z</time>
      </trkpt>
      <trkpt lat="43.50746" lon="6.74127">
        <ele>207</ele>
        <time>2010-05-02T07:56:36Z</time>
      </trkpt>
      <trkpt lat="43.50747" lon="6.74138">
        <ele>207</ele>
        <time>2010-05-02T07:56:38Z</time>
      </trkpt>
      <trkpt lat="43.50749" lon="6.74149">
        <ele>207</ele>
        <time>2010-05-02T07:56:40Z</time>
      </trkpt>
      <trkpt lat="43.5075" lon="6.74161">
        <ele>207</ele>
        <time>2010-05-02T07:56:42Z</time>
      </trkpt>
      <trkpt lat="43.50753" lon="6.74172">
        <ele>207</ele>
        <time>2010-05-02T07:56:44Z</time>
      </trkpt>
      <trkpt lat="43.50755" lon="6.74184">
        <ele>207</ele>
        <time>2010-05-02T07:56:46Z</time>
      </trkpt>
      <trkpt lat="43.50757" lon="6.7419">
        <ele>207</ele>
        <time>2010-05-02T07:56:47Z</time>
      </trkpt>
      <trkpt lat="43.50761" lon="6.74201">
        <ele>207</ele>
        <time>2010-05-02T07:56:49Z</time>
      </trkpt>
      <trkpt lat="43.50765" lon="6.74212">
        <ele>207</ele>
        <time>2010-05-02T07:56:51Z</time>
      </trkpt>
      <trkpt lat="43.50769" lon="6.74223">
        <ele>207</ele>
        <time>2010-05-02T07:56:53Z</time>
      </trkpt>
      <trkpt lat="43.50776" lon="6.74243">
        <ele>207</ele>
        <time>2010-05-02T07:56:57Z</time>
      </trkpt>
      <trkpt lat="43.50778" lon="6.74252">
        <ele>207</ele>
        <time>2010-05-02T07:56:59Z</time>
      </trkpt>
      <trkpt lat="43.50779" lon="6.74262">
        <ele>207</ele>
        <time>2010-05-02T07:57:01Z</time>
      </trkpt>
      <trkpt lat="43.50779" lon="6.74271">
        <ele>207</ele>
        <time>2010-05-02T07:57:03Z</time>
      </trkpt>
      <trkpt lat="43.50777" lon="6.7428">
        <ele>207</ele>
        <time>2010-05-02T07:57:05Z</time>
      </trkpt>
      <trkpt lat="43.50776" lon="6.74288">
        <ele>207</ele>
        <time>2010-05-02T07:57:07Z</time>
      </trkpt>
      <trkpt lat="43.50774" lon="6.743">
        <ele>207</ele>
        <time>2010-05-02T07:57:10Z</time>
      </trkpt>
      <trkpt lat="43.50772" lon="6.74307">
        <ele>207</ele>
        <time>2010-05-02T07:57:12Z</time>
      </trkpt>
      <trkpt lat="43.50769" lon="6.74313">
        <ele>207</ele>
        <time>2010-05-02T07:57:15Z</time>
      </trkpt>
      <trkpt lat="43.50764" lon="6.74316">
        <ele>207</ele>
        <time>2010-05-02T07:57:17Z</time>
      </trkpt>
      <trkpt lat="43.50759" lon="6.74323">
        <ele>208</ele>
        <time>2010-05-02T07:57:19Z</time>
      </trkpt>
      <trkpt lat="43.5075" lon="6.74342">
        <ele>207</ele>
        <time>2010-05-02T07:57:23Z</time>
      </trkpt>
      <trkpt lat="43.50747" lon="6.74348">
        <ele>207</ele>
        <time>2010-05-02T07:57:24Z</time>
      </trkpt>
      <trkpt lat="43.50744" lon="6.74353">
        <ele>207</ele>
        <time>2010-05-02T07:57:25Z</time>
      </trkpt>
      <trkpt lat="43.50737" lon="6.74358">
        <ele>207</ele>
        <time>2010-05-02T07:57:27Z</time>
      </trkpt>
      <trkpt lat="43.50732" lon="6.74358">
        <ele>207</ele>
        <time>2010-05-02T07:57:29Z</time>
      </trkpt>
      <trkpt lat="43.50727" lon="6.74355">
        <ele>207</ele>
        <time>2010-05-02T07:57:31Z</time>
      </trkpt>
      <trkpt lat="43.50722" lon="6.74352">
        <ele>208</ele>
        <time>2010-05-02T07:57:33Z</time>
      </trkpt>
      <trkpt lat="43.50713" lon="6.74352">
        <ele>208</ele>
        <time>2010-05-02T07:57:36Z</time>
      </trkpt>
      <trkpt lat="43.50707" lon="6.74356">
        <ele>208</ele>
        <time>2010-05-02T07:57:38Z</time>
      </trkpt>
      <trkpt lat="43.50701" lon="6.74359">
        <ele>208</ele>
        <time>2010-05-02T07:57:40Z</time>
      </trkpt>
      <trkpt lat="43.50693" lon="6.74362">
        <ele>208</ele>
        <time>2010-05-02T07:57:42Z</time>
      </trkpt>
      <trkpt lat="43.50687" lon="6.74364">
        <ele>208</ele>
        <time>2010-05-02T07:57:44Z</time>
      </trkpt>
      <trkpt lat="43.50681" lon="6.74366">
        <ele>208</ele>
        <time>2010-05-02T07:57:46Z</time>
      </trkpt>
      <trkpt lat="43.50676" lon="6.74367">
        <ele>209</ele>
        <time>2010-05-02T07:57:49Z</time>
      </trkpt>
      <trkpt lat="43.50671" lon="6.74372">
        <ele>210</ele>
        <time>2010-05-02T07:57:57Z</time>
      </trkpt>
      <trkpt lat="43.50667" lon="6.74374">
        <ele>210</ele>
        <time>2010-05-02T07:58:00Z</time>
      </trkpt>
      <trkpt lat="43.5066" lon="6.74376">
        <ele>210</ele>
        <time>2010-05-02T07:58:03Z</time>
      </trkpt>
      <trkpt lat="43.50654" lon="6.74378">
        <ele>210</ele>
        <time>2010-05-02T07:58:05Z</time>
      </trkpt>
      <trkpt lat="43.50647" lon="6.74379">
        <ele>210</ele>
        <time>2010-05-02T07:58:07Z</time>
      </trkpt>
      <trkpt lat="43.50637" lon="6.7438">
        <ele>210</ele>
        <time>2010-05-02T07:58:10Z</time>
      </trkpt>
      <trkpt lat="43.5063" lon="6.74381">
        <ele>210</ele>
        <time>2010-05-02T07:58:12Z</time>
      </trkpt>
      <trkpt lat="43.50622" lon="6.74382">
        <ele>210</ele>
        <time>2010-05-02T07:58:14Z</time>
      </trkpt>
      <trkpt lat="43.50615" lon="6.74384">
        <ele>210</ele>
        <time>2010-05-02T07:58:16Z</time>
      </trkpt>
      <trkpt lat="43.50608" lon="6.74386">
        <ele>211</ele>
        <time>2010-05-02T07:58:18Z</time>
      </trkpt>
      <trkpt lat="43.506" lon="6.74387">
        <ele>211</ele>
        <time>2010-05-02T07:58:20Z</time>
      </trkpt>
      <trkpt lat="43.50589" lon="6.7439">
        <ele>211</ele>
        <time>2010-05-02T07:58:23Z</time>
      </trkpt>
      <trkpt lat="43.50582" lon="6.74392">
        <ele>211</ele>
        <time>2010-05-02T07:58:25Z</time>
      </trkpt>
      <trkpt lat="43.50574" lon="6.74394">
        <ele>211</ele>
        <time>2010-05-02T07:58:27Z</time>
      </trkpt>
      <trkpt lat="43.50566" lon="6.74395">
        <ele>211</ele>
        <time>2010-05-02T07:58:29Z</time>
      </trkpt>
      <trkpt lat="43.50559" lon="6.74396">
        <ele>211</ele>
        <time>2010-05-02T07:58:31Z</time>
      </trkpt>
      <trkpt lat="43.50552" lon="6.74397">
        <ele>211</ele>
        <time>2010-05-02T07:58:33Z</time>
      </trkpt>
      <trkpt lat="43.50542" lon="6.74399">
        <ele>211</ele>
        <time>2010-05-02T07:58:36Z</time>
      </trkpt>
      <trkpt lat="43.50535" lon="6.74399">
        <ele>212</ele>
        <time>2010-05-02T07:58:38Z</time>
      </trkpt>
      <trkpt lat="43.50529" lon="6.744">
        <ele>212</ele>
        <time>2010-05-02T07:58:40Z</time>
      </trkpt>
      <trkpt lat="43.50522" lon="6.74401">
        <ele>212</ele>
        <time>2010-05-02T07:58:42Z</time>
      </trkpt>
      <trkpt lat="43.50516" lon="6.74401">
        <ele>213</ele>
        <time>2010-05-02T07:58:44Z</time>
      </trkpt>
      <trkpt lat="43.50509" lon="6.74402">
        <ele>213</ele>
        <time>2010-05-02T07:58:46Z</time>
      </trkpt>
      <trkpt lat="43.50503" lon="6.74403">
        <ele>213</ele>
        <time>2010-05-02T07:58:48Z</time>
      </trkpt>
      <trkpt lat="43.50496" lon="6.74404">
        <ele>213</ele>
        <time>2010-05-02T07:58:50Z</time>
      </trkpt>
      <trkpt lat="43.50489" lon="6.74406">
        <ele>213</ele>
        <time>2010-05-02T07:58:52Z</time>
      </trkpt>
      <trkpt lat="43.50482" lon="6.74408">
        <ele>214</ele>
        <time>2010-05-02T07:58:54Z</time>
      </trkpt>
      <trkpt lat="43.50471" lon="6.7441">
        <ele>214</ele>
        <time>2010-05-02T07:58:57Z</time>
      </trkpt>
      <trkpt lat="43.50465" lon="6.74412">
        <ele>214</ele>
        <time>2010-05-02T07:58:59Z</time>
      </trkpt>
      <trkpt lat="43.50457" lon="6.74414">
        <ele>214</ele>
        <time>2010-05-02T07:59:01Z</time>
      </trkpt>
      <trkpt lat="43.5045" lon="6.74415">
        <ele>215</ele>
        <time>2010-05-02T07:59:03Z</time>
      </trkpt>
      <trkpt lat="43.50443" lon="6.74417">
        <ele>215</ele>
        <time>2010-05-02T07:59:05Z</time>
      </trkpt>
      <trkpt lat="43.50436" lon="6.74418">
        <ele>215</ele>
        <time>2010-05-02T07:59:07Z</time>
      </trkpt>
      <trkpt lat="43.50426" lon="6.74418">
        <ele>216</ele>
        <time>2010-05-02T07:59:10Z</time>
      </trkpt>
      <trkpt lat="43.50419" lon="6.74418">
        <ele>216</ele>
        <time>2010-05-02T07:59:12Z</time>
      </trkpt>
      <trkpt lat="43.50411" lon="6.74417">
        <ele>216</ele>
        <time>2010-05-02T07:59:14Z</time>
      </trkpt>
      <trkpt lat="43.50404" lon="6.74414">
        <ele>216</ele>
        <time>2010-05-02T07:59:16Z</time>
      </trkpt>
      <trkpt lat="43.50398" lon="6.7441">
        <ele>216</ele>
        <time>2010-05-02T07:59:18Z</time>
      </trkpt>
      <trkpt lat="43.50393" lon="6.74404">
        <ele>216</ele>
        <time>2010-05-02T07:59:20Z</time>
      </trkpt>
      <trkpt lat="43.50387" lon="6.74393">
        <ele>217</ele>
        <time>2010-05-02T07:59:23Z</time>
      </trkpt>
      <trkpt lat="43.50386" lon="6.74385">
        <ele>218</ele>
        <time>2010-05-02T07:59:25Z</time>
      </trkpt>
      <trkpt lat="43.50385" lon="6.74377">
        <ele>219</ele>
        <time>2010-05-02T07:59:27Z</time>
      </trkpt>
      <trkpt lat="43.50385" lon="6.74369">
        <ele>220</ele>
        <time>2010-05-02T07:59:29Z</time>
      </trkpt>
      <trkpt lat="43.50386" lon="6.7436">
        <ele>220</ele>
        <time>2010-05-02T07:59:31Z</time>
      </trkpt>
      <trkpt lat="43.50385" lon="6.74353">
        <ele>221</ele>
        <time>2010-05-02T07:59:33Z</time>
      </trkpt>
      <trkpt lat="43.50383" lon="6.74342">
        <ele>222</ele>
        <time>2010-05-02T07:59:36Z</time>
      </trkpt>
      <trkpt lat="43.50381" lon="6.74334">
        <ele>222</ele>
        <time>2010-05-02T07:59:38Z</time>
      </trkpt>
      <trkpt lat="43.50378" lon="6.74327">
        <ele>222</ele>
        <time>2010-05-02T07:59:40Z</time>
      </trkpt>
      <trkpt lat="43.50376" lon="6.7432">
        <ele>223</ele>
        <time>2010-05-02T07:59:42Z</time>
      </trkpt>
      <trkpt lat="43.50372" lon="6.74313">
        <ele>222</ele>
        <time>2010-05-02T07:59:44Z</time>
      </trkpt>
      <trkpt lat="43.50366" lon="6.74311">
        <ele>222</ele>
        <time>2010-05-02T07:59:46Z</time>
      </trkpt>
      <trkpt lat="43.5036" lon="6.74312">
        <ele>223</ele>
        <time>2010-05-02T07:59:48Z</time>
      </trkpt>
      <trkpt lat="43.50355" lon="6.74314">
        <ele>223</ele>
        <time>2010-05-02T07:59:50Z</time>
      </trkpt>
      <trkpt lat="43.50349" lon="6.74313">
        <ele>224</ele>
        <time>2010-05-02T07:59:53Z</time>
      </trkpt>
      <trkpt lat="43.50342" lon="6.74308">
        <ele>224</ele>
        <time>2010-05-02T07:59:57Z</time>
      </trkpt>
      <trkpt lat="43.50336" lon="6.74308">
        <ele>225</ele>
        <time>2010-05-02T07:59:59Z</time>
      </trkpt>
      <trkpt lat="43.50331" lon="6.74312">
        <ele>225</ele>
        <time>2010-05-02T08:00:02Z</time>
      </trkpt>
      <trkpt lat="43.50326" lon="6.74317">
        <ele>225</ele>
        <time>2010-05-02T08:00:04Z</time>
      </trkpt>
      <trkpt lat="43.50322" lon="6.74322">
        <ele>225</ele>
        <time>2010-05-02T08:00:06Z</time>
      </trkpt>
      <trkpt lat="43.50311" lon="6.74333">
        <ele>224</ele>
        <time>2010-05-02T08:00:10Z</time>
      </trkpt>
      <trkpt lat="43.50304" lon="6.7434">
        <ele>224</ele>
        <time>2010-05-02T08:00:12Z</time>
      </trkpt>
      <trkpt lat="43.50297" lon="6.74344">
        <ele>224</ele>
        <time>2010-05-02T08:00:14Z</time>
      </trkpt>
      <trkpt lat="43.5029" lon="6.7435">
        <ele>224</ele>
        <time>2010-05-02T08:00:16Z</time>
      </trkpt>
      <trkpt lat="43.50284" lon="6.74359">
        <ele>224</ele>
        <time>2010-05-02T08:00:18Z</time>
      </trkpt>
      <trkpt lat="43.50281" lon="6.74364">
        <ele>224</ele>
        <time>2010-05-02T08:00:19Z</time>
      </trkpt>
      <trkpt lat="43.50266" lon="6.74379">
        <ele>223</ele>
        <time>2010-05-02T08:00:23Z</time>
      </trkpt>
      <trkpt lat="43.50259" lon="6.74388">
        <ele>223</ele>
        <time>2010-05-02T08:00:25Z</time>
      </trkpt>
      <trkpt lat="43.50257" lon="6.74395">
        <ele>223</ele>
        <time>2010-05-02T08:00:26Z</time>
      </trkpt>
      <trkpt lat="43.50253" lon="6.74401">
        <ele>223</ele>
        <time>2010-05-02T08:00:27Z</time>
      </trkpt>
      <trkpt lat="43.50249" lon="6.74407">
        <ele>224</ele>
        <time>2010-05-02T08:00:28Z</time>
      </trkpt>
      <trkpt lat="43.50245" lon="6.74412">
        <ele>224</ele>
        <time>2010-05-02T08:00:29Z</time>
      </trkpt>
      <trkpt lat="43.50242" lon="6.74418">
        <ele>224</ele>
        <time>2010-05-02T08:00:30Z</time>
      </trkpt>
      <trkpt lat="43.50239" lon="6.74424">
        <ele>224</ele>
        <time>2010-05-02T08:00:31Z</time>
      </trkpt>
      <trkpt lat="43.50235" lon="6.74428">
        <ele>224</ele>
        <time>2010-05-02T08:00:32Z</time>
      </trkpt>
      <trkpt lat="43.50221" lon="6.74444">
        <ele>223</ele>
        <time>2010-05-02T08:00:36Z</time>
      </trkpt>
      <trkpt lat="43.50214" lon="6.74452">
        <ele>223</ele>
        <time>2010-05-02T08:00:38Z</time>
      </trkpt>
      <trkpt lat="43.50208" lon="6.74456">
        <ele>222</ele>
        <time>2010-05-02T08:00:39Z</time>
      </trkpt>
      <trkpt lat="43.50203" lon="6.74461">
        <ele>222</ele>
        <time>2010-05-02T08:00:40Z</time>
      </trkpt>
      <trkpt lat="43.50199" lon="6.74464">
        <ele>222</ele>
        <time>2010-05-02T08:00:41Z</time>
      </trkpt>
      <trkpt lat="43.50193" lon="6.74466">
        <ele>222</ele>
        <time>2010-05-02T08:00:42Z</time>
      </trkpt>
      <trkpt lat="43.50187" lon="6.74467">
        <ele>222</ele>
        <time>2010-05-02T08:00:43Z</time>
      </trkpt>
      <trkpt lat="43.50181" lon="6.74468">
        <ele>222</ele>
        <time>2010-05-02T08:00:44Z</time>
      </trkpt>
      <trkpt lat="43.50176" lon="6.74471">
        <ele>222</ele>
        <time>2010-05-02T08:00:45Z</time>
      </trkpt>
      <trkpt lat="43.50172" lon="6.74475">
        <ele>222</ele>
        <time>2010-05-02T08:00:46Z</time>
      </trkpt>
      <trkpt lat="43.50168" lon="6.74478">
        <ele>222</ele>
        <time>2010-05-02T08:00:47Z</time>
      </trkpt>
      <trkpt lat="43.50163" lon="6.74482">
        <ele>221</ele>
        <time>2010-05-02T08:00:48Z</time>
      </trkpt>
      <trkpt lat="43.50158" lon="6.74484">
        <ele>221</ele>
        <time>2010-05-02T08:00:49Z</time>
      </trkpt>
      <trkpt lat="43.50154" lon="6.74487">
        <ele>221</ele>
        <time>2010-05-02T08:00:50Z</time>
      </trkpt>
      <trkpt lat="43.50148" lon="6.74493">
        <ele>221</ele>
        <time>2010-05-02T08:00:52Z</time>
      </trkpt>
      <trkpt lat="43.50142" lon="6.74499">
        <ele>221</ele>
        <time>2010-05-02T08:00:54Z</time>
      </trkpt>
      <trkpt lat="43.50135" lon="6.74507">
        <ele>221</ele>
        <time>2010-05-02T08:00:57Z</time>
      </trkpt>
      <trkpt lat="43.50129" lon="6.74513">
        <ele>221</ele>
        <time>2010-05-02T08:00:59Z</time>
      </trkpt>
      <trkpt lat="43.50126" lon="6.7452">
        <ele>220</ele>
        <time>2010-05-02T08:01:01Z</time>
      </trkpt>
      <trkpt lat="43.50123" lon="6.74529">
        <ele>220</ele>
        <time>2010-05-02T08:01:03Z</time>
      </trkpt>
      <trkpt lat="43.50122" lon="6.74537">
        <ele>220</ele>
        <time>2010-05-02T08:01:05Z</time>
      </trkpt>
      <trkpt lat="43.50119" lon="6.74546">
        <ele>220</ele>
        <time>2010-05-02T08:01:07Z</time>
      </trkpt>
      <trkpt lat="43.50118" lon="6.74554">
        <ele>220</ele>
        <time>2010-05-02T08:01:10Z</time>
      </trkpt>
      <trkpt lat="43.50118" lon="6.74563">
        <ele>220</ele>
        <time>2010-05-02T08:01:12Z</time>
      </trkpt>
      <trkpt lat="43.50117" lon="6.74574">
        <ele>220</ele>
        <time>2010-05-02T08:01:14Z</time>
      </trkpt>
      <trkpt lat="43.50115" lon="6.74586">
        <ele>220</ele>
        <time>2010-05-02T08:01:16Z</time>
      </trkpt>
      <trkpt lat="43.50114" lon="6.74592">
        <ele>220</ele>
        <time>2010-05-02T08:01:17Z</time>
      </trkpt>
      <trkpt lat="43.50114" lon="6.74599">
        <ele>220</ele>
        <time>2010-05-02T08:01:18Z</time>
      </trkpt>
      <trkpt lat="43.50114" lon="6.74605">
        <ele>220</ele>
        <time>2010-05-02T08:01:19Z</time>
      </trkpt>
      <trkpt lat="43.50111" lon="6.74623">
        <ele>219</ele>
        <time>2010-05-02T08:01:23Z</time>
      </trkpt>
      <trkpt lat="43.50112" lon="6.74631">
        <ele>219</ele>
        <time>2010-05-02T08:01:25Z</time>
      </trkpt>
      <trkpt lat="43.50114" lon="6.7464">
        <ele>218</ele>
        <time>2010-05-02T08:01:27Z</time>
      </trkpt>
      <trkpt lat="43.50115" lon="6.74651">
        <ele>218</ele>
        <time>2010-05-02T08:01:29Z</time>
      </trkpt>
      <trkpt lat="43.50117" lon="6.74661">
        <ele>217</ele>
        <time>2010-05-02T08:01:31Z</time>
      </trkpt>
      <trkpt lat="43.50119" lon="6.74672">
        <ele>216</ele>
        <time>2010-05-02T08:01:33Z</time>
      </trkpt>
      <trkpt lat="43.50124" lon="6.74688">
        <ele>215</ele>
        <time>2010-05-02T08:01:36Z</time>
      </trkpt>
      <trkpt lat="43.50126" lon="6.74696">
        <ele>215</ele>
        <time>2010-05-02T08:01:38Z</time>
      </trkpt>
      <trkpt lat="43.50128" lon="6.74704">
        <ele>214</ele>
        <time>2010-05-02T08:01:40Z</time>
      </trkpt>
      <trkpt lat="43.50129" lon="6.74711">
        <ele>213</ele>
        <time>2010-05-02T08:01:42Z</time>
      </trkpt>
      <trkpt lat="43.50129" lon="6.7472">
        <ele>213</ele>
        <time>2010-05-02T08:01:44Z</time>
      </trkpt>
      <trkpt lat="43.5013" lon="6.74731">
        <ele>212</ele>
        <time>2010-05-02T08:01:46Z</time>
      </trkpt>
      <trkpt lat="43.50131" lon="6.74741">
        <ele>212</ele>
        <time>2010-05-02T08:01:48Z</time>
      </trkpt>
      <trkpt lat="43.50132" lon="6.74748">
        <ele>211</ele>
        <time>2010-05-02T08:01:50Z</time>
      </trkpt>
      <trkpt lat="43.50134" lon="6.74756">
        <ele>210</ele>
        <time>2010-05-02T08:01:52Z</time>
      </trkpt>
      <trkpt lat="43.50137" lon="6.74764">
        <ele>210</ele>
        <time>2010-05-02T08:01:54Z</time>
      </trkpt>
      <trkpt lat="43.50139" lon="6.74771">
        <ele>209</ele>
        <time>2010-05-02T08:01:56Z</time>
      </trkpt>
      <trkpt lat="43.50141" lon="6.74782">
        <ele>208</ele>
        <time>2010-05-02T08:01:59Z</time>
      </trkpt>
      <trkpt lat="43.50142" lon="6.74789">
        <ele>207</ele>
        <time>2010-05-02T08:02:02Z</time>
      </trkpt>
      <trkpt lat="43.50143" lon="6.74796">
        <ele>207</ele>
        <time>2010-05-02T08:02:07Z</time>
      </trkpt>
      <trkpt lat="43.50147" lon="6.74806">
        <ele>205</ele>
        <time>2010-05-02T08:02:12Z</time>
      </trkpt>
      <trkpt lat="43.50149" lon="6.74813">
        <ele>205</ele>
        <time>2010-05-02T08:02:14Z</time>
      </trkpt>
      <trkpt lat="43.50151" lon="6.74823">
        <ele>204</ele>
        <time>2010-05-02T08:02:16Z</time>
      </trkpt>
      <trkpt lat="43.50154" lon="6.74834">
        <ele>203</ele>
        <time>2010-05-02T08:02:18Z</time>
      </trkpt>
      <trkpt lat="43.50159" lon="6.74843">
        <ele>203</ele>
        <time>2010-05-02T08:02:20Z</time>
      </trkpt>
      <trkpt lat="43.50163" lon="6.74853">
        <ele>202</ele>
        <time>2010-05-02T08:02:22Z</time>
      </trkpt>
      <trkpt lat="43.5017" lon="6.7487">
        <ele>201</ele>
        <time>2010-05-02T08:02:25Z</time>
      </trkpt>
      <trkpt lat="43.50173" lon="6.74875">
        <ele>200</ele>
        <time>2010-05-02T08:02:26Z</time>
      </trkpt>
      <trkpt lat="43.50175" lon="6.74882">
        <ele>200</ele>
        <time>2010-05-02T08:02:27Z</time>
      </trkpt>
      <trkpt lat="43.50177" lon="6.74889">
        <ele>200</ele>
        <time>2010-05-02T08:02:28Z</time>
      </trkpt>
      <trkpt lat="43.50179" lon="6.74896">
        <ele>199</ele>
        <time>2010-05-02T08:02:29Z</time>
      </trkpt>
      <trkpt lat="43.5018" lon="6.74904">
        <ele>199</ele>
        <time>2010-05-02T08:02:30Z</time>
      </trkpt>
      <trkpt lat="43.5018" lon="6.7491">
        <ele>199</ele>
        <time>2010-05-02T08:02:31Z</time>
      </trkpt>
      <trkpt lat="43.50181" lon="6.74917">
        <ele>199</ele>
        <time>2010-05-02T08:02:32Z</time>
      </trkpt>
      <trkpt lat="43.50183" lon="6.74924">
        <ele>198</ele>
        <time>2010-05-02T08:02:33Z</time>
      </trkpt>
      <trkpt lat="43.50185" lon="6.74931">
        <ele>198</ele>
        <time>2010-05-02T08:02:34Z</time>
      </trkpt>
      <trkpt lat="43.50186" lon="6.74938">
        <ele>198</ele>
        <time>2010-05-02T08:02:35Z</time>
      </trkpt>
      <trkpt lat="43.50191" lon="6.74961">
        <ele>196</ele>
        <time>2010-05-02T08:02:38Z</time>
      </trkpt>
      <trkpt lat="43.50192" lon="6.74967">
        <ele>195</ele>
        <time>2010-05-02T08:02:39Z</time>
      </trkpt>
      <trkpt lat="43.50197" lon="6.74974">
        <ele>195</ele>
        <time>2010-05-02T08:02:41Z</time>
      </trkpt>
      <trkpt lat="43.50203" lon="6.74973">
        <ele>195</ele>
        <time>2010-05-02T08:02:44Z</time>
      </trkpt>
      <trkpt lat="43.50207" lon="6.74967">
        <ele>195</ele>
        <time>2010-05-02T08:02:48Z</time>
      </trkpt>
      <trkpt lat="43.50212" lon="6.74964">
        <ele>194</ele>
        <time>2010-05-02T08:02:53Z</time>
      </trkpt>
      <trkpt lat="43.50217" lon="6.74962">
        <ele>195</ele>
        <time>2010-05-02T08:02:57Z</time>
      </trkpt>
      <trkpt lat="43.50222" lon="6.74961">
        <ele>195</ele>
        <time>2010-05-02T08:03:01Z</time>
      </trkpt>
      <trkpt lat="43.50228" lon="6.74957">
        <ele>195</ele>
        <time>2010-05-02T08:03:04Z</time>
      </trkpt>
      <trkpt lat="43.50234" lon="6.74956">
        <ele>194</ele>
        <time>2010-05-02T08:03:06Z</time>
      </trkpt>
      <trkpt lat="43.50242" lon="6.74953">
        <ele>194</ele>
        <time>2010-05-02T08:03:10Z</time>
      </trkpt>
      <trkpt lat="43.50244" lon="6.74946">
        <ele>194</ele>
        <time>2010-05-02T08:03:14Z</time>
      </trkpt>
      <trkpt lat="43.50245" lon="6.74945">
        <ele>193</ele>
        <time>2010-05-02T08:03:16Z</time>
      </trkpt>
      <trkpt lat="43.50247" lon="6.74944">
        <ele>193</ele>
        <time>2010-05-02T08:03:20Z</time>
      </trkpt>
      <trkpt lat="43.50253" lon="6.74944">
        <ele>193</ele>
        <time>2010-05-02T08:03:23Z</time>
      </trkpt>
      <trkpt lat="43.50259" lon="6.7494">
        <ele>192</ele>
        <time>2010-05-02T08:03:26Z</time>
      </trkpt>
      <trkpt lat="43.50265" lon="6.7494">
        <ele>191</ele>
        <time>2010-05-02T08:03:28Z</time>
      </trkpt>
      <trkpt lat="43.50271" lon="6.74942">
        <ele>190</ele>
        <time>2010-05-02T08:03:30Z</time>
      </trkpt>
      <trkpt lat="43.50275" lon="6.74943">
        <ele>189</ele>
        <time>2010-05-02T08:03:32Z</time>
      </trkpt>
      <trkpt lat="43.50281" lon="6.74956">
        <ele>188</ele>
        <time>2010-05-02T08:03:36Z</time>
      </trkpt>
      <trkpt lat="43.50287" lon="6.74963">
        <ele>188</ele>
        <time>2010-05-02T08:03:38Z</time>
      </trkpt>
      <trkpt lat="43.50294" lon="6.7497">
        <ele>187</ele>
        <time>2010-05-02T08:03:40Z</time>
      </trkpt>
      <trkpt lat="43.50298" lon="6.74974">
        <ele>186</ele>
        <time>2010-05-02T08:03:41Z</time>
      </trkpt>
      <trkpt lat="43.50303" lon="6.74982">
        <ele>185</ele>
        <time>2010-05-02T08:03:43Z</time>
      </trkpt>
      <trkpt lat="43.50309" lon="6.74986">
        <ele>185</ele>
        <time>2010-05-02T08:03:45Z</time>
      </trkpt>
      <trkpt lat="43.50315" lon="6.74992">
        <ele>184</ele>
        <time>2010-05-02T08:03:47Z</time>
      </trkpt>
      <trkpt lat="43.50321" lon="6.74998">
        <ele>184</ele>
        <time>2010-05-02T08:03:49Z</time>
      </trkpt>
      <trkpt lat="43.50328" lon="6.75004">
        <ele>183</ele>
        <time>2010-05-02T08:03:51Z</time>
      </trkpt>
      <trkpt lat="43.50332" lon="6.75011">
        <ele>182</ele>
        <time>2010-05-02T08:03:53Z</time>
      </trkpt>
      <trkpt lat="43.50338" lon="6.75019">
        <ele>180</ele>
        <time>2010-05-02T08:03:57Z</time>
      </trkpt>
      <trkpt lat="43.5034" lon="6.75022">
        <ele>178</ele>
        <time>2010-05-02T08:04:01Z</time>
      </trkpt>
      <trkpt lat="43.50341" lon="6.75026">
        <ele>177</ele>
        <time>2010-05-02T08:04:07Z</time>
      </trkpt>
      <trkpt lat="43.50341" lon="6.75029">
        <ele>176</ele>
        <time>2010-05-02T08:04:10Z</time>
      </trkpt>
      <trkpt lat="43.50345" lon="6.75036">
        <ele>175</ele>
        <time>2010-05-02T08:04:15Z</time>
      </trkpt>
      <trkpt lat="43.50347" lon="6.75044">
        <ele>175</ele>
        <time>2010-05-02T08:04:23Z</time>
      </trkpt>
      <trkpt lat="43.50349" lon="6.75049">
        <ele>174</ele>
        <time>2010-05-02T08:04:25Z</time>
      </trkpt>
      <trkpt lat="43.50351" lon="6.75055">
        <ele>174</ele>
        <time>2010-05-02T08:04:27Z</time>
      </trkpt>
      <trkpt lat="43.50354" lon="6.75063">
        <ele>174</ele>
        <time>2010-05-02T08:04:29Z</time>
      </trkpt>
      <trkpt lat="43.50358" lon="6.75071">
        <ele>173</ele>
        <time>2010-05-02T08:04:31Z</time>
      </trkpt>
      <trkpt lat="43.50362" lon="6.75079">
        <ele>173</ele>
        <time>2010-05-02T08:04:33Z</time>
      </trkpt>
      <trkpt lat="43.50365" lon="6.75085">
        <ele>173</ele>
        <time>2010-05-02T08:04:36Z</time>
      </trkpt>
      <trkpt lat="43.5037" lon="6.75086">
        <ele>173</ele>
        <time>2010-05-02T08:04:45Z</time>
      </trkpt>
      <trkpt lat="43.50375" lon="6.75082">
        <ele>173</ele>
        <time>2010-05-02T08:04:52Z</time>
      </trkpt>
      <trkpt lat="43.50378" lon="6.7508">
        <ele>173</ele>
        <time>2010-05-02T08:04:58Z</time>
      </trkpt>
      <trkpt lat="43.50382" lon="6.7508">
        <ele>174</ele>
        <time>2010-05-02T08:05:07Z</time>
      </trkpt>
      <trkpt lat="43.50384" lon="6.75081">
        <ele>174</ele>
        <time>2010-05-02T08:05:10Z</time>
      </trkpt>
      <trkpt lat="43.50386" lon="6.7508">
        <ele>174</ele>
        <time>2010-05-02T08:05:12Z</time>
      </trkpt>
      <trkpt lat="43.50389" lon="6.75077">
        <ele>176</ele>
        <time>2010-05-02T08:05:20Z</time>
      </trkpt>
      <trkpt lat="43.5039" lon="6.75074">
        <ele>176</ele>
        <time>2010-05-02T08:05:23Z</time>
      </trkpt>
      <trkpt lat="43.50392" lon="6.75069">
        <ele>177</ele>
        <time>2010-05-02T08:05:31Z</time>
      </trkpt>
      <trkpt lat="43.50392" lon="6.75069">
        <ele>177</ele>
        <time>2010-05-02T08:05:31Z</time>
      </trkpt>
      <trkpt lat="43.50395" lon="6.75064">
        <ele>178</ele>
        <time>2010-05-02T08:05:39Z</time>
      </trkpt>
      <trkpt lat="43.50396" lon="6.75063">
        <ele>178</ele>
        <time>2010-05-02T08:05:40Z</time>
      </trkpt>
      <trkpt lat="43.504" lon="6.75061">
        <ele>179</ele>
        <time>2010-05-02T08:05:46Z</time>
      </trkpt>
      <trkpt lat="43.50403" lon="6.75058">
        <ele>180</ele>
        <time>2010-05-02T08:05:50Z</time>
      </trkpt>
      <trkpt lat="43.50406" lon="6.75057">
        <ele>180</ele>
        <time>2010-05-02T08:05:54Z</time>
      </trkpt>
      <trkpt lat="43.50408" lon="6.75056">
        <ele>180</ele>
        <time>2010-05-02T08:05:57Z</time>
      </trkpt>
      <trkpt lat="43.50411" lon="6.75055">
        <ele>181</ele>
        <time>2010-05-02T08:06:01Z</time>
      </trkpt>
      <trkpt lat="43.50412" lon="6.75054">
        <ele>181</ele>
        <time>2010-05-02T08:06:07Z</time>
      </trkpt>
      <trkpt lat="43.50414" lon="6.7505">
        <ele>181</ele>
        <time>2010-05-02T08:06:10Z</time>
      </trkpt>
      <trkpt lat="43.50415" lon="6.75044">
        <ele>182</ele>
        <time>2010-05-02T08:06:15Z</time>
      </trkpt>
      <trkpt lat="43.50416" lon="6.75041">
        <ele>183</ele>
        <time>2010-05-02T08:06:18Z</time>
      </trkpt>
      <trkpt lat="43.50417" lon="6.75036">
        <ele>183</ele>
        <time>2010-05-02T08:06:23Z</time>
      </trkpt>
      <trkpt lat="43.50417" lon="6.75035">
        <ele>184</ele>
        <time>2010-05-02T08:06:24Z</time>
      </trkpt>
      <trkpt lat="43.5042" lon="6.75029">
        <ele>185</ele>
        <time>2010-05-02T08:06:30Z</time>
      </trkpt>
      <trkpt lat="43.50424" lon="6.75025">
        <ele>186</ele>
        <time>2010-05-02T08:06:36Z</time>
      </trkpt>
      <trkpt lat="43.50427" lon="6.75019">
        <ele>187</ele>
        <time>2010-05-02T08:06:43Z</time>
      </trkpt>
      <trkpt lat="43.50429" lon="6.75013">
        <ele>187</ele>
        <time>2010-05-02T08:06:48Z</time>
      </trkpt>
      <trkpt lat="43.50434" lon="6.75011">
        <ele>187</ele>
        <time>2010-05-02T08:06:54Z</time>
      </trkpt>
      <trkpt lat="43.50436" lon="6.75011">
        <ele>188</ele>
        <time>2010-05-02T08:06:57Z</time>
      </trkpt>
      <trkpt lat="43.5044" lon="6.75009">
        <ele>189</ele>
        <time>2010-05-02T08:07:04Z</time>
      </trkpt>
      <trkpt lat="43.50441" lon="6.75008">
        <ele>189</ele>
        <time>2010-05-02T08:07:05Z</time>
      </trkpt>
      <trkpt lat="43.50444" lon="6.75006">
        <ele>190</ele>
        <time>2010-05-02T08:07:10Z</time>
      </trkpt>
      <trkpt lat="43.50449" lon="6.75005">
        <ele>191</ele>
        <time>2010-05-02T08:07:18Z</time>
      </trkpt>
      <trkpt lat="43.5045" lon="6.75006">
        <ele>191</ele>
        <time>2010-05-02T08:07:19Z</time>
      </trkpt>
      <trkpt lat="43.50455" lon="6.75005">
        <ele>192</ele>
        <time>2010-05-02T08:07:25Z</time>
      </trkpt>
      <trkpt lat="43.50458" lon="6.75006">
        <ele>194</ele>
        <time>2010-05-02T08:07:32Z</time>
      </trkpt>
      <trkpt lat="43.50459" lon="6.75006">
        <ele>196</ele>
        <time>2010-05-02T08:09:42Z</time>
      </trkpt>
      <trkpt lat="43.50465" lon="6.75007">
        <ele>196</ele>
        <time>2010-05-02T08:09:43Z</time>
      </trkpt>
      <trkpt lat="43.50471" lon="6.75007">
        <ele>196</ele>
        <time>2010-05-02T08:09:46Z</time>
      </trkpt>
      <trkpt lat="43.50477" lon="6.75008">
        <ele>196</ele>
        <time>2010-05-02T08:09:48Z</time>
      </trkpt>
      <trkpt lat="43.50482" lon="6.7501">
        <ele>196</ele>
        <time>2010-05-02T08:09:50Z</time>
      </trkpt>
      <trkpt lat="43.50483" lon="6.75016">
        <ele>195</ele>
        <time>2010-05-02T08:09:52Z</time>
      </trkpt>
      <trkpt lat="43.50485" lon="6.75023">
        <ele>195</ele>
        <time>2010-05-02T08:09:57Z</time>
      </trkpt>
      <trkpt lat="43.50488" lon="6.75029">
        <ele>194</ele>
        <time>2010-05-02T08:10:00Z</time>
      </trkpt>
      <trkpt lat="43.50489" lon="6.75036">
        <ele>193</ele>
        <time>2010-05-02T08:10:03Z</time>
      </trkpt>
      <trkpt lat="43.50489" lon="6.75038">
        <ele>193</ele>
        <time>2010-05-02T08:10:05Z</time>
      </trkpt>
      <trkpt lat="43.50489" lon="6.75044">
        <ele>192</ele>
        <time>2010-05-02T08:10:20Z</time>
      </trkpt>
      <trkpt lat="43.50489" lon="6.75052">
        <ele>192</ele>
        <time>2010-05-02T08:10:23Z</time>
      </trkpt>
      <trkpt lat="43.50489" lon="6.75059">
        <ele>189</ele>
        <time>2010-05-02T08:10:29Z</time>
      </trkpt>
      <trkpt lat="43.50489" lon="6.75059">
        <ele>189</ele>
        <time>2010-05-02T08:10:30Z</time>
      </trkpt>
      <trkpt lat="43.50489" lon="6.75065">
        <ele>188</ele>
        <time>2010-05-02T08:10:41Z</time>
      </trkpt>
      <trkpt lat="43.50489" lon="6.75066">
        <ele>188</ele>
        <time>2010-05-02T08:10:42Z</time>
      </trkpt>
      <trkpt lat="43.50489" lon="6.75068">
        <ele>188</ele>
        <time>2010-05-02T08:10:45Z</time>
      </trkpt>
      <trkpt lat="43.50489" lon="6.75072">
        <ele>187</ele>
        <time>2010-05-02T08:10:50Z</time>
      </trkpt>
      <trkpt lat="43.50489" lon="6.75075">
        <ele>187</ele>
        <time>2010-05-02T08:10:51Z</time>
      </trkpt>
      <trkpt lat="43.50487" lon="6.75082">
        <ele>187</ele>
        <time>2010-05-02T08:10:54Z</time>
      </trkpt>
      <trkpt lat="43.50488" lon="6.75088">
        <ele>185</ele>
        <time>2010-05-02T08:11:00Z</time>
      </trkpt>
      <trkpt lat="43.50487" lon="6.75095">
        <ele>184</ele>
        <time>2010-05-02T08:11:13Z</time>
      </trkpt>
      <trkpt lat="43.50487" lon="6.75101">
        <ele>183</ele>
        <time>2010-05-02T08:11:17Z</time>
      </trkpt>
      <trkpt lat="43.50487" lon="6.75108">
        <ele>182</ele>
        <time>2010-05-02T08:11:20Z</time>
      </trkpt>
      <trkpt lat="43.50489" lon="6.75116">
        <ele>181</ele>
        <time>2010-05-02T08:11:24Z</time>
      </trkpt>
      <trkpt lat="43.50488" lon="6.75123">
        <ele>181</ele>
        <time>2010-05-02T08:11:29Z</time>
      </trkpt>
      <trkpt lat="43.50488" lon="6.75132">
        <ele>180</ele>
        <time>2010-05-02T08:11:33Z</time>
      </trkpt>
      <trkpt lat="43.50488" lon="6.75148">
        <ele>179</ele>
        <time>2010-05-02T08:11:37Z</time>
      </trkpt>
      <trkpt lat="43.50489" lon="6.75158">
        <ele>177</ele>
        <time>2010-05-02T08:11:39Z</time>
      </trkpt>
      <trkpt lat="43.50488" lon="6.75165">
        <ele>176</ele>
        <time>2010-05-02T08:11:41Z</time>
      </trkpt>
      <trkpt lat="43.50486" lon="6.7517">
        <ele>176</ele>
        <time>2010-05-02T08:11:43Z</time>
      </trkpt>
      <trkpt lat="43.50486" lon="6.75179">
        <ele>174</ele>
        <time>2010-05-02T08:11:46Z</time>
      </trkpt>
      <trkpt lat="43.50488" lon="6.75187">
        <ele>172</ele>
        <time>2010-05-02T08:11:50Z</time>
      </trkpt>
      <trkpt lat="43.50488" lon="6.75195">
        <ele>171</ele>
        <time>2010-05-02T08:11:53Z</time>
      </trkpt>
      <trkpt lat="43.50489" lon="6.75204">
        <ele>170</ele>
        <time>2010-05-02T08:11:56Z</time>
      </trkpt>
      <trkpt lat="43.50491" lon="6.7521">
        <ele>169</ele>
        <time>2010-05-02T08:11:58Z</time>
      </trkpt>
      <trkpt lat="43.50489" lon="6.75219">
        <ele>167</ele>
        <time>2010-05-02T08:12:02Z</time>
      </trkpt>
      <trkpt lat="43.50488" lon="6.75227">
        <ele>166</ele>
        <time>2010-05-02T08:12:04Z</time>
      </trkpt>
      <trkpt lat="43.50488" lon="6.75234">
        <ele>165</ele>
        <time>2010-05-02T08:12:06Z</time>
      </trkpt>
      <trkpt lat="43.50487" lon="6.75242">
        <ele>164</ele>
        <time>2010-05-02T08:12:08Z</time>
      </trkpt>
      <trkpt lat="43.50487" lon="6.75253">
        <ele>163</ele>
        <time>2010-05-02T08:12:10Z</time>
      </trkpt>
      <trkpt lat="43.50488" lon="6.75277">
        <ele>162</ele>
        <time>2010-05-02T08:12:14Z</time>
      </trkpt>
      <trkpt lat="43.50489" lon="6.75283">
        <ele>161</ele>
        <time>2010-05-02T08:12:15Z</time>
      </trkpt>
      <trkpt lat="43.50492" lon="6.75294">
        <ele>160</ele>
        <time>2010-05-02T08:12:17Z</time>
      </trkpt>
      <trkpt lat="43.50494" lon="6.75301">
        <ele>159</ele>
        <time>2010-05-02T08:12:18Z</time>
      </trkpt>
      <trkpt lat="43.50497" lon="6.75308">
        <ele>159</ele>
        <time>2010-05-02T08:12:19Z</time>
      </trkpt>
      <trkpt lat="43.50499" lon="6.75314">
        <ele>158</ele>
        <time>2010-05-02T08:12:20Z</time>
      </trkpt>
      <trkpt lat="43.50502" lon="6.75321">
        <ele>157</ele>
        <time>2010-05-02T08:12:21Z</time>
      </trkpt>
      <trkpt lat="43.50505" lon="6.75328">
        <ele>156</ele>
        <time>2010-05-02T08:12:22Z</time>
      </trkpt>
      <trkpt lat="43.50508" lon="6.75335">
        <ele>156</ele>
        <time>2010-05-02T08:12:23Z</time>
      </trkpt>
      <trkpt lat="43.5051" lon="6.75341">
        <ele>155</ele>
        <time>2010-05-02T08:12:24Z</time>
      </trkpt>
      <trkpt lat="43.50513" lon="6.75357">
        <ele>154</ele>
        <time>2010-05-02T08:12:27Z</time>
      </trkpt>
      <trkpt lat="43.50511" lon="6.75369">
        <ele>153</ele>
        <time>2010-05-02T08:12:29Z</time>
      </trkpt>
      <trkpt lat="43.5051" lon="6.75375">
        <ele>153</ele>
        <time>2010-05-02T08:12:30Z</time>
      </trkpt>
      <trkpt lat="43.50508" lon="6.75381">
        <ele>152</ele>
        <time>2010-05-02T08:12:31Z</time>
      </trkpt>
      <trkpt lat="43.50503" lon="6.75391">
        <ele>151</ele>
        <time>2010-05-02T08:12:33Z</time>
      </trkpt>
      <trkpt lat="43.50498" lon="6.75397">
        <ele>150</ele>
        <time>2010-05-02T08:12:35Z</time>
      </trkpt>
      <trkpt lat="43.50489" lon="6.75408">
        <ele>148</ele>
        <time>2010-05-02T08:12:40Z</time>
      </trkpt>
      <trkpt lat="43.50484" lon="6.75412">
        <ele>147</ele>
        <time>2010-05-02T08:12:43Z</time>
      </trkpt>
      <trkpt lat="43.50479" lon="6.75415">
        <ele>146</ele>
        <time>2010-05-02T08:12:45Z</time>
      </trkpt>
      <trkpt lat="43.50474" lon="6.75418">
        <ele>145</ele>
        <time>2010-05-02T08:12:47Z</time>
      </trkpt>
      <trkpt lat="43.50468" lon="6.75422">
        <ele>144</ele>
        <time>2010-05-02T08:12:49Z</time>
      </trkpt>
      <trkpt lat="43.50465" lon="6.75429">
        <ele>144</ele>
        <time>2010-05-02T08:12:51Z</time>
      </trkpt>
      <trkpt lat="43.50463" lon="6.75437">
        <ele>143</ele>
        <time>2010-05-02T08:12:53Z</time>
      </trkpt>
      <trkpt lat="43.5046" lon="6.75454">
        <ele>139</ele>
        <time>2010-05-02T08:12:57Z</time>
      </trkpt>
      <trkpt lat="43.50461" lon="6.75461">
        <ele>138</ele>
        <time>2010-05-02T08:12:58Z</time>
      </trkpt>
      <trkpt lat="43.50463" lon="6.75468">
        <ele>137</ele>
        <time>2010-05-02T08:12:59Z</time>
      </trkpt>
      <trkpt lat="43.50464" lon="6.75474">
        <ele>137</ele>
        <time>2010-05-02T08:13:00Z</time>
      </trkpt>
      <trkpt lat="43.50464" lon="6.75481">
        <ele>136</ele>
        <time>2010-05-02T08:13:01Z</time>
      </trkpt>
      <trkpt lat="43.50463" lon="6.75489">
        <ele>135</ele>
        <time>2010-05-02T08:13:03Z</time>
      </trkpt>
      <trkpt lat="43.50461" lon="6.75495">
        <ele>134</ele>
        <time>2010-05-02T08:13:06Z</time>
      </trkpt>
      <trkpt lat="43.50459" lon="6.75502">
        <ele>126</ele>
        <time>2010-05-02T08:13:17Z</time>
      </trkpt>
      <trkpt lat="43.50458" lon="6.75508">
        <ele>125</ele>
        <time>2010-05-02T08:13:19Z</time>
      </trkpt>
      <trkpt lat="43.50451" lon="6.7552">
        <ele>124</ele>
        <time>2010-05-02T08:13:23Z</time>
      </trkpt>
      <trkpt lat="43.50448" lon="6.75525">
        <ele>122</ele>
        <time>2010-05-02T08:13:25Z</time>
      </trkpt>
      <trkpt lat="43.50444" lon="6.75527">
        <ele>120</ele>
        <time>2010-05-02T08:13:27Z</time>
      </trkpt>
      <trkpt lat="43.50439" lon="6.75528">
        <ele>119</ele>
        <time>2010-05-02T08:13:29Z</time>
      </trkpt>
      <trkpt lat="43.50434" lon="6.75534">
        <ele>118</ele>
        <time>2010-05-02T08:13:32Z</time>
      </trkpt>
      <trkpt lat="43.50431" lon="6.7554">
        <ele>116</ele>
        <time>2010-05-02T08:13:36Z</time>
      </trkpt>
      <trkpt lat="43.50431" lon="6.7554">
        <ele>116</ele>
        <time>2010-05-02T08:13:37Z</time>
      </trkpt>
      <trkpt lat="43.50429" lon="6.75543">
        <ele>113</ele>
        <time>2010-05-02T08:13:44Z</time>
      </trkpt>
      <trkpt lat="43.50428" lon="6.75545">
        <ele>113</ele>
        <time>2010-05-02T08:13:45Z</time>
      </trkpt>
      <trkpt lat="43.50423" lon="6.75548">
        <ele>112</ele>
        <time>2010-05-02T08:13:47Z</time>
      </trkpt>
      <trkpt lat="43.50416" lon="6.75552">
        <ele>111</ele>
        <time>2010-05-02T08:13:49Z</time>
      </trkpt>
      <trkpt lat="43.50412" lon="6.75557">
        <ele>110</ele>
        <time>2010-05-02T08:13:50Z</time>
      </trkpt>
      <trkpt lat="43.50409" lon="6.75562">
        <ele>109</ele>
        <time>2010-05-02T08:13:51Z</time>
      </trkpt>
      <trkpt lat="43.50406" lon="6.75571">
        <ele>108</ele>
        <time>2010-05-02T08:13:53Z</time>
      </trkpt>
      <trkpt lat="43.504" lon="6.75595">
        <ele>105</ele>
        <time>2010-05-02T08:13:57Z</time>
      </trkpt>
      <trkpt lat="43.50398" lon="6.75604">
        <ele>105</ele>
        <time>2010-05-02T08:13:58Z</time>
      </trkpt>
      <trkpt lat="43.50398" lon="6.75613">
        <ele>104</ele>
        <time>2010-05-02T08:13:59Z</time>
      </trkpt>
      <trkpt lat="43.50398" lon="6.75619">
        <ele>103</ele>
        <time>2010-05-02T08:14:00Z</time>
      </trkpt>
      <trkpt lat="43.504" lon="6.75624">
        <ele>101</ele>
        <time>2010-05-02T08:14:03Z</time>
      </trkpt>
      <trkpt lat="43.504" lon="6.75624">
        <ele>101</ele>
        <time>2010-05-02T08:14:03Z</time>
      </trkpt>
      <trkpt lat="43.504" lon="6.75625">
        <ele>95</ele>
        <time>2010-05-02T08:15:58Z</time>
      </trkpt>
      <trkpt lat="43.50406" lon="6.75629">
        <ele>93</ele>
        <time>2010-05-02T08:15:59Z</time>
      </trkpt>
      <trkpt lat="43.50411" lon="6.75632">
        <ele>93</ele>
        <time>2010-05-02T08:16:02Z</time>
      </trkpt>
      <trkpt lat="43.50415" lon="6.75633">
        <ele>93</ele>
        <time>2010-05-02T08:16:04Z</time>
      </trkpt>
      <trkpt lat="43.50422" lon="6.75635">
        <ele>92</ele>
        <time>2010-05-02T08:16:06Z</time>
      </trkpt>
      <trkpt lat="43.50437" lon="6.75643">
        <ele>92</ele>
        <time>2010-05-02T08:16:10Z</time>
      </trkpt>
      <trkpt lat="43.50444" lon="6.75648">
        <ele>92</ele>
        <time>2010-05-02T08:16:12Z</time>
      </trkpt>
      <trkpt lat="43.50451" lon="6.75651">
        <ele>91</ele>
        <time>2010-05-02T08:16:14Z</time>
      </trkpt>
      <trkpt lat="43.50459" lon="6.75652">
        <ele>92</ele>
        <time>2010-05-02T08:16:16Z</time>
      </trkpt>
      <trkpt lat="43.50467" lon="6.75649">
        <ele>92</ele>
        <time>2010-05-02T08:16:18Z</time>
      </trkpt>
      <trkpt lat="43.50472" lon="6.75642">
        <ele>91</ele>
        <time>2010-05-02T08:16:20Z</time>
      </trkpt>
      <trkpt lat="43.50475" lon="6.75634">
        <ele>90</ele>
        <time>2010-05-02T08:16:23Z</time>
      </trkpt>
      <trkpt lat="43.50479" lon="6.7563">
        <ele>90</ele>
        <time>2010-05-02T08:16:25Z</time>
      </trkpt>
      <trkpt lat="43.50484" lon="6.75624">
        <ele>90</ele>
        <time>2010-05-02T08:16:27Z</time>
      </trkpt>
      <trkpt lat="43.50489" lon="6.75615">
        <ele>90</ele>
        <time>2010-05-02T08:16:29Z</time>
      </trkpt>
      <trkpt lat="43.50493" lon="6.75606">
        <ele>89</ele>
        <time>2010-05-02T08:16:31Z</time>
      </trkpt>
      <trkpt lat="43.50497" lon="6.75595">
        <ele>90</ele>
        <time>2010-05-02T08:16:33Z</time>
      </trkpt>
      <trkpt lat="43.50504" lon="6.7558">
        <ele>90</ele>
        <time>2010-05-02T08:16:36Z</time>
      </trkpt>
      <trkpt lat="43.50509" lon="6.7557">
        <ele>90</ele>
        <time>2010-05-02T08:16:38Z</time>
      </trkpt>
      <trkpt lat="43.50512" lon="6.75565">
        <ele>90</ele>
        <time>2010-05-02T08:16:39Z</time>
      </trkpt>
      <trkpt lat="43.50516" lon="6.75561">
        <ele>90</ele>
        <time>2010-05-02T08:16:40Z</time>
      </trkpt>
      <trkpt lat="43.50522" lon="6.75554">
        <ele>90</ele>
        <time>2010-05-02T08:16:42Z</time>
      </trkpt>
      <trkpt lat="43.50526" lon="6.7555">
        <ele>90</ele>
        <time>2010-05-02T08:16:43Z</time>
      </trkpt>
      <trkpt lat="43.5053" lon="6.75547">
        <ele>90</ele>
        <time>2010-05-02T08:16:44Z</time>
      </trkpt>
      <trkpt lat="43.50534" lon="6.75543">
        <ele>90</ele>
        <time>2010-05-02T08:16:45Z</time>
      </trkpt>
      <trkpt lat="43.50539" lon="6.75538">
        <ele>90</ele>
        <time>2010-05-02T08:16:46Z</time>
      </trkpt>
      <trkpt lat="43.50544" lon="6.75535">
        <ele>90</ele>
        <time>2010-05-02T08:16:47Z</time>
      </trkpt>
      <trkpt lat="43.50548" lon="6.75532">
        <ele>90</ele>
        <time>2010-05-02T08:16:48Z</time>
      </trkpt>
      <trkpt lat="43.50554" lon="6.75528">
        <ele>90</ele>
        <time>2010-05-02T08:16:49Z</time>
      </trkpt>
      <trkpt lat="43.50559" lon="6.75523">
        <ele>90</ele>
        <time>2010-05-02T08:16:50Z</time>
      </trkpt>
      <trkpt lat="43.50563" lon="6.7552">
        <ele>90</ele>
        <time>2010-05-02T08:16:51Z</time>
      </trkpt>
      <trkpt lat="43.50569" lon="6.75515">
        <ele>90</ele>
        <time>2010-05-02T08:16:52Z</time>
      </trkpt>
      <trkpt lat="43.50575" lon="6.75512">
        <ele>90</ele>
        <time>2010-05-02T08:16:53Z</time>
      </trkpt>
      <trkpt lat="43.5058" lon="6.75508">
        <ele>91</ele>
        <time>2010-05-02T08:16:54Z</time>
      </trkpt>
      <trkpt lat="43.50596" lon="6.75498">
        <ele>91</ele>
        <time>2010-05-02T08:16:57Z</time>
      </trkpt>
      <trkpt lat="43.50601" lon="6.75496">
        <ele>91</ele>
        <time>2010-05-02T08:16:58Z</time>
      </trkpt>
      <trkpt lat="43.50606" lon="6.75494">
        <ele>91</ele>
        <time>2010-05-02T08:16:59Z</time>
      </trkpt>
      <trkpt lat="43.50611" lon="6.75492">
        <ele>91</ele>
        <time>2010-05-02T08:17:00Z</time>
      </trkpt>
      <trkpt lat="43.50619" lon="6.75491">
        <ele>91</ele>
        <time>2010-05-02T08:17:02Z</time>
      </trkpt>
      <trkpt lat="43.50627" lon="6.75489">
        <ele>91</ele>
        <time>2010-05-02T08:17:04Z</time>
      </trkpt>
      <trkpt lat="43.50634" lon="6.75489">
        <ele>91</ele>
        <time>2010-05-02T08:17:06Z</time>
      </trkpt>
      <trkpt lat="43.50645" lon="6.75487">
        <ele>91</ele>
        <time>2010-05-02T08:17:10Z</time>
      </trkpt>
      <trkpt lat="43.5065" lon="6.75486">
        <ele>91</ele>
        <time>2010-05-02T08:17:12Z</time>
      </trkpt>
      <trkpt lat="43.50655" lon="6.75486">
        <ele>91</ele>
        <time>2010-05-02T08:17:14Z</time>
      </trkpt>
      <trkpt lat="43.50661" lon="6.75486">
        <ele>91</ele>
        <time>2010-05-02T08:17:16Z</time>
      </trkpt>
      <trkpt lat="43.50666" lon="6.75485">
        <ele>91</ele>
        <time>2010-05-02T08:17:18Z</time>
      </trkpt>
      <trkpt lat="43.50671" lon="6.75484">
        <ele>91</ele>
        <time>2010-05-02T08:17:20Z</time>
      </trkpt>
      <trkpt lat="43.5068" lon="6.75481">
        <ele>91</ele>
        <time>2010-05-02T08:17:23Z</time>
      </trkpt>
      <trkpt lat="43.50685" lon="6.75477">
        <ele>91</ele>
        <time>2010-05-02T08:17:25Z</time>
      </trkpt>
      <trkpt lat="43.50689" lon="6.75474">
        <ele>91</ele>
        <time>2010-05-02T08:17:27Z</time>
      </trkpt>
      <trkpt lat="43.50694" lon="6.75471">
        <ele>92</ele>
        <time>2010-05-02T08:17:29Z</time>
      </trkpt>
      <trkpt lat="43.50698" lon="6.75468">
        <ele>92</ele>
        <time>2010-05-02T08:17:31Z</time>
      </trkpt>
      <trkpt lat="43.50702" lon="6.75465">
        <ele>93</ele>
        <time>2010-05-02T08:17:33Z</time>
      </trkpt>
      <trkpt lat="43.50709" lon="6.7546">
        <ele>93</ele>
        <time>2010-05-02T08:17:36Z</time>
      </trkpt>
      <trkpt lat="43.50713" lon="6.75457">
        <ele>93</ele>
        <time>2010-05-02T08:17:38Z</time>
      </trkpt>
      <trkpt lat="43.50717" lon="6.75454">
        <ele>94</ele>
        <time>2010-05-02T08:17:40Z</time>
      </trkpt>
      <trkpt lat="43.50722" lon="6.75451">
        <ele>94</ele>
        <time>2010-05-02T08:17:42Z</time>
      </trkpt>
      <trkpt lat="43.50728" lon="6.75447">
        <ele>95</ele>
        <time>2010-05-02T08:17:45Z</time>
      </trkpt>
      <trkpt lat="43.50734" lon="6.75442">
        <ele>95</ele>
        <time>2010-05-02T08:17:48Z</time>
      </trkpt>
      <trkpt lat="43.50738" lon="6.75439">
        <ele>95</ele>
        <time>2010-05-02T08:17:50Z</time>
      </trkpt>
      <trkpt lat="43.50742" lon="6.75435">
        <ele>96</ele>
        <time>2010-05-02T08:17:52Z</time>
      </trkpt>
      <trkpt lat="43.50746" lon="6.75431">
        <ele>96</ele>
        <time>2010-05-02T08:17:54Z</time>
      </trkpt>
      <trkpt lat="43.50751" lon="6.75425">
        <ele>97</ele>
        <time>2010-05-02T08:17:57Z</time>
      </trkpt>
      <trkpt lat="43.50755" lon="6.7542">
        <ele>97</ele>
        <time>2010-05-02T08:18:00Z</time>
      </trkpt>
      <trkpt lat="43.50759" lon="6.75415">
        <ele>97</ele>
        <time>2010-05-02T08:18:03Z</time>
      </trkpt>
      <trkpt lat="43.50762" lon="6.75409">
        <ele>98</ele>
        <time>2010-05-02T08:18:06Z</time>
      </trkpt>
      <trkpt lat="43.50767" lon="6.75402">
        <ele>99</ele>
        <time>2010-05-02T08:18:10Z</time>
      </trkpt>
      <trkpt lat="43.50772" lon="6.75398">
        <ele>100</ele>
        <time>2010-05-02T08:18:13Z</time>
      </trkpt>
      <trkpt lat="43.50776" lon="6.75395">
        <ele>101</ele>
        <time>2010-05-02T08:18:16Z</time>
      </trkpt>
      <trkpt lat="43.50781" lon="6.75391">
        <ele>102</ele>
        <time>2010-05-02T08:18:19Z</time>
      </trkpt>
      <trkpt lat="43.50789" lon="6.75387">
        <ele>103</ele>
        <time>2010-05-02T08:18:23Z</time>
      </trkpt>
      <trkpt lat="43.50795" lon="6.75384">
        <ele>102</ele>
        <time>2010-05-02T08:18:26Z</time>
      </trkpt>
      <trkpt lat="43.50802" lon="6.75382">
        <ele>103</ele>
        <time>2010-05-02T08:18:29Z</time>
      </trkpt>
      <trkpt lat="43.50806" lon="6.75383">
        <ele>104</ele>
        <time>2010-05-02T08:18:32Z</time>
      </trkpt>
      <trkpt lat="43.50813" lon="6.75381">
        <ele>105</ele>
        <time>2010-05-02T08:18:36Z</time>
      </trkpt>
      <trkpt lat="43.50818" lon="6.75382">
        <ele>105</ele>
        <time>2010-05-02T08:18:39Z</time>
      </trkpt>
      <trkpt lat="43.50823" lon="6.75383">
        <ele>106</ele>
        <time>2010-05-02T08:18:42Z</time>
      </trkpt>
      <trkpt lat="43.50828" lon="6.75382">
        <ele>107</ele>
        <time>2010-05-02T08:18:46Z</time>
      </trkpt>
      <trkpt lat="43.50835" lon="6.75381">
        <ele>108</ele>
        <time>2010-05-02T08:18:50Z</time>
      </trkpt>
      <trkpt lat="43.5084" lon="6.7538">
        <ele>108</ele>
        <time>2010-05-02T08:18:53Z</time>
      </trkpt>
      <trkpt lat="43.50847" lon="6.75375">
        <ele>110</ele>
        <time>2010-05-02T08:18:57Z</time>
      </trkpt>
      <trkpt lat="43.50853" lon="6.75373">
        <ele>110</ele>
        <time>2010-05-02T08:19:00Z</time>
      </trkpt>
      <trkpt lat="43.50858" lon="6.75371">
        <ele>111</ele>
        <time>2010-05-02T08:19:03Z</time>
      </trkpt>
      <trkpt lat="43.50863" lon="6.7537">
        <ele>112</ele>
        <time>2010-05-02T08:19:06Z</time>
      </trkpt>
      <trkpt lat="43.50869" lon="6.75373">
        <ele>112</ele>
        <time>2010-05-02T08:19:10Z</time>
      </trkpt>
      <trkpt lat="43.50873" lon="6.75377">
        <ele>114</ele>
        <time>2010-05-02T08:19:13Z</time>
      </trkpt>
      <trkpt lat="43.50879" lon="6.75382">
        <ele>114</ele>
        <time>2010-05-02T08:19:16Z</time>
      </trkpt>
      <trkpt lat="43.50883" lon="6.75389">
        <ele>114</ele>
        <time>2010-05-02T08:19:19Z</time>
      </trkpt>
      <trkpt lat="43.50889" lon="6.75397">
        <ele>114</ele>
        <time>2010-05-02T08:19:23Z</time>
      </trkpt>
      <trkpt lat="43.50894" lon="6.75402">
        <ele>114</ele>
        <time>2010-05-02T08:19:26Z</time>
      </trkpt>
      <trkpt lat="43.50899" lon="6.75407">
        <ele>115</ele>
        <time>2010-05-02T08:19:29Z</time>
      </trkpt>
      <trkpt lat="43.50904" lon="6.75409">
        <ele>115</ele>
        <time>2010-05-02T08:19:31Z</time>
      </trkpt>
      <trkpt lat="43.50908" lon="6.75411">
        <ele>114</ele>
        <time>2010-05-02T08:19:33Z</time>
      </trkpt>
      <trkpt lat="43.50918" lon="6.75417">
        <ele>115</ele>
        <time>2010-05-02T08:19:36Z</time>
      </trkpt>
      <trkpt lat="43.50924" lon="6.75421">
        <ele>115</ele>
        <time>2010-05-02T08:19:38Z</time>
      </trkpt>
      <trkpt lat="43.5093" lon="6.75426">
        <ele>114</ele>
        <time>2010-05-02T08:19:40Z</time>
      </trkpt>
      <trkpt lat="43.50936" lon="6.75432">
        <ele>114</ele>
        <time>2010-05-02T08:19:42Z</time>
      </trkpt>
      <trkpt lat="43.50942" lon="6.75438">
        <ele>114</ele>
        <time>2010-05-02T08:19:44Z</time>
      </trkpt>
      <trkpt lat="43.50947" lon="6.75444">
        <ele>115</ele>
        <time>2010-05-02T08:19:46Z</time>
      </trkpt>
      <trkpt lat="43.50952" lon="6.75451">
        <ele>115</ele>
        <time>2010-05-02T08:19:48Z</time>
      </trkpt>
      <trkpt lat="43.50956" lon="6.75457">
        <ele>115</ele>
        <time>2010-05-02T08:19:50Z</time>
      </trkpt>
      <trkpt lat="43.50958" lon="6.75465">
        <ele>115</ele>
        <time>2010-05-02T08:19:52Z</time>
      </trkpt>
      <trkpt lat="43.5096" lon="6.75472">
        <ele>115</ele>
        <time>2010-05-02T08:19:54Z</time>
      </trkpt>
      <trkpt lat="43.50961" lon="6.75482">
        <ele>115</ele>
        <time>2010-05-02T08:19:57Z</time>
      </trkpt>
      <trkpt lat="43.50963" lon="6.75489">
        <ele>115</ele>
        <time>2010-05-02T08:19:59Z</time>
      </trkpt>
      <trkpt lat="43.50964" lon="6.75494">
        <ele>115</ele>
        <time>2010-05-02T08:20:01Z</time>
      </trkpt>
      <trkpt lat="43.50965" lon="6.75501">
        <ele>115</ele>
        <time>2010-05-02T08:20:03Z</time>
      </trkpt>
      <trkpt lat="43.50966" lon="6.7551">
        <ele>116</ele>
        <time>2010-05-02T08:20:06Z</time>
      </trkpt>
      <trkpt lat="43.50969" lon="6.75521">
        <ele>116</ele>
        <time>2010-05-02T08:20:10Z</time>
      </trkpt>
      <trkpt lat="43.5097" lon="6.75529">
        <ele>116</ele>
        <time>2010-05-02T08:20:13Z</time>
      </trkpt>
      <trkpt lat="43.50971" lon="6.75538">
        <ele>116</ele>
        <time>2010-05-02T08:20:16Z</time>
      </trkpt>
      <trkpt lat="43.50971" lon="6.75547">
        <ele>117</ele>
        <time>2010-05-02T08:20:19Z</time>
      </trkpt>
      <trkpt lat="43.50972" lon="6.75558">
        <ele>118</ele>
        <time>2010-05-02T08:20:23Z</time>
      </trkpt>
      <trkpt lat="43.50972" lon="6.75565">
        <ele>118</ele>
        <time>2010-05-02T08:20:25Z</time>
      </trkpt>
      <trkpt lat="43.50972" lon="6.75574">
        <ele>119</ele>
        <time>2010-05-02T08:20:28Z</time>
      </trkpt>
      <trkpt lat="43.50973" lon="6.75582">
        <ele>119</ele>
        <time>2010-05-02T08:20:31Z</time>
      </trkpt>
      <trkpt lat="43.50975" lon="6.75596">
        <ele>119</ele>
        <time>2010-05-02T08:20:36Z</time>
      </trkpt>
      <trkpt lat="43.50977" lon="6.75602">
        <ele>120</ele>
        <time>2010-05-02T08:20:38Z</time>
      </trkpt>
      <trkpt lat="43.50981" lon="6.75608">
        <ele>121</ele>
        <time>2010-05-02T08:20:41Z</time>
      </trkpt>
      <trkpt lat="43.50986" lon="6.7561">
        <ele>122</ele>
        <time>2010-05-02T08:20:44Z</time>
      </trkpt>
      <trkpt lat="43.50991" lon="6.75607">
        <ele>122</ele>
        <time>2010-05-02T08:20:47Z</time>
      </trkpt>
      <trkpt lat="43.50994" lon="6.756">
        <ele>123</ele>
        <time>2010-05-02T08:20:50Z</time>
      </trkpt>
      <trkpt lat="43.50996" lon="6.75592">
        <ele>123</ele>
        <time>2010-05-02T08:20:53Z</time>
      </trkpt>
      <trkpt lat="43.50998" lon="6.75581">
        <ele>124</ele>
        <time>2010-05-02T08:20:57Z</time>
      </trkpt>
      <trkpt lat="43.51001" lon="6.75573">
        <ele>125</ele>
        <time>2010-05-02T08:21:00Z</time>
      </trkpt>
      <trkpt lat="43.51003" lon="6.75565">
        <ele>126</ele>
        <time>2010-05-02T08:21:03Z</time>
      </trkpt>
      <trkpt lat="43.51006" lon="6.75558">
        <ele>127</ele>
        <time>2010-05-02T08:21:06Z</time>
      </trkpt>
      <trkpt lat="43.51011" lon="6.75549">
        <ele>128</ele>
        <time>2010-05-02T08:21:10Z</time>
      </trkpt>
      <trkpt lat="43.51015" lon="6.75544">
        <ele>128</ele>
        <time>2010-05-02T08:21:13Z</time>
      </trkpt>
      <trkpt lat="43.51019" lon="6.75539">
        <ele>129</ele>
        <time>2010-05-02T08:21:16Z</time>
      </trkpt>
      <trkpt lat="43.51023" lon="6.75533">
        <ele>130</ele>
        <time>2010-05-02T08:21:19Z</time>
      </trkpt>
      <trkpt lat="43.51029" lon="6.75526">
        <ele>131</ele>
        <time>2010-05-02T08:21:23Z</time>
      </trkpt>
      <trkpt lat="43.51032" lon="6.75522">
        <ele>131</ele>
        <time>2010-05-02T08:21:26Z</time>
      </trkpt>
      <trkpt lat="43.51037" lon="6.75516">
        <ele>132</ele>
        <time>2010-05-02T08:21:29Z</time>
      </trkpt>
      <trkpt lat="43.51041" lon="6.75512">
        <ele>132</ele>
        <time>2010-05-02T08:21:32Z</time>
      </trkpt>
      <trkpt lat="43.51046" lon="6.75506">
        <ele>133</ele>
        <time>2010-05-02T08:21:36Z</time>
      </trkpt>
      <trkpt lat="43.5105" lon="6.75501">
        <ele>134</ele>
        <time>2010-05-02T08:21:39Z</time>
      </trkpt>
      <trkpt lat="43.51054" lon="6.75497">
        <ele>134</ele>
        <time>2010-05-02T08:21:42Z</time>
      </trkpt>
      <trkpt lat="43.51058" lon="6.75492">
        <ele>135</ele>
        <time>2010-05-02T08:21:45Z</time>
      </trkpt>
      <trkpt lat="43.51062" lon="6.75489">
        <ele>135</ele>
        <time>2010-05-02T08:21:48Z</time>
      </trkpt>
      <trkpt lat="43.51067" lon="6.75486">
        <ele>136</ele>
        <time>2010-05-02T08:21:51Z</time>
      </trkpt>
      <trkpt lat="43.51071" lon="6.75484">
        <ele>136</ele>
        <time>2010-05-02T08:21:54Z</time>
      </trkpt>
      <trkpt lat="43.51077" lon="6.75481">
        <ele>137</ele>
        <time>2010-05-02T08:21:57Z</time>
      </trkpt>
      <trkpt lat="43.51082" lon="6.75478">
        <ele>138</ele>
        <time>2010-05-02T08:22:00Z</time>
      </trkpt>
      <trkpt lat="43.51086" lon="6.75474">
        <ele>139</ele>
        <time>2010-05-02T08:22:03Z</time>
      </trkpt>
      <trkpt lat="43.5109" lon="6.75469">
        <ele>140</ele>
        <time>2010-05-02T08:22:06Z</time>
      </trkpt>
      <trkpt lat="43.51091" lon="6.75459">
        <ele>141</ele>
        <time>2010-05-02T08:22:10Z</time>
      </trkpt>
      <trkpt lat="43.51091" lon="6.75451">
        <ele>142</ele>
        <time>2010-05-02T08:22:13Z</time>
      </trkpt>
      <trkpt lat="43.5109" lon="6.75444">
        <ele>143</ele>
        <time>2010-05-02T08:22:16Z</time>
      </trkpt>
      <trkpt lat="43.5109" lon="6.75436">
        <ele>145</ele>
        <time>2010-05-02T08:22:19Z</time>
      </trkpt>
      <trkpt lat="43.51088" lon="6.75426">
        <ele>146</ele>
        <time>2010-05-02T08:22:23Z</time>
      </trkpt>
      <trkpt lat="43.51088" lon="6.75418">
        <ele>147</ele>
        <time>2010-05-02T08:22:26Z</time>
      </trkpt>
      <trkpt lat="43.51086" lon="6.7541">
        <ele>148</ele>
        <time>2010-05-02T08:22:29Z</time>
      </trkpt>
      <trkpt lat="43.51085" lon="6.75403">
        <ele>149</ele>
        <time>2010-05-02T08:22:32Z</time>
      </trkpt>
      <trkpt lat="43.51085" lon="6.75393">
        <ele>150</ele>
        <time>2010-05-02T08:22:36Z</time>
      </trkpt>
      <trkpt lat="43.51086" lon="6.75386">
        <ele>150</ele>
        <time>2010-05-02T08:22:39Z</time>
      </trkpt>
      <trkpt lat="43.51087" lon="6.75379">
        <ele>151</ele>
        <time>2010-05-02T08:22:42Z</time>
      </trkpt>
      <trkpt lat="43.51088" lon="6.75373">
        <ele>152</ele>
        <time>2010-05-02T08:22:45Z</time>
      </trkpt>
      <trkpt lat="43.5109" lon="6.75366">
        <ele>153</ele>
        <time>2010-05-02T08:22:48Z</time>
      </trkpt>
      <trkpt lat="43.51091" lon="6.75359">
        <ele>153</ele>
        <time>2010-05-02T08:22:51Z</time>
      </trkpt>
      <trkpt lat="43.51093" lon="6.75352">
        <ele>154</ele>
        <time>2010-05-02T08:22:54Z</time>
      </trkpt>
      <trkpt lat="43.51093" lon="6.75345">
        <ele>155</ele>
        <time>2010-05-02T08:22:57Z</time>
      </trkpt>
      <trkpt lat="43.51095" lon="6.75338">
        <ele>156</ele>
        <time>2010-05-02T08:23:00Z</time>
      </trkpt>
      <trkpt lat="43.51099" lon="6.75333">
        <ele>156</ele>
        <time>2010-05-02T08:23:04Z</time>
      </trkpt>
      <trkpt lat="43.51107" lon="6.75339">
        <ele>156</ele>
        <time>2010-05-02T08:23:10Z</time>
      </trkpt>
      <trkpt lat="43.51107" lon="6.75346">
        <ele>157</ele>
        <time>2010-05-02T08:23:13Z</time>
      </trkpt>
      <trkpt lat="43.51107" lon="6.75353">
        <ele>157</ele>
        <time>2010-05-02T08:23:16Z</time>
      </trkpt>
      <trkpt lat="43.51104" lon="6.7536">
        <ele>158</ele>
        <time>2010-05-02T08:23:19Z</time>
      </trkpt>
      <trkpt lat="43.51102" lon="6.75369">
        <ele>159</ele>
        <time>2010-05-02T08:23:23Z</time>
      </trkpt>
      <trkpt lat="43.51102" lon="6.75375">
        <ele>159</ele>
        <time>2010-05-02T08:23:26Z</time>
      </trkpt>
      <trkpt lat="43.51103" lon="6.75382">
        <ele>160</ele>
        <time>2010-05-02T08:23:29Z</time>
      </trkpt>
      <trkpt lat="43.51104" lon="6.75389">
        <ele>161</ele>
        <time>2010-05-02T08:23:32Z</time>
      </trkpt>
      <trkpt lat="43.51106" lon="6.75398">
        <ele>161</ele>
        <time>2010-05-02T08:23:36Z</time>
      </trkpt>
      <trkpt lat="43.51109" lon="6.75405">
        <ele>161</ele>
        <time>2010-05-02T08:23:39Z</time>
      </trkpt>
      <trkpt lat="43.51112" lon="6.75411">
        <ele>162</ele>
        <time>2010-05-02T08:23:42Z</time>
      </trkpt>
      <trkpt lat="43.51115" lon="6.75417">
        <ele>162</ele>
        <time>2010-05-02T08:23:45Z</time>
      </trkpt>
      <trkpt lat="43.51119" lon="6.75423">
        <ele>163</ele>
        <time>2010-05-02T08:23:48Z</time>
      </trkpt>
      <trkpt lat="43.51122" lon="6.75429">
        <ele>163</ele>
        <time>2010-05-02T08:23:51Z</time>
      </trkpt>
      <trkpt lat="43.51126" lon="6.75434">
        <ele>164</ele>
        <time>2010-05-02T08:23:54Z</time>
      </trkpt>
      <trkpt lat="43.5113" lon="6.75439">
        <ele>165</ele>
        <time>2010-05-02T08:23:57Z</time>
      </trkpt>
      <trkpt lat="43.51134" lon="6.75444">
        <ele>165</ele>
        <time>2010-05-02T08:24:00Z</time>
      </trkpt>
      <trkpt lat="43.51137" lon="6.75449">
        <ele>166</ele>
        <time>2010-05-02T08:24:03Z</time>
      </trkpt>
      <trkpt lat="43.51141" lon="6.75454">
        <ele>167</ele>
        <time>2010-05-02T08:24:06Z</time>
      </trkpt>
      <trkpt lat="43.51145" lon="6.75462">
        <ele>168</ele>
        <time>2010-05-02T08:24:10Z</time>
      </trkpt>
      <trkpt lat="43.51147" lon="6.7547">
        <ele>168</ele>
        <time>2010-05-02T08:24:13Z</time>
      </trkpt>
      <trkpt lat="43.51147" lon="6.75478">
        <ele>169</ele>
        <time>2010-05-02T08:24:16Z</time>
      </trkpt>
      <trkpt lat="43.51145" lon="6.75486">
        <ele>169</ele>
        <time>2010-05-02T08:24:19Z</time>
      </trkpt>
      <trkpt lat="43.51142" lon="6.75496">
        <ele>170</ele>
        <time>2010-05-02T08:24:23Z</time>
      </trkpt>
      <trkpt lat="43.51139" lon="6.75503">
        <ele>171</ele>
        <time>2010-05-02T08:24:26Z</time>
      </trkpt>
      <trkpt lat="43.51135" lon="6.75511">
        <ele>171</ele>
        <time>2010-05-02T08:24:29Z</time>
      </trkpt>
      <trkpt lat="43.51132" lon="6.75519">
        <ele>171</ele>
        <time>2010-05-02T08:24:32Z</time>
      </trkpt>
      <trkpt lat="43.51131" lon="6.75533">
        <ele>172</ele>
        <time>2010-05-02T08:24:36Z</time>
      </trkpt>
      <trkpt lat="43.51134" lon="6.75541">
        <ele>172</ele>
        <time>2010-05-02T08:24:39Z</time>
      </trkpt>
      <trkpt lat="43.51138" lon="6.75547">
        <ele>173</ele>
        <time>2010-05-02T08:24:42Z</time>
      </trkpt>
      <trkpt lat="43.51142" lon="6.75551">
        <ele>173</ele>
        <time>2010-05-02T08:24:45Z</time>
      </trkpt>
      <trkpt lat="43.51148" lon="6.75555">
        <ele>174</ele>
        <time>2010-05-02T08:24:48Z</time>
      </trkpt>
      <trkpt lat="43.5115" lon="6.75556">
        <ele>174</ele>
        <time>2010-05-02T08:24:50Z</time>
      </trkpt>
      <trkpt lat="43.51149" lon="6.75554">
        <ele>176</ele>
        <time>2010-05-02T08:26:58Z</time>
      </trkpt>
      <trkpt lat="43.51155" lon="6.75553">
        <ele>177</ele>
        <time>2010-05-02T08:26:59Z</time>
      </trkpt>
      <trkpt lat="43.51156" lon="6.75553">
        <ele>177</ele>
        <time>2010-05-02T08:27:00Z</time>
      </trkpt>
      <trkpt lat="43.51156" lon="6.75551">
        <ele>177</ele>
        <time>2010-05-02T08:34:14Z</time>
      </trkpt>
      <trkpt lat="43.51162" lon="6.7555">
        <ele>176</ele>
        <time>2010-05-02T08:34:15Z</time>
      </trkpt>
      <trkpt lat="43.51169" lon="6.75548">
        <ele>177</ele>
        <time>2010-05-02T08:34:18Z</time>
      </trkpt>
      <trkpt lat="43.51176" lon="6.75544">
        <ele>176</ele>
        <time>2010-05-02T08:34:20Z</time>
      </trkpt>
      <trkpt lat="43.51187" lon="6.7554">
        <ele>176</ele>
        <time>2010-05-02T08:34:23Z</time>
      </trkpt>
      <trkpt lat="43.51194" lon="6.75538">
        <ele>177</ele>
        <time>2010-05-02T08:34:25Z</time>
      </trkpt>
      <trkpt lat="43.51201" lon="6.75536">
        <ele>177</ele>
        <time>2010-05-02T08:34:27Z</time>
      </trkpt>
      <trkpt lat="43.51205" lon="6.75534">
        <ele>178</ele>
        <time>2010-05-02T08:34:29Z</time>
      </trkpt>
      <trkpt lat="43.51209" lon="6.75532">
        <ele>178</ele>
        <time>2010-05-02T08:34:32Z</time>
      </trkpt>
      <trkpt lat="43.51216" lon="6.75534">
        <ele>178</ele>
        <time>2010-05-02T08:34:40Z</time>
      </trkpt>
      <trkpt lat="43.51222" lon="6.75536">
        <ele>177</ele>
        <time>2010-05-02T08:34:42Z</time>
      </trkpt>
      <trkpt lat="43.51228" lon="6.75537">
        <ele>177</ele>
        <time>2010-05-02T08:34:44Z</time>
      </trkpt>
      <trkpt lat="43.51234" lon="6.75536">
        <ele>177</ele>
        <time>2010-05-02T08:34:46Z</time>
      </trkpt>
      <trkpt lat="43.51239" lon="6.75536">
        <ele>177</ele>
        <time>2010-05-02T08:34:48Z</time>
      </trkpt>
      <trkpt lat="43.51246" lon="6.75536">
        <ele>176</ele>
        <time>2010-05-02T08:34:50Z</time>
      </trkpt>
      <trkpt lat="43.51251" lon="6.75534">
        <ele>176</ele>
        <time>2010-05-02T08:34:51Z</time>
      </trkpt>
      <trkpt lat="43.51255" lon="6.75533">
        <ele>175</ele>
        <time>2010-05-02T08:34:52Z</time>
      </trkpt>
      <trkpt lat="43.51261" lon="6.7553">
        <ele>175</ele>
        <time>2010-05-02T08:34:53Z</time>
      </trkpt>
      <trkpt lat="43.51266" lon="6.75529">
        <ele>174</ele>
        <time>2010-05-02T08:34:54Z</time>
      </trkpt>
      <trkpt lat="43.51273" lon="6.75528">
        <ele>174</ele>
        <time>2010-05-02T08:34:57Z</time>
      </trkpt>
      <trkpt lat="43.51275" lon="6.75536">
        <ele>172</ele>
        <time>2010-05-02T08:35:00Z</time>
      </trkpt>
      <trkpt lat="43.51276" lon="6.75543">
        <ele>172</ele>
        <time>2010-05-02T08:35:02Z</time>
      </trkpt>
      <trkpt lat="43.51278" lon="6.75549">
        <ele>171</ele>
        <time>2010-05-02T08:35:04Z</time>
      </trkpt>
      <trkpt lat="43.51283" lon="6.75557">
        <ele>169</ele>
        <time>2010-05-02T08:35:07Z</time>
      </trkpt>
      <trkpt lat="43.51287" lon="6.75567">
        <ele>168</ele>
        <time>2010-05-02T08:35:10Z</time>
      </trkpt>
      <trkpt lat="43.51291" lon="6.75573">
        <ele>167</ele>
        <time>2010-05-02T08:35:12Z</time>
      </trkpt>
      <trkpt lat="43.51297" lon="6.75576">
        <ele>166</ele>
        <time>2010-05-02T08:35:14Z</time>
      </trkpt>
      <trkpt lat="43.51302" lon="6.75581">
        <ele>166</ele>
        <time>2010-05-02T08:35:16Z</time>
      </trkpt>
      <trkpt lat="43.51305" lon="6.75587">
        <ele>165</ele>
        <time>2010-05-02T08:35:18Z</time>
      </trkpt>
      <trkpt lat="43.51309" lon="6.75593">
        <ele>164</ele>
        <time>2010-05-02T08:35:20Z</time>
      </trkpt>
      <trkpt lat="43.51313" lon="6.75597">
        <ele>163</ele>
        <time>2010-05-02T08:35:23Z</time>
      </trkpt>
      <trkpt lat="43.51319" lon="6.75599">
        <ele>162</ele>
        <time>2010-05-02T08:35:26Z</time>
      </trkpt>
      <trkpt lat="43.51324" lon="6.75602">
        <ele>160</ele>
        <time>2010-05-02T08:35:29Z</time>
      </trkpt>
      <trkpt lat="43.51329" lon="6.75606">
        <ele>158</ele>
        <time>2010-05-02T08:35:33Z</time>
      </trkpt>
      <trkpt lat="43.51333" lon="6.75609">
        <ele>157</ele>
        <time>2010-05-02T08:35:37Z</time>
      </trkpt>
      <trkpt lat="43.51338" lon="6.75611">
        <ele>155</ele>
        <time>2010-05-02T08:35:41Z</time>
      </trkpt>
      <trkpt lat="43.51344" lon="6.75615">
        <ele>153</ele>
        <time>2010-05-02T08:35:43Z</time>
      </trkpt>
      <trkpt lat="43.5135" lon="6.75621">
        <ele>151</ele>
        <time>2010-05-02T08:35:45Z</time>
      </trkpt>
      <trkpt lat="43.51354" lon="6.75624">
        <ele>150</ele>
        <time>2010-05-02T08:35:47Z</time>
      </trkpt>
      <trkpt lat="43.51358" lon="6.7562">
        <ele>147</ele>
        <time>2010-05-02T08:35:52Z</time>
      </trkpt>
      <trkpt lat="43.51361" lon="6.75614">
        <ele>145</ele>
        <time>2010-05-02T08:35:54Z</time>
      </trkpt>
      <trkpt lat="43.51366" lon="6.756">
        <ele>144</ele>
        <time>2010-05-02T08:35:57Z</time>
      </trkpt>
      <trkpt lat="43.5137" lon="6.75587">
        <ele>142</ele>
        <time>2010-05-02T08:35:59Z</time>
      </trkpt>
      <trkpt lat="43.51371" lon="6.7558">
        <ele>142</ele>
        <time>2010-05-02T08:36:00Z</time>
      </trkpt>
      <trkpt lat="43.51371" lon="6.75573">
        <ele>141</ele>
        <time>2010-05-02T08:36:01Z</time>
      </trkpt>
      <trkpt lat="43.51372" lon="6.75566">
        <ele>140</ele>
        <time>2010-05-02T08:36:02Z</time>
      </trkpt>
      <trkpt lat="43.51373" lon="6.75557">
        <ele>139</ele>
        <time>2010-05-02T08:36:04Z</time>
      </trkpt>
      <trkpt lat="43.51378" lon="6.7556">
        <ele>139</ele>
        <time>2010-05-02T08:36:07Z</time>
      </trkpt>
      <trkpt lat="43.51382" lon="6.75574">
        <ele>137</ele>
        <time>2010-05-02T08:36:10Z</time>
      </trkpt>
      <trkpt lat="43.51384" lon="6.75586">
        <ele>137</ele>
        <time>2010-05-02T08:36:12Z</time>
      </trkpt>
      <trkpt lat="43.51384" lon="6.75592">
        <ele>136</ele>
        <time>2010-05-02T08:36:13Z</time>
      </trkpt>
      <trkpt lat="43.51384" lon="6.756">
        <ele>136</ele>
        <time>2010-05-02T08:36:14Z</time>
      </trkpt>
      <trkpt lat="43.51383" lon="6.75607">
        <ele>136</ele>
        <time>2010-05-02T08:36:15Z</time>
      </trkpt>
      <trkpt lat="43.51383" lon="6.75615">
        <ele>135</ele>
        <time>2010-05-02T08:36:16Z</time>
      </trkpt>
      <trkpt lat="43.51381" lon="6.75622">
        <ele>135</ele>
        <time>2010-05-02T08:36:17Z</time>
      </trkpt>
      <trkpt lat="43.51381" lon="6.75628">
        <ele>134</ele>
        <time>2010-05-02T08:36:18Z</time>
      </trkpt>
      <trkpt lat="43.51379" lon="6.75639">
        <ele>134</ele>
        <time>2010-05-02T08:36:20Z</time>
      </trkpt>
      <trkpt lat="43.51376" lon="6.75652">
        <ele>133</ele>
        <time>2010-05-02T08:36:23Z</time>
      </trkpt>
      <trkpt lat="43.51375" lon="6.75659">
        <ele>132</ele>
        <time>2010-05-02T08:36:25Z</time>
      </trkpt>
      <trkpt lat="43.51376" lon="6.75667">
        <ele>130</ele>
        <time>2010-05-02T08:36:29Z</time>
      </trkpt>
      <trkpt lat="43.51381" lon="6.75667">
        <ele>129</ele>
        <time>2010-05-02T08:36:31Z</time>
      </trkpt>
      <trkpt lat="43.51387" lon="6.75662">
        <ele>127</ele>
        <time>2010-05-02T08:36:33Z</time>
      </trkpt>
      <trkpt lat="43.51393" lon="6.75654">
        <ele>125</ele>
        <time>2010-05-02T08:36:36Z</time>
      </trkpt>
      <trkpt lat="43.514" lon="6.75654">
        <ele>125</ele>
        <time>2010-05-02T08:36:39Z</time>
      </trkpt>
      <trkpt lat="43.51409" lon="6.75661">
        <ele>123</ele>
        <time>2010-05-02T08:36:41Z</time>
      </trkpt>
      <trkpt lat="43.51415" lon="6.75666">
        <ele>122</ele>
        <time>2010-05-02T08:36:42Z</time>
      </trkpt>
      <trkpt lat="43.51423" lon="6.75671">
        <ele>122</ele>
        <time>2010-05-02T08:36:43Z</time>
      </trkpt>
      <trkpt lat="43.5143" lon="6.75675">
        <ele>122</ele>
        <time>2010-05-02T08:36:44Z</time>
      </trkpt>
      <trkpt lat="43.51435" lon="6.75677">
        <ele>122</ele>
        <time>2010-05-02T08:36:45Z</time>
      </trkpt>
      <trkpt lat="43.5144" lon="6.7568">
        <ele>121</ele>
        <time>2010-05-02T08:36:47Z</time>
      </trkpt>
      <trkpt lat="43.51445" lon="6.75684">
        <ele>120</ele>
        <time>2010-05-02T08:36:49Z</time>
      </trkpt>
      <trkpt lat="43.5145" lon="6.75686">
        <ele>120</ele>
        <time>2010-05-02T08:36:50Z</time>
      </trkpt>
      <trkpt lat="43.51455" lon="6.75689">
        <ele>119</ele>
        <time>2010-05-02T08:36:51Z</time>
      </trkpt>
      <trkpt lat="43.51461" lon="6.75694">
        <ele>119</ele>
        <time>2010-05-02T08:36:52Z</time>
      </trkpt>
      <trkpt lat="43.51468" lon="6.75697">
        <ele>118</ele>
        <time>2010-05-02T08:36:53Z</time>
      </trkpt>
      <trkpt lat="43.51474" lon="6.75702">
        <ele>118</ele>
        <time>2010-05-02T08:36:54Z</time>
      </trkpt>
      <trkpt lat="43.51487" lon="6.75709">
        <ele>117</ele>
        <time>2010-05-02T08:36:57Z</time>
      </trkpt>
      <trkpt lat="43.51492" lon="6.7571">
        <ele>115</ele>
        <time>2010-05-02T08:37:01Z</time>
      </trkpt>
      <trkpt lat="43.51493" lon="6.7571">
        <ele>114</ele>
        <time>2010-05-02T08:37:03Z</time>
      </trkpt>
      <trkpt lat="43.51495" lon="6.75711">
        <ele>111</ele>
        <time>2010-05-02T08:37:12Z</time>
      </trkpt>
      <trkpt lat="43.51497" lon="6.75713">
        <ele>111</ele>
        <time>2010-05-02T08:37:13Z</time>
      </trkpt>
      <trkpt lat="43.51503" lon="6.75718">
        <ele>111</ele>
        <time>2010-05-02T08:37:16Z</time>
      </trkpt>
      <trkpt lat="43.51508" lon="6.75725">
        <ele>112</ele>
        <time>2010-05-02T08:37:18Z</time>
      </trkpt>
      <trkpt lat="43.51513" lon="6.75731">
        <ele>112</ele>
        <time>2010-05-02T08:37:20Z</time>
      </trkpt>
      <trkpt lat="43.51521" lon="6.75738">
        <ele>112</ele>
        <time>2010-05-02T08:37:23Z</time>
      </trkpt>
      <trkpt lat="43.51525" lon="6.75742">
        <ele>113</ele>
        <time>2010-05-02T08:37:26Z</time>
      </trkpt>
      <trkpt lat="43.5153" lon="6.75746">
        <ele>113</ele>
        <time>2010-05-02T08:37:32Z</time>
      </trkpt>
      <trkpt lat="43.51535" lon="6.7575">
        <ele>114</ele>
        <time>2010-05-02T08:37:36Z</time>
      </trkpt>
      <trkpt lat="43.5154" lon="6.75752">
        <ele>114</ele>
        <time>2010-05-02T08:37:39Z</time>
      </trkpt>
      <trkpt lat="43.51545" lon="6.75755">
        <ele>115</ele>
        <time>2010-05-02T08:37:42Z</time>
      </trkpt>
      <trkpt lat="43.51549" lon="6.75756">
        <ele>114</ele>
        <time>2010-05-02T08:37:44Z</time>
      </trkpt>
      <trkpt lat="43.51556" lon="6.75758">
        <ele>112</ele>
        <time>2010-05-02T08:37:46Z</time>
      </trkpt>
      <trkpt lat="43.51561" lon="6.75757">
        <ele>110</ele>
        <time>2010-05-02T08:37:49Z</time>
      </trkpt>
      <trkpt lat="43.51564" lon="6.75751">
        <ele>108</ele>
        <time>2010-05-02T08:37:52Z</time>
      </trkpt>
      <trkpt lat="43.51569" lon="6.75738">
        <ele>108</ele>
        <time>2010-05-02T08:37:57Z</time>
      </trkpt>
      <trkpt lat="43.51571" lon="6.75732">
        <ele>108</ele>
        <time>2010-05-02T08:37:59Z</time>
      </trkpt>
      <trkpt lat="43.51574" lon="6.75726">
        <ele>109</ele>
        <time>2010-05-02T08:38:01Z</time>
      </trkpt>
      <trkpt lat="43.51577" lon="6.7572">
        <ele>109</ele>
        <time>2010-05-02T08:38:03Z</time>
      </trkpt>
      <trkpt lat="43.51579" lon="6.75715">
        <ele>109</ele>
        <time>2010-05-02T08:38:05Z</time>
      </trkpt>
      <trkpt lat="43.51583" lon="6.7571">
        <ele>109</ele>
        <time>2010-05-02T08:38:07Z</time>
      </trkpt>
      <trkpt lat="43.51587" lon="6.75703">
        <ele>110</ele>
        <time>2010-05-02T08:38:10Z</time>
      </trkpt>
      <trkpt lat="43.51591" lon="6.75698">
        <ele>110</ele>
        <time>2010-05-02T08:38:12Z</time>
      </trkpt>
      <trkpt lat="43.51593" lon="6.75691">
        <ele>110</ele>
        <time>2010-05-02T08:38:14Z</time>
      </trkpt>
      <trkpt lat="43.51596" lon="6.75684">
        <ele>110</ele>
        <time>2010-05-02T08:38:16Z</time>
      </trkpt>
      <trkpt lat="43.51597" lon="6.75678">
        <ele>110</ele>
        <time>2010-05-02T08:38:18Z</time>
      </trkpt>
      <trkpt lat="43.51597" lon="6.75671">
        <ele>110</ele>
        <time>2010-05-02T08:38:20Z</time>
      </trkpt>
      <trkpt lat="43.51595" lon="6.7566">
        <ele>110</ele>
        <time>2010-05-02T08:38:23Z</time>
      </trkpt>
      <trkpt lat="43.51594" lon="6.75654">
        <ele>110</ele>
        <time>2010-05-02T08:38:25Z</time>
      </trkpt>
      <trkpt lat="43.51592" lon="6.75646">
        <ele>111</ele>
        <time>2010-05-02T08:38:28Z</time>
      </trkpt>
      <trkpt lat="43.5159" lon="6.75639">
        <ele>111</ele>
        <time>2010-05-02T08:38:31Z</time>
      </trkpt>
      <trkpt lat="43.51586" lon="6.75629">
        <ele>110</ele>
        <time>2010-05-02T08:38:36Z</time>
      </trkpt>
      <trkpt lat="43.51584" lon="6.75623">
        <ele>111</ele>
        <time>2010-05-02T08:38:39Z</time>
      </trkpt>
      <trkpt lat="43.51581" lon="6.75615">
        <ele>111</ele>
        <time>2010-05-02T08:38:43Z</time>
      </trkpt>
      <trkpt lat="43.51578" lon="6.75608">
        <ele>111</ele>
        <time>2010-05-02T08:38:46Z</time>
      </trkpt>
      <trkpt lat="43.51577" lon="6.756">
        <ele>112</ele>
        <time>2010-05-02T08:38:49Z</time>
      </trkpt>
      <trkpt lat="43.51577" lon="6.75593">
        <ele>113</ele>
        <time>2010-05-02T08:38:52Z</time>
      </trkpt>
      <trkpt lat="43.51579" lon="6.75586">
        <ele>114</ele>
        <time>2010-05-02T08:38:55Z</time>
      </trkpt>
      <trkpt lat="43.51584" lon="6.75579">
        <ele>114</ele>
        <time>2010-05-02T08:38:58Z</time>
      </trkpt>
      <trkpt lat="43.5159" lon="6.75575">
        <ele>114</ele>
        <time>2010-05-02T08:39:01Z</time>
      </trkpt>
      <trkpt lat="43.51596" lon="6.75575">
        <ele>114</ele>
        <time>2010-05-02T08:39:04Z</time>
      </trkpt>
      <trkpt lat="43.51601" lon="6.75575">
        <ele>115</ele>
        <time>2010-05-02T08:39:07Z</time>
      </trkpt>
      <trkpt lat="43.51607" lon="6.75577">
        <ele>116</ele>
        <time>2010-05-02T08:39:11Z</time>
      </trkpt>
      <trkpt lat="43.51613" lon="6.75577">
        <ele>117</ele>
        <time>2010-05-02T08:39:15Z</time>
      </trkpt>
      <trkpt lat="43.51618" lon="6.75577">
        <ele>117</ele>
        <time>2010-05-02T08:39:18Z</time>
      </trkpt>
      <trkpt lat="43.51624" lon="6.75578">
        <ele>118</ele>
        <time>2010-05-02T08:39:21Z</time>
      </trkpt>
      <trkpt lat="43.5163" lon="6.75578">
        <ele>119</ele>
        <time>2010-05-02T08:39:24Z</time>
      </trkpt>
      <trkpt lat="43.51636" lon="6.75579">
        <ele>120</ele>
        <time>2010-05-02T08:39:28Z</time>
      </trkpt>
      <trkpt lat="43.51642" lon="6.75578">
        <ele>120</ele>
        <time>2010-05-02T08:39:31Z</time>
      </trkpt>
      <trkpt lat="43.51648" lon="6.75576">
        <ele>120</ele>
        <time>2010-05-02T08:39:34Z</time>
      </trkpt>
      <trkpt lat="43.51653" lon="6.75573">
        <ele>121</ele>
        <time>2010-05-02T08:39:37Z</time>
      </trkpt>
      <trkpt lat="43.51658" lon="6.75571">
        <ele>122</ele>
        <time>2010-05-02T08:39:40Z</time>
      </trkpt>
      <trkpt lat="43.51663" lon="6.75567">
        <ele>122</ele>
        <time>2010-05-02T08:39:43Z</time>
      </trkpt>
      <trkpt lat="43.51667" lon="6.75562">
        <ele>122</ele>
        <time>2010-05-02T08:39:46Z</time>
      </trkpt>
      <trkpt lat="43.51671" lon="6.75556">
        <ele>123</ele>
        <time>2010-05-02T08:39:49Z</time>
      </trkpt>
      <trkpt lat="43.51674" lon="6.75549">
        <ele>123</ele>
        <time>2010-05-02T08:39:52Z</time>
      </trkpt>
      <trkpt lat="43.51679" lon="6.75538">
        <ele>124</ele>
        <time>2010-05-02T08:39:57Z</time>
      </trkpt>
      <trkpt lat="43.51683" lon="6.75532">
        <ele>125</ele>
        <time>2010-05-02T08:40:00Z</time>
      </trkpt>
      <trkpt lat="43.51688" lon="6.75526">
        <ele>126</ele>
        <time>2010-05-02T08:40:03Z</time>
      </trkpt>
      <trkpt lat="43.51692" lon="6.7552">
        <ele>127</ele>
        <time>2010-05-02T08:40:06Z</time>
      </trkpt>
      <trkpt lat="43.51697" lon="6.75512">
        <ele>128</ele>
        <time>2010-05-02T08:40:10Z</time>
      </trkpt>
      <trkpt lat="43.517" lon="6.75506">
        <ele>128</ele>
        <time>2010-05-02T08:40:12Z</time>
      </trkpt>
      <trkpt lat="43.51701" lon="6.75499">
        <ele>128</ele>
        <time>2010-05-02T08:40:14Z</time>
      </trkpt>
      <trkpt lat="43.51702" lon="6.75492">
        <ele>129</ele>
        <time>2010-05-02T08:40:16Z</time>
      </trkpt>
      <trkpt lat="43.51702" lon="6.75484">
        <ele>129</ele>
        <time>2010-05-02T08:40:18Z</time>
      </trkpt>
      <trkpt lat="43.51701" lon="6.75477">
        <ele>129</ele>
        <time>2010-05-02T08:40:20Z</time>
      </trkpt>
      <trkpt lat="43.51698" lon="6.75466">
        <ele>130</ele>
        <time>2010-05-02T08:40:23Z</time>
      </trkpt>
      <trkpt lat="43.51695" lon="6.75459">
        <ele>130</ele>
        <time>2010-05-02T08:40:25Z</time>
      </trkpt>
      <trkpt lat="43.51693" lon="6.75452">
        <ele>130</ele>
        <time>2010-05-02T08:40:27Z</time>
      </trkpt>
      <trkpt lat="43.5169" lon="6.75445">
        <ele>130</ele>
        <time>2010-05-02T08:40:29Z</time>
      </trkpt>
      <trkpt lat="43.51688" lon="6.75438">
        <ele>130</ele>
        <time>2010-05-02T08:40:31Z</time>
      </trkpt>
      <trkpt lat="43.51685" lon="6.75431">
        <ele>130</ele>
        <time>2010-05-02T08:40:33Z</time>
      </trkpt>
      <trkpt lat="43.5168" lon="6.75422">
        <ele>130</ele>
        <time>2010-05-02T08:40:36Z</time>
      </trkpt>
      <trkpt lat="43.51677" lon="6.75416">
        <ele>131</ele>
        <time>2010-05-02T08:40:38Z</time>
      </trkpt>
      <trkpt lat="43.51674" lon="6.75411">
        <ele>131</ele>
        <time>2010-05-02T08:40:40Z</time>
      </trkpt>
      <trkpt lat="43.5167" lon="6.75405">
        <ele>132</ele>
        <time>2010-05-02T08:40:42Z</time>
      </trkpt>
      <trkpt lat="43.51666" lon="6.75401">
        <ele>132</ele>
        <time>2010-05-02T08:40:44Z</time>
      </trkpt>
      <trkpt lat="43.51663" lon="6.75396">
        <ele>132</ele>
        <time>2010-05-02T08:40:46Z</time>
      </trkpt>
      <trkpt lat="43.51657" lon="6.75392">
        <ele>133</ele>
        <time>2010-05-02T08:40:49Z</time>
      </trkpt>
      <trkpt lat="43.51652" lon="6.75391">
        <ele>133</ele>
        <time>2010-05-02T08:40:51Z</time>
      </trkpt>
      <trkpt lat="43.51647" lon="6.75391">
        <ele>134</ele>
        <time>2010-05-02T08:40:53Z</time>
      </trkpt>
      <trkpt lat="43.51637" lon="6.75394">
        <ele>134</ele>
        <time>2010-05-02T08:40:57Z</time>
      </trkpt>
      <trkpt lat="43.51633" lon="6.75394">
        <ele>134</ele>
        <time>2010-05-02T08:40:59Z</time>
      </trkpt>
      <trkpt lat="43.51628" lon="6.7539">
        <ele>135</ele>
        <time>2010-05-02T08:41:01Z</time>
      </trkpt>
      <trkpt lat="43.51624" lon="6.75384">
        <ele>136</ele>
        <time>2010-05-02T08:41:04Z</time>
      </trkpt>
      <trkpt lat="43.51623" lon="6.75376">
        <ele>137</ele>
        <time>2010-05-02T08:41:07Z</time>
      </trkpt>
      <trkpt lat="43.51624" lon="6.7537">
        <ele>137</ele>
        <time>2010-05-02T08:41:10Z</time>
      </trkpt>
      <trkpt lat="43.51626" lon="6.75363">
        <ele>138</ele>
        <time>2010-05-02T08:41:13Z</time>
      </trkpt>
      <trkpt lat="43.51628" lon="6.75356">
        <ele>139</ele>
        <time>2010-05-02T08:41:17Z</time>
      </trkpt>
      <trkpt lat="43.5163" lon="6.75348">
        <ele>140</ele>
        <time>2010-05-02T08:41:20Z</time>
      </trkpt>
      <trkpt lat="43.51632" lon="6.75339">
        <ele>140</ele>
        <time>2010-05-02T08:41:23Z</time>
      </trkpt>
      <trkpt lat="43.51632" lon="6.75332">
        <ele>141</ele>
        <time>2010-05-02T08:41:26Z</time>
      </trkpt>
      <trkpt lat="43.51629" lon="6.75326">
        <ele>141</ele>
        <time>2010-05-02T08:41:29Z</time>
      </trkpt>
      <trkpt lat="43.51625" lon="6.75321">
        <ele>142</ele>
        <time>2010-05-02T08:41:32Z</time>
      </trkpt>
      <trkpt lat="43.51618" lon="6.75315">
        <ele>143</ele>
        <time>2010-05-02T08:41:36Z</time>
      </trkpt>
      <trkpt lat="43.51613" lon="6.75312">
        <ele>143</ele>
        <time>2010-05-02T08:41:39Z</time>
      </trkpt>
      <trkpt lat="43.51608" lon="6.75307">
        <ele>144</ele>
        <time>2010-05-02T08:41:42Z</time>
      </trkpt>
      <trkpt lat="43.51605" lon="6.75302">
        <ele>144</ele>
        <time>2010-05-02T08:41:45Z</time>
      </trkpt>
      <trkpt lat="43.51601" lon="6.75296">
        <ele>145</ele>
        <time>2010-05-02T08:41:48Z</time>
      </trkpt>
      <trkpt lat="43.516" lon="6.7529">
        <ele>146</ele>
        <time>2010-05-02T08:41:51Z</time>
      </trkpt>
      <trkpt lat="43.51599" lon="6.75284">
        <ele>146</ele>
        <time>2010-05-02T08:41:54Z</time>
      </trkpt>
      <trkpt lat="43.51598" lon="6.75275">
        <ele>147</ele>
        <time>2010-05-02T08:41:57Z</time>
      </trkpt>
      <trkpt lat="43.51598" lon="6.75267">
        <ele>147</ele>
        <time>2010-05-02T08:42:00Z</time>
      </trkpt>
      <trkpt lat="43.51599" lon="6.7526">
        <ele>148</ele>
        <time>2010-05-02T08:42:03Z</time>
      </trkpt>
      <trkpt lat="43.516" lon="6.75253">
        <ele>148</ele>
        <time>2010-05-02T08:42:06Z</time>
      </trkpt>
      <trkpt lat="43.51603" lon="6.75246">
        <ele>149</ele>
        <time>2010-05-02T08:42:10Z</time>
      </trkpt>
      <trkpt lat="43.51607" lon="6.7524">
        <ele>150</ele>
        <time>2010-05-02T08:42:14Z</time>
      </trkpt>
      <trkpt lat="43.51612" lon="6.75235">
        <ele>150</ele>
        <time>2010-05-02T08:42:18Z</time>
      </trkpt>
      <trkpt lat="43.51617" lon="6.75228">
        <ele>151</ele>
        <time>2010-05-02T08:42:23Z</time>
      </trkpt>
      <trkpt lat="43.51621" lon="6.75225">
        <ele>152</ele>
        <time>2010-05-02T08:42:26Z</time>
      </trkpt>
      <trkpt lat="43.51626" lon="6.75221">
        <ele>153</ele>
        <time>2010-05-02T08:42:30Z</time>
      </trkpt>
      <trkpt lat="43.51633" lon="6.75219">
        <ele>155</ele>
        <time>2010-05-02T08:42:36Z</time>
      </trkpt>
      <trkpt lat="43.51638" lon="6.75218">
        <ele>156</ele>
        <time>2010-05-02T08:42:40Z</time>
      </trkpt>
      <trkpt lat="43.51643" lon="6.75218">
        <ele>156</ele>
        <time>2010-05-02T08:42:44Z</time>
      </trkpt>
      <trkpt lat="43.51649" lon="6.75218">
        <ele>157</ele>
        <time>2010-05-02T08:42:48Z</time>
      </trkpt>
      <trkpt lat="43.51654" lon="6.75218">
        <ele>158</ele>
        <time>2010-05-02T08:42:52Z</time>
      </trkpt>
      <trkpt lat="43.5166" lon="6.75218">
        <ele>159</ele>
        <time>2010-05-02T08:42:57Z</time>
      </trkpt>
      <trkpt lat="43.51665" lon="6.75216">
        <ele>160</ele>
        <time>2010-05-02T08:43:01Z</time>
      </trkpt>
      <trkpt lat="43.5167" lon="6.75214">
        <ele>161</ele>
        <time>2010-05-02T08:43:05Z</time>
      </trkpt>
      <trkpt lat="43.51678" lon="6.75211">
        <ele>162</ele>
        <time>2010-05-02T08:43:10Z</time>
      </trkpt>
      <trkpt lat="43.51682" lon="6.75207">
        <ele>162</ele>
        <time>2010-05-02T08:43:13Z</time>
      </trkpt>
      <trkpt lat="43.51687" lon="6.75202">
        <ele>162</ele>
        <time>2010-05-02T08:43:17Z</time>
      </trkpt>
      <trkpt lat="43.51691" lon="6.75198">
        <ele>163</ele>
        <time>2010-05-02T08:43:20Z</time>
      </trkpt>
      <trkpt lat="43.51696" lon="6.75194">
        <ele>165</ele>
        <time>2010-05-02T08:43:24Z</time>
      </trkpt>
      <trkpt lat="43.517" lon="6.7519">
        <ele>165</ele>
        <time>2010-05-02T08:43:27Z</time>
      </trkpt>
      <trkpt lat="43.51704" lon="6.75187">
        <ele>166</ele>
        <time>2010-05-02T08:43:31Z</time>
      </trkpt>
      <trkpt lat="43.51711" lon="6.75182">
        <ele>167</ele>
        <time>2010-05-02T08:43:36Z</time>
      </trkpt>
      <trkpt lat="43.51716" lon="6.75179">
        <ele>168</ele>
        <time>2010-05-02T08:43:40Z</time>
      </trkpt>
      <trkpt lat="43.51721" lon="6.75177">
        <ele>169</ele>
        <time>2010-05-02T08:43:43Z</time>
      </trkpt>
      <trkpt lat="43.51727" lon="6.75176">
        <ele>169</ele>
        <time>2010-05-02T08:43:47Z</time>
      </trkpt>
      <trkpt lat="43.51732" lon="6.75175">
        <ele>170</ele>
        <time>2010-05-02T08:43:51Z</time>
      </trkpt>
      <trkpt lat="43.51738" lon="6.75174">
        <ele>171</ele>
        <time>2010-05-02T08:43:55Z</time>
      </trkpt>
      <trkpt lat="43.51744" lon="6.75173">
        <ele>172</ele>
        <time>2010-05-02T08:43:59Z</time>
      </trkpt>
      <trkpt lat="43.51748" lon="6.75173">
        <ele>172</ele>
        <time>2010-05-02T08:44:02Z</time>
      </trkpt>
      <trkpt lat="43.51754" lon="6.75173">
        <ele>173</ele>
        <time>2010-05-02T08:44:05Z</time>
      </trkpt>
      <trkpt lat="43.5176" lon="6.75172">
        <ele>174</ele>
        <time>2010-05-02T08:44:08Z</time>
      </trkpt>
      <trkpt lat="43.51766" lon="6.75172">
        <ele>174</ele>
        <time>2010-05-02T08:44:11Z</time>
      </trkpt>
      <trkpt lat="43.5177" lon="6.7517">
        <ele>175</ele>
        <time>2010-05-02T08:44:14Z</time>
      </trkpt>
      <trkpt lat="43.51775" lon="6.75168">
        <ele>176</ele>
        <time>2010-05-02T08:44:17Z</time>
      </trkpt>
      <trkpt lat="43.51779" lon="6.75167">
        <ele>177</ele>
        <time>2010-05-02T08:44:20Z</time>
      </trkpt>
      <trkpt lat="43.51785" lon="6.75163">
        <ele>178</ele>
        <time>2010-05-02T08:44:24Z</time>
      </trkpt>
      <trkpt lat="43.51789" lon="6.75161">
        <ele>178</ele>
        <time>2010-05-02T08:44:27Z</time>
      </trkpt>
      <trkpt lat="43.51793" lon="6.75158">
        <ele>179</ele>
        <time>2010-05-02T08:44:30Z</time>
      </trkpt>
      <trkpt lat="43.51798" lon="6.75154">
        <ele>180</ele>
        <time>2010-05-02T08:44:34Z</time>
      </trkpt>
      <trkpt lat="43.51803" lon="6.75149">
        <ele>180</ele>
        <time>2010-05-02T08:44:38Z</time>
      </trkpt>
      <trkpt lat="43.51805" lon="6.75143">
        <ele>181</ele>
        <time>2010-05-02T08:44:41Z</time>
      </trkpt>
      <trkpt lat="43.51805" lon="6.75136">
        <ele>181</ele>
        <time>2010-05-02T08:44:45Z</time>
      </trkpt>
      <trkpt lat="43.51803" lon="6.75128">
        <ele>182</ele>
        <time>2010-05-02T08:44:49Z</time>
      </trkpt>
      <trkpt lat="43.51802" lon="6.75121">
        <ele>183</ele>
        <time>2010-05-02T08:44:53Z</time>
      </trkpt>
      <trkpt lat="43.51799" lon="6.75113">
        <ele>184</ele>
        <time>2010-05-02T08:44:57Z</time>
      </trkpt>
      <trkpt lat="43.518" lon="6.75104">
        <ele>185</ele>
        <time>2010-05-02T08:45:00Z</time>
      </trkpt>
      <trkpt lat="43.51802" lon="6.75098">
        <ele>185</ele>
        <time>2010-05-02T08:45:03Z</time>
      </trkpt>
      <trkpt lat="43.51806" lon="6.75092">
        <ele>186</ele>
        <time>2010-05-02T08:45:07Z</time>
      </trkpt>
      <trkpt lat="43.51811" lon="6.75088">
        <ele>186</ele>
        <time>2010-05-02T08:45:11Z</time>
      </trkpt>
      <trkpt lat="43.51815" lon="6.75087">
        <ele>187</ele>
        <time>2010-05-02T08:45:14Z</time>
      </trkpt>
      <trkpt lat="43.51821" lon="6.75085">
        <ele>188</ele>
        <time>2010-05-02T08:45:18Z</time>
      </trkpt>
      <trkpt lat="43.51828" lon="6.75083">
        <ele>188</ele>
        <time>2010-05-02T08:45:23Z</time>
      </trkpt>
      <trkpt lat="43.51832" lon="6.7508">
        <ele>189</ele>
        <time>2010-05-02T08:45:26Z</time>
      </trkpt>
      <trkpt lat="43.51837" lon="6.75077">
        <ele>190</ele>
        <time>2010-05-02T08:45:30Z</time>
      </trkpt>
      <trkpt lat="43.51843" lon="6.75071">
        <ele>192</ele>
        <time>2010-05-02T08:45:36Z</time>
      </trkpt>
      <trkpt lat="43.51846" lon="6.75065">
        <ele>193</ele>
        <time>2010-05-02T08:45:40Z</time>
      </trkpt>
      <trkpt lat="43.5185" lon="6.75057">
        <ele>194</ele>
        <time>2010-05-02T08:45:45Z</time>
      </trkpt>
      <trkpt lat="43.51852" lon="6.75051">
        <ele>194</ele>
        <time>2010-05-02T08:45:49Z</time>
      </trkpt>
      <trkpt lat="43.51855" lon="6.75044">
        <ele>196</ele>
        <time>2010-05-02T08:45:53Z</time>
      </trkpt>
      <trkpt lat="43.51859" lon="6.75036">
        <ele>197</ele>
        <time>2010-05-02T08:45:58Z</time>
      </trkpt>
      <trkpt lat="43.51862" lon="6.75029">
        <ele>198</ele>
        <time>2010-05-02T08:46:02Z</time>
      </trkpt>
      <trkpt lat="43.51865" lon="6.75023">
        <ele>199</ele>
        <time>2010-05-02T08:46:05Z</time>
      </trkpt>
      <trkpt lat="43.51869" lon="6.75018">
        <ele>199</ele>
        <time>2010-05-02T08:46:08Z</time>
      </trkpt>
      <trkpt lat="43.51872" lon="6.75012">
        <ele>200</ele>
        <time>2010-05-02T08:46:12Z</time>
      </trkpt>
      <trkpt lat="43.51876" lon="6.75006">
        <ele>200</ele>
        <time>2010-05-02T08:46:16Z</time>
      </trkpt>
      <trkpt lat="43.5188" lon="6.75">
        <ele>201</ele>
        <time>2010-05-02T08:46:20Z</time>
      </trkpt>
      <trkpt lat="43.51883" lon="6.74995">
        <ele>202</ele>
        <time>2010-05-02T08:46:26Z</time>
      </trkpt>
      <trkpt lat="43.51882" lon="6.74994">
        <ele>202</ele>
        <time>2010-05-02T08:46:29Z</time>
      </trkpt>
      <trkpt lat="43.5188" lon="6.74995">
        <ele>204</ele>
        <time>2010-05-02T08:47:20Z</time>
      </trkpt>
      <trkpt lat="43.51884" lon="6.74988">
        <ele>204</ele>
        <time>2010-05-02T08:47:23Z</time>
      </trkpt>
      <trkpt lat="43.51887" lon="6.74982">
        <ele>205</ele>
        <time>2010-05-02T08:47:26Z</time>
      </trkpt>
      <trkpt lat="43.51889" lon="6.74976">
        <ele>205</ele>
        <time>2010-05-02T08:47:29Z</time>
      </trkpt>
      <trkpt lat="43.51893" lon="6.7497">
        <ele>205</ele>
        <time>2010-05-02T08:47:32Z</time>
      </trkpt>
      <trkpt lat="43.51898" lon="6.74963">
        <ele>206</ele>
        <time>2010-05-02T08:47:36Z</time>
      </trkpt>
      <trkpt lat="43.51901" lon="6.74958">
        <ele>207</ele>
        <time>2010-05-02T08:47:39Z</time>
      </trkpt>
      <trkpt lat="43.51905" lon="6.74951">
        <ele>207</ele>
        <time>2010-05-02T08:47:43Z</time>
      </trkpt>
      <trkpt lat="43.51908" lon="6.74946">
        <ele>208</ele>
        <time>2010-05-02T08:47:46Z</time>
      </trkpt>
      <trkpt lat="43.51911" lon="6.7494">
        <ele>209</ele>
        <time>2010-05-02T08:47:49Z</time>
      </trkpt>
      <trkpt lat="43.51914" lon="6.74935">
        <ele>210</ele>
        <time>2010-05-02T08:47:52Z</time>
      </trkpt>
      <trkpt lat="43.51918" lon="6.74928">
        <ele>211</ele>
        <time>2010-05-02T08:47:57Z</time>
      </trkpt>
      <trkpt lat="43.51921" lon="6.74922">
        <ele>211</ele>
        <time>2010-05-02T08:48:02Z</time>
      </trkpt>
      <trkpt lat="43.51924" lon="6.74917">
        <ele>211</ele>
        <time>2010-05-02T08:48:05Z</time>
      </trkpt>
      <trkpt lat="43.5193" lon="6.74911">
        <ele>212</ele>
        <time>2010-05-02T08:48:10Z</time>
      </trkpt>
      <trkpt lat="43.51933" lon="6.74906">
        <ele>212</ele>
        <time>2010-05-02T08:48:14Z</time>
      </trkpt>
      <trkpt lat="43.51936" lon="6.74899">
        <ele>213</ele>
        <time>2010-05-02T08:48:18Z</time>
      </trkpt>
      <trkpt lat="43.51936" lon="6.74889">
        <ele>215</ele>
        <time>2010-05-02T08:48:23Z</time>
      </trkpt>
      <trkpt lat="43.51932" lon="6.74882">
        <ele>215</ele>
        <time>2010-05-02T08:48:26Z</time>
      </trkpt>
      <trkpt lat="43.51927" lon="6.74878">
        <ele>215</ele>
        <time>2010-05-02T08:48:29Z</time>
      </trkpt>
      <trkpt lat="43.51922" lon="6.74874">
        <ele>215</ele>
        <time>2010-05-02T08:48:32Z</time>
      </trkpt>
      <trkpt lat="43.51913" lon="6.74871">
        <ele>216</ele>
        <time>2010-05-02T08:48:36Z</time>
      </trkpt>
      <trkpt lat="43.51907" lon="6.74868">
        <ele>216</ele>
        <time>2010-05-02T08:48:39Z</time>
      </trkpt>
      <trkpt lat="43.51902" lon="6.74864">
        <ele>217</ele>
        <time>2010-05-02T08:48:42Z</time>
      </trkpt>
      <trkpt lat="43.51896" lon="6.7486">
        <ele>218</ele>
        <time>2010-05-02T08:48:45Z</time>
      </trkpt>
      <trkpt lat="43.51892" lon="6.74855">
        <ele>219</ele>
        <time>2010-05-02T08:48:48Z</time>
      </trkpt>
      <trkpt lat="43.51887" lon="6.74852">
        <ele>220</ele>
        <time>2010-05-02T08:48:51Z</time>
      </trkpt>
      <trkpt lat="43.51888" lon="6.74851">
        <ele>223</ele>
        <time>2010-05-02T08:49:01Z</time>
      </trkpt>
      <trkpt lat="43.51889" lon="6.74856">
        <ele>229</ele>
        <time>2010-05-02T08:49:34Z</time>
      </trkpt>
      <trkpt lat="43.51891" lon="6.74856">
        <ele>230</ele>
        <time>2010-05-02T08:49:37Z</time>
      </trkpt>
      <trkpt lat="43.51889" lon="6.74855">
        <ele>229</ele>
        <time>2010-05-02T08:49:40Z</time>
      </trkpt>
      <trkpt lat="43.51885" lon="6.74855">
        <ele>222</ele>
        <time>2010-05-02T08:50:17Z</time>
      </trkpt>
      <trkpt lat="43.51885" lon="6.74855">
        <ele>222</ele>
        <time>2010-05-02T08:50:18Z</time>
      </trkpt>
      <trkpt lat="43.51885" lon="6.74855">
        <ele>222</ele>
        <time>2010-05-02T08:50:18Z</time>
      </trkpt>
      <trkpt lat="43.51883" lon="6.74855">
        <ele>219</ele>
        <time>2010-05-02T08:52:05Z</time>
      </trkpt>
      <trkpt lat="43.51885" lon="6.74847">
        <ele>221</ele>
        <time>2010-05-02T08:52:06Z</time>
      </trkpt>
      <trkpt lat="43.51883" lon="6.74837">
        <ele>221</ele>
        <time>2010-05-02T08:52:10Z</time>
      </trkpt>
      <trkpt lat="43.51881" lon="6.7483">
        <ele>221</ele>
        <time>2010-05-02T08:52:13Z</time>
      </trkpt>
      <trkpt lat="43.51881" lon="6.74823">
        <ele>222</ele>
        <time>2010-05-02T08:52:16Z</time>
      </trkpt>
      <trkpt lat="43.5188" lon="6.74817">
        <ele>222</ele>
        <time>2010-05-02T08:52:19Z</time>
      </trkpt>
      <trkpt lat="43.51879" lon="6.74807">
        <ele>222</ele>
        <time>2010-05-02T08:52:23Z</time>
      </trkpt>
      <trkpt lat="43.51879" lon="6.748">
        <ele>223</ele>
        <time>2010-05-02T08:52:26Z</time>
      </trkpt>
      <trkpt lat="43.51879" lon="6.74794">
        <ele>223</ele>
        <time>2010-05-02T08:52:29Z</time>
      </trkpt>
      <trkpt lat="43.5188" lon="6.74785">
        <ele>224</ele>
        <time>2010-05-02T08:52:33Z</time>
      </trkpt>
      <trkpt lat="43.51881" lon="6.74779">
        <ele>225</ele>
        <time>2010-05-02T08:52:36Z</time>
      </trkpt>
      <trkpt lat="43.51884" lon="6.74773">
        <ele>225</ele>
        <time>2010-05-02T08:52:39Z</time>
      </trkpt>
      <trkpt lat="43.51886" lon="6.74767">
        <ele>225</ele>
        <time>2010-05-02T08:52:42Z</time>
      </trkpt>
      <trkpt lat="43.51889" lon="6.74761">
        <ele>226</ele>
        <time>2010-05-02T08:52:46Z</time>
      </trkpt>
      <trkpt lat="43.51891" lon="6.74755">
        <ele>227</ele>
        <time>2010-05-02T08:52:49Z</time>
      </trkpt>
      <trkpt lat="43.51893" lon="6.74747">
        <ele>228</ele>
        <time>2010-05-02T08:52:52Z</time>
      </trkpt>
      <trkpt lat="43.51895" lon="6.74734">
        <ele>229</ele>
        <time>2010-05-02T08:52:57Z</time>
      </trkpt>
      <trkpt lat="43.51896" lon="6.74727">
        <ele>229</ele>
        <time>2010-05-02T08:53:00Z</time>
      </trkpt>
      <trkpt lat="43.51896" lon="6.74721">
        <ele>229</ele>
        <time>2010-05-02T08:53:03Z</time>
      </trkpt>
      <trkpt lat="43.51897" lon="6.74714">
        <ele>230</ele>
        <time>2010-05-02T08:53:06Z</time>
      </trkpt>
      <trkpt lat="43.51898" lon="6.74705">
        <ele>231</ele>
        <time>2010-05-02T08:53:10Z</time>
      </trkpt>
      <trkpt lat="43.51899" lon="6.74699">
        <ele>231</ele>
        <time>2010-05-02T08:53:13Z</time>
      </trkpt>
      <trkpt lat="43.519" lon="6.74693">
        <ele>232</ele>
        <time>2010-05-02T08:53:16Z</time>
      </trkpt>
      <trkpt lat="43.51901" lon="6.74686">
        <ele>232</ele>
        <time>2010-05-02T08:53:19Z</time>
      </trkpt>
      <trkpt lat="43.51902" lon="6.74677">
        <ele>233</ele>
        <time>2010-05-02T08:53:23Z</time>
      </trkpt>
      <trkpt lat="43.51902" lon="6.74671">
        <ele>234</ele>
        <time>2010-05-02T08:53:26Z</time>
      </trkpt>
      <trkpt lat="43.51902" lon="6.74663">
        <ele>234</ele>
        <time>2010-05-02T08:53:30Z</time>
      </trkpt>
      <trkpt lat="43.51901" lon="6.74656">
        <ele>235</ele>
        <time>2010-05-02T08:53:33Z</time>
      </trkpt>
      <trkpt lat="43.51901" lon="6.74649">
        <ele>236</ele>
        <time>2010-05-02T08:53:36Z</time>
      </trkpt>
      <trkpt lat="43.519" lon="6.74643">
        <ele>237</ele>
        <time>2010-05-02T08:53:39Z</time>
      </trkpt>
      <trkpt lat="43.51899" lon="6.74635">
        <ele>237</ele>
        <time>2010-05-02T08:53:43Z</time>
      </trkpt>
      <trkpt lat="43.51896" lon="6.74628">
        <ele>238</ele>
        <time>2010-05-02T08:53:46Z</time>
      </trkpt>
      <trkpt lat="43.51895" lon="6.74622">
        <ele>238</ele>
        <time>2010-05-02T08:53:49Z</time>
      </trkpt>
      <trkpt lat="43.51893" lon="6.74615">
        <ele>239</ele>
        <time>2010-05-02T08:53:52Z</time>
      </trkpt>
      <trkpt lat="43.51888" lon="6.74604">
        <ele>239</ele>
        <time>2010-05-02T08:53:57Z</time>
      </trkpt>
      <trkpt lat="43.51886" lon="6.74595">
        <ele>240</ele>
        <time>2010-05-02T08:54:00Z</time>
      </trkpt>
      <trkpt lat="43.51885" lon="6.74586">
        <ele>241</ele>
        <time>2010-05-02T08:54:03Z</time>
      </trkpt>
      <trkpt lat="43.51886" lon="6.74578">
        <ele>241</ele>
        <time>2010-05-02T08:54:06Z</time>
      </trkpt>
      <trkpt lat="43.5189" lon="6.74569">
        <ele>242</ele>
        <time>2010-05-02T08:54:10Z</time>
      </trkpt>
      <trkpt lat="43.51895" lon="6.74563">
        <ele>243</ele>
        <time>2010-05-02T08:54:14Z</time>
      </trkpt>
      <trkpt lat="43.519" lon="6.7456">
        <ele>243</ele>
        <time>2010-05-02T08:54:17Z</time>
      </trkpt>
      <trkpt lat="43.51906" lon="6.74556">
        <ele>245</ele>
        <time>2010-05-02T08:54:23Z</time>
      </trkpt>
      <trkpt lat="43.51912" lon="6.74554">
        <ele>246</ele>
        <time>2010-05-02T08:54:27Z</time>
      </trkpt>
      <trkpt lat="43.51917" lon="6.74553">
        <ele>247</ele>
        <time>2010-05-02T08:54:30Z</time>
      </trkpt>
      <trkpt lat="43.51923" lon="6.7455">
        <ele>247</ele>
        <time>2010-05-02T08:54:33Z</time>
      </trkpt>
      <trkpt lat="43.51927" lon="6.74547">
        <ele>248</ele>
        <time>2010-05-02T08:54:36Z</time>
      </trkpt>
      <trkpt lat="43.51932" lon="6.74545">
        <ele>248</ele>
        <time>2010-05-02T08:54:39Z</time>
      </trkpt>
      <trkpt lat="43.51938" lon="6.74543">
        <ele>250</ele>
        <time>2010-05-02T08:54:43Z</time>
      </trkpt>
      <trkpt lat="43.51943" lon="6.74541">
        <ele>251</ele>
        <time>2010-05-02T08:54:46Z</time>
      </trkpt>
      <trkpt lat="43.51947" lon="6.74539">
        <ele>251</ele>
        <time>2010-05-02T08:54:50Z</time>
      </trkpt>
      <trkpt lat="43.51953" lon="6.74537">
        <ele>252</ele>
        <time>2010-05-02T08:54:54Z</time>
      </trkpt>
      <trkpt lat="43.51958" lon="6.74535">
        <ele>253</ele>
        <time>2010-05-02T08:54:58Z</time>
      </trkpt>
      <trkpt lat="43.51964" lon="6.74534">
        <ele>253</ele>
        <time>2010-05-02T08:55:02Z</time>
      </trkpt>
      <trkpt lat="43.51968" lon="6.74534">
        <ele>255</ele>
        <time>2010-05-02T08:55:06Z</time>
      </trkpt>
      <trkpt lat="43.51974" lon="6.74536">
        <ele>256</ele>
        <time>2010-05-02T08:55:10Z</time>
      </trkpt>
      <trkpt lat="43.51977" lon="6.7454">
        <ele>256</ele>
        <time>2010-05-02T08:55:13Z</time>
      </trkpt>
      <trkpt lat="43.51981" lon="6.74547">
        <ele>257</ele>
        <time>2010-05-02T08:55:16Z</time>
      </trkpt>
      <trkpt lat="43.51983" lon="6.74554">
        <ele>258</ele>
        <time>2010-05-02T08:55:19Z</time>
      </trkpt>
      <trkpt lat="43.51986" lon="6.74562">
        <ele>259</ele>
        <time>2010-05-02T08:55:23Z</time>
      </trkpt>
      <trkpt lat="43.51988" lon="6.74568">
        <ele>260</ele>
        <time>2010-05-02T08:55:26Z</time>
      </trkpt>
      <trkpt lat="43.5199" lon="6.74575">
        <ele>261</ele>
        <time>2010-05-02T08:55:30Z</time>
      </trkpt>
      <trkpt lat="43.51994" lon="6.74584">
        <ele>262</ele>
        <time>2010-05-02T08:55:36Z</time>
      </trkpt>
      <trkpt lat="43.51996" lon="6.7459">
        <ele>263</ele>
        <time>2010-05-02T08:55:40Z</time>
      </trkpt>
      <trkpt lat="43.52001" lon="6.74598">
        <ele>264</ele>
        <time>2010-05-02T08:55:45Z</time>
      </trkpt>
      <trkpt lat="43.52004" lon="6.74603">
        <ele>265</ele>
        <time>2010-05-02T08:55:48Z</time>
      </trkpt>
      <trkpt lat="43.52007" lon="6.74609">
        <ele>265</ele>
        <time>2010-05-02T08:55:51Z</time>
      </trkpt>
      <trkpt lat="43.52011" lon="6.74613">
        <ele>266</ele>
        <time>2010-05-02T08:55:54Z</time>
      </trkpt>
      <trkpt lat="43.52014" lon="6.74618">
        <ele>267</ele>
        <time>2010-05-02T08:55:58Z</time>
      </trkpt>
      <trkpt lat="43.52017" lon="6.74624">
        <ele>267</ele>
        <time>2010-05-02T08:56:01Z</time>
      </trkpt>
      <trkpt lat="43.5202" lon="6.74629">
        <ele>268</ele>
        <time>2010-05-02T08:56:04Z</time>
      </trkpt>
      <trkpt lat="43.52024" lon="6.74634">
        <ele>268</ele>
        <time>2010-05-02T08:56:07Z</time>
      </trkpt>
      <trkpt lat="43.52027" lon="6.74642">
        <ele>270</ele>
        <time>2010-05-02T08:56:11Z</time>
      </trkpt>
      <trkpt lat="43.5203" lon="6.74647">
        <ele>271</ele>
        <time>2010-05-02T08:56:14Z</time>
      </trkpt>
      <trkpt lat="43.52033" lon="6.74652">
        <ele>271</ele>
        <time>2010-05-02T08:56:17Z</time>
      </trkpt>
      <trkpt lat="43.52036" lon="6.74658">
        <ele>273</ele>
        <time>2010-05-02T08:56:20Z</time>
      </trkpt>
      <trkpt lat="43.52041" lon="6.74664">
        <ele>274</ele>
        <time>2010-05-02T08:56:24Z</time>
      </trkpt>
      <trkpt lat="43.52043" lon="6.74669">
        <ele>276</ele>
        <time>2010-05-02T08:56:27Z</time>
      </trkpt>
      <trkpt lat="43.52045" lon="6.74677">
        <ele>276</ele>
        <time>2010-05-02T08:56:31Z</time>
      </trkpt>
      <trkpt lat="43.52047" lon="6.74682">
        <ele>277</ele>
        <time>2010-05-02T08:56:34Z</time>
      </trkpt>
      <trkpt lat="43.52051" lon="6.74689">
        <ele>277</ele>
        <time>2010-05-02T08:56:38Z</time>
      </trkpt>
      <trkpt lat="43.52054" lon="6.74696">
        <ele>277</ele>
        <time>2010-05-02T08:56:41Z</time>
      </trkpt>
      <trkpt lat="43.52058" lon="6.74704">
        <ele>279</ele>
        <time>2010-05-02T08:56:45Z</time>
      </trkpt>
      <trkpt lat="43.52061" lon="6.74709">
        <ele>279</ele>
        <time>2010-05-02T08:56:48Z</time>
      </trkpt>
      <trkpt lat="43.52063" lon="6.74716">
        <ele>279</ele>
        <time>2010-05-02T08:56:52Z</time>
      </trkpt>
      <trkpt lat="43.52065" lon="6.74722">
        <ele>280</ele>
        <time>2010-05-02T08:56:55Z</time>
      </trkpt>
      <trkpt lat="43.52068" lon="6.74729">
        <ele>280</ele>
        <time>2010-05-02T08:56:59Z</time>
      </trkpt>
      <trkpt lat="43.52069" lon="6.74736">
        <ele>280</ele>
        <time>2010-05-02T08:57:03Z</time>
      </trkpt>
      <trkpt lat="43.52071" lon="6.74742">
        <ele>280</ele>
        <time>2010-05-02T08:57:06Z</time>
      </trkpt>
      <trkpt lat="43.52073" lon="6.74753">
        <ele>281</ele>
        <time>2010-05-02T08:57:11Z</time>
      </trkpt>
      <trkpt lat="43.52075" lon="6.74759">
        <ele>282</ele>
        <time>2010-05-02T08:57:14Z</time>
      </trkpt>
      <trkpt lat="43.52077" lon="6.74765">
        <ele>283</ele>
        <time>2010-05-02T08:57:17Z</time>
      </trkpt>
      <trkpt lat="43.52078" lon="6.74771">
        <ele>283</ele>
        <time>2010-05-02T08:57:20Z</time>
      </trkpt>
      <trkpt lat="43.5208" lon="6.74779">
        <ele>284</ele>
        <time>2010-05-02T08:57:24Z</time>
      </trkpt>
      <trkpt lat="43.52082" lon="6.74787">
        <ele>284</ele>
        <time>2010-05-02T08:57:28Z</time>
      </trkpt>
      <trkpt lat="43.52084" lon="6.74796">
        <ele>285</ele>
        <time>2010-05-02T08:57:31Z</time>
      </trkpt>
      <trkpt lat="43.52085" lon="6.74802">
        <ele>285</ele>
        <time>2010-05-02T08:57:33Z</time>
      </trkpt>
      <trkpt lat="43.52089" lon="6.74811">
        <ele>286</ele>
        <time>2010-05-02T08:57:37Z</time>
      </trkpt>
      <trkpt lat="43.52092" lon="6.74817">
        <ele>286</ele>
        <time>2010-05-02T08:57:40Z</time>
      </trkpt>
      <trkpt lat="43.52094" lon="6.74823">
        <ele>286</ele>
        <time>2010-05-02T08:57:43Z</time>
      </trkpt>
      <trkpt lat="43.52098" lon="6.74828">
        <ele>287</ele>
        <time>2010-05-02T08:57:46Z</time>
      </trkpt>
      <trkpt lat="43.521" lon="6.74834">
        <ele>288</ele>
        <time>2010-05-02T08:57:49Z</time>
      </trkpt>
      <trkpt lat="43.52102" lon="6.74839">
        <ele>289</ele>
        <time>2010-05-02T08:57:52Z</time>
      </trkpt>
      <trkpt lat="43.52104" lon="6.74846">
        <ele>290</ele>
        <time>2010-05-02T08:57:55Z</time>
      </trkpt>
      <trkpt lat="43.52107" lon="6.74854">
        <ele>291</ele>
        <time>2010-05-02T08:57:59Z</time>
      </trkpt>
      <trkpt lat="43.52108" lon="6.7486">
        <ele>292</ele>
        <time>2010-05-02T08:58:02Z</time>
      </trkpt>
      <trkpt lat="43.52111" lon="6.74865">
        <ele>293</ele>
        <time>2010-05-02T08:58:05Z</time>
      </trkpt>
      <trkpt lat="43.52113" lon="6.74873">
        <ele>294</ele>
        <time>2010-05-02T08:58:09Z</time>
      </trkpt>
      <trkpt lat="43.52115" lon="6.74879">
        <ele>294</ele>
        <time>2010-05-02T08:58:12Z</time>
      </trkpt>
      <trkpt lat="43.52117" lon="6.74885">
        <ele>296</ele>
        <time>2010-05-02T08:58:15Z</time>
      </trkpt>
      <trkpt lat="43.52119" lon="6.7489">
        <ele>296</ele>
        <time>2010-05-02T08:58:18Z</time>
      </trkpt>
      <trkpt lat="43.52121" lon="6.74897">
        <ele>296</ele>
        <time>2010-05-02T08:58:21Z</time>
      </trkpt>
      <trkpt lat="43.52124" lon="6.74907">
        <ele>297</ele>
        <time>2010-05-02T08:58:25Z</time>
      </trkpt>
      <trkpt lat="43.52127" lon="6.74912">
        <ele>297</ele>
        <time>2010-05-02T08:58:28Z</time>
      </trkpt>
      <trkpt lat="43.52129" lon="6.74918">
        <ele>298</ele>
        <time>2010-05-02T08:58:31Z</time>
      </trkpt>
      <trkpt lat="43.52131" lon="6.74925">
        <ele>298</ele>
        <time>2010-05-02T08:58:34Z</time>
      </trkpt>
      <trkpt lat="43.52135" lon="6.74933">
        <ele>299</ele>
        <time>2010-05-02T08:58:38Z</time>
      </trkpt>
      <trkpt lat="43.52136" lon="6.74939">
        <ele>299</ele>
        <time>2010-05-02T08:58:41Z</time>
      </trkpt>
      <trkpt lat="43.52139" lon="6.74947">
        <ele>300</ele>
        <time>2010-05-02T08:58:45Z</time>
      </trkpt>
      <trkpt lat="43.52142" lon="6.74953">
        <ele>300</ele>
        <time>2010-05-02T08:58:48Z</time>
      </trkpt>
      <trkpt lat="43.52144" lon="6.7496">
        <ele>300</ele>
        <time>2010-05-02T08:58:51Z</time>
      </trkpt>
      <trkpt lat="43.52147" lon="6.74966">
        <ele>301</ele>
        <time>2010-05-02T08:58:54Z</time>
      </trkpt>
      <trkpt lat="43.5215" lon="6.74974">
        <ele>302</ele>
        <time>2010-05-02T08:58:58Z</time>
      </trkpt>
      <trkpt lat="43.52153" lon="6.74978">
        <ele>302</ele>
        <time>2010-05-02T08:59:01Z</time>
      </trkpt>
      <trkpt lat="43.52157" lon="6.74984">
        <ele>303</ele>
        <time>2010-05-02T08:59:04Z</time>
      </trkpt>
      <trkpt lat="43.52161" lon="6.74989">
        <ele>303</ele>
        <time>2010-05-02T08:59:07Z</time>
      </trkpt>
      <trkpt lat="43.52166" lon="6.74996">
        <ele>304</ele>
        <time>2010-05-02T08:59:11Z</time>
      </trkpt>
      <trkpt lat="43.52169" lon="6.75">
        <ele>305</ele>
        <time>2010-05-02T08:59:14Z</time>
      </trkpt>
      <trkpt lat="43.52172" lon="6.75004">
        <ele>305</ele>
        <time>2010-05-02T08:59:17Z</time>
      </trkpt>
      <trkpt lat="43.52175" lon="6.75008">
        <ele>306</ele>
        <time>2010-05-02T08:59:20Z</time>
      </trkpt>
      <trkpt lat="43.5218" lon="6.75014">
        <ele>307</ele>
        <time>2010-05-02T08:59:24Z</time>
      </trkpt>
      <trkpt lat="43.52184" lon="6.75018">
        <ele>307</ele>
        <time>2010-05-02T08:59:27Z</time>
      </trkpt>
      <trkpt lat="43.52187" lon="6.75022">
        <ele>307</ele>
        <time>2010-05-02T08:59:30Z</time>
      </trkpt>
      <trkpt lat="43.52191" lon="6.75026">
        <ele>308</ele>
        <time>2010-05-02T08:59:33Z</time>
      </trkpt>
      <trkpt lat="43.52195" lon="6.75033">
        <ele>309</ele>
        <time>2010-05-02T08:59:37Z</time>
      </trkpt>
      <trkpt lat="43.52198" lon="6.75037">
        <ele>309</ele>
        <time>2010-05-02T08:59:40Z</time>
      </trkpt>
      <trkpt lat="43.52202" lon="6.75044">
        <ele>310</ele>
        <time>2010-05-02T08:59:44Z</time>
      </trkpt>
      <trkpt lat="43.52204" lon="6.75052">
        <ele>310</ele>
        <time>2010-05-02T08:59:47Z</time>
      </trkpt>
      <trkpt lat="43.52206" lon="6.75059">
        <ele>310</ele>
        <time>2010-05-02T08:59:50Z</time>
      </trkpt>
      <trkpt lat="43.52207" lon="6.75066">
        <ele>310</ele>
        <time>2010-05-02T08:59:53Z</time>
      </trkpt>
      <trkpt lat="43.52207" lon="6.75075">
        <ele>311</ele>
        <time>2010-05-02T08:59:57Z</time>
      </trkpt>
      <trkpt lat="43.52208" lon="6.75083">
        <ele>311</ele>
        <time>2010-05-02T09:00:00Z</time>
      </trkpt>
      <trkpt lat="43.52208" lon="6.7509">
        <ele>311</ele>
        <time>2010-05-02T09:00:03Z</time>
      </trkpt>
      <trkpt lat="43.5221" lon="6.75097">
        <ele>312</ele>
        <time>2010-05-02T09:00:06Z</time>
      </trkpt>
      <trkpt lat="43.52212" lon="6.75103">
        <ele>313</ele>
        <time>2010-05-02T09:00:10Z</time>
      </trkpt>
      <trkpt lat="43.52216" lon="6.75108">
        <ele>313</ele>
        <time>2010-05-02T09:00:13Z</time>
      </trkpt>
      <trkpt lat="43.5222" lon="6.75111">
        <ele>314</ele>
        <time>2010-05-02T09:00:16Z</time>
      </trkpt>
      <trkpt lat="43.52225" lon="6.75113">
        <ele>314</ele>
        <time>2010-05-02T09:00:19Z</time>
      </trkpt>
      <trkpt lat="43.5223" lon="6.75117">
        <ele>315</ele>
        <time>2010-05-02T09:00:23Z</time>
      </trkpt>
      <trkpt lat="43.52234" lon="6.7512">
        <ele>316</ele>
        <time>2010-05-02T09:00:26Z</time>
      </trkpt>
      <trkpt lat="43.52239" lon="6.75122">
        <ele>316</ele>
        <time>2010-05-02T09:00:29Z</time>
      </trkpt>
      <trkpt lat="43.52244" lon="6.75124">
        <ele>317</ele>
        <time>2010-05-02T09:00:33Z</time>
      </trkpt>
      <trkpt lat="43.52249" lon="6.75127">
        <ele>317</ele>
        <time>2010-05-02T09:00:36Z</time>
      </trkpt>
      <trkpt lat="43.52254" lon="6.7513">
        <ele>317</ele>
        <time>2010-05-02T09:00:39Z</time>
      </trkpt>
      <trkpt lat="43.52259" lon="6.75132">
        <ele>318</ele>
        <time>2010-05-02T09:00:41Z</time>
      </trkpt>
      <trkpt lat="43.52263" lon="6.75132">
        <ele>318</ele>
        <time>2010-05-02T09:00:43Z</time>
      </trkpt>
      <trkpt lat="43.52269" lon="6.75132">
        <ele>318</ele>
        <time>2010-05-02T09:00:46Z</time>
      </trkpt>
      <trkpt lat="43.52274" lon="6.75134">
        <ele>320</ele>
        <time>2010-05-02T09:00:51Z</time>
      </trkpt>
      <trkpt lat="43.52275" lon="6.7514">
        <ele>322</ele>
        <time>2010-05-02T09:00:58Z</time>
      </trkpt>
      <trkpt lat="43.52274" lon="6.75142">
        <ele>323</ele>
        <time>2010-05-02T09:01:04Z</time>
      </trkpt>
      <trkpt lat="43.52278" lon="6.75139">
        <ele>324</ele>
        <time>2010-05-02T09:03:49Z</time>
      </trkpt>
      <trkpt lat="43.52278" lon="6.75139">
        <ele>324</ele>
        <time>2010-05-02T09:03:50Z</time>
      </trkpt>
      <trkpt lat="43.52278" lon="6.75139">
        <ele>324</ele>
        <time>2010-05-02T09:03:50Z</time>
      </trkpt>
      <trkpt lat="43.52279" lon="6.7514">
        <ele>323</ele>
        <time>2010-05-02T09:06:25Z</time>
      </trkpt>
      <trkpt lat="43.52288" lon="6.75143">
        <ele>321</ele>
        <time>2010-05-02T09:06:26Z</time>
      </trkpt>
      <trkpt lat="43.52288" lon="6.75143">
        <ele>321</ele>
        <time>2010-05-02T09:06:26Z</time>
      </trkpt>
      <trkpt lat="43.52283" lon="6.75144">
        <ele>324</ele>
        <time>2010-05-02T09:06:58Z</time>
      </trkpt>
      <trkpt lat="43.52283" lon="6.75144">
        <ele>324</ele>
        <time>2010-05-02T09:06:59Z</time>
      </trkpt>
      <trkpt lat="43.52283" lon="6.75144">
        <ele>324</ele>
        <time>2010-05-02T09:06:59Z</time>
      </trkpt>
      <trkpt lat="43.52279" lon="6.75143">
        <ele>323</ele>
        <time>2010-05-02T09:08:54Z</time>
      </trkpt>
      <trkpt lat="43.52274" lon="6.75135">
        <ele>325</ele>
        <time>2010-05-02T09:08:57Z</time>
      </trkpt>
      <trkpt lat="43.52275" lon="6.75136">
        <ele>325</ele>
        <time>2010-05-02T09:08:59Z</time>
      </trkpt>
      <trkpt lat="43.52278" lon="6.75138">
        <ele>325</ele>
        <time>2010-05-02T09:09:36Z</time>
      </trkpt>
      <trkpt lat="43.52279" lon="6.75138">
        <ele>325</ele>
        <time>2010-05-02T09:09:37Z</time>
      </trkpt>
      <trkpt lat="43.52279" lon="6.75138">
        <ele>325</ele>
        <time>2010-05-02T09:09:37Z</time>
      </trkpt>
      <trkpt lat="43.5228" lon="6.75144">
        <ele>322</ele>
        <time>2010-05-02T09:10:34Z</time>
      </trkpt>
      <trkpt lat="43.52281" lon="6.75144">
        <ele>322</ele>
        <time>2010-05-02T09:10:37Z</time>
      </trkpt>
      <trkpt lat="43.52281" lon="6.75144">
        <ele>322</ele>
        <time>2010-05-02T09:10:37Z</time>
      </trkpt>
      <trkpt lat="43.52279" lon="6.75147">
        <ele>322</ele>
        <time>2010-05-02T09:19:20Z</time>
      </trkpt>
      <trkpt lat="43.52276" lon="6.75157">
        <ele>322</ele>
        <time>2010-05-02T09:19:23Z</time>
      </trkpt>
      <trkpt lat="43.52276" lon="6.75165">
        <ele>322</ele>
        <time>2010-05-02T09:19:25Z</time>
      </trkpt>
      <trkpt lat="43.52279" lon="6.75175">
        <ele>322</ele>
        <time>2010-05-02T09:19:27Z</time>
      </trkpt>
      <trkpt lat="43.52282" lon="6.75181">
        <ele>322</ele>
        <time>2010-05-02T09:19:28Z</time>
      </trkpt>
      <trkpt lat="43.52284" lon="6.75188">
        <ele>322</ele>
        <time>2010-05-02T09:19:29Z</time>
      </trkpt>
      <trkpt lat="43.52288" lon="6.75196">
        <ele>322</ele>
        <time>2010-05-02T09:19:31Z</time>
      </trkpt>
      <trkpt lat="43.52293" lon="6.75203">
        <ele>322</ele>
        <time>2010-05-02T09:19:33Z</time>
      </trkpt>
      <trkpt lat="43.52301" lon="6.75213">
        <ele>321</ele>
        <time>2010-05-02T09:19:36Z</time>
      </trkpt>
      <trkpt lat="43.52308" lon="6.7522">
        <ele>320</ele>
        <time>2010-05-02T09:19:38Z</time>
      </trkpt>
      <trkpt lat="43.52316" lon="6.75228">
        <ele>319</ele>
        <time>2010-05-02T09:19:40Z</time>
      </trkpt>
      <trkpt lat="43.5232" lon="6.75232">
        <ele>319</ele>
        <time>2010-05-02T09:19:41Z</time>
      </trkpt>
      <trkpt lat="43.52325" lon="6.75239">
        <ele>317</ele>
        <time>2010-05-02T09:19:43Z</time>
      </trkpt>
      <trkpt lat="43.52327" lon="6.75248">
        <ele>317</ele>
        <time>2010-05-02T09:19:45Z</time>
      </trkpt>
      <trkpt lat="43.52332" lon="6.75256">
        <ele>317</ele>
        <time>2010-05-02T09:19:47Z</time>
      </trkpt>
      <trkpt lat="43.52335" lon="6.75262">
        <ele>316</ele>
        <time>2010-05-02T09:19:49Z</time>
      </trkpt>
      <trkpt lat="43.5234" lon="6.75269">
        <ele>315</ele>
        <time>2010-05-02T09:19:51Z</time>
      </trkpt>
      <trkpt lat="43.52343" lon="6.75275">
        <ele>315</ele>
        <time>2010-05-02T09:19:53Z</time>
      </trkpt>
      <trkpt lat="43.52346" lon="6.75281">
        <ele>314</ele>
        <time>2010-05-02T09:19:55Z</time>
      </trkpt>
      <trkpt lat="43.5235" lon="6.75292">
        <ele>313</ele>
        <time>2010-05-02T09:19:58Z</time>
      </trkpt>
      <trkpt lat="43.52353" lon="6.75301">
        <ele>312</ele>
        <time>2010-05-02T09:20:00Z</time>
      </trkpt>
      <trkpt lat="43.52355" lon="6.7531">
        <ele>312</ele>
        <time>2010-05-02T09:20:02Z</time>
      </trkpt>
      <trkpt lat="43.52356" lon="6.7532">
        <ele>311</ele>
        <time>2010-05-02T09:20:04Z</time>
      </trkpt>
      <trkpt lat="43.52358" lon="6.75328">
        <ele>309</ele>
        <time>2010-05-02T09:20:06Z</time>
      </trkpt>
      <trkpt lat="43.5236" lon="6.75337">
        <ele>308</ele>
        <time>2010-05-02T09:20:08Z</time>
      </trkpt>
      <trkpt lat="43.52363" lon="6.7535">
        <ele>305</ele>
        <time>2010-05-02T09:20:11Z</time>
      </trkpt>
      <trkpt lat="43.52364" lon="6.75357">
        <ele>303</ele>
        <time>2010-05-02T09:20:14Z</time>
      </trkpt>
      <trkpt lat="43.52365" lon="6.75364">
        <ele>302</ele>
        <time>2010-05-02T09:20:18Z</time>
      </trkpt>
      <trkpt lat="43.52366" lon="6.7537">
        <ele>300</ele>
        <time>2010-05-02T09:20:21Z</time>
      </trkpt>
      <trkpt lat="43.52366" lon="6.75371">
        <ele>299</ele>
        <time>2010-05-02T09:20:25Z</time>
      </trkpt>
      <trkpt lat="43.5237" lon="6.75371">
        <ele>294</ele>
        <time>2010-05-02T09:20:41Z</time>
      </trkpt>
      <trkpt lat="43.52371" lon="6.75373">
        <ele>294</ele>
        <time>2010-05-02T09:20:42Z</time>
      </trkpt>
      <trkpt lat="43.52372" lon="6.7538">
        <ele>293</ele>
        <time>2010-05-02T09:20:45Z</time>
      </trkpt>
      <trkpt lat="43.52374" lon="6.75389">
        <ele>293</ele>
        <time>2010-05-02T09:20:48Z</time>
      </trkpt>
      <trkpt lat="43.52376" lon="6.75396">
        <ele>292</ele>
        <time>2010-05-02T09:20:50Z</time>
      </trkpt>
      <trkpt lat="43.52377" lon="6.75402">
        <ele>291</ele>
        <time>2010-05-02T09:20:53Z</time>
      </trkpt>
      <trkpt lat="43.5238" lon="6.75408">
        <ele>289</ele>
        <time>2010-05-02T09:21:00Z</time>
      </trkpt>
      <trkpt lat="43.52382" lon="6.75413">
        <ele>288</ele>
        <time>2010-05-02T09:21:03Z</time>
      </trkpt>
      <trkpt lat="43.52385" lon="6.7542">
        <ele>287</ele>
        <time>2010-05-02T09:21:07Z</time>
      </trkpt>
      <trkpt lat="43.5239" lon="6.75421">
        <ele>281</ele>
        <time>2010-05-02T09:21:19Z</time>
      </trkpt>
      <trkpt lat="43.52393" lon="6.75426">
        <ele>277</ele>
        <time>2010-05-02T09:21:32Z</time>
      </trkpt>
      <trkpt lat="43.52394" lon="6.75435">
        <ele>276</ele>
        <time>2010-05-02T09:21:36Z</time>
      </trkpt>
      <trkpt lat="43.52396" lon="6.75442">
        <ele>275</ele>
        <time>2010-05-02T09:21:39Z</time>
      </trkpt>
      <trkpt lat="43.52399" lon="6.75452">
        <ele>273</ele>
        <time>2010-05-02T09:21:43Z</time>
      </trkpt>
      <trkpt lat="43.524" lon="6.75458">
        <ele>272</ele>
        <time>2010-05-02T09:21:45Z</time>
      </trkpt>
      <trkpt lat="43.52403" lon="6.75464">
        <ele>271</ele>
        <time>2010-05-02T09:21:47Z</time>
      </trkpt>
      <trkpt lat="43.52406" lon="6.7547">
        <ele>271</ele>
        <time>2010-05-02T09:21:49Z</time>
      </trkpt>
      <trkpt lat="43.52409" lon="6.75475">
        <ele>270</ele>
        <time>2010-05-02T09:21:51Z</time>
      </trkpt>
      <trkpt lat="43.52412" lon="6.75481">
        <ele>269</ele>
        <time>2010-05-02T09:21:54Z</time>
      </trkpt>
      <trkpt lat="43.52418" lon="6.75493">
        <ele>267</ele>
        <time>2010-05-02T09:21:59Z</time>
      </trkpt>
      <trkpt lat="43.52421" lon="6.75499">
        <ele>267</ele>
        <time>2010-05-02T09:22:01Z</time>
      </trkpt>
      <trkpt lat="43.52424" lon="6.75507">
        <ele>266</ele>
        <time>2010-05-02T09:22:03Z</time>
      </trkpt>
      <trkpt lat="43.52426" lon="6.75515">
        <ele>265</ele>
        <time>2010-05-02T09:22:05Z</time>
      </trkpt>
      <trkpt lat="43.52428" lon="6.75525">
        <ele>264</ele>
        <time>2010-05-02T09:22:07Z</time>
      </trkpt>
      <trkpt lat="43.52429" lon="6.75533">
        <ele>262</ele>
        <time>2010-05-02T09:22:09Z</time>
      </trkpt>
      <trkpt lat="43.52429" lon="6.75545">
        <ele>260</ele>
        <time>2010-05-02T09:22:12Z</time>
      </trkpt>
      <trkpt lat="43.52432" lon="6.75551">
        <ele>258</ele>
        <time>2010-05-02T09:22:15Z</time>
      </trkpt>
      <trkpt lat="43.52436" lon="6.75557">
        <ele>257</ele>
        <time>2010-05-02T09:22:19Z</time>
      </trkpt>
      <trkpt lat="43.52438" lon="6.75563">
        <ele>256</ele>
        <time>2010-05-02T09:22:21Z</time>
      </trkpt>
      <trkpt lat="43.52439" lon="6.75577">
        <ele>253</ele>
        <time>2010-05-02T09:22:25Z</time>
      </trkpt>
      <trkpt lat="43.5244" lon="6.75585">
        <ele>251</ele>
        <time>2010-05-02T09:22:28Z</time>
      </trkpt>
      <trkpt lat="43.52441" lon="6.75594">
        <ele>250</ele>
        <time>2010-05-02T09:22:31Z</time>
      </trkpt>
      <trkpt lat="43.52442" lon="6.75601">
        <ele>248</ele>
        <time>2010-05-02T09:22:33Z</time>
      </trkpt>
      <trkpt lat="43.52442" lon="6.75608">
        <ele>247</ele>
        <time>2010-05-02T09:22:35Z</time>
      </trkpt>
      <trkpt lat="43.52443" lon="6.75621">
        <ele>246</ele>
        <time>2010-05-02T09:22:38Z</time>
      </trkpt>
      <trkpt lat="43.52441" lon="6.75629">
        <ele>244</ele>
        <time>2010-05-02T09:22:40Z</time>
      </trkpt>
      <trkpt lat="43.52441" lon="6.75637">
        <ele>243</ele>
        <time>2010-05-02T09:22:42Z</time>
      </trkpt>
      <trkpt lat="43.52443" lon="6.75646">
        <ele>242</ele>
        <time>2010-05-02T09:22:44Z</time>
      </trkpt>
      <trkpt lat="43.52445" lon="6.75655">
        <ele>240</ele>
        <time>2010-05-02T09:22:46Z</time>
      </trkpt>
      <trkpt lat="43.52447" lon="6.75666">
        <ele>239</ele>
        <time>2010-05-02T09:22:48Z</time>
      </trkpt>
      <trkpt lat="43.5245" lon="6.75676">
        <ele>239</ele>
        <time>2010-05-02T09:22:50Z</time>
      </trkpt>
      <trkpt lat="43.52452" lon="6.75685">
        <ele>238</ele>
        <time>2010-05-02T09:22:52Z</time>
      </trkpt>
      <trkpt lat="43.52452" lon="6.75692">
        <ele>238</ele>
        <time>2010-05-02T09:22:53Z</time>
      </trkpt>
      <trkpt lat="43.52454" lon="6.75709">
        <ele>236</ele>
        <time>2010-05-02T09:22:57Z</time>
      </trkpt>
      <trkpt lat="43.52453" lon="6.75718">
        <ele>235</ele>
        <time>2010-05-02T09:22:59Z</time>
      </trkpt>
      <trkpt lat="43.52451" lon="6.75728">
        <ele>234</ele>
        <time>2010-05-02T09:23:01Z</time>
      </trkpt>
      <trkpt lat="43.52449" lon="6.75734">
        <ele>233</ele>
        <time>2010-05-02T09:23:02Z</time>
      </trkpt>
      <trkpt lat="43.52447" lon="6.75743">
        <ele>232</ele>
        <time>2010-05-02T09:23:04Z</time>
      </trkpt>
      <trkpt lat="43.52445" lon="6.75749">
        <ele>230</ele>
        <time>2010-05-02T09:23:06Z</time>
      </trkpt>
      <trkpt lat="43.52444" lon="6.75762">
        <ele>228</ele>
        <time>2010-05-02T09:23:10Z</time>
      </trkpt>
      <trkpt lat="43.52443" lon="6.75772">
        <ele>226</ele>
        <time>2010-05-02T09:23:12Z</time>
      </trkpt>
      <trkpt lat="43.52443" lon="6.75782">
        <ele>225</ele>
        <time>2010-05-02T09:23:14Z</time>
      </trkpt>
      <trkpt lat="43.52443" lon="6.75793">
        <ele>224</ele>
        <time>2010-05-02T09:23:16Z</time>
      </trkpt>
      <trkpt lat="43.52443" lon="6.75805">
        <ele>222</ele>
        <time>2010-05-02T09:23:18Z</time>
      </trkpt>
      <trkpt lat="43.52442" lon="6.75812">
        <ele>222</ele>
        <time>2010-05-02T09:23:19Z</time>
      </trkpt>
      <trkpt lat="43.52442" lon="6.75818">
        <ele>221</ele>
        <time>2010-05-02T09:23:20Z</time>
      </trkpt>
      <trkpt lat="43.5244" lon="6.75836">
        <ele>219</ele>
        <time>2010-05-02T09:23:23Z</time>
      </trkpt>
      <trkpt lat="43.52439" lon="6.75845">
        <ele>219</ele>
        <time>2010-05-02T09:23:25Z</time>
      </trkpt>
      <trkpt lat="43.52438" lon="6.75857">
        <ele>217</ele>
        <time>2010-05-02T09:23:27Z</time>
      </trkpt>
      <trkpt lat="43.52437" lon="6.75863">
        <ele>217</ele>
        <time>2010-05-02T09:23:28Z</time>
      </trkpt>
      <trkpt lat="43.52435" lon="6.75874">
        <ele>216</ele>
        <time>2010-05-02T09:23:30Z</time>
      </trkpt>
      <trkpt lat="43.52433" lon="6.75881">
        <ele>215</ele>
        <time>2010-05-02T09:23:31Z</time>
      </trkpt>
      <trkpt lat="43.52432" lon="6.75887">
        <ele>215</ele>
        <time>2010-05-02T09:23:32Z</time>
      </trkpt>
      <trkpt lat="43.52426" lon="6.75909">
        <ele>213</ele>
        <time>2010-05-02T09:23:36Z</time>
      </trkpt>
      <trkpt lat="43.52419" lon="6.75916">
        <ele>213</ele>
        <time>2010-05-02T09:23:38Z</time>
      </trkpt>
      <trkpt lat="43.52413" lon="6.75924">
        <ele>211</ele>
        <time>2010-05-02T09:23:40Z</time>
      </trkpt>
      <trkpt lat="43.52406" lon="6.75931">
        <ele>210</ele>
        <time>2010-05-02T09:23:42Z</time>
      </trkpt>
      <trkpt lat="43.52402" lon="6.75936">
        <ele>209</ele>
        <time>2010-05-02T09:23:43Z</time>
      </trkpt>
      <trkpt lat="43.52399" lon="6.75942">
        <ele>208</ele>
        <time>2010-05-02T09:23:44Z</time>
      </trkpt>
      <trkpt lat="43.52395" lon="6.75948">
        <ele>208</ele>
        <time>2010-05-02T09:23:45Z</time>
      </trkpt>
      <trkpt lat="43.52392" lon="6.75954">
        <ele>208</ele>
        <time>2010-05-02T09:23:46Z</time>
      </trkpt>
      <trkpt lat="43.52389" lon="6.7596">
        <ele>207</ele>
        <time>2010-05-02T09:23:47Z</time>
      </trkpt>
      <trkpt lat="43.52387" lon="6.75965">
        <ele>207</ele>
        <time>2010-05-02T09:23:48Z</time>
      </trkpt>
      <trkpt lat="43.52385" lon="6.75971">
        <ele>207</ele>
        <time>2010-05-02T09:23:49Z</time>
      </trkpt>
      <trkpt lat="43.52382" lon="6.75978">
        <ele>206</ele>
        <time>2010-05-02T09:23:50Z</time>
      </trkpt>
      <trkpt lat="43.5238" lon="6.75984">
        <ele>206</ele>
        <time>2010-05-02T09:23:51Z</time>
      </trkpt>
      <trkpt lat="43.52377" lon="6.75993">
        <ele>205</ele>
        <time>2010-05-02T09:23:53Z</time>
      </trkpt>
      <trkpt lat="43.52367" lon="6.76013">
        <ele>204</ele>
        <time>2010-05-02T09:23:57Z</time>
      </trkpt>
      <trkpt lat="43.52365" lon="6.7602">
        <ele>203</ele>
        <time>2010-05-02T09:23:58Z</time>
      </trkpt>
      <trkpt lat="43.52363" lon="6.76026">
        <ele>203</ele>
        <time>2010-05-02T09:23:59Z</time>
      </trkpt>
      <trkpt lat="43.5236" lon="6.76032">
        <ele>203</ele>
        <time>2010-05-02T09:24:00Z</time>
      </trkpt>
      <trkpt lat="43.52358" lon="6.76039">
        <ele>202</ele>
        <time>2010-05-02T09:24:01Z</time>
      </trkpt>
      <trkpt lat="43.52356" lon="6.76046">
        <ele>202</ele>
        <time>2010-05-02T09:24:02Z</time>
      </trkpt>
      <trkpt lat="43.52354" lon="6.76052">
        <ele>202</ele>
        <time>2010-05-02T09:24:03Z</time>
      </trkpt>
      <trkpt lat="43.52352" lon="6.76058">
        <ele>202</ele>
        <time>2010-05-02T09:24:04Z</time>
      </trkpt>
      <trkpt lat="43.52347" lon="6.76064">
        <ele>201</ele>
        <time>2010-05-02T09:24:06Z</time>
      </trkpt>
      <trkpt lat="43.52333" lon="6.76073">
        <ele>199</ele>
        <time>2010-05-02T09:24:10Z</time>
      </trkpt>
      <trkpt lat="43.52323" lon="6.76073">
        <ele>198</ele>
        <time>2010-05-02T09:24:12Z</time>
      </trkpt>
      <trkpt lat="43.52318" lon="6.76074">
        <ele>198</ele>
        <time>2010-05-02T09:24:13Z</time>
      </trkpt>
      <trkpt lat="43.5231" lon="6.76077">
        <ele>197</ele>
        <time>2010-05-02T09:24:15Z</time>
      </trkpt>
      <trkpt lat="43.52301" lon="6.7608">
        <ele>195</ele>
        <time>2010-05-02T09:24:17Z</time>
      </trkpt>
      <trkpt lat="43.52292" lon="6.76081">
        <ele>194</ele>
        <time>2010-05-02T09:24:19Z</time>
      </trkpt>
      <trkpt lat="43.52286" lon="6.76082">
        <ele>193</ele>
        <time>2010-05-02T09:24:20Z</time>
      </trkpt>
      <trkpt lat="43.52269" lon="6.76088">
        <ele>190</ele>
        <time>2010-05-02T09:24:23Z</time>
      </trkpt>
      <trkpt lat="43.52264" lon="6.7609">
        <ele>190</ele>
        <time>2010-05-02T09:24:24Z</time>
      </trkpt>
      <trkpt lat="43.5226" lon="6.76092">
        <ele>189</ele>
        <time>2010-05-02T09:24:25Z</time>
      </trkpt>
      <trkpt lat="43.52255" lon="6.76094">
        <ele>189</ele>
        <time>2010-05-02T09:24:26Z</time>
      </trkpt>
      <trkpt lat="43.5225" lon="6.76096">
        <ele>188</ele>
        <time>2010-05-02T09:24:27Z</time>
      </trkpt>
      <trkpt lat="43.52246" lon="6.76099">
        <ele>187</ele>
        <time>2010-05-02T09:24:28Z</time>
      </trkpt>
      <trkpt lat="43.52239" lon="6.76104">
        <ele>186</ele>
        <time>2010-05-02T09:24:30Z</time>
      </trkpt>
      <trkpt lat="43.52237" lon="6.76111">
        <ele>185</ele>
        <time>2010-05-02T09:24:31Z</time>
      </trkpt>
      <trkpt lat="43.52234" lon="6.76116">
        <ele>184</ele>
        <time>2010-05-02T09:24:32Z</time>
      </trkpt>
      <trkpt lat="43.52231" lon="6.76122">
        <ele>183</ele>
        <time>2010-05-02T09:24:33Z</time>
      </trkpt>
      <trkpt lat="43.52224" lon="6.76132">
        <ele>181</ele>
        <time>2010-05-02T09:24:36Z</time>
      </trkpt>
      <trkpt lat="43.5222" lon="6.76136">
        <ele>180</ele>
        <time>2010-05-02T09:24:38Z</time>
      </trkpt>
      <trkpt lat="43.52215" lon="6.76139">
        <ele>178</ele>
        <time>2010-05-02T09:24:40Z</time>
      </trkpt>
      <trkpt lat="43.5221" lon="6.76141">
        <ele>177</ele>
        <time>2010-05-02T09:24:42Z</time>
      </trkpt>
      <trkpt lat="43.5221" lon="6.76141">
        <ele>177</ele>
        <time>2010-05-02T09:24:42Z</time>
      </trkpt>
      <trkpt lat="43.52209" lon="6.76146">
        <ele>175</ele>
        <time>2010-05-02T09:24:46Z</time>
      </trkpt>
      <trkpt lat="43.5221" lon="6.76148">
        <ele>172</ele>
        <time>2010-05-02T09:24:49Z</time>
      </trkpt>
      <trkpt lat="43.52215" lon="6.76149">
        <ele>168</ele>
        <time>2010-05-02T09:24:55Z</time>
      </trkpt>
      <trkpt lat="43.52216" lon="6.76149">
        <ele>168</ele>
        <time>2010-05-02T09:24:56Z</time>
      </trkpt>
      <trkpt lat="43.52219" lon="6.76146">
        <ele>163</ele>
        <time>2010-05-02T09:25:05Z</time>
      </trkpt>
      <trkpt lat="43.5222" lon="6.76146">
        <ele>163</ele>
        <time>2010-05-02T09:25:06Z</time>
      </trkpt>
      <trkpt lat="43.52221" lon="6.76146">
        <ele>162</ele>
        <time>2010-05-02T09:25:08Z</time>
      </trkpt>
      <trkpt lat="43.52223" lon="6.76147">
        <ele>154</ele>
        <time>2010-05-02T09:25:47Z</time>
      </trkpt>
      <trkpt lat="43.52217" lon="6.76153">
        <ele>151</ele>
        <time>2010-05-02T09:25:48Z</time>
      </trkpt>
      <trkpt lat="43.52215" lon="6.76154">
        <ele>151</ele>
        <time>2010-05-02T09:25:50Z</time>
      </trkpt>
      <trkpt lat="43.52218" lon="6.76156">
        <ele>144</ele>
        <time>2010-05-02T09:30:43Z</time>
      </trkpt>
      <trkpt lat="43.52224" lon="6.76162">
        <ele>142</ele>
        <time>2010-05-02T09:30:44Z</time>
      </trkpt>
      <trkpt lat="43.52225" lon="6.76163">
        <ele>142</ele>
        <time>2010-05-02T09:30:46Z</time>
      </trkpt>
      <trkpt lat="43.52222" lon="6.76162">
        <ele>145</ele>
        <time>2010-05-02T09:35:15Z</time>
      </trkpt>
      <trkpt lat="43.52215" lon="6.7616">
        <ele>151</ele>
        <time>2010-05-02T09:35:16Z</time>
      </trkpt>
      <trkpt lat="43.52215" lon="6.7616">
        <ele>151</ele>
        <time>2010-05-02T09:35:18Z</time>
      </trkpt>
      <trkpt lat="43.52217" lon="6.76157">
        <ele>149</ele>
        <time>2010-05-02T09:38:12Z</time>
      </trkpt>
      <trkpt lat="43.52221" lon="6.76165">
        <ele>149</ele>
        <time>2010-05-02T09:38:13Z</time>
      </trkpt>
      <trkpt lat="43.52223" lon="6.76166">
        <ele>149</ele>
        <time>2010-05-02T09:38:16Z</time>
      </trkpt>
      <trkpt lat="43.52225" lon="6.76166">
        <ele>148</ele>
        <time>2010-05-02T09:38:30Z</time>
      </trkpt>
      <trkpt lat="43.52233" lon="6.76165">
        <ele>148</ele>
        <time>2010-05-02T09:38:31Z</time>
      </trkpt>
      <trkpt lat="43.52244" lon="6.76164">
        <ele>148</ele>
        <time>2010-05-02T09:38:36Z</time>
      </trkpt>
      <trkpt lat="43.52247" lon="6.76169">
        <ele>148</ele>
        <time>2010-05-02T09:38:39Z</time>
      </trkpt>
      <trkpt lat="43.52245" lon="6.76176">
        <ele>148</ele>
        <time>2010-05-02T09:38:42Z</time>
      </trkpt>
      <trkpt lat="43.52242" lon="6.76185">
        <ele>149</ele>
        <time>2010-05-02T09:38:44Z</time>
      </trkpt>
      <trkpt lat="43.52238" lon="6.7619">
        <ele>149</ele>
        <time>2010-05-02T09:38:45Z</time>
      </trkpt>
      <trkpt lat="43.52232" lon="6.76201">
        <ele>149</ele>
        <time>2010-05-02T09:38:47Z</time>
      </trkpt>
      <trkpt lat="43.5223" lon="6.76207">
        <ele>150</ele>
        <time>2010-05-02T09:38:48Z</time>
      </trkpt>
      <trkpt lat="43.52228" lon="6.76214">
        <ele>150</ele>
        <time>2010-05-02T09:38:49Z</time>
      </trkpt>
      <trkpt lat="43.52227" lon="6.76221">
        <ele>150</ele>
        <time>2010-05-02T09:38:50Z</time>
      </trkpt>
      <trkpt lat="43.52227" lon="6.76228">
        <ele>150</ele>
        <time>2010-05-02T09:38:51Z</time>
      </trkpt>
      <trkpt lat="43.52229" lon="6.76234">
        <ele>150</ele>
        <time>2010-05-02T09:38:52Z</time>
      </trkpt>
      <trkpt lat="43.5223" lon="6.76241">
        <ele>149</ele>
        <time>2010-05-02T09:38:53Z</time>
      </trkpt>
      <trkpt lat="43.52234" lon="6.76259">
        <ele>149</ele>
        <time>2010-05-02T09:38:57Z</time>
      </trkpt>
      <trkpt lat="43.52236" lon="6.76265">
        <ele>149</ele>
        <time>2010-05-02T09:39:00Z</time>
      </trkpt>
      <trkpt lat="43.52237" lon="6.76272">
        <ele>149</ele>
        <time>2010-05-02T09:39:03Z</time>
      </trkpt>
      <trkpt lat="43.52235" lon="6.76279">
        <ele>149</ele>
        <time>2010-05-02T09:39:05Z</time>
      </trkpt>
      <trkpt lat="43.52233" lon="6.76289">
        <ele>149</ele>
        <time>2010-05-02T09:39:07Z</time>
      </trkpt>
      <trkpt lat="43.5223" lon="6.76301">
        <ele>149</ele>
        <time>2010-05-02T09:39:10Z</time>
      </trkpt>
      <trkpt lat="43.52226" lon="6.76308">
        <ele>148</ele>
        <time>2010-05-02T09:39:13Z</time>
      </trkpt>
      <trkpt lat="43.5222" lon="6.76304">
        <ele>143</ele>
        <time>2010-05-02T09:39:19Z</time>
      </trkpt>
      <trkpt lat="43.52217" lon="6.76292">
        <ele>142</ele>
        <time>2010-05-02T09:39:23Z</time>
      </trkpt>
      <trkpt lat="43.52212" lon="6.76291">
        <ele>142</ele>
        <time>2010-05-02T09:39:25Z</time>
      </trkpt>
      <trkpt lat="43.52207" lon="6.76291">
        <ele>142</ele>
        <time>2010-05-02T09:39:27Z</time>
      </trkpt>
      <trkpt lat="43.52201" lon="6.76294">
        <ele>141</ele>
        <time>2010-05-02T09:39:32Z</time>
      </trkpt>
      <trkpt lat="43.52185" lon="6.763">
        <ele>139</ele>
        <time>2010-05-02T09:39:36Z</time>
      </trkpt>
      <trkpt lat="43.52179" lon="6.76301">
        <ele>138</ele>
        <time>2010-05-02T09:39:37Z</time>
      </trkpt>
      <trkpt lat="43.52169" lon="6.76301">
        <ele>136</ele>
        <time>2010-05-02T09:39:38Z</time>
      </trkpt>
      <trkpt lat="43.5216" lon="6.76301">
        <ele>135</ele>
        <time>2010-05-02T09:39:39Z</time>
      </trkpt>
      <trkpt lat="43.52154" lon="6.76302">
        <ele>134</ele>
        <time>2010-05-02T09:39:40Z</time>
      </trkpt>
      <trkpt lat="43.52147" lon="6.76303">
        <ele>134</ele>
        <time>2010-05-02T09:39:41Z</time>
      </trkpt>
      <trkpt lat="43.52139" lon="6.76305">
        <ele>133</ele>
        <time>2010-05-02T09:39:42Z</time>
      </trkpt>
      <trkpt lat="43.52133" lon="6.76306">
        <ele>132</ele>
        <time>2010-05-02T09:39:43Z</time>
      </trkpt>
      <trkpt lat="43.52126" lon="6.76307">
        <ele>131</ele>
        <time>2010-05-02T09:39:44Z</time>
      </trkpt>
      <trkpt lat="43.52121" lon="6.76308">
        <ele>130</ele>
        <time>2010-05-02T09:39:45Z</time>
      </trkpt>
      <trkpt lat="43.52113" lon="6.7631">
        <ele>128</ele>
        <time>2010-05-02T09:39:47Z</time>
      </trkpt>
      <trkpt lat="43.52107" lon="6.7631">
        <ele>127</ele>
        <time>2010-05-02T09:39:48Z</time>
      </trkpt>
      <trkpt lat="43.521" lon="6.76313">
        <ele>125</ele>
        <time>2010-05-02T09:39:50Z</time>
      </trkpt>
      <trkpt lat="43.52097" lon="6.76317">
        <ele>124</ele>
        <time>2010-05-02T09:39:52Z</time>
      </trkpt>
      <trkpt lat="43.52096" lon="6.76321">
        <ele>120</ele>
        <time>2010-05-02T09:40:00Z</time>
      </trkpt>
      <trkpt lat="43.52097" lon="6.76326">
        <ele>119</ele>
        <time>2010-05-02T09:40:06Z</time>
      </trkpt>
      <trkpt lat="43.52098" lon="6.76327">
        <ele>118</ele>
        <time>2010-05-02T09:40:07Z</time>
      </trkpt>
      <trkpt lat="43.521" lon="6.76336">
        <ele>118</ele>
        <time>2010-05-02T09:40:10Z</time>
      </trkpt>
      <trkpt lat="43.52104" lon="6.76342">
        <ele>118</ele>
        <time>2010-05-02T09:40:12Z</time>
      </trkpt>
      <trkpt lat="43.52108" lon="6.76349">
        <ele>118</ele>
        <time>2010-05-02T09:40:14Z</time>
      </trkpt>
      <trkpt lat="43.52112" lon="6.76357">
        <ele>117</ele>
        <time>2010-05-02T09:40:16Z</time>
      </trkpt>
      <trkpt lat="43.52116" lon="6.76365">
        <ele>117</ele>
        <time>2010-05-02T09:40:18Z</time>
      </trkpt>
      <trkpt lat="43.52121" lon="6.76374">
        <ele>117</ele>
        <time>2010-05-02T09:40:20Z</time>
      </trkpt>
      <trkpt lat="43.52128" lon="6.76387">
        <ele>117</ele>
        <time>2010-05-02T09:40:23Z</time>
      </trkpt>
      <trkpt lat="43.52134" lon="6.76397">
        <ele>116</ele>
        <time>2010-05-02T09:40:25Z</time>
      </trkpt>
      <trkpt lat="43.52139" lon="6.76406">
        <ele>116</ele>
        <time>2010-05-02T09:40:27Z</time>
      </trkpt>
      <trkpt lat="43.52145" lon="6.76416">
        <ele>115</ele>
        <time>2010-05-02T09:40:29Z</time>
      </trkpt>
      <trkpt lat="43.52151" lon="6.76424">
        <ele>115</ele>
        <time>2010-05-02T09:40:31Z</time>
      </trkpt>
      <trkpt lat="43.52155" lon="6.76433">
        <ele>115</ele>
        <time>2010-05-02T09:40:33Z</time>
      </trkpt>
      <trkpt lat="43.52163" lon="6.76447">
        <ele>115</ele>
        <time>2010-05-02T09:40:36Z</time>
      </trkpt>
      <trkpt lat="43.52168" lon="6.76456">
        <ele>115</ele>
        <time>2010-05-02T09:40:38Z</time>
      </trkpt>
      <trkpt lat="43.52173" lon="6.76464">
        <ele>115</ele>
        <time>2010-05-02T09:40:40Z</time>
      </trkpt>
      <trkpt lat="43.52177" lon="6.76472">
        <ele>115</ele>
        <time>2010-05-02T09:40:42Z</time>
      </trkpt>
      <trkpt lat="43.52182" lon="6.76479">
        <ele>115</ele>
        <time>2010-05-02T09:40:44Z</time>
      </trkpt>
      <trkpt lat="43.52186" lon="6.76486">
        <ele>115</ele>
        <time>2010-05-02T09:40:46Z</time>
      </trkpt>
      <trkpt lat="43.52189" lon="6.76492">
        <ele>115</ele>
        <time>2010-05-02T09:40:48Z</time>
      </trkpt>
      <trkpt lat="43.52194" lon="6.76498">
        <ele>114</ele>
        <time>2010-05-02T09:40:50Z</time>
      </trkpt>
      <trkpt lat="43.52198" lon="6.76505">
        <ele>113</ele>
        <time>2010-05-02T09:40:52Z</time>
      </trkpt>
      <trkpt lat="43.52202" lon="6.76512">
        <ele>112</ele>
        <time>2010-05-02T09:40:54Z</time>
      </trkpt>
      <trkpt lat="43.52208" lon="6.76522">
        <ele>112</ele>
        <time>2010-05-02T09:40:57Z</time>
      </trkpt>
      <trkpt lat="43.52212" lon="6.76529">
        <ele>112</ele>
        <time>2010-05-02T09:40:59Z</time>
      </trkpt>
      <trkpt lat="43.52217" lon="6.76537">
        <ele>112</ele>
        <time>2010-05-02T09:41:01Z</time>
      </trkpt>
      <trkpt lat="43.52221" lon="6.76544">
        <ele>112</ele>
        <time>2010-05-02T09:41:03Z</time>
      </trkpt>
      <trkpt lat="43.52225" lon="6.76552">
        <ele>113</ele>
        <time>2010-05-02T09:41:05Z</time>
      </trkpt>
      <trkpt lat="43.52229" lon="6.76559">
        <ele>113</ele>
        <time>2010-05-02T09:41:07Z</time>
      </trkpt>
      <trkpt lat="43.52236" lon="6.76569">
        <ele>113</ele>
        <time>2010-05-02T09:41:10Z</time>
      </trkpt>
      <trkpt lat="43.5224" lon="6.76576">
        <ele>113</ele>
        <time>2010-05-02T09:41:12Z</time>
      </trkpt>
      <trkpt lat="43.52245" lon="6.76584">
        <ele>114</ele>
        <time>2010-05-02T09:41:14Z</time>
      </trkpt>
      <trkpt lat="43.52249" lon="6.76591">
        <ele>113</ele>
        <time>2010-05-02T09:41:16Z</time>
      </trkpt>
      <trkpt lat="43.52254" lon="6.76598">
        <ele>113</ele>
        <time>2010-05-02T09:41:18Z</time>
      </trkpt>
      <trkpt lat="43.52259" lon="6.76604">
        <ele>113</ele>
        <time>2010-05-02T09:41:20Z</time>
      </trkpt>
      <trkpt lat="43.52266" lon="6.76615">
        <ele>112</ele>
        <time>2010-05-02T09:41:23Z</time>
      </trkpt>
      <trkpt lat="43.5227" lon="6.76621">
        <ele>113</ele>
        <time>2010-05-02T09:41:25Z</time>
      </trkpt>
      <trkpt lat="43.52275" lon="6.76627">
        <ele>113</ele>
        <time>2010-05-02T09:41:27Z</time>
      </trkpt>
      <trkpt lat="43.5228" lon="6.76634">
        <ele>113</ele>
        <time>2010-05-02T09:41:29Z</time>
      </trkpt>
      <trkpt lat="43.52286" lon="6.7664">
        <ele>112</ele>
        <time>2010-05-02T09:41:31Z</time>
      </trkpt>
      <trkpt lat="43.52292" lon="6.76646">
        <ele>112</ele>
        <time>2010-05-02T09:41:33Z</time>
      </trkpt>
      <trkpt lat="43.52302" lon="6.76654">
        <ele>112</ele>
        <time>2010-05-02T09:41:36Z</time>
      </trkpt>
      <trkpt lat="43.52308" lon="6.76659">
        <ele>113</ele>
        <time>2010-05-02T09:41:38Z</time>
      </trkpt>
      <trkpt lat="43.52314" lon="6.76664">
        <ele>113</ele>
        <time>2010-05-02T09:41:40Z</time>
      </trkpt>
      <trkpt lat="43.5232" lon="6.76669">
        <ele>113</ele>
        <time>2010-05-02T09:41:42Z</time>
      </trkpt>
      <trkpt lat="43.52326" lon="6.76675">
        <ele>113</ele>
        <time>2010-05-02T09:41:44Z</time>
      </trkpt>
      <trkpt lat="43.52332" lon="6.7668">
        <ele>113</ele>
        <time>2010-05-02T09:41:46Z</time>
      </trkpt>
      <trkpt lat="43.52338" lon="6.76686">
        <ele>113</ele>
        <time>2010-05-02T09:41:48Z</time>
      </trkpt>
      <trkpt lat="43.52344" lon="6.76691">
        <ele>113</ele>
        <time>2010-05-02T09:41:50Z</time>
      </trkpt>
      <trkpt lat="43.52351" lon="6.76697">
        <ele>113</ele>
        <time>2010-05-02T09:41:52Z</time>
      </trkpt>
      <trkpt lat="43.52357" lon="6.76702">
        <ele>113</ele>
        <time>2010-05-02T09:41:54Z</time>
      </trkpt>
      <trkpt lat="43.52366" lon="6.76711">
        <ele>113</ele>
        <time>2010-05-02T09:41:57Z</time>
      </trkpt>
      <trkpt lat="43.52371" lon="6.76717">
        <ele>113</ele>
        <time>2010-05-02T09:41:59Z</time>
      </trkpt>
      <trkpt lat="43.52376" lon="6.76722">
        <ele>113</ele>
        <time>2010-05-02T09:42:01Z</time>
      </trkpt>
      <trkpt lat="43.52381" lon="6.76728">
        <ele>114</ele>
        <time>2010-05-02T09:42:03Z</time>
      </trkpt>
      <trkpt lat="43.52387" lon="6.76734">
        <ele>114</ele>
        <time>2010-05-02T09:42:05Z</time>
      </trkpt>
      <trkpt lat="43.52393" lon="6.76739">
        <ele>114</ele>
        <time>2010-05-02T09:42:07Z</time>
      </trkpt>
      <trkpt lat="43.52402" lon="6.76745">
        <ele>114</ele>
        <time>2010-05-02T09:42:10Z</time>
      </trkpt>
      <trkpt lat="43.52409" lon="6.7675">
        <ele>114</ele>
        <time>2010-05-02T09:42:12Z</time>
      </trkpt>
      <trkpt lat="43.52415" lon="6.76755">
        <ele>113</ele>
        <time>2010-05-02T09:42:14Z</time>
      </trkpt>
      <trkpt lat="43.52423" lon="6.76758">
        <ele>113</ele>
        <time>2010-05-02T09:42:16Z</time>
      </trkpt>
      <trkpt lat="43.5243" lon="6.76762">
        <ele>113</ele>
        <time>2010-05-02T09:42:18Z</time>
      </trkpt>
      <trkpt lat="43.52438" lon="6.76766">
        <ele>114</ele>
        <time>2010-05-02T09:42:20Z</time>
      </trkpt>
      <trkpt lat="43.52449" lon="6.76772">
        <ele>114</ele>
        <time>2010-05-02T09:42:23Z</time>
      </trkpt>
      <trkpt lat="43.52457" lon="6.76776">
        <ele>114</ele>
        <time>2010-05-02T09:42:25Z</time>
      </trkpt>
      <trkpt lat="43.52465" lon="6.76781">
        <ele>115</ele>
        <time>2010-05-02T09:42:27Z</time>
      </trkpt>
      <trkpt lat="43.52469" lon="6.76784">
        <ele>114</ele>
        <time>2010-05-02T09:42:28Z</time>
      </trkpt>
      <trkpt lat="43.52474" lon="6.76786">
        <ele>114</ele>
        <time>2010-05-02T09:42:29Z</time>
      </trkpt>
      <trkpt lat="43.52478" lon="6.76789">
        <ele>114</ele>
        <time>2010-05-02T09:42:30Z</time>
      </trkpt>
      <trkpt lat="43.52482" lon="6.76792">
        <ele>114</ele>
        <time>2010-05-02T09:42:31Z</time>
      </trkpt>
      <trkpt lat="43.52487" lon="6.76796">
        <ele>114</ele>
        <time>2010-05-02T09:42:32Z</time>
      </trkpt>
      <trkpt lat="43.5249" lon="6.768">
        <ele>114</ele>
        <time>2010-05-02T09:42:33Z</time>
      </trkpt>
      <trkpt lat="43.525" lon="6.76814">
        <ele>114</ele>
        <time>2010-05-02T09:42:36Z</time>
      </trkpt>
      <trkpt lat="43.52503" lon="6.76819">
        <ele>114</ele>
        <time>2010-05-02T09:42:37Z</time>
      </trkpt>
      <trkpt lat="43.52506" lon="6.76824">
        <ele>114</ele>
        <time>2010-05-02T09:42:38Z</time>
      </trkpt>
      <trkpt lat="43.52511" lon="6.76834">
        <ele>114</ele>
        <time>2010-05-02T09:42:40Z</time>
      </trkpt>
      <trkpt lat="43.52513" lon="6.76839">
        <ele>114</ele>
        <time>2010-05-02T09:42:41Z</time>
      </trkpt>
      <trkpt lat="43.52518" lon="6.76848">
        <ele>114</ele>
        <time>2010-05-02T09:42:43Z</time>
      </trkpt>
      <trkpt lat="43.52524" lon="6.76858">
        <ele>115</ele>
        <time>2010-05-02T09:42:45Z</time>
      </trkpt>
      <trkpt lat="43.52527" lon="6.76863">
        <ele>115</ele>
        <time>2010-05-02T09:42:46Z</time>
      </trkpt>
      <trkpt lat="43.52532" lon="6.76873">
        <ele>115</ele>
        <time>2010-05-02T09:42:48Z</time>
      </trkpt>
      <trkpt lat="43.52537" lon="6.76883">
        <ele>115</ele>
        <time>2010-05-02T09:42:50Z</time>
      </trkpt>
      <trkpt lat="43.52542" lon="6.76892">
        <ele>115</ele>
        <time>2010-05-02T09:42:52Z</time>
      </trkpt>
      <trkpt lat="43.52546" lon="6.76898">
        <ele>115</ele>
        <time>2010-05-02T09:42:53Z</time>
      </trkpt>
      <trkpt lat="43.52556" lon="6.76919">
        <ele>116</ele>
        <time>2010-05-02T09:42:57Z</time>
      </trkpt>
      <trkpt lat="43.52558" lon="6.76924">
        <ele>116</ele>
        <time>2010-05-02T09:42:58Z</time>
      </trkpt>
      <trkpt lat="43.52562" lon="6.76929">
        <ele>116</ele>
        <time>2010-05-02T09:42:59Z</time>
      </trkpt>
      <trkpt lat="43.52568" lon="6.76939">
        <ele>116</ele>
        <time>2010-05-02T09:43:01Z</time>
      </trkpt>
      <trkpt lat="43.52573" lon="6.76948">
        <ele>116</ele>
        <time>2010-05-02T09:43:03Z</time>
      </trkpt>
      <trkpt lat="43.52577" lon="6.76953">
        <ele>115</ele>
        <time>2010-05-02T09:43:04Z</time>
      </trkpt>
      <trkpt lat="43.52582" lon="6.76962">
        <ele>115</ele>
        <time>2010-05-02T09:43:06Z</time>
      </trkpt>
      <trkpt lat="43.52592" lon="6.7698">
        <ele>115</ele>
        <time>2010-05-02T09:43:10Z</time>
      </trkpt>
      <trkpt lat="43.52595" lon="6.76984">
        <ele>115</ele>
        <time>2010-05-02T09:43:11Z</time>
      </trkpt>
      <trkpt lat="43.526" lon="6.76993">
        <ele>115</ele>
        <time>2010-05-02T09:43:13Z</time>
      </trkpt>
      <trkpt lat="43.52602" lon="6.76999">
        <ele>115</ele>
        <time>2010-05-02T09:43:14Z</time>
      </trkpt>
      <trkpt lat="43.52607" lon="6.77008">
        <ele>114</ele>
        <time>2010-05-02T09:43:16Z</time>
      </trkpt>
      <trkpt lat="43.52613" lon="6.77017">
        <ele>115</ele>
        <time>2010-05-02T09:43:18Z</time>
      </trkpt>
      <trkpt lat="43.52619" lon="6.77027">
        <ele>114</ele>
        <time>2010-05-02T09:43:20Z</time>
      </trkpt>
      <trkpt lat="43.52627" lon="6.77042">
        <ele>114</ele>
        <time>2010-05-02T09:43:23Z</time>
      </trkpt>
      <trkpt lat="43.5263" lon="6.77046">
        <ele>114</ele>
        <time>2010-05-02T09:43:24Z</time>
      </trkpt>
      <trkpt lat="43.52633" lon="6.77051">
        <ele>114</ele>
        <time>2010-05-02T09:43:25Z</time>
      </trkpt>
      <trkpt lat="43.52636" lon="6.77056">
        <ele>114</ele>
        <time>2010-05-02T09:43:26Z</time>
      </trkpt>
      <trkpt lat="43.52638" lon="6.77061">
        <ele>114</ele>
        <time>2010-05-02T09:43:27Z</time>
      </trkpt>
      <trkpt lat="43.52644" lon="6.7707">
        <ele>114</ele>
        <time>2010-05-02T09:43:29Z</time>
      </trkpt>
      <trkpt lat="43.52647" lon="6.77075">
        <ele>114</ele>
        <time>2010-05-02T09:43:30Z</time>
      </trkpt>
      <trkpt lat="43.52652" lon="6.77083">
        <ele>115</ele>
        <time>2010-05-02T09:43:32Z</time>
      </trkpt>
      <trkpt lat="43.52656" lon="6.77088">
        <ele>114</ele>
        <time>2010-05-02T09:43:33Z</time>
      </trkpt>
      <trkpt lat="43.52664" lon="6.77101">
        <ele>115</ele>
        <time>2010-05-02T09:43:36Z</time>
      </trkpt>
      <trkpt lat="43.5267" lon="6.77109">
        <ele>115</ele>
        <time>2010-05-02T09:43:38Z</time>
      </trkpt>
      <trkpt lat="43.52674" lon="6.77113">
        <ele>115</ele>
        <time>2010-05-02T09:43:39Z</time>
      </trkpt>
      <trkpt lat="43.52679" lon="6.77121">
        <ele>115</ele>
        <time>2010-05-02T09:43:41Z</time>
      </trkpt>
      <trkpt lat="43.52686" lon="6.77128">
        <ele>116</ele>
        <time>2010-05-02T09:43:43Z</time>
      </trkpt>
      <trkpt lat="43.52689" lon="6.77133">
        <ele>116</ele>
        <time>2010-05-02T09:43:44Z</time>
      </trkpt>
      <trkpt lat="43.52695" lon="6.7714">
        <ele>116</ele>
        <time>2010-05-02T09:43:46Z</time>
      </trkpt>
      <trkpt lat="43.52706" lon="6.77149">
        <ele>117</ele>
        <time>2010-05-02T09:43:49Z</time>
      </trkpt>
      <trkpt lat="43.52713" lon="6.77155">
        <ele>117</ele>
        <time>2010-05-02T09:43:51Z</time>
      </trkpt>
      <trkpt lat="43.5272" lon="6.7716">
        <ele>118</ele>
        <time>2010-05-02T09:43:53Z</time>
      </trkpt>
      <trkpt lat="43.52727" lon="6.77164">
        <ele>119</ele>
        <time>2010-05-02T09:43:55Z</time>
      </trkpt>
      <trkpt lat="43.52734" lon="6.77168">
        <ele>119</ele>
        <time>2010-05-02T09:43:57Z</time>
      </trkpt>
      <trkpt lat="43.52743" lon="6.7717">
        <ele>119</ele>
        <time>2010-05-02T09:43:59Z</time>
      </trkpt>
      <trkpt lat="43.5275" lon="6.77174">
        <ele>120</ele>
        <time>2010-05-02T09:44:01Z</time>
      </trkpt>
      <trkpt lat="43.52758" lon="6.77178">
        <ele>121</ele>
        <time>2010-05-02T09:44:03Z</time>
      </trkpt>
      <trkpt lat="43.52762" lon="6.7718">
        <ele>121</ele>
        <time>2010-05-02T09:44:04Z</time>
      </trkpt>
      <trkpt lat="43.52774" lon="6.77185">
        <ele>121</ele>
        <time>2010-05-02T09:44:07Z</time>
      </trkpt>
      <trkpt lat="43.52782" lon="6.77189">
        <ele>121</ele>
        <time>2010-05-02T09:44:09Z</time>
      </trkpt>
      <trkpt lat="43.5279" lon="6.77193">
        <ele>121</ele>
        <time>2010-05-02T09:44:11Z</time>
      </trkpt>
      <trkpt lat="43.52798" lon="6.77197">
        <ele>121</ele>
        <time>2010-05-02T09:44:13Z</time>
      </trkpt>
      <trkpt lat="43.52805" lon="6.77201">
        <ele>122</ele>
        <time>2010-05-02T09:44:15Z</time>
      </trkpt>
      <trkpt lat="43.52813" lon="6.77204">
        <ele>122</ele>
        <time>2010-05-02T09:44:17Z</time>
      </trkpt>
      <trkpt lat="43.52826" lon="6.77207">
        <ele>122</ele>
        <time>2010-05-02T09:44:20Z</time>
      </trkpt>
      <trkpt lat="43.52835" lon="6.77208">
        <ele>122</ele>
        <time>2010-05-02T09:44:22Z</time>
      </trkpt>
      <trkpt lat="43.5284" lon="6.77209">
        <ele>121</ele>
        <time>2010-05-02T09:44:23Z</time>
      </trkpt>
      <trkpt lat="43.52845" lon="6.7721">
        <ele>121</ele>
        <time>2010-05-02T09:44:24Z</time>
      </trkpt>
      <trkpt lat="43.52851" lon="6.77211">
        <ele>122</ele>
        <time>2010-05-02T09:44:25Z</time>
      </trkpt>
      <trkpt lat="43.52856" lon="6.77213">
        <ele>122</ele>
        <time>2010-05-02T09:44:26Z</time>
      </trkpt>
      <trkpt lat="43.52861" lon="6.77215">
        <ele>122</ele>
        <time>2010-05-02T09:44:27Z</time>
      </trkpt>
      <trkpt lat="43.52866" lon="6.77216">
        <ele>122</ele>
        <time>2010-05-02T09:44:28Z</time>
      </trkpt>
      <trkpt lat="43.52874" lon="6.7722">
        <ele>123</ele>
        <time>2010-05-02T09:44:30Z</time>
      </trkpt>
      <trkpt lat="43.52885" lon="6.77223">
        <ele>123</ele>
        <time>2010-05-02T09:44:33Z</time>
      </trkpt>
      <trkpt lat="43.52892" lon="6.77223">
        <ele>124</ele>
        <time>2010-05-02T09:44:35Z</time>
      </trkpt>
      <trkpt lat="43.52899" lon="6.77223">
        <ele>124</ele>
        <time>2010-05-02T09:44:37Z</time>
      </trkpt>
      <trkpt lat="43.52907" lon="6.77223">
        <ele>125</ele>
        <time>2010-05-02T09:44:39Z</time>
      </trkpt>
      <trkpt lat="43.52914" lon="6.77225">
        <ele>125</ele>
        <time>2010-05-02T09:44:41Z</time>
      </trkpt>
      <trkpt lat="43.52922" lon="6.77228">
        <ele>125</ele>
        <time>2010-05-02T09:44:43Z</time>
      </trkpt>
      <trkpt lat="43.52929" lon="6.77231">
        <ele>125</ele>
        <time>2010-05-02T09:44:45Z</time>
      </trkpt>
      <trkpt lat="43.52936" lon="6.77236">
        <ele>126</ele>
        <time>2010-05-02T09:44:47Z</time>
      </trkpt>
      <trkpt lat="43.52943" lon="6.77242">
        <ele>126</ele>
        <time>2010-05-02T09:44:49Z</time>
      </trkpt>
      <trkpt lat="43.5295" lon="6.77248">
        <ele>127</ele>
        <time>2010-05-02T09:44:51Z</time>
      </trkpt>
      <trkpt lat="43.52957" lon="6.77253">
        <ele>127</ele>
        <time>2010-05-02T09:44:53Z</time>
      </trkpt>
      <trkpt lat="43.5297" lon="6.77264">
        <ele>128</ele>
        <time>2010-05-02T09:44:57Z</time>
      </trkpt>
      <trkpt lat="43.52977" lon="6.7727">
        <ele>128</ele>
        <time>2010-05-02T09:44:59Z</time>
      </trkpt>
      <trkpt lat="43.52985" lon="6.77274">
        <ele>128</ele>
        <time>2010-05-02T09:45:01Z</time>
      </trkpt>
      <trkpt lat="43.52992" lon="6.77278">
        <ele>128</ele>
        <time>2010-05-02T09:45:03Z</time>
      </trkpt>
      <trkpt lat="43.53" lon="6.77281">
        <ele>128</ele>
        <time>2010-05-02T09:45:05Z</time>
      </trkpt>
      <trkpt lat="43.53009" lon="6.77283">
        <ele>128</ele>
        <time>2010-05-02T09:45:07Z</time>
      </trkpt>
      <trkpt lat="43.53022" lon="6.77284">
        <ele>128</ele>
        <time>2010-05-02T09:45:10Z</time>
      </trkpt>
      <trkpt lat="43.53031" lon="6.77284">
        <ele>128</ele>
        <time>2010-05-02T09:45:12Z</time>
      </trkpt>
      <trkpt lat="43.5304" lon="6.77282">
        <ele>128</ele>
        <time>2010-05-02T09:45:14Z</time>
      </trkpt>
      <trkpt lat="43.53045" lon="6.77281">
        <ele>128</ele>
        <time>2010-05-02T09:45:15Z</time>
      </trkpt>
      <trkpt lat="43.5305" lon="6.7728">
        <ele>128</ele>
        <time>2010-05-02T09:45:16Z</time>
      </trkpt>
      <trkpt lat="43.53058" lon="6.77279">
        <ele>128</ele>
        <time>2010-05-02T09:45:18Z</time>
      </trkpt>
      <trkpt lat="43.53063" lon="6.77279">
        <ele>128</ele>
        <time>2010-05-02T09:45:19Z</time>
      </trkpt>
      <trkpt lat="43.53072" lon="6.77279">
        <ele>128</ele>
        <time>2010-05-02T09:45:23Z</time>
      </trkpt>
      <trkpt lat="43.53078" lon="6.77279">
        <ele>128</ele>
        <time>2010-05-02T09:45:25Z</time>
      </trkpt>
      <trkpt lat="43.53084" lon="6.77279">
        <ele>128</ele>
        <time>2010-05-02T09:45:27Z</time>
      </trkpt>
      <trkpt lat="43.53091" lon="6.77278">
        <ele>128</ele>
        <time>2010-05-02T09:45:29Z</time>
      </trkpt>
      <trkpt lat="43.53099" lon="6.77278">
        <ele>128</ele>
        <time>2010-05-02T09:45:31Z</time>
      </trkpt>
      <trkpt lat="43.53107" lon="6.77278">
        <ele>129</ele>
        <time>2010-05-02T09:45:33Z</time>
      </trkpt>
      <trkpt lat="43.53121" lon="6.77277">
        <ele>129</ele>
        <time>2010-05-02T09:45:36Z</time>
      </trkpt>
      <trkpt lat="43.53125" lon="6.77277">
        <ele>129</ele>
        <time>2010-05-02T09:45:37Z</time>
      </trkpt>
      <trkpt lat="43.53134" lon="6.77277">
        <ele>129</ele>
        <time>2010-05-02T09:45:39Z</time>
      </trkpt>
      <trkpt lat="43.53139" lon="6.77276">
        <ele>129</ele>
        <time>2010-05-02T09:45:40Z</time>
      </trkpt>
      <trkpt lat="43.53148" lon="6.77275">
        <ele>129</ele>
        <time>2010-05-02T09:45:42Z</time>
      </trkpt>
      <trkpt lat="43.53153" lon="6.77275">
        <ele>129</ele>
        <time>2010-05-02T09:45:43Z</time>
      </trkpt>
      <trkpt lat="43.53162" lon="6.77275">
        <ele>129</ele>
        <time>2010-05-02T09:45:45Z</time>
      </trkpt>
      <trkpt lat="43.53167" lon="6.77275">
        <ele>129</ele>
        <time>2010-05-02T09:45:46Z</time>
      </trkpt>
      <trkpt lat="43.53172" lon="6.77275">
        <ele>129</ele>
        <time>2010-05-02T09:45:47Z</time>
      </trkpt>
      <trkpt lat="43.53177" lon="6.77275">
        <ele>129</ele>
        <time>2010-05-02T09:45:48Z</time>
      </trkpt>
      <trkpt lat="43.53182" lon="6.77275">
        <ele>129</ele>
        <time>2010-05-02T09:45:49Z</time>
      </trkpt>
      <trkpt lat="43.5319" lon="6.77276">
        <ele>129</ele>
        <time>2010-05-02T09:45:51Z</time>
      </trkpt>
      <trkpt lat="43.532" lon="6.77275">
        <ele>129</ele>
        <time>2010-05-02T09:45:53Z</time>
      </trkpt>
      <trkpt lat="43.53208" lon="6.77275">
        <ele>129</ele>
        <time>2010-05-02T09:45:55Z</time>
      </trkpt>
      <trkpt lat="43.53221" lon="6.77275">
        <ele>129</ele>
        <time>2010-05-02T09:45:58Z</time>
      </trkpt>
      <trkpt lat="43.53226" lon="6.77275">
        <ele>129</ele>
        <time>2010-05-02T09:45:59Z</time>
      </trkpt>
      <trkpt lat="43.53235" lon="6.77275">
        <ele>129</ele>
        <time>2010-05-02T09:46:01Z</time>
      </trkpt>
      <trkpt lat="43.5324" lon="6.77275">
        <ele>129</ele>
        <time>2010-05-02T09:46:02Z</time>
      </trkpt>
      <trkpt lat="43.53248" lon="6.77276">
        <ele>129</ele>
        <time>2010-05-02T09:46:04Z</time>
      </trkpt>
      <trkpt lat="43.53254" lon="6.77277">
        <ele>129</ele>
        <time>2010-05-02T09:46:05Z</time>
      </trkpt>
      <trkpt lat="43.53262" lon="6.77278">
        <ele>129</ele>
        <time>2010-05-02T09:46:07Z</time>
      </trkpt>
      <trkpt lat="43.53268" lon="6.77279">
        <ele>129</ele>
        <time>2010-05-02T09:46:08Z</time>
      </trkpt>
      <trkpt lat="43.53282" lon="6.77282">
        <ele>128</ele>
        <time>2010-05-02T09:46:11Z</time>
      </trkpt>
      <trkpt lat="43.53287" lon="6.77284">
        <ele>128</ele>
        <time>2010-05-02T09:46:12Z</time>
      </trkpt>
      <trkpt lat="43.53291" lon="6.77286">
        <ele>128</ele>
        <time>2010-05-02T09:46:13Z</time>
      </trkpt>
      <trkpt lat="43.53296" lon="6.77288">
        <ele>128</ele>
        <time>2010-05-02T09:46:14Z</time>
      </trkpt>
      <trkpt lat="43.533" lon="6.77291">
        <ele>128</ele>
        <time>2010-05-02T09:46:15Z</time>
      </trkpt>
      <trkpt lat="43.53309" lon="6.77295">
        <ele>128</ele>
        <time>2010-05-02T09:46:17Z</time>
      </trkpt>
      <trkpt lat="43.53313" lon="6.77298">
        <ele>128</ele>
        <time>2010-05-02T09:46:18Z</time>
      </trkpt>
      <trkpt lat="43.53321" lon="6.77303">
        <ele>128</ele>
        <time>2010-05-02T09:46:20Z</time>
      </trkpt>
      <trkpt lat="43.53337" lon="6.77313">
        <ele>128</ele>
        <time>2010-05-02T09:46:24Z</time>
      </trkpt>
      <trkpt lat="43.53341" lon="6.77315">
        <ele>128</ele>
        <time>2010-05-02T09:46:25Z</time>
      </trkpt>
      <trkpt lat="43.53345" lon="6.77317">
        <ele>128</ele>
        <time>2010-05-02T09:46:26Z</time>
      </trkpt>
      <trkpt lat="43.53353" lon="6.77322">
        <ele>128</ele>
        <time>2010-05-02T09:46:28Z</time>
      </trkpt>
      <trkpt lat="43.53358" lon="6.77324">
        <ele>128</ele>
        <time>2010-05-02T09:46:29Z</time>
      </trkpt>
      <trkpt lat="43.5337" lon="6.7733">
        <ele>128</ele>
        <time>2010-05-02T09:46:32Z</time>
      </trkpt>
      <trkpt lat="43.53379" lon="6.77332">
        <ele>128</ele>
        <time>2010-05-02T09:46:34Z</time>
      </trkpt>
      <trkpt lat="43.53396" lon="6.77336">
        <ele>128</ele>
        <time>2010-05-02T09:46:38Z</time>
      </trkpt>
      <trkpt lat="43.53401" lon="6.77337">
        <ele>128</ele>
        <time>2010-05-02T09:46:39Z</time>
      </trkpt>
      <trkpt lat="43.53405" lon="6.77337">
        <ele>128</ele>
        <time>2010-05-02T09:46:40Z</time>
      </trkpt>
      <trkpt lat="43.53415" lon="6.77339">
        <ele>128</ele>
        <time>2010-05-02T09:46:42Z</time>
      </trkpt>
      <trkpt lat="43.53429" lon="6.77341">
        <ele>128</ele>
        <time>2010-05-02T09:46:45Z</time>
      </trkpt>
      <trkpt lat="43.53438" lon="6.77343">
        <ele>128</ele>
        <time>2010-05-02T09:46:47Z</time>
      </trkpt>
      <trkpt lat="43.53443" lon="6.77344">
        <ele>128</ele>
        <time>2010-05-02T09:46:48Z</time>
      </trkpt>
      <trkpt lat="43.53448" lon="6.77345">
        <ele>128</ele>
        <time>2010-05-02T09:46:49Z</time>
      </trkpt>
      <trkpt lat="43.53457" lon="6.77347">
        <ele>128</ele>
        <time>2010-05-02T09:46:51Z</time>
      </trkpt>
      <trkpt lat="43.53466" lon="6.7735">
        <ele>128</ele>
        <time>2010-05-02T09:46:53Z</time>
      </trkpt>
      <trkpt lat="43.53474" lon="6.77352">
        <ele>128</ele>
        <time>2010-05-02T09:46:55Z</time>
      </trkpt>
      <trkpt lat="43.53492" lon="6.77358">
        <ele>129</ele>
        <time>2010-05-02T09:46:59Z</time>
      </trkpt>
      <trkpt lat="43.53496" lon="6.7736">
        <ele>129</ele>
        <time>2010-05-02T09:47:00Z</time>
      </trkpt>
      <trkpt lat="43.53501" lon="6.77361">
        <ele>129</ele>
        <time>2010-05-02T09:47:01Z</time>
      </trkpt>
      <trkpt lat="43.53506" lon="6.77363">
        <ele>129</ele>
        <time>2010-05-02T09:47:02Z</time>
      </trkpt>
      <trkpt lat="43.53511" lon="6.77366">
        <ele>129</ele>
        <time>2010-05-02T09:47:03Z</time>
      </trkpt>
      <trkpt lat="43.53516" lon="6.77368">
        <ele>129</ele>
        <time>2010-05-02T09:47:04Z</time>
      </trkpt>
      <trkpt lat="43.5352" lon="6.7737">
        <ele>129</ele>
        <time>2010-05-02T09:47:05Z</time>
      </trkpt>
      <trkpt lat="43.53525" lon="6.77373">
        <ele>129</ele>
        <time>2010-05-02T09:47:06Z</time>
      </trkpt>
      <trkpt lat="43.53529" lon="6.77375">
        <ele>129</ele>
        <time>2010-05-02T09:47:07Z</time>
      </trkpt>
      <trkpt lat="43.53534" lon="6.77376">
        <ele>129</ele>
        <time>2010-05-02T09:47:08Z</time>
      </trkpt>
      <trkpt lat="43.53539" lon="6.77378">
        <ele>129</ele>
        <time>2010-05-02T09:47:09Z</time>
      </trkpt>
      <trkpt lat="43.53552" lon="6.77385">
        <ele>130</ele>
        <time>2010-05-02T09:47:12Z</time>
      </trkpt>
      <trkpt lat="43.53557" lon="6.77387">
        <ele>130</ele>
        <time>2010-05-02T09:47:13Z</time>
      </trkpt>
      <trkpt lat="43.53562" lon="6.77389">
        <ele>130</ele>
        <time>2010-05-02T09:47:14Z</time>
      </trkpt>
      <trkpt lat="43.53567" lon="6.77392">
        <ele>130</ele>
        <time>2010-05-02T09:47:15Z</time>
      </trkpt>
      <trkpt lat="43.53571" lon="6.77394">
        <ele>130</ele>
        <time>2010-05-02T09:47:16Z</time>
      </trkpt>
      <trkpt lat="43.53577" lon="6.77397">
        <ele>131</ele>
        <time>2010-05-02T09:47:17Z</time>
      </trkpt>
      <trkpt lat="43.53581" lon="6.77399">
        <ele>131</ele>
        <time>2010-05-02T09:47:18Z</time>
      </trkpt>
      <trkpt lat="43.53586" lon="6.77402">
        <ele>131</ele>
        <time>2010-05-02T09:47:19Z</time>
      </trkpt>
      <trkpt lat="43.53591" lon="6.77404">
        <ele>131</ele>
        <time>2010-05-02T09:47:20Z</time>
      </trkpt>
      <trkpt lat="43.53596" lon="6.77406">
        <ele>131</ele>
        <time>2010-05-02T09:47:21Z</time>
      </trkpt>
      <trkpt lat="43.53602" lon="6.77409">
        <ele>132</ele>
        <time>2010-05-02T09:47:22Z</time>
      </trkpt>
      <trkpt lat="43.53617" lon="6.77417">
        <ele>132</ele>
        <time>2010-05-02T09:47:25Z</time>
      </trkpt>
      <trkpt lat="43.53623" lon="6.7742">
        <ele>132</ele>
        <time>2010-05-02T09:47:26Z</time>
      </trkpt>
      <trkpt lat="43.53628" lon="6.77422">
        <ele>132</ele>
        <time>2010-05-02T09:47:27Z</time>
      </trkpt>
      <trkpt lat="43.53633" lon="6.77425">
        <ele>132</ele>
        <time>2010-05-02T09:47:28Z</time>
      </trkpt>
      <trkpt lat="43.53638" lon="6.77428">
        <ele>132</ele>
        <time>2010-05-02T09:47:29Z</time>
      </trkpt>
      <trkpt lat="43.53643" lon="6.77431">
        <ele>133</ele>
        <time>2010-05-02T09:47:30Z</time>
      </trkpt>
      <trkpt lat="43.53648" lon="6.77434">
        <ele>133</ele>
        <time>2010-05-02T09:47:31Z</time>
      </trkpt>
      <trkpt lat="43.53653" lon="6.77436">
        <ele>133</ele>
        <time>2010-05-02T09:47:32Z</time>
      </trkpt>
      <trkpt lat="43.53657" lon="6.7744">
        <ele>133</ele>
        <time>2010-05-02T09:47:33Z</time>
      </trkpt>
      <trkpt lat="43.53662" lon="6.77442">
        <ele>133</ele>
        <time>2010-05-02T09:47:34Z</time>
      </trkpt>
      <trkpt lat="43.53667" lon="6.77446">
        <ele>133</ele>
        <time>2010-05-02T09:47:35Z</time>
      </trkpt>
      <trkpt lat="43.53681" lon="6.77456">
        <ele>134</ele>
        <time>2010-05-02T09:47:38Z</time>
      </trkpt>
      <trkpt lat="43.53686" lon="6.77459">
        <ele>134</ele>
        <time>2010-05-02T09:47:39Z</time>
      </trkpt>
      <trkpt lat="43.53691" lon="6.77463">
        <ele>134</ele>
        <time>2010-05-02T09:47:40Z</time>
      </trkpt>
      <trkpt lat="43.53696" lon="6.77466">
        <ele>134</ele>
        <time>2010-05-02T09:47:41Z</time>
      </trkpt>
      <trkpt lat="43.53701" lon="6.7747">
        <ele>134</ele>
        <time>2010-05-02T09:47:42Z</time>
      </trkpt>
      <trkpt lat="43.53706" lon="6.77474">
        <ele>134</ele>
        <time>2010-05-02T09:47:43Z</time>
      </trkpt>
      <trkpt lat="43.53711" lon="6.77477">
        <ele>134</ele>
        <time>2010-05-02T09:47:44Z</time>
      </trkpt>
      <trkpt lat="43.53716" lon="6.7748">
        <ele>134</ele>
        <time>2010-05-02T09:47:45Z</time>
      </trkpt>
      <trkpt lat="43.5372" lon="6.77484">
        <ele>134</ele>
        <time>2010-05-02T09:47:46Z</time>
      </trkpt>
      <trkpt lat="43.53725" lon="6.77487">
        <ele>134</ele>
        <time>2010-05-02T09:47:47Z</time>
      </trkpt>
      <trkpt lat="43.53735" lon="6.77495">
        <ele>134</ele>
        <time>2010-05-02T09:47:49Z</time>
      </trkpt>
      <trkpt lat="43.5374" lon="6.77499">
        <ele>134</ele>
        <time>2010-05-02T09:47:50Z</time>
      </trkpt>
      <trkpt lat="43.53745" lon="6.77502">
        <ele>134</ele>
        <time>2010-05-02T09:47:51Z</time>
      </trkpt>
      <trkpt lat="43.5375" lon="6.77506">
        <ele>134</ele>
        <time>2010-05-02T09:47:52Z</time>
      </trkpt>
      <trkpt lat="43.53755" lon="6.77509">
        <ele>134</ele>
        <time>2010-05-02T09:47:53Z</time>
      </trkpt>
      <trkpt lat="43.5376" lon="6.77513">
        <ele>134</ele>
        <time>2010-05-02T09:47:54Z</time>
      </trkpt>
      <trkpt lat="43.53764" lon="6.77516">
        <ele>134</ele>
        <time>2010-05-02T09:47:55Z</time>
      </trkpt>
      <trkpt lat="43.53769" lon="6.7752">
        <ele>134</ele>
        <time>2010-05-02T09:47:56Z</time>
      </trkpt>
      <trkpt lat="43.53774" lon="6.77523">
        <ele>134</ele>
        <time>2010-05-02T09:47:57Z</time>
      </trkpt>
      <trkpt lat="43.53779" lon="6.77527">
        <ele>134</ele>
        <time>2010-05-02T09:47:58Z</time>
      </trkpt>
      <trkpt lat="43.53784" lon="6.7753">
        <ele>134</ele>
        <time>2010-05-02T09:47:59Z</time>
      </trkpt>
      <trkpt lat="43.53798" lon="6.7754">
        <ele>134</ele>
        <time>2010-05-02T09:48:02Z</time>
      </trkpt>
      <trkpt lat="43.53802" lon="6.77543">
        <ele>134</ele>
        <time>2010-05-02T09:48:03Z</time>
      </trkpt>
      <trkpt lat="43.53807" lon="6.77547">
        <ele>135</ele>
        <time>2010-05-02T09:48:04Z</time>
      </trkpt>
      <trkpt lat="43.53812" lon="6.7755">
        <ele>134</ele>
        <time>2010-05-02T09:48:05Z</time>
      </trkpt>
      <trkpt lat="43.53816" lon="6.77553">
        <ele>135</ele>
        <time>2010-05-02T09:48:06Z</time>
      </trkpt>
      <trkpt lat="43.53821" lon="6.77556">
        <ele>135</ele>
        <time>2010-05-02T09:48:07Z</time>
      </trkpt>
      <trkpt lat="43.53825" lon="6.77559">
        <ele>135</ele>
        <time>2010-05-02T09:48:08Z</time>
      </trkpt>
      <trkpt lat="43.5383" lon="6.77561">
        <ele>135</ele>
        <time>2010-05-02T09:48:09Z</time>
      </trkpt>
      <trkpt lat="43.53838" lon="6.77568">
        <ele>135</ele>
        <time>2010-05-02T09:48:11Z</time>
      </trkpt>
      <trkpt lat="43.53842" lon="6.77571">
        <ele>135</ele>
        <time>2010-05-02T09:48:12Z</time>
      </trkpt>
      <trkpt lat="43.53854" lon="6.7758">
        <ele>135</ele>
        <time>2010-05-02T09:48:15Z</time>
      </trkpt>
      <trkpt lat="43.53859" lon="6.77583">
        <ele>135</ele>
        <time>2010-05-02T09:48:16Z</time>
      </trkpt>
      <trkpt lat="43.53863" lon="6.77586">
        <ele>135</ele>
        <time>2010-05-02T09:48:17Z</time>
      </trkpt>
      <trkpt lat="43.53871" lon="6.77592">
        <ele>136</ele>
        <time>2010-05-02T09:48:19Z</time>
      </trkpt>
      <trkpt lat="43.53875" lon="6.77595">
        <ele>136</ele>
        <time>2010-05-02T09:48:20Z</time>
      </trkpt>
      <trkpt lat="43.53882" lon="6.77601">
        <ele>136</ele>
        <time>2010-05-02T09:48:22Z</time>
      </trkpt>
      <trkpt lat="43.5389" lon="6.77606">
        <ele>136</ele>
        <time>2010-05-02T09:48:24Z</time>
      </trkpt>
      <trkpt lat="43.53905" lon="6.77617">
        <ele>136</ele>
        <time>2010-05-02T09:48:28Z</time>
      </trkpt>
      <trkpt lat="43.53913" lon="6.77623">
        <ele>136</ele>
        <time>2010-05-02T09:48:30Z</time>
      </trkpt>
      <trkpt lat="43.53917" lon="6.77625">
        <ele>136</ele>
        <time>2010-05-02T09:48:31Z</time>
      </trkpt>
      <trkpt lat="43.53922" lon="6.77628">
        <ele>136</ele>
        <time>2010-05-02T09:48:32Z</time>
      </trkpt>
      <trkpt lat="43.5393" lon="6.77633">
        <ele>136</ele>
        <time>2010-05-02T09:48:34Z</time>
      </trkpt>
      <trkpt lat="43.53934" lon="6.77636">
        <ele>136</ele>
        <time>2010-05-02T09:48:35Z</time>
      </trkpt>
      <trkpt lat="43.53938" lon="6.77639">
        <ele>136</ele>
        <time>2010-05-02T09:48:36Z</time>
      </trkpt>
      <trkpt lat="43.53942" lon="6.77641">
        <ele>137</ele>
        <time>2010-05-02T09:48:37Z</time>
      </trkpt>
      <trkpt lat="43.53947" lon="6.77644">
        <ele>137</ele>
        <time>2010-05-02T09:48:38Z</time>
      </trkpt>
      <trkpt lat="43.53961" lon="6.77651">
        <ele>137</ele>
        <time>2010-05-02T09:48:41Z</time>
      </trkpt>
      <trkpt lat="43.53966" lon="6.77653">
        <ele>137</ele>
        <time>2010-05-02T09:48:42Z</time>
      </trkpt>
      <trkpt lat="43.5397" lon="6.77656">
        <ele>137</ele>
        <time>2010-05-02T09:48:43Z</time>
      </trkpt>
      <trkpt lat="43.5398" lon="6.77659">
        <ele>138</ele>
        <time>2010-05-02T09:48:45Z</time>
      </trkpt>
      <trkpt lat="43.5399" lon="6.77664">
        <ele>138</ele>
        <time>2010-05-02T09:48:47Z</time>
      </trkpt>
      <trkpt lat="43.53994" lon="6.77666">
        <ele>138</ele>
        <time>2010-05-02T09:48:48Z</time>
      </trkpt>
      <trkpt lat="43.53999" lon="6.77668">
        <ele>138</ele>
        <time>2010-05-02T09:48:49Z</time>
      </trkpt>
      <trkpt lat="43.54004" lon="6.7767">
        <ele>138</ele>
        <time>2010-05-02T09:48:50Z</time>
      </trkpt>
      <trkpt lat="43.54008" lon="6.77672">
        <ele>138</ele>
        <time>2010-05-02T09:48:51Z</time>
      </trkpt>
      <trkpt lat="43.54013" lon="6.77675">
        <ele>138</ele>
        <time>2010-05-02T09:48:52Z</time>
      </trkpt>
      <trkpt lat="43.54018" lon="6.77677">
        <ele>139</ele>
        <time>2010-05-02T09:48:53Z</time>
      </trkpt>
      <trkpt lat="43.54022" lon="6.7768">
        <ele>139</ele>
        <time>2010-05-02T09:48:54Z</time>
      </trkpt>
      <trkpt lat="43.54027" lon="6.77682">
        <ele>139</ele>
        <time>2010-05-02T09:48:55Z</time>
      </trkpt>
      <trkpt lat="43.54032" lon="6.77684">
        <ele>139</ele>
        <time>2010-05-02T09:48:56Z</time>
      </trkpt>
      <trkpt lat="43.54045" lon="6.77685">
        <ele>140</ele>
        <time>2010-05-02T09:48:59Z</time>
      </trkpt>
      <trkpt lat="43.54053" lon="6.77685">
        <ele>140</ele>
        <time>2010-05-02T09:49:01Z</time>
      </trkpt>
      <trkpt lat="43.5406" lon="6.77683">
        <ele>140</ele>
        <time>2010-05-02T09:49:03Z</time>
      </trkpt>
      <trkpt lat="43.54066" lon="6.77681">
        <ele>141</ele>
        <time>2010-05-02T09:49:05Z</time>
      </trkpt>
      <trkpt lat="43.54072" lon="6.77678">
        <ele>141</ele>
        <time>2010-05-02T09:49:07Z</time>
      </trkpt>
      <trkpt lat="43.54078" lon="6.77676">
        <ele>142</ele>
        <time>2010-05-02T09:49:09Z</time>
      </trkpt>
      <trkpt lat="43.54086" lon="6.77672">
        <ele>144</ele>
        <time>2010-05-02T09:49:12Z</time>
      </trkpt>
      <trkpt lat="43.54093" lon="6.7767">
        <ele>144</ele>
        <time>2010-05-02T09:49:14Z</time>
      </trkpt>
      <trkpt lat="43.541" lon="6.77668">
        <ele>145</ele>
        <time>2010-05-02T09:49:16Z</time>
      </trkpt>
      <trkpt lat="43.54105" lon="6.77666">
        <ele>146</ele>
        <time>2010-05-02T09:49:18Z</time>
      </trkpt>
      <trkpt lat="43.5411" lon="6.77664">
        <ele>146</ele>
        <time>2010-05-02T09:49:20Z</time>
      </trkpt>
      <trkpt lat="43.54117" lon="6.77662">
        <ele>146</ele>
        <time>2010-05-02T09:49:22Z</time>
      </trkpt>
      <trkpt lat="43.54127" lon="6.77658">
        <ele>147</ele>
        <time>2010-05-02T09:49:25Z</time>
      </trkpt>
      <trkpt lat="43.54133" lon="6.77657">
        <ele>148</ele>
        <time>2010-05-02T09:49:27Z</time>
      </trkpt>
      <trkpt lat="43.5414" lon="6.77654">
        <ele>148</ele>
        <time>2010-05-02T09:49:29Z</time>
      </trkpt>
      <trkpt lat="43.54146" lon="6.77653">
        <ele>149</ele>
        <time>2010-05-02T09:49:31Z</time>
      </trkpt>
      <trkpt lat="43.54153" lon="6.77653">
        <ele>149</ele>
        <time>2010-05-02T09:49:33Z</time>
      </trkpt>
      <trkpt lat="43.5416" lon="6.77652">
        <ele>150</ele>
        <time>2010-05-02T09:49:35Z</time>
      </trkpt>
      <trkpt lat="43.5417" lon="6.77648">
        <ele>151</ele>
        <time>2010-05-02T09:49:38Z</time>
      </trkpt>
      <trkpt lat="43.54178" lon="6.77645">
        <ele>151</ele>
        <time>2010-05-02T09:49:40Z</time>
      </trkpt>
      <trkpt lat="43.54185" lon="6.77641">
        <ele>152</ele>
        <time>2010-05-02T09:49:42Z</time>
      </trkpt>
      <trkpt lat="43.54197" lon="6.77632">
        <ele>153</ele>
        <time>2010-05-02T09:49:45Z</time>
      </trkpt>
      <trkpt lat="43.54201" lon="6.7763">
        <ele>153</ele>
        <time>2010-05-02T09:49:46Z</time>
      </trkpt>
      <trkpt lat="43.54209" lon="6.77624">
        <ele>153</ele>
        <time>2010-05-02T09:49:48Z</time>
      </trkpt>
      <trkpt lat="43.54217" lon="6.7762">
        <ele>153</ele>
        <time>2010-05-02T09:49:50Z</time>
      </trkpt>
      <trkpt lat="43.54221" lon="6.77619">
        <ele>153</ele>
        <time>2010-05-02T09:49:51Z</time>
      </trkpt>
      <trkpt lat="43.54229" lon="6.77617">
        <ele>152</ele>
        <time>2010-05-02T09:49:53Z</time>
      </trkpt>
      <trkpt lat="43.54237" lon="6.77618">
        <ele>153</ele>
        <time>2010-05-02T09:49:55Z</time>
      </trkpt>
      <trkpt lat="43.54248" lon="6.77619">
        <ele>153</ele>
        <time>2010-05-02T09:49:58Z</time>
      </trkpt>
      <trkpt lat="43.54256" lon="6.77621">
        <ele>153</ele>
        <time>2010-05-02T09:50:00Z</time>
      </trkpt>
      <trkpt lat="43.54263" lon="6.77622">
        <ele>154</ele>
        <time>2010-05-02T09:50:02Z</time>
      </trkpt>
      <trkpt lat="43.54269" lon="6.77623">
        <ele>154</ele>
        <time>2010-05-02T09:50:04Z</time>
      </trkpt>
      <trkpt lat="43.54275" lon="6.77624">
        <ele>155</ele>
        <time>2010-05-02T09:50:06Z</time>
      </trkpt>
      <trkpt lat="43.54282" lon="6.77623">
        <ele>155</ele>
        <time>2010-05-02T09:50:08Z</time>
      </trkpt>
      <trkpt lat="43.54293" lon="6.77623">
        <ele>155</ele>
        <time>2010-05-02T09:50:11Z</time>
      </trkpt>
      <trkpt lat="43.543" lon="6.77625">
        <ele>156</ele>
        <time>2010-05-02T09:50:13Z</time>
      </trkpt>
      <trkpt lat="43.54306" lon="6.77625">
        <ele>156</ele>
        <time>2010-05-02T09:50:15Z</time>
      </trkpt>
      <trkpt lat="43.54313" lon="6.77624">
        <ele>157</ele>
        <time>2010-05-02T09:50:17Z</time>
      </trkpt>
      <trkpt lat="43.54321" lon="6.77621">
        <ele>158</ele>
        <time>2010-05-02T09:50:19Z</time>
      </trkpt>
      <trkpt lat="43.54327" lon="6.77617">
        <ele>159</ele>
        <time>2010-05-02T09:50:21Z</time>
      </trkpt>
      <trkpt lat="43.54335" lon="6.77609">
        <ele>160</ele>
        <time>2010-05-02T09:50:24Z</time>
      </trkpt>
      <trkpt lat="43.54339" lon="6.77603">
        <ele>161</ele>
        <time>2010-05-02T09:50:26Z</time>
      </trkpt>
      <trkpt lat="43.54346" lon="6.77597">
        <ele>163</ele>
        <time>2010-05-02T09:50:28Z</time>
      </trkpt>
      <trkpt lat="43.54352" lon="6.7759">
        <ele>163</ele>
        <time>2010-05-02T09:50:30Z</time>
      </trkpt>
      <trkpt lat="43.54357" lon="6.77586">
        <ele>165</ele>
        <time>2010-05-02T09:50:32Z</time>
      </trkpt>
      <trkpt lat="43.54364" lon="6.7758">
        <ele>166</ele>
        <time>2010-05-02T09:50:34Z</time>
      </trkpt>
      <trkpt lat="43.54376" lon="6.77574">
        <ele>167</ele>
        <time>2010-05-02T09:50:37Z</time>
      </trkpt>
      <trkpt lat="43.54381" lon="6.77573">
        <ele>167</ele>
        <time>2010-05-02T09:50:38Z</time>
      </trkpt>
      <trkpt lat="43.5439" lon="6.77574">
        <ele>168</ele>
        <time>2010-05-02T09:50:40Z</time>
      </trkpt>
      <trkpt lat="43.54399" lon="6.77576">
        <ele>169</ele>
        <time>2010-05-02T09:50:42Z</time>
      </trkpt>
      <trkpt lat="43.54404" lon="6.77577">
        <ele>168</ele>
        <time>2010-05-02T09:50:43Z</time>
      </trkpt>
      <trkpt lat="43.5441" lon="6.77579">
        <ele>168</ele>
        <time>2010-05-02T09:50:44Z</time>
      </trkpt>
      <trkpt lat="43.54418" lon="6.77579">
        <ele>168</ele>
        <time>2010-05-02T09:50:46Z</time>
      </trkpt>
      <trkpt lat="43.54428" lon="6.77576">
        <ele>172</ele>
        <time>2010-05-02T09:50:49Z</time>
      </trkpt>
      <trkpt lat="43.54436" lon="6.77574">
        <ele>174</ele>
        <time>2010-05-02T09:50:51Z</time>
      </trkpt>
      <trkpt lat="43.54444" lon="6.77569">
        <ele>177</ele>
        <time>2010-05-02T09:50:53Z</time>
      </trkpt>
      <trkpt lat="43.54452" lon="6.77566">
        <ele>178</ele>
        <time>2010-05-02T09:50:55Z</time>
      </trkpt>
      <trkpt lat="43.54456" lon="6.77564">
        <ele>178</ele>
        <time>2010-05-02T09:50:56Z</time>
      </trkpt>
      <trkpt lat="43.54465" lon="6.77558">
        <ele>179</ele>
        <time>2010-05-02T09:50:58Z</time>
      </trkpt>
      <trkpt lat="43.54477" lon="6.77551">
        <ele>181</ele>
        <time>2010-05-02T09:51:01Z</time>
      </trkpt>
      <trkpt lat="43.54482" lon="6.77548">
        <ele>181</ele>
        <time>2010-05-02T09:51:02Z</time>
      </trkpt>
      <trkpt lat="43.54487" lon="6.77544">
        <ele>182</ele>
        <time>2010-05-02T09:51:04Z</time>
      </trkpt>
      <trkpt lat="43.54492" lon="6.77539">
        <ele>183</ele>
        <time>2010-05-02T09:51:06Z</time>
      </trkpt>
      <trkpt lat="43.54496" lon="6.77537">
        <ele>184</ele>
        <time>2010-05-02T09:51:08Z</time>
      </trkpt>
      <trkpt lat="43.545" lon="6.77531">
        <ele>185</ele>
        <time>2010-05-02T09:51:11Z</time>
      </trkpt>
      <trkpt lat="43.54503" lon="6.7752">
        <ele>188</ele>
        <time>2010-05-02T09:51:14Z</time>
      </trkpt>
      <trkpt lat="43.54505" lon="6.77513">
        <ele>189</ele>
        <time>2010-05-02T09:51:16Z</time>
      </trkpt>
      <trkpt lat="43.54508" lon="6.77503">
        <ele>192</ele>
        <time>2010-05-02T09:51:18Z</time>
      </trkpt>
      <trkpt lat="43.54508" lon="6.77495">
        <ele>193</ele>
        <time>2010-05-02T09:51:19Z</time>
      </trkpt>
      <trkpt lat="43.54513" lon="6.77485">
        <ele>196</ele>
        <time>2010-05-02T09:51:21Z</time>
      </trkpt>
      <trkpt lat="43.54518" lon="6.77478">
        <ele>198</ele>
        <time>2010-05-02T09:51:23Z</time>
      </trkpt>
      <trkpt lat="43.54531" lon="6.77465">
        <ele>202</ele>
        <time>2010-05-02T09:51:27Z</time>
      </trkpt>
      <trkpt lat="43.54538" lon="6.77459">
        <ele>204</ele>
        <time>2010-05-02T09:51:29Z</time>
      </trkpt>
      <trkpt lat="43.54544" lon="6.77455">
        <ele>205</ele>
        <time>2010-05-02T09:51:31Z</time>
      </trkpt>
      <trkpt lat="43.5455" lon="6.77448">
        <ele>206</ele>
        <time>2010-05-02T09:51:33Z</time>
      </trkpt>
      <trkpt lat="43.54554" lon="6.77439">
        <ele>208</ele>
        <time>2010-05-02T09:51:35Z</time>
      </trkpt>
      <trkpt lat="43.54559" lon="6.77432">
        <ele>209</ele>
        <time>2010-05-02T09:51:37Z</time>
      </trkpt>
      <trkpt lat="43.54566" lon="6.77422">
        <ele>212</ele>
        <time>2010-05-02T09:51:40Z</time>
      </trkpt>
      <trkpt lat="43.54572" lon="6.77415">
        <ele>216</ele>
        <time>2010-05-02T09:51:42Z</time>
      </trkpt>
      <trkpt lat="43.54579" lon="6.77399">
        <ele>219</ele>
        <time>2010-05-02T09:51:45Z</time>
      </trkpt>
      <trkpt lat="43.54584" lon="6.77391">
        <ele>223</ele>
        <time>2010-05-02T09:51:47Z</time>
      </trkpt>
      <trkpt lat="43.54589" lon="6.7738">
        <ele>225</ele>
        <time>2010-05-02T09:51:49Z</time>
      </trkpt>
      <trkpt lat="43.54592" lon="6.77374">
        <ele>226</ele>
        <time>2010-05-02T09:51:50Z</time>
      </trkpt>
      <trkpt lat="43.54594" lon="6.77367">
        <ele>227</ele>
        <time>2010-05-02T09:51:51Z</time>
      </trkpt>
      <trkpt lat="43.54597" lon="6.77361">
        <ele>228</ele>
        <time>2010-05-02T09:51:52Z</time>
      </trkpt>
      <trkpt lat="43.54601" lon="6.77357">
        <ele>229</ele>
        <time>2010-05-02T09:51:53Z</time>
      </trkpt>
      <trkpt lat="43.54604" lon="6.77352">
        <ele>230</ele>
        <time>2010-05-02T09:51:54Z</time>
      </trkpt>
      <trkpt lat="43.54608" lon="6.77345">
        <ele>230</ele>
        <time>2010-05-02T09:51:55Z</time>
      </trkpt>
      <trkpt lat="43.5461" lon="6.77339">
        <ele>230</ele>
        <time>2010-05-02T09:51:56Z</time>
      </trkpt>
      <trkpt lat="43.54624" lon="6.77322">
        <ele>230</ele>
        <time>2010-05-02T09:51:59Z</time>
      </trkpt>
      <trkpt lat="43.54627" lon="6.77316">
        <ele>231</ele>
        <time>2010-05-02T09:52:00Z</time>
      </trkpt>
      <trkpt lat="43.54637" lon="6.77312">
        <ele>231</ele>
        <time>2010-05-02T09:52:01Z</time>
      </trkpt>
      <trkpt lat="43.54643" lon="6.7731">
        <ele>232</ele>
        <time>2010-05-02T09:52:02Z</time>
      </trkpt>
      <trkpt lat="43.54648" lon="6.77305">
        <ele>232</ele>
        <time>2010-05-02T09:52:03Z</time>
      </trkpt>
      <trkpt lat="43.54654" lon="6.773">
        <ele>233</ele>
        <time>2010-05-02T09:52:04Z</time>
      </trkpt>
      <trkpt lat="43.54661" lon="6.77297">
        <ele>234</ele>
        <time>2010-05-02T09:52:05Z</time>
      </trkpt>
      <trkpt lat="43.54666" lon="6.77294">
        <ele>235</ele>
        <time>2010-05-02T09:52:06Z</time>
      </trkpt>
      <trkpt lat="43.5467" lon="6.77289">
        <ele>235</ele>
        <time>2010-05-02T09:52:07Z</time>
      </trkpt>
      <trkpt lat="43.54675" lon="6.77286">
        <ele>236</ele>
        <time>2010-05-02T09:52:08Z</time>
      </trkpt>
      <trkpt lat="43.54679" lon="6.77279">
        <ele>236</ele>
        <time>2010-05-02T09:52:09Z</time>
      </trkpt>
      <trkpt lat="43.54688" lon="6.77263">
        <ele>237</ele>
        <time>2010-05-02T09:52:12Z</time>
      </trkpt>
      <trkpt lat="43.54692" lon="6.77256">
        <ele>236</ele>
        <time>2010-05-02T09:52:13Z</time>
      </trkpt>
      <trkpt lat="43.54696" lon="6.7725">
        <ele>237</ele>
        <time>2010-05-02T09:52:14Z</time>
      </trkpt>
      <trkpt lat="43.54699" lon="6.77243">
        <ele>236</ele>
        <time>2010-05-02T09:52:15Z</time>
      </trkpt>
      <trkpt lat="43.54703" lon="6.77235">
        <ele>235</ele>
        <time>2010-05-02T09:52:16Z</time>
      </trkpt>
      <trkpt lat="43.5471" lon="6.77226">
        <ele>235</ele>
        <time>2010-05-02T09:52:18Z</time>
      </trkpt>
      <trkpt lat="43.54717" lon="6.7722">
        <ele>233</ele>
        <time>2010-05-02T09:52:20Z</time>
      </trkpt>
      <trkpt lat="43.5472" lon="6.77214">
        <ele>232</ele>
        <time>2010-05-02T09:52:21Z</time>
      </trkpt>
      <trkpt lat="43.54728" lon="6.77201">
        <ele>229</ele>
        <time>2010-05-02T09:52:25Z</time>
      </trkpt>
      <trkpt lat="43.54734" lon="6.77197">
        <ele>229</ele>
        <time>2010-05-02T09:52:27Z</time>
      </trkpt>
      <trkpt lat="43.54739" lon="6.77191">
        <ele>224</ele>
        <time>2010-05-02T09:52:29Z</time>
      </trkpt>
      <trkpt lat="43.54742" lon="6.77185">
        <ele>218</ele>
        <time>2010-05-02T09:52:31Z</time>
      </trkpt>
      <trkpt lat="43.54746" lon="6.77181">
        <ele>213</ele>
        <time>2010-05-02T09:52:33Z</time>
      </trkpt>
      <trkpt lat="43.5475" lon="6.77177">
        <ele>208</ele>
        <time>2010-05-02T09:52:38Z</time>
      </trkpt>
      <trkpt lat="43.54752" lon="6.77175">
        <ele>205</ele>
        <time>2010-05-02T09:52:45Z</time>
      </trkpt>
      <trkpt lat="43.54756" lon="6.77171">
        <ele>202</ele>
        <time>2010-05-02T09:53:09Z</time>
      </trkpt>
      <trkpt lat="43.54759" lon="6.77168">
        <ele>198</ele>
        <time>2010-05-02T09:53:12Z</time>
      </trkpt>
      <trkpt lat="43.54762" lon="6.77162">
        <ele>193</ele>
        <time>2010-05-02T09:53:20Z</time>
      </trkpt>
      <trkpt lat="43.54762" lon="6.77162">
        <ele>192</ele>
        <time>2010-05-02T09:53:21Z</time>
      </trkpt>
      <trkpt lat="43.54763" lon="6.77156">
        <ele>184</ele>
        <time>2010-05-02T09:53:40Z</time>
      </trkpt>
      <trkpt lat="43.54764" lon="6.77155">
        <ele>183</ele>
        <time>2010-05-02T09:53:41Z</time>
      </trkpt>
      <trkpt lat="43.54765" lon="6.77152">
        <ele>179</ele>
        <time>2010-05-02T09:53:47Z</time>
      </trkpt>
      <trkpt lat="43.54765" lon="6.7715">
        <ele>179</ele>
        <time>2010-05-02T09:53:53Z</time>
      </trkpt>
      <trkpt lat="43.54757" lon="6.77145">
        <ele>173</ele>
        <time>2010-05-02T09:53:54Z</time>
      </trkpt>
      <trkpt lat="43.54749" lon="6.77149">
        <ele>173</ele>
        <time>2010-05-02T09:53:59Z</time>
      </trkpt>
      <trkpt lat="43.54744" lon="6.77153">
        <ele>173</ele>
        <time>2010-05-02T09:54:02Z</time>
      </trkpt>
      <trkpt lat="43.54739" lon="6.77155">
        <ele>174</ele>
        <time>2010-05-02T09:54:06Z</time>
      </trkpt>
      <trkpt lat="43.54728" lon="6.77155">
        <ele>174</ele>
        <time>2010-05-02T09:54:12Z</time>
      </trkpt>
      <trkpt lat="43.54723" lon="6.77152">
        <ele>173</ele>
        <time>2010-05-02T09:54:15Z</time>
      </trkpt>
      <trkpt lat="43.5472" lon="6.77147">
        <ele>175</ele>
        <time>2010-05-02T09:54:20Z</time>
      </trkpt>
      <trkpt lat="43.54719" lon="6.77139">
        <ele>178</ele>
        <time>2010-05-02T09:54:26Z</time>
      </trkpt>
      <trkpt lat="43.54721" lon="6.77133">
        <ele>181</ele>
        <time>2010-05-02T09:54:30Z</time>
      </trkpt>
      <trkpt lat="43.54724" lon="6.77127">
        <ele>183</ele>
        <time>2010-05-02T09:54:34Z</time>
      </trkpt>
      <trkpt lat="43.54724" lon="6.77119">
        <ele>184</ele>
        <time>2010-05-02T09:54:38Z</time>
      </trkpt>
      <trkpt lat="43.54727" lon="6.77113">
        <ele>186</ele>
        <time>2010-05-02T09:54:42Z</time>
      </trkpt>
      <trkpt lat="43.54729" lon="6.77106">
        <ele>187</ele>
        <time>2010-05-02T09:54:45Z</time>
      </trkpt>
      <trkpt lat="43.5473" lon="6.77098">
        <ele>188</ele>
        <time>2010-05-02T09:54:49Z</time>
      </trkpt>
      <trkpt lat="43.54732" lon="6.77089">
        <ele>185</ele>
        <time>2010-05-02T09:54:51Z</time>
      </trkpt>
      <trkpt lat="43.54733" lon="6.77078">
        <ele>182</ele>
        <time>2010-05-02T09:54:53Z</time>
      </trkpt>
      <trkpt lat="43.54734" lon="6.77069">
        <ele>178</ele>
        <time>2010-05-02T09:54:55Z</time>
      </trkpt>
      <trkpt lat="43.54734" lon="6.77054">
        <ele>174</ele>
        <time>2010-05-02T09:54:59Z</time>
      </trkpt>
      <trkpt lat="43.54731" lon="6.77048">
        <ele>174</ele>
        <time>2010-05-02T09:55:01Z</time>
      </trkpt>
      <trkpt lat="43.54728" lon="6.77043">
        <ele>174</ele>
        <time>2010-05-02T09:55:04Z</time>
      </trkpt>
      <trkpt lat="43.54723" lon="6.7704">
        <ele>175</ele>
        <time>2010-05-02T09:55:07Z</time>
      </trkpt>
      <trkpt lat="43.54715" lon="6.77036">
        <ele>177</ele>
        <time>2010-05-02T09:55:12Z</time>
      </trkpt>
      <trkpt lat="43.5471" lon="6.77036">
        <ele>178</ele>
        <time>2010-05-02T09:55:15Z</time>
      </trkpt>
      <trkpt lat="43.54705" lon="6.77038">
        <ele>179</ele>
        <time>2010-05-02T09:55:19Z</time>
      </trkpt>
      <trkpt lat="43.54696" lon="6.77039">
        <ele>181</ele>
        <time>2010-05-02T09:55:25Z</time>
      </trkpt>
      <trkpt lat="43.5469" lon="6.77042">
        <ele>182</ele>
        <time>2010-05-02T09:55:29Z</time>
      </trkpt>
      <trkpt lat="43.54684" lon="6.77043">
        <ele>181</ele>
        <time>2010-05-02T09:55:31Z</time>
      </trkpt>
      <trkpt lat="43.54678" lon="6.77045">
        <ele>181</ele>
        <time>2010-05-02T09:55:33Z</time>
      </trkpt>
      <trkpt lat="43.54673" lon="6.77049">
        <ele>182</ele>
        <time>2010-05-02T09:55:35Z</time>
      </trkpt>
      <trkpt lat="43.54668" lon="6.77053">
        <ele>184</ele>
        <time>2010-05-02T09:55:38Z</time>
      </trkpt>
      <trkpt lat="43.54663" lon="6.77057">
        <ele>184</ele>
        <time>2010-05-02T09:55:40Z</time>
      </trkpt>
      <trkpt lat="43.54658" lon="6.7706">
        <ele>185</ele>
        <time>2010-05-02T09:55:43Z</time>
      </trkpt>
      <trkpt lat="43.54652" lon="6.77068">
        <ele>186</ele>
        <time>2010-05-02T09:55:47Z</time>
      </trkpt>
      <trkpt lat="43.54647" lon="6.77071">
        <ele>187</ele>
        <time>2010-05-02T09:55:49Z</time>
      </trkpt>
      <trkpt lat="43.54642" lon="6.77076">
        <ele>186</ele>
        <time>2010-05-02T09:55:51Z</time>
      </trkpt>
      <trkpt lat="43.54637" lon="6.77081">
        <ele>187</ele>
        <time>2010-05-02T09:55:54Z</time>
      </trkpt>
      <trkpt lat="43.54626" lon="6.77085">
        <ele>186</ele>
        <time>2010-05-02T09:55:59Z</time>
      </trkpt>
      <trkpt lat="43.54622" lon="6.77082">
        <ele>185</ele>
        <time>2010-05-02T09:56:01Z</time>
      </trkpt>
      <trkpt lat="43.54617" lon="6.77078">
        <ele>184</ele>
        <time>2010-05-02T09:56:03Z</time>
      </trkpt>
      <trkpt lat="43.54614" lon="6.77072">
        <ele>184</ele>
        <time>2010-05-02T09:56:06Z</time>
      </trkpt>
      <trkpt lat="43.54611" lon="6.77065">
        <ele>184</ele>
        <time>2010-05-02T09:56:09Z</time>
      </trkpt>
      <trkpt lat="43.54608" lon="6.77058">
        <ele>184</ele>
        <time>2010-05-02T09:56:12Z</time>
      </trkpt>
      <trkpt lat="43.54605" lon="6.7705">
        <ele>184</ele>
        <time>2010-05-02T09:56:15Z</time>
      </trkpt>
      <trkpt lat="43.54602" lon="6.77043">
        <ele>185</ele>
        <time>2010-05-02T09:56:18Z</time>
      </trkpt>
      <trkpt lat="43.54599" lon="6.77036">
        <ele>185</ele>
        <time>2010-05-02T09:56:21Z</time>
      </trkpt>
      <trkpt lat="43.54596" lon="6.77027">
        <ele>185</ele>
        <time>2010-05-02T09:56:25Z</time>
      </trkpt>
      <trkpt lat="43.54595" lon="6.7702">
        <ele>186</ele>
        <time>2010-05-02T09:56:28Z</time>
      </trkpt>
      <trkpt lat="43.54593" lon="6.77015">
        <ele>186</ele>
        <time>2010-05-02T09:56:31Z</time>
      </trkpt>
      <trkpt lat="43.54589" lon="6.77011">
        <ele>187</ele>
        <time>2010-05-02T09:56:34Z</time>
      </trkpt>
      <trkpt lat="43.54586" lon="6.77004">
        <ele>187</ele>
        <time>2010-05-02T09:56:38Z</time>
      </trkpt>
      <trkpt lat="43.54584" lon="6.76998">
        <ele>188</ele>
        <time>2010-05-02T09:56:41Z</time>
      </trkpt>
      <trkpt lat="43.54584" lon="6.76991">
        <ele>190</ele>
        <time>2010-05-02T09:56:45Z</time>
      </trkpt>
      <trkpt lat="43.54586" lon="6.76984">
        <ele>192</ele>
        <time>2010-05-02T09:56:49Z</time>
      </trkpt>
      <trkpt lat="43.54589" lon="6.76979">
        <ele>195</ele>
        <time>2010-05-02T09:56:53Z</time>
      </trkpt>
      <trkpt lat="43.54593" lon="6.76969">
        <ele>197</ele>
        <time>2010-05-02T09:56:59Z</time>
      </trkpt>
      <trkpt lat="43.54595" lon="6.76962">
        <ele>199</ele>
        <time>2010-05-02T09:57:03Z</time>
      </trkpt>
      <trkpt lat="43.54595" lon="6.76955">
        <ele>200</ele>
        <time>2010-05-02T09:57:07Z</time>
      </trkpt>
      <trkpt lat="43.54595" lon="6.76944">
        <ele>201</ele>
        <time>2010-05-02T09:57:12Z</time>
      </trkpt>
      <trkpt lat="43.54595" lon="6.76935">
        <ele>200</ele>
        <time>2010-05-02T09:57:15Z</time>
      </trkpt>
      <trkpt lat="43.54595" lon="6.76928">
        <ele>199</ele>
        <time>2010-05-02T09:57:17Z</time>
      </trkpt>
      <trkpt lat="43.54593" lon="6.7692">
        <ele>199</ele>
        <time>2010-05-02T09:57:20Z</time>
      </trkpt>
      <trkpt lat="43.5459" lon="6.76908">
        <ele>199</ele>
        <time>2010-05-02T09:57:25Z</time>
      </trkpt>
      <trkpt lat="43.54592" lon="6.76901">
        <ele>198</ele>
        <time>2010-05-02T09:57:29Z</time>
      </trkpt>
      <trkpt lat="43.5459" lon="6.76894">
        <ele>199</ele>
        <time>2010-05-02T09:57:32Z</time>
      </trkpt>
      <trkpt lat="43.54588" lon="6.76888">
        <ele>200</ele>
        <time>2010-05-02T09:57:35Z</time>
      </trkpt>
      <trkpt lat="43.54585" lon="6.76881">
        <ele>200</ele>
        <time>2010-05-02T09:57:40Z</time>
      </trkpt>
      <trkpt lat="43.54582" lon="6.76876">
        <ele>201</ele>
        <time>2010-05-02T09:57:43Z</time>
      </trkpt>
      <trkpt lat="43.54578" lon="6.7687">
        <ele>203</ele>
        <time>2010-05-02T09:57:46Z</time>
      </trkpt>
      <trkpt lat="43.54573" lon="6.76866">
        <ele>203</ele>
        <time>2010-05-02T09:57:48Z</time>
      </trkpt>
      <trkpt lat="43.54568" lon="6.76861">
        <ele>204</ele>
        <time>2010-05-02T09:57:50Z</time>
      </trkpt>
      <trkpt lat="43.54565" lon="6.76858">
        <ele>204</ele>
        <time>2010-05-02T09:57:52Z</time>
      </trkpt>
      <trkpt lat="43.54562" lon="6.76853">
        <ele>205</ele>
        <time>2010-05-02T09:57:55Z</time>
      </trkpt>
      <trkpt lat="43.54557" lon="6.76842">
        <ele>207</ele>
        <time>2010-05-02T09:58:00Z</time>
      </trkpt>
      <trkpt lat="43.54562" lon="6.7684">
        <ele>208</ele>
        <time>2010-05-02T09:58:06Z</time>
      </trkpt>
      <trkpt lat="43.54567" lon="6.76839">
        <ele>209</ele>
        <time>2010-05-02T09:58:09Z</time>
      </trkpt>
      <trkpt lat="43.54574" lon="6.76838">
        <ele>211</ele>
        <time>2010-05-02T09:58:13Z</time>
      </trkpt>
      <trkpt lat="43.5458" lon="6.76836">
        <ele>214</ele>
        <time>2010-05-02T09:58:16Z</time>
      </trkpt>
      <trkpt lat="43.54585" lon="6.76831">
        <ele>217</ele>
        <time>2010-05-02T09:58:20Z</time>
      </trkpt>
      <trkpt lat="43.54588" lon="6.76823">
        <ele>219</ele>
        <time>2010-05-02T09:58:26Z</time>
      </trkpt>
      <trkpt lat="43.54587" lon="6.76816">
        <ele>219</ele>
        <time>2010-05-02T09:58:29Z</time>
      </trkpt>
      <trkpt lat="43.54587" lon="6.76808">
        <ele>220</ele>
        <time>2010-05-02T09:58:33Z</time>
      </trkpt>
      <trkpt lat="43.54588" lon="6.768">
        <ele>222</ele>
        <time>2010-05-02T09:58:36Z</time>
      </trkpt>
      <trkpt lat="43.54589" lon="6.76791">
        <ele>222</ele>
        <time>2010-05-02T09:58:39Z</time>
      </trkpt>
      <trkpt lat="43.5459" lon="6.76785">
        <ele>223</ele>
        <time>2010-05-02T09:58:41Z</time>
      </trkpt>
      <trkpt lat="43.5459" lon="6.76773">
        <ele>223</ele>
        <time>2010-05-02T09:58:45Z</time>
      </trkpt>
      <trkpt lat="43.54592" lon="6.76765">
        <ele>224</ele>
        <time>2010-05-02T09:58:48Z</time>
      </trkpt>
      <trkpt lat="43.54592" lon="6.76758">
        <ele>223</ele>
        <time>2010-05-02T09:58:50Z</time>
      </trkpt>
      <trkpt lat="43.54593" lon="6.7675">
        <ele>223</ele>
        <time>2010-05-02T09:58:53Z</time>
      </trkpt>
      <trkpt lat="43.54594" lon="6.76743">
        <ele>223</ele>
        <time>2010-05-02T09:58:56Z</time>
      </trkpt>
      <trkpt lat="43.54595" lon="6.76732">
        <ele>222</ele>
        <time>2010-05-02T09:59:00Z</time>
      </trkpt>
      <trkpt lat="43.54594" lon="6.76725">
        <ele>222</ele>
        <time>2010-05-02T09:59:02Z</time>
      </trkpt>
      <trkpt lat="43.54593" lon="6.76718">
        <ele>222</ele>
        <time>2010-05-02T09:59:04Z</time>
      </trkpt>
      <trkpt lat="43.54592" lon="6.76711">
        <ele>222</ele>
        <time>2010-05-02T09:59:06Z</time>
      </trkpt>
      <trkpt lat="43.5459" lon="6.76703">
        <ele>221</ele>
        <time>2010-05-02T09:59:09Z</time>
      </trkpt>
      <trkpt lat="43.54587" lon="6.76693">
        <ele>221</ele>
        <time>2010-05-02T09:59:13Z</time>
      </trkpt>
      <trkpt lat="43.54584" lon="6.76686">
        <ele>221</ele>
        <time>2010-05-02T09:59:16Z</time>
      </trkpt>
      <trkpt lat="43.54581" lon="6.76681">
        <ele>221</ele>
        <time>2010-05-02T09:59:19Z</time>
      </trkpt>
      <trkpt lat="43.54579" lon="6.76675">
        <ele>221</ele>
        <time>2010-05-02T09:59:22Z</time>
      </trkpt>
      <trkpt lat="43.54574" lon="6.76665">
        <ele>222</ele>
        <time>2010-05-02T09:59:26Z</time>
      </trkpt>
      <trkpt lat="43.5457" lon="6.7666">
        <ele>222</ele>
        <time>2010-05-02T09:59:28Z</time>
      </trkpt>
      <trkpt lat="43.54566" lon="6.76655">
        <ele>223</ele>
        <time>2010-05-02T09:59:32Z</time>
      </trkpt>
      <trkpt lat="43.54562" lon="6.76651">
        <ele>223</ele>
        <time>2010-05-02T09:59:35Z</time>
      </trkpt>
      <trkpt lat="43.54558" lon="6.76646">
        <ele>225</ele>
        <time>2010-05-02T09:59:39Z</time>
      </trkpt>
      <trkpt lat="43.54553" lon="6.76642">
        <ele>225</ele>
        <time>2010-05-02T09:59:43Z</time>
      </trkpt>
      <trkpt lat="43.54549" lon="6.76637">
        <ele>226</ele>
        <time>2010-05-02T09:59:47Z</time>
      </trkpt>
      <trkpt lat="43.54546" lon="6.76632">
        <ele>226</ele>
        <time>2010-05-02T09:59:50Z</time>
      </trkpt>
      <trkpt lat="43.54544" lon="6.76626">
        <ele>227</ele>
        <time>2010-05-02T09:59:55Z</time>
      </trkpt>
      <trkpt lat="43.54549" lon="6.76624">
        <ele>228</ele>
        <time>2010-05-02T09:59:59Z</time>
      </trkpt>
      <trkpt lat="43.54555" lon="6.76623">
        <ele>229</ele>
        <time>2010-05-02T10:00:04Z</time>
      </trkpt>
      <trkpt lat="43.54559" lon="6.76622">
        <ele>231</ele>
        <time>2010-05-02T10:00:09Z</time>
      </trkpt>
      <trkpt lat="43.54565" lon="6.76618">
        <ele>233</ele>
        <time>2010-05-02T10:00:13Z</time>
      </trkpt>
      <trkpt lat="43.5457" lon="6.76617">
        <ele>236</ele>
        <time>2010-05-02T10:00:16Z</time>
      </trkpt>
      <trkpt lat="43.54573" lon="6.76611">
        <ele>238</ele>
        <time>2010-05-02T10:00:19Z</time>
      </trkpt>
      <trkpt lat="43.54576" lon="6.76605">
        <ele>239</ele>
        <time>2010-05-02T10:00:22Z</time>
      </trkpt>
      <trkpt lat="43.54579" lon="6.766">
        <ele>240</ele>
        <time>2010-05-02T10:00:25Z</time>
      </trkpt>
      <trkpt lat="43.54581" lon="6.76593">
        <ele>241</ele>
        <time>2010-05-02T10:00:29Z</time>
      </trkpt>
      <trkpt lat="43.54582" lon="6.76586">
        <ele>242</ele>
        <time>2010-05-02T10:00:33Z</time>
      </trkpt>
      <trkpt lat="43.54584" lon="6.76575">
        <ele>244</ele>
        <time>2010-05-02T10:00:38Z</time>
      </trkpt>
      <trkpt lat="43.54585" lon="6.76569">
        <ele>245</ele>
        <time>2010-05-02T10:00:41Z</time>
      </trkpt>
      <trkpt lat="43.54586" lon="6.76559">
        <ele>246</ele>
        <time>2010-05-02T10:00:45Z</time>
      </trkpt>
      <trkpt lat="43.54589" lon="6.76552">
        <ele>246</ele>
        <time>2010-05-02T10:00:48Z</time>
      </trkpt>
      <trkpt lat="43.54589" lon="6.76543">
        <ele>245</ele>
        <time>2010-05-02T10:00:51Z</time>
      </trkpt>
      <trkpt lat="43.54589" lon="6.76536">
        <ele>245</ele>
        <time>2010-05-02T10:00:54Z</time>
      </trkpt>
      <trkpt lat="43.5459" lon="6.76524">
        <ele>243</ele>
        <time>2010-05-02T10:00:58Z</time>
      </trkpt>
      <trkpt lat="43.54588" lon="6.76518">
        <ele>243</ele>
        <time>2010-05-02T10:01:00Z</time>
      </trkpt>
      <trkpt lat="43.54587" lon="6.76512">
        <ele>242</ele>
        <time>2010-05-02T10:01:02Z</time>
      </trkpt>
      <trkpt lat="43.54585" lon="6.76505">
        <ele>242</ele>
        <time>2010-05-02T10:01:05Z</time>
      </trkpt>
      <trkpt lat="43.54582" lon="6.76498">
        <ele>242</ele>
        <time>2010-05-02T10:01:08Z</time>
      </trkpt>
      <trkpt lat="43.54579" lon="6.76492">
        <ele>242</ele>
        <time>2010-05-02T10:01:11Z</time>
      </trkpt>
      <trkpt lat="43.54574" lon="6.76487">
        <ele>242</ele>
        <time>2010-05-02T10:01:14Z</time>
      </trkpt>
      <trkpt lat="43.54568" lon="6.76483">
        <ele>243</ele>
        <time>2010-05-02T10:01:17Z</time>
      </trkpt>
      <trkpt lat="43.54564" lon="6.76477">
        <ele>243</ele>
        <time>2010-05-02T10:01:20Z</time>
      </trkpt>
      <trkpt lat="43.54564" lon="6.7647">
        <ele>244</ele>
        <time>2010-05-02T10:01:24Z</time>
      </trkpt>
      <trkpt lat="43.54569" lon="6.76467">
        <ele>246</ele>
        <time>2010-05-02T10:01:28Z</time>
      </trkpt>
      <trkpt lat="43.54574" lon="6.76466">
        <ele>247</ele>
        <time>2010-05-02T10:01:32Z</time>
      </trkpt>
      <trkpt lat="43.54583" lon="6.76463">
        <ele>250</ele>
        <time>2010-05-02T10:01:37Z</time>
      </trkpt>
      <trkpt lat="43.54587" lon="6.76458">
        <ele>252</ele>
        <time>2010-05-02T10:01:41Z</time>
      </trkpt>
      <trkpt lat="43.5459" lon="6.76451">
        <ele>254</ele>
        <time>2010-05-02T10:01:45Z</time>
      </trkpt>
      <trkpt lat="43.5459" lon="6.76444">
        <ele>255</ele>
        <time>2010-05-02T10:01:48Z</time>
      </trkpt>
      <trkpt lat="43.5459" lon="6.76435">
        <ele>255</ele>
        <time>2010-05-02T10:01:51Z</time>
      </trkpt>
      <trkpt lat="43.54589" lon="6.76427">
        <ele>255</ele>
        <time>2010-05-02T10:01:54Z</time>
      </trkpt>
      <trkpt lat="43.54588" lon="6.76417">
        <ele>253</ele>
        <time>2010-05-02T10:01:58Z</time>
      </trkpt>
      <trkpt lat="43.54587" lon="6.7641">
        <ele>251</ele>
        <time>2010-05-02T10:02:01Z</time>
      </trkpt>
      <trkpt lat="43.54584" lon="6.76404">
        <ele>251</ele>
        <time>2010-05-02T10:02:04Z</time>
      </trkpt>
      <trkpt lat="43.54581" lon="6.76399">
        <ele>251</ele>
        <time>2010-05-02T10:02:07Z</time>
      </trkpt>
      <trkpt lat="43.54577" lon="6.76391">
        <ele>252</ele>
        <time>2010-05-02T10:02:11Z</time>
      </trkpt>
      <trkpt lat="43.54577" lon="6.76384">
        <ele>253</ele>
        <time>2010-05-02T10:02:15Z</time>
      </trkpt>
      <trkpt lat="43.5458" lon="6.76379">
        <ele>255</ele>
        <time>2010-05-02T10:02:19Z</time>
      </trkpt>
      <trkpt lat="43.54586" lon="6.76375">
        <ele>257</ele>
        <time>2010-05-02T10:02:24Z</time>
      </trkpt>
      <trkpt lat="43.54592" lon="6.76374">
        <ele>258</ele>
        <time>2010-05-02T10:02:28Z</time>
      </trkpt>
      <trkpt lat="43.54596" lon="6.76374">
        <ele>259</ele>
        <time>2010-05-02T10:02:31Z</time>
      </trkpt>
      <trkpt lat="43.54601" lon="6.76372">
        <ele>260</ele>
        <time>2010-05-02T10:02:34Z</time>
      </trkpt>
      <trkpt lat="43.54606" lon="6.76371">
        <ele>261</ele>
        <time>2010-05-02T10:02:37Z</time>
      </trkpt>
      <trkpt lat="43.54611" lon="6.76368">
        <ele>262</ele>
        <time>2010-05-02T10:02:40Z</time>
      </trkpt>
      <trkpt lat="43.54615" lon="6.76364">
        <ele>263</ele>
        <time>2010-05-02T10:02:43Z</time>
      </trkpt>
      <trkpt lat="43.54617" lon="6.76358">
        <ele>264</ele>
        <time>2010-05-02T10:02:46Z</time>
      </trkpt>
      <trkpt lat="43.54618" lon="6.7635">
        <ele>263</ele>
        <time>2010-05-02T10:02:49Z</time>
      </trkpt>
      <trkpt lat="43.54617" lon="6.76343">
        <ele>262</ele>
        <time>2010-05-02T10:02:51Z</time>
      </trkpt>
      <trkpt lat="43.54615" lon="6.76337">
        <ele>261</ele>
        <time>2010-05-02T10:02:53Z</time>
      </trkpt>
      <trkpt lat="43.54609" lon="6.76329">
        <ele>261</ele>
        <time>2010-05-02T10:02:58Z</time>
      </trkpt>
      <trkpt lat="43.54606" lon="6.76324">
        <ele>261</ele>
        <time>2010-05-02T10:03:01Z</time>
      </trkpt>
      <trkpt lat="43.54603" lon="6.76318">
        <ele>261</ele>
        <time>2010-05-02T10:03:05Z</time>
      </trkpt>
      <trkpt lat="43.546" lon="6.76313">
        <ele>262</ele>
        <time>2010-05-02T10:03:08Z</time>
      </trkpt>
      <trkpt lat="43.54597" lon="6.76306">
        <ele>263</ele>
        <time>2010-05-02T10:03:12Z</time>
      </trkpt>
      <trkpt lat="43.54595" lon="6.76299">
        <ele>263</ele>
        <time>2010-05-02T10:03:15Z</time>
      </trkpt>
      <trkpt lat="43.54593" lon="6.76293">
        <ele>263</ele>
        <time>2010-05-02T10:03:18Z</time>
      </trkpt>
      <trkpt lat="43.54589" lon="6.76286">
        <ele>264</ele>
        <time>2010-05-02T10:03:21Z</time>
      </trkpt>
      <trkpt lat="43.54588" lon="6.7628">
        <ele>264</ele>
        <time>2010-05-02T10:03:24Z</time>
      </trkpt>
      <trkpt lat="43.54585" lon="6.76274">
        <ele>265</ele>
        <time>2010-05-02T10:03:27Z</time>
      </trkpt>
      <trkpt lat="43.54582" lon="6.76268">
        <ele>265</ele>
        <time>2010-05-02T10:03:30Z</time>
      </trkpt>
      <trkpt lat="43.54579" lon="6.76263">
        <ele>265</ele>
        <time>2010-05-02T10:03:32Z</time>
      </trkpt>
      <trkpt lat="43.54575" lon="6.76251">
        <ele>266</ele>
        <time>2010-05-02T10:03:37Z</time>
      </trkpt>
      <trkpt lat="43.54572" lon="6.76246">
        <ele>266</ele>
        <time>2010-05-02T10:03:39Z</time>
      </trkpt>
      <trkpt lat="43.5457" lon="6.76239">
        <ele>267</ele>
        <time>2010-05-02T10:03:42Z</time>
      </trkpt>
      <trkpt lat="43.54567" lon="6.76233">
        <ele>268</ele>
        <time>2010-05-02T10:03:45Z</time>
      </trkpt>
      <trkpt lat="43.54565" lon="6.76227">
        <ele>268</ele>
        <time>2010-05-02T10:03:48Z</time>
      </trkpt>
      <trkpt lat="43.54564" lon="6.76219">
        <ele>268</ele>
        <time>2010-05-02T10:03:51Z</time>
      </trkpt>
      <trkpt lat="43.54562" lon="6.76213">
        <ele>269</ele>
        <time>2010-05-02T10:03:54Z</time>
      </trkpt>
      <trkpt lat="43.54558" lon="6.76203">
        <ele>269</ele>
        <time>2010-05-02T10:03:58Z</time>
      </trkpt>
      <trkpt lat="43.54556" lon="6.76196">
        <ele>270</ele>
        <time>2010-05-02T10:04:01Z</time>
      </trkpt>
      <trkpt lat="43.54553" lon="6.7619">
        <ele>270</ele>
        <time>2010-05-02T10:04:03Z</time>
      </trkpt>
      <trkpt lat="43.54549" lon="6.76183">
        <ele>271</ele>
        <time>2010-05-02T10:04:06Z</time>
      </trkpt>
      <trkpt lat="43.54546" lon="6.76177">
        <ele>271</ele>
        <time>2010-05-02T10:04:08Z</time>
      </trkpt>
      <trkpt lat="43.54541" lon="6.76169">
        <ele>272</ele>
        <time>2010-05-02T10:04:11Z</time>
      </trkpt>
      <trkpt lat="43.54538" lon="6.76163">
        <ele>274</ele>
        <time>2010-05-02T10:04:14Z</time>
      </trkpt>
      <trkpt lat="43.54534" lon="6.76159">
        <ele>274</ele>
        <time>2010-05-02T10:04:16Z</time>
      </trkpt>
      <trkpt lat="43.5453" lon="6.76152">
        <ele>276</ele>
        <time>2010-05-02T10:04:19Z</time>
      </trkpt>
      <trkpt lat="43.54521" lon="6.76141">
        <ele>277</ele>
        <time>2010-05-02T10:04:24Z</time>
      </trkpt>
      <trkpt lat="43.54516" lon="6.76136">
        <ele>278</ele>
        <time>2010-05-02T10:04:27Z</time>
      </trkpt>
      <trkpt lat="43.54511" lon="6.76129">
        <ele>278</ele>
        <time>2010-05-02T10:04:31Z</time>
      </trkpt>
      <trkpt lat="43.54507" lon="6.76125">
        <ele>279</ele>
        <time>2010-05-02T10:04:34Z</time>
      </trkpt>
      <trkpt lat="43.54502" lon="6.76118">
        <ele>280</ele>
        <time>2010-05-02T10:04:37Z</time>
      </trkpt>
      <trkpt lat="43.54499" lon="6.76111">
        <ele>282</ele>
        <time>2010-05-02T10:04:41Z</time>
      </trkpt>
      <trkpt lat="43.54497" lon="6.76099">
        <ele>284</ele>
        <time>2010-05-02T10:04:45Z</time>
      </trkpt>
      <trkpt lat="43.54501" lon="6.76095">
        <ele>285</ele>
        <time>2010-05-02T10:04:50Z</time>
      </trkpt>
      <trkpt lat="43.54506" lon="6.76096">
        <ele>287</ele>
        <time>2010-05-02T10:04:53Z</time>
      </trkpt>
      <trkpt lat="43.54518" lon="6.76095">
        <ele>288</ele>
        <time>2010-05-02T10:04:58Z</time>
      </trkpt>
      <trkpt lat="43.54523" lon="6.76095">
        <ele>288</ele>
        <time>2010-05-02T10:05:00Z</time>
      </trkpt>
      <trkpt lat="43.54529" lon="6.76094">
        <ele>290</ele>
        <time>2010-05-02T10:05:03Z</time>
      </trkpt>
      <trkpt lat="43.54536" lon="6.76093">
        <ele>291</ele>
        <time>2010-05-02T10:05:06Z</time>
      </trkpt>
      <trkpt lat="43.54546" lon="6.76094">
        <ele>292</ele>
        <time>2010-05-02T10:05:11Z</time>
      </trkpt>
      <trkpt lat="43.54552" lon="6.76095">
        <ele>293</ele>
        <time>2010-05-02T10:05:14Z</time>
      </trkpt>
      <trkpt lat="43.54558" lon="6.76094">
        <ele>293</ele>
        <time>2010-05-02T10:05:16Z</time>
      </trkpt>
      <trkpt lat="43.54563" lon="6.76092">
        <ele>293</ele>
        <time>2010-05-02T10:05:18Z</time>
      </trkpt>
      <trkpt lat="43.54569" lon="6.7609">
        <ele>294</ele>
        <time>2010-05-02T10:05:21Z</time>
      </trkpt>
      <trkpt lat="43.54577" lon="6.76089">
        <ele>294</ele>
        <time>2010-05-02T10:05:24Z</time>
      </trkpt>
      <trkpt lat="43.54581" lon="6.76087">
        <ele>294</ele>
        <time>2010-05-02T10:05:26Z</time>
      </trkpt>
      <trkpt lat="43.54585" lon="6.76085">
        <ele>295</ele>
        <time>2010-05-02T10:05:28Z</time>
      </trkpt>
      <trkpt lat="43.5459" lon="6.7608">
        <ele>296</ele>
        <time>2010-05-02T10:05:31Z</time>
      </trkpt>
      <trkpt lat="43.54593" lon="6.76074">
        <ele>297</ele>
        <time>2010-05-02T10:05:34Z</time>
      </trkpt>
      <trkpt lat="43.54595" lon="6.76068">
        <ele>297</ele>
        <time>2010-05-02T10:05:37Z</time>
      </trkpt>
      <trkpt lat="43.54596" lon="6.76061">
        <ele>296</ele>
        <time>2010-05-02T10:05:39Z</time>
      </trkpt>
      <trkpt lat="43.54596" lon="6.76052">
        <ele>294</ele>
        <time>2010-05-02T10:05:41Z</time>
      </trkpt>
      <trkpt lat="43.54595" lon="6.76045">
        <ele>293</ele>
        <time>2010-05-02T10:05:43Z</time>
      </trkpt>
      <trkpt lat="43.54595" lon="6.76037">
        <ele>292</ele>
        <time>2010-05-02T10:05:45Z</time>
      </trkpt>
      <trkpt lat="43.54595" lon="6.7603">
        <ele>291</ele>
        <time>2010-05-02T10:05:47Z</time>
      </trkpt>
      <trkpt lat="43.54595" lon="6.76024">
        <ele>289</ele>
        <time>2010-05-02T10:05:49Z</time>
      </trkpt>
      <trkpt lat="43.54595" lon="6.76016">
        <ele>289</ele>
        <time>2010-05-02T10:05:52Z</time>
      </trkpt>
      <trkpt lat="43.54594" lon="6.7601">
        <ele>288</ele>
        <time>2010-05-02T10:05:54Z</time>
      </trkpt>
      <trkpt lat="43.54591" lon="6.75998">
        <ele>287</ele>
        <time>2010-05-02T10:05:58Z</time>
      </trkpt>
      <trkpt lat="43.54588" lon="6.7599">
        <ele>287</ele>
        <time>2010-05-02T10:06:01Z</time>
      </trkpt>
      <trkpt lat="43.54587" lon="6.75983">
        <ele>288</ele>
        <time>2010-05-02T10:06:04Z</time>
      </trkpt>
      <trkpt lat="43.54585" lon="6.75977">
        <ele>288</ele>
        <time>2010-05-02T10:06:07Z</time>
      </trkpt>
      <trkpt lat="43.54581" lon="6.7597">
        <ele>290</ele>
        <time>2010-05-02T10:06:11Z</time>
      </trkpt>
      <trkpt lat="43.54578" lon="6.75963">
        <ele>291</ele>
        <time>2010-05-02T10:06:14Z</time>
      </trkpt>
      <trkpt lat="43.54575" lon="6.75957">
        <ele>291</ele>
        <time>2010-05-02T10:06:17Z</time>
      </trkpt>
      <trkpt lat="43.54573" lon="6.75952">
        <ele>293</ele>
        <time>2010-05-02T10:06:21Z</time>
      </trkpt>
      <trkpt lat="43.5457" lon="6.75947">
        <ele>293</ele>
        <time>2010-05-02T10:06:24Z</time>
      </trkpt>
      <trkpt lat="43.54568" lon="6.7594">
        <ele>295</ele>
        <time>2010-05-02T10:06:28Z</time>
      </trkpt>
      <trkpt lat="43.54566" lon="6.75934">
        <ele>298</ele>
        <time>2010-05-02T10:06:32Z</time>
      </trkpt>
      <trkpt lat="43.54566" lon="6.75927">
        <ele>300</ele>
        <time>2010-05-02T10:06:34Z</time>
      </trkpt>
      <trkpt lat="43.54567" lon="6.7592">
        <ele>302</ele>
        <time>2010-05-02T10:06:38Z</time>
      </trkpt>
      <trkpt lat="43.54568" lon="6.75913">
        <ele>304</ele>
        <time>2010-05-02T10:06:42Z</time>
      </trkpt>
      <trkpt lat="43.5457" lon="6.75906">
        <ele>306</ele>
        <time>2010-05-02T10:06:47Z</time>
      </trkpt>
      <trkpt lat="43.54571" lon="6.75898">
        <ele>308</ele>
        <time>2010-05-02T10:06:51Z</time>
      </trkpt>
      <trkpt lat="43.54573" lon="6.7589">
        <ele>309</ele>
        <time>2010-05-02T10:06:54Z</time>
      </trkpt>
      <trkpt lat="43.54574" lon="6.75881">
        <ele>311</ele>
        <time>2010-05-02T10:06:58Z</time>
      </trkpt>
      <trkpt lat="43.54575" lon="6.75875">
        <ele>311</ele>
        <time>2010-05-02T10:07:00Z</time>
      </trkpt>
      <trkpt lat="43.54577" lon="6.75865">
        <ele>310</ele>
        <time>2010-05-02T10:07:02Z</time>
      </trkpt>
      <trkpt lat="43.54577" lon="6.75858">
        <ele>309</ele>
        <time>2010-05-02T10:07:04Z</time>
      </trkpt>
      <trkpt lat="43.54576" lon="6.75851">
        <ele>309</ele>
        <time>2010-05-02T10:07:06Z</time>
      </trkpt>
      <trkpt lat="43.54573" lon="6.75837">
        <ele>308</ele>
        <time>2010-05-02T10:07:11Z</time>
      </trkpt>
      <trkpt lat="43.54574" lon="6.7583">
        <ele>307</ele>
        <time>2010-05-02T10:07:13Z</time>
      </trkpt>
      <trkpt lat="43.54573" lon="6.75823">
        <ele>307</ele>
        <time>2010-05-02T10:07:15Z</time>
      </trkpt>
      <trkpt lat="43.54571" lon="6.75815">
        <ele>307</ele>
        <time>2010-05-02T10:07:18Z</time>
      </trkpt>
      <trkpt lat="43.5457" lon="6.75807">
        <ele>306</ele>
        <time>2010-05-02T10:07:21Z</time>
      </trkpt>
      <trkpt lat="43.54568" lon="6.75797">
        <ele>304</ele>
        <time>2010-05-02T10:07:24Z</time>
      </trkpt>
      <trkpt lat="43.54567" lon="6.75791">
        <ele>303</ele>
        <time>2010-05-02T10:07:26Z</time>
      </trkpt>
      <trkpt lat="43.54565" lon="6.75785">
        <ele>303</ele>
        <time>2010-05-02T10:07:28Z</time>
      </trkpt>
      <trkpt lat="43.54563" lon="6.75779">
        <ele>302</ele>
        <time>2010-05-02T10:07:30Z</time>
      </trkpt>
      <trkpt lat="43.54559" lon="6.75772">
        <ele>303</ele>
        <time>2010-05-02T10:07:33Z</time>
      </trkpt>
      <trkpt lat="43.54554" lon="6.75765">
        <ele>303</ele>
        <time>2010-05-02T10:07:37Z</time>
      </trkpt>
      <trkpt lat="43.5455" lon="6.75759">
        <ele>303</ele>
        <time>2010-05-02T10:07:41Z</time>
      </trkpt>
      <trkpt lat="43.54546" lon="6.75752">
        <ele>303</ele>
        <time>2010-05-02T10:07:45Z</time>
      </trkpt>
      <trkpt lat="43.54543" lon="6.75745">
        <ele>305</ele>
        <time>2010-05-02T10:07:49Z</time>
      </trkpt>
      <trkpt lat="43.54541" lon="6.75738">
        <ele>307</ele>
        <time>2010-05-02T10:07:54Z</time>
      </trkpt>
      <trkpt lat="43.54542" lon="6.75731">
        <ele>308</ele>
        <time>2010-05-02T10:07:58Z</time>
      </trkpt>
      <trkpt lat="43.5454" lon="6.75721">
        <ele>308</ele>
        <time>2010-05-02T10:08:01Z</time>
      </trkpt>
      <trkpt lat="43.54538" lon="6.75713">
        <ele>308</ele>
        <time>2010-05-02T10:08:03Z</time>
      </trkpt>
      <trkpt lat="43.54534" lon="6.75706">
        <ele>309</ele>
        <time>2010-05-02T10:08:06Z</time>
      </trkpt>
      <trkpt lat="43.5453" lon="6.757">
        <ele>309</ele>
        <time>2010-05-02T10:08:08Z</time>
      </trkpt>
      <trkpt lat="43.54526" lon="6.75691">
        <ele>309</ele>
        <time>2010-05-02T10:08:11Z</time>
      </trkpt>
      <trkpt lat="43.54522" lon="6.75684">
        <ele>310</ele>
        <time>2010-05-02T10:08:14Z</time>
      </trkpt>
      <trkpt lat="43.54518" lon="6.7568">
        <ele>311</ele>
        <time>2010-05-02T10:08:16Z</time>
      </trkpt>
      <trkpt lat="43.54513" lon="6.75674">
        <ele>311</ele>
        <time>2010-05-02T10:08:19Z</time>
      </trkpt>
      <trkpt lat="43.54507" lon="6.75665">
        <ele>312</ele>
        <time>2010-05-02T10:08:24Z</time>
      </trkpt>
      <trkpt lat="43.54502" lon="6.75661">
        <ele>313</ele>
        <time>2010-05-02T10:08:27Z</time>
      </trkpt>
      <trkpt lat="43.54499" lon="6.75655">
        <ele>315</ele>
        <time>2010-05-02T10:08:29Z</time>
      </trkpt>
      <trkpt lat="43.54502" lon="6.75651">
        <ele>319</ele>
        <time>2010-05-02T10:08:34Z</time>
      </trkpt>
      <trkpt lat="43.54506" lon="6.75646">
        <ele>321</ele>
        <time>2010-05-02T10:08:37Z</time>
      </trkpt>
      <trkpt lat="43.54509" lon="6.75642">
        <ele>323</ele>
        <time>2010-05-02T10:08:39Z</time>
      </trkpt>
      <trkpt lat="43.54514" lon="6.75639">
        <ele>324</ele>
        <time>2010-05-02T10:08:41Z</time>
      </trkpt>
      <trkpt lat="43.54519" lon="6.75637">
        <ele>326</ele>
        <time>2010-05-02T10:08:43Z</time>
      </trkpt>
      <trkpt lat="43.54525" lon="6.75636">
        <ele>327</ele>
        <time>2010-05-02T10:08:45Z</time>
      </trkpt>
      <trkpt lat="43.5453" lon="6.75632">
        <ele>329</ele>
        <time>2010-05-02T10:08:47Z</time>
      </trkpt>
      <trkpt lat="43.54534" lon="6.75628">
        <ele>330</ele>
        <time>2010-05-02T10:08:49Z</time>
      </trkpt>
      <trkpt lat="43.54536" lon="6.75621">
        <ele>332</ele>
        <time>2010-05-02T10:08:51Z</time>
      </trkpt>
      <trkpt lat="43.54538" lon="6.75615">
        <ele>332</ele>
        <time>2010-05-02T10:08:53Z</time>
      </trkpt>
      <trkpt lat="43.54542" lon="6.75609">
        <ele>333</ele>
        <time>2010-05-02T10:08:55Z</time>
      </trkpt>
      <trkpt lat="43.54547" lon="6.756">
        <ele>334</ele>
        <time>2010-05-02T10:08:58Z</time>
      </trkpt>
      <trkpt lat="43.54552" lon="6.75595">
        <ele>335</ele>
        <time>2010-05-02T10:09:00Z</time>
      </trkpt>
      <trkpt lat="43.54556" lon="6.75593">
        <ele>335</ele>
        <time>2010-05-02T10:09:02Z</time>
      </trkpt>
      <trkpt lat="43.54561" lon="6.75594">
        <ele>335</ele>
        <time>2010-05-02T10:09:05Z</time>
      </trkpt>
      <trkpt lat="43.5457" lon="6.75599">
        <ele>332</ele>
        <time>2010-05-02T10:09:11Z</time>
      </trkpt>
      <trkpt lat="43.54575" lon="6.75597">
        <ele>331</ele>
        <time>2010-05-02T10:09:13Z</time>
      </trkpt>
      <trkpt lat="43.5458" lon="6.75597">
        <ele>332</ele>
        <time>2010-05-02T10:09:15Z</time>
      </trkpt>
      <trkpt lat="43.54585" lon="6.75594">
        <ele>333</ele>
        <time>2010-05-02T10:09:17Z</time>
      </trkpt>
      <trkpt lat="43.5459" lon="6.75592">
        <ele>333</ele>
        <time>2010-05-02T10:09:19Z</time>
      </trkpt>
      <trkpt lat="43.54601" lon="6.75584">
        <ele>333</ele>
        <time>2010-05-02T10:09:24Z</time>
      </trkpt>
      <trkpt lat="43.54604" lon="6.75579">
        <ele>332</ele>
        <time>2010-05-02T10:09:26Z</time>
      </trkpt>
      <trkpt lat="43.54607" lon="6.75573">
        <ele>332</ele>
        <time>2010-05-02T10:09:28Z</time>
      </trkpt>
      <trkpt lat="43.5461" lon="6.75567">
        <ele>332</ele>
        <time>2010-05-02T10:09:30Z</time>
      </trkpt>
      <trkpt lat="43.54613" lon="6.75563">
        <ele>333</ele>
        <time>2010-05-02T10:09:32Z</time>
      </trkpt>
      <trkpt lat="43.54616" lon="6.75551">
        <ele>334</ele>
        <time>2010-05-02T10:09:37Z</time>
      </trkpt>
      <trkpt lat="43.54618" lon="6.75544">
        <ele>334</ele>
        <time>2010-05-02T10:09:40Z</time>
      </trkpt>
      <trkpt lat="43.54621" lon="6.75536">
        <ele>335</ele>
        <time>2010-05-02T10:09:43Z</time>
      </trkpt>
      <trkpt lat="43.54623" lon="6.7553">
        <ele>336</ele>
        <time>2010-05-02T10:09:46Z</time>
      </trkpt>
      <trkpt lat="43.54624" lon="6.75523">
        <ele>337</ele>
        <time>2010-05-02T10:09:49Z</time>
      </trkpt>
      <trkpt lat="43.54625" lon="6.75515">
        <ele>336</ele>
        <time>2010-05-02T10:09:52Z</time>
      </trkpt>
      <trkpt lat="43.54625" lon="6.75508">
        <ele>336</ele>
        <time>2010-05-02T10:09:54Z</time>
      </trkpt>
      <trkpt lat="43.54625" lon="6.75493">
        <ele>333</ele>
        <time>2010-05-02T10:09:57Z</time>
      </trkpt>
      <trkpt lat="43.54626" lon="6.75483">
        <ele>330</ele>
        <time>2010-05-02T10:09:59Z</time>
      </trkpt>
      <trkpt lat="43.54626" lon="6.75474">
        <ele>327</ele>
        <time>2010-05-02T10:10:01Z</time>
      </trkpt>
      <trkpt lat="43.54625" lon="6.75464">
        <ele>325</ele>
        <time>2010-05-02T10:10:04Z</time>
      </trkpt>
      <trkpt lat="43.54623" lon="6.75456">
        <ele>324</ele>
        <time>2010-05-02T10:10:06Z</time>
      </trkpt>
      <trkpt lat="43.54618" lon="6.75446">
        <ele>323</ele>
        <time>2010-05-02T10:10:10Z</time>
      </trkpt>
      <trkpt lat="43.54615" lon="6.75438">
        <ele>323</ele>
        <time>2010-05-02T10:10:13Z</time>
      </trkpt>
      <trkpt lat="43.54611" lon="6.75431">
        <ele>324</ele>
        <time>2010-05-02T10:10:16Z</time>
      </trkpt>
      <trkpt lat="43.54607" lon="6.75426">
        <ele>324</ele>
        <time>2010-05-02T10:10:18Z</time>
      </trkpt>
      <trkpt lat="43.54598" lon="6.75418">
        <ele>324</ele>
        <time>2010-05-02T10:10:23Z</time>
      </trkpt>
      <trkpt lat="43.54593" lon="6.75416">
        <ele>325</ele>
        <time>2010-05-02T10:10:26Z</time>
      </trkpt>
      <trkpt lat="43.54589" lon="6.75412">
        <ele>325</ele>
        <time>2010-05-02T10:10:29Z</time>
      </trkpt>
      <trkpt lat="43.54585" lon="6.75408">
        <ele>325</ele>
        <time>2010-05-02T10:10:33Z</time>
      </trkpt>
      <trkpt lat="43.5458" lon="6.75402">
        <ele>325</ele>
        <time>2010-05-02T10:10:36Z</time>
      </trkpt>
      <trkpt lat="43.54578" lon="6.75395">
        <ele>326</ele>
        <time>2010-05-02T10:10:40Z</time>
      </trkpt>
      <trkpt lat="43.54575" lon="6.75389">
        <ele>327</ele>
        <time>2010-05-02T10:10:43Z</time>
      </trkpt>
      <trkpt lat="43.54572" lon="6.75382">
        <ele>327</ele>
        <time>2010-05-02T10:10:46Z</time>
      </trkpt>
      <trkpt lat="43.5457" lon="6.75375">
        <ele>327</ele>
        <time>2010-05-02T10:10:49Z</time>
      </trkpt>
      <trkpt lat="43.54566" lon="6.7537">
        <ele>328</ele>
        <time>2010-05-02T10:10:52Z</time>
      </trkpt>
      <trkpt lat="43.54564" lon="6.75364">
        <ele>329</ele>
        <time>2010-05-02T10:10:55Z</time>
      </trkpt>
      <trkpt lat="43.54561" lon="6.75358">
        <ele>330</ele>
        <time>2010-05-02T10:10:58Z</time>
      </trkpt>
      <trkpt lat="43.54558" lon="6.75353">
        <ele>333</ele>
        <time>2010-05-02T10:11:01Z</time>
      </trkpt>
      <trkpt lat="43.54554" lon="6.75348">
        <ele>334</ele>
        <time>2010-05-02T10:11:03Z</time>
      </trkpt>
      <trkpt lat="43.54551" lon="6.75343">
        <ele>335</ele>
        <time>2010-05-02T10:11:05Z</time>
      </trkpt>
      <trkpt lat="43.54553" lon="6.75333">
        <ele>338</ele>
        <time>2010-05-02T10:11:11Z</time>
      </trkpt>
      <trkpt lat="43.54557" lon="6.75329">
        <ele>340</ele>
        <time>2010-05-02T10:11:14Z</time>
      </trkpt>
      <trkpt lat="43.54562" lon="6.75326">
        <ele>342</ele>
        <time>2010-05-02T10:11:18Z</time>
      </trkpt>
      <trkpt lat="43.54567" lon="6.75324">
        <ele>343</ele>
        <time>2010-05-02T10:11:21Z</time>
      </trkpt>
      <trkpt lat="43.54573" lon="6.75323">
        <ele>345</ele>
        <time>2010-05-02T10:11:24Z</time>
      </trkpt>
      <trkpt lat="43.54577" lon="6.75321">
        <ele>346</ele>
        <time>2010-05-02T10:11:26Z</time>
      </trkpt>
      <trkpt lat="43.54583" lon="6.75317">
        <ele>346</ele>
        <time>2010-05-02T10:11:29Z</time>
      </trkpt>
      <trkpt lat="43.5459" lon="6.75315">
        <ele>347</ele>
        <time>2010-05-02T10:11:32Z</time>
      </trkpt>
      <trkpt lat="43.54601" lon="6.75313">
        <ele>348</ele>
        <time>2010-05-02T10:11:37Z</time>
      </trkpt>
      <trkpt lat="43.54608" lon="6.7531">
        <ele>348</ele>
        <time>2010-05-02T10:11:40Z</time>
      </trkpt>
      <trkpt lat="43.54614" lon="6.75308">
        <ele>348</ele>
        <time>2010-05-02T10:11:43Z</time>
      </trkpt>
      <trkpt lat="43.54618" lon="6.75306">
        <ele>349</ele>
        <time>2010-05-02T10:11:45Z</time>
      </trkpt>
      <trkpt lat="43.54623" lon="6.75302">
        <ele>349</ele>
        <time>2010-05-02T10:11:47Z</time>
      </trkpt>
      <trkpt lat="43.54629" lon="6.75299">
        <ele>350</ele>
        <time>2010-05-02T10:11:50Z</time>
      </trkpt>
      <trkpt lat="43.54633" lon="6.75297">
        <ele>350</ele>
        <time>2010-05-02T10:11:52Z</time>
      </trkpt>
      <trkpt lat="43.54638" lon="6.75291">
        <ele>351</ele>
        <time>2010-05-02T10:11:55Z</time>
      </trkpt>
      <trkpt lat="43.54642" lon="6.75284">
        <ele>352</ele>
        <time>2010-05-02T10:11:59Z</time>
      </trkpt>
      <trkpt lat="43.54646" lon="6.75278">
        <ele>352</ele>
        <time>2010-05-02T10:12:02Z</time>
      </trkpt>
      <trkpt lat="43.54648" lon="6.75272">
        <ele>353</ele>
        <time>2010-05-02T10:12:05Z</time>
      </trkpt>
      <trkpt lat="43.54651" lon="6.75267">
        <ele>355</ele>
        <time>2010-05-02T10:12:09Z</time>
      </trkpt>
      <trkpt lat="43.54652" lon="6.7526">
        <ele>355</ele>
        <time>2010-05-02T10:12:12Z</time>
      </trkpt>
      <trkpt lat="43.54654" lon="6.75254">
        <ele>355</ele>
        <time>2010-05-02T10:12:15Z</time>
      </trkpt>
      <trkpt lat="43.54654" lon="6.75248">
        <ele>356</ele>
        <time>2010-05-02T10:12:17Z</time>
      </trkpt>
      <trkpt lat="43.54654" lon="6.75239">
        <ele>356</ele>
        <time>2010-05-02T10:12:20Z</time>
      </trkpt>
      <trkpt lat="43.54655" lon="6.75233">
        <ele>356</ele>
        <time>2010-05-02T10:12:22Z</time>
      </trkpt>
      <trkpt lat="43.54655" lon="6.75221">
        <ele>356</ele>
        <time>2010-05-02T10:12:25Z</time>
      </trkpt>
      <trkpt lat="43.54656" lon="6.75212">
        <ele>355</ele>
        <time>2010-05-02T10:12:27Z</time>
      </trkpt>
      <trkpt lat="43.54656" lon="6.75203">
        <ele>353</ele>
        <time>2010-05-02T10:12:29Z</time>
      </trkpt>
      <trkpt lat="43.54658" lon="6.75195">
        <ele>350</ele>
        <time>2010-05-02T10:12:30Z</time>
      </trkpt>
      <trkpt lat="43.54658" lon="6.75188">
        <ele>350</ele>
        <time>2010-05-02T10:12:32Z</time>
      </trkpt>
      <trkpt lat="43.54658" lon="6.7518">
        <ele>348</ele>
        <time>2010-05-02T10:12:34Z</time>
      </trkpt>
      <trkpt lat="43.54658" lon="6.75173">
        <ele>346</ele>
        <time>2010-05-02T10:12:35Z</time>
      </trkpt>
      <trkpt lat="43.54653" lon="6.75163">
        <ele>345</ele>
        <time>2010-05-02T10:12:38Z</time>
      </trkpt>
      <trkpt lat="43.54651" lon="6.75158">
        <ele>344</ele>
        <time>2010-05-02T10:12:40Z</time>
      </trkpt>
      <trkpt lat="43.54646" lon="6.75151">
        <ele>343</ele>
        <time>2010-05-02T10:12:43Z</time>
      </trkpt>
      <trkpt lat="43.54644" lon="6.75145">
        <ele>344</ele>
        <time>2010-05-02T10:12:46Z</time>
      </trkpt>
      <trkpt lat="43.5464" lon="6.75139">
        <ele>343</ele>
        <time>2010-05-02T10:12:49Z</time>
      </trkpt>
      <trkpt lat="43.54636" lon="6.75135">
        <ele>343</ele>
        <time>2010-05-02T10:12:51Z</time>
      </trkpt>
      <trkpt lat="43.54632" lon="6.75131">
        <ele>343</ele>
        <time>2010-05-02T10:12:53Z</time>
      </trkpt>
      <trkpt lat="43.54629" lon="6.75124">
        <ele>343</ele>
        <time>2010-05-02T10:12:57Z</time>
      </trkpt>
      <trkpt lat="43.54626" lon="6.75118">
        <ele>344</ele>
        <time>2010-05-02T10:13:00Z</time>
      </trkpt>
      <trkpt lat="43.54625" lon="6.7511">
        <ele>345</ele>
        <time>2010-05-02T10:13:03Z</time>
      </trkpt>
      <trkpt lat="43.54623" lon="6.75104">
        <ele>345</ele>
        <time>2010-05-02T10:13:06Z</time>
      </trkpt>
      <trkpt lat="43.54619" lon="6.75096">
        <ele>346</ele>
        <time>2010-05-02T10:13:10Z</time>
      </trkpt>
      <trkpt lat="43.54615" lon="6.75091">
        <ele>347</ele>
        <time>2010-05-02T10:13:13Z</time>
      </trkpt>
      <trkpt lat="43.54612" lon="6.75085">
        <ele>347</ele>
        <time>2010-05-02T10:13:16Z</time>
      </trkpt>
      <trkpt lat="43.54609" lon="6.75078">
        <ele>348</ele>
        <time>2010-05-02T10:13:20Z</time>
      </trkpt>
      <trkpt lat="43.54607" lon="6.75072">
        <ele>349</ele>
        <time>2010-05-02T10:13:24Z</time>
      </trkpt>
      <trkpt lat="43.54603" lon="6.75066">
        <ele>349</ele>
        <time>2010-05-02T10:13:27Z</time>
      </trkpt>
      <trkpt lat="43.54599" lon="6.75061">
        <ele>350</ele>
        <time>2010-05-02T10:13:31Z</time>
      </trkpt>
      <trkpt lat="43.54597" lon="6.7505">
        <ele>352</ele>
        <time>2010-05-02T10:13:36Z</time>
      </trkpt>
      <trkpt lat="43.54595" lon="6.75041">
        <ele>352</ele>
        <time>2010-05-02T10:13:38Z</time>
      </trkpt>
      <trkpt lat="43.54593" lon="6.75033">
        <ele>353</ele>
        <time>2010-05-02T10:13:40Z</time>
      </trkpt>
      <trkpt lat="43.54594" lon="6.75026">
        <ele>352</ele>
        <time>2010-05-02T10:13:41Z</time>
      </trkpt>
      <trkpt lat="43.54592" lon="6.75018">
        <ele>352</ele>
        <time>2010-05-02T10:13:43Z</time>
      </trkpt>
      <trkpt lat="43.54589" lon="6.75012">
        <ele>353</ele>
        <time>2010-05-02T10:13:45Z</time>
      </trkpt>
      <trkpt lat="43.54588" lon="6.75">
        <ele>352</ele>
        <time>2010-05-02T10:13:47Z</time>
      </trkpt>
      <trkpt lat="43.54589" lon="6.74993">
        <ele>352</ele>
        <time>2010-05-02T10:13:48Z</time>
      </trkpt>
      <trkpt lat="43.54587" lon="6.74983">
        <ele>352</ele>
        <time>2010-05-02T10:13:50Z</time>
      </trkpt>
      <trkpt lat="43.54582" lon="6.74978">
        <ele>352</ele>
        <time>2010-05-02T10:13:51Z</time>
      </trkpt>
      <trkpt lat="43.5458" lon="6.7497">
        <ele>353</ele>
        <time>2010-05-02T10:13:53Z</time>
      </trkpt>
      <trkpt lat="43.54579" lon="6.74962">
        <ele>354</ele>
        <time>2010-05-02T10:13:55Z</time>
      </trkpt>
      <trkpt lat="43.5458" lon="6.74947">
        <ele>359</ele>
        <time>2010-05-02T10:13:58Z</time>
      </trkpt>
      <trkpt lat="43.54579" lon="6.74941">
        <ele>362</ele>
        <time>2010-05-02T10:14:00Z</time>
      </trkpt>
      <trkpt lat="43.54578" lon="6.74934">
        <ele>364</ele>
        <time>2010-05-02T10:14:02Z</time>
      </trkpt>
      <trkpt lat="43.54579" lon="6.74926">
        <ele>366</ele>
        <time>2010-05-02T10:14:04Z</time>
      </trkpt>
      <trkpt lat="43.54577" lon="6.74919">
        <ele>367</ele>
        <time>2010-05-02T10:14:05Z</time>
      </trkpt>
      <trkpt lat="43.54581" lon="6.74915">
        <ele>370</ele>
        <time>2010-05-02T10:14:07Z</time>
      </trkpt>
      <trkpt lat="43.54594" lon="6.74903">
        <ele>374</ele>
        <time>2010-05-02T10:14:11Z</time>
      </trkpt>
      <trkpt lat="43.54601" lon="6.749">
        <ele>376</ele>
        <time>2010-05-02T10:14:13Z</time>
      </trkpt>
      <trkpt lat="43.54608" lon="6.74897">
        <ele>376</ele>
        <time>2010-05-02T10:14:15Z</time>
      </trkpt>
      <trkpt lat="43.54617" lon="6.74895">
        <ele>378</ele>
        <time>2010-05-02T10:14:17Z</time>
      </trkpt>
      <trkpt lat="43.54621" lon="6.74893">
        <ele>379</ele>
        <time>2010-05-02T10:14:18Z</time>
      </trkpt>
      <trkpt lat="43.54627" lon="6.74889">
        <ele>381</ele>
        <time>2010-05-02T10:14:20Z</time>
      </trkpt>
      <trkpt lat="43.54643" lon="6.7488">
        <ele>382</ele>
        <time>2010-05-02T10:14:24Z</time>
      </trkpt>
      <trkpt lat="43.54648" lon="6.74874">
        <ele>384</ele>
        <time>2010-05-02T10:14:26Z</time>
      </trkpt>
      <trkpt lat="43.54654" lon="6.74865">
        <ele>385</ele>
        <time>2010-05-02T10:14:28Z</time>
      </trkpt>
      <trkpt lat="43.54658" lon="6.74861">
        <ele>386</ele>
        <time>2010-05-02T10:14:29Z</time>
      </trkpt>
      <trkpt lat="43.54663" lon="6.74856">
        <ele>387</ele>
        <time>2010-05-02T10:14:31Z</time>
      </trkpt>
      <trkpt lat="43.5467" lon="6.7485">
        <ele>388</ele>
        <time>2010-05-02T10:14:33Z</time>
      </trkpt>
      <trkpt lat="43.54685" lon="6.74838">
        <ele>388</ele>
        <time>2010-05-02T10:14:37Z</time>
      </trkpt>
      <trkpt lat="43.5469" lon="6.74836">
        <ele>388</ele>
        <time>2010-05-02T10:14:38Z</time>
      </trkpt>
      <trkpt lat="43.54695" lon="6.74833">
        <ele>388</ele>
        <time>2010-05-02T10:14:39Z</time>
      </trkpt>
      <trkpt lat="43.54703" lon="6.74828">
        <ele>387</ele>
        <time>2010-05-02T10:14:41Z</time>
      </trkpt>
      <trkpt lat="43.54708" lon="6.74826">
        <ele>387</ele>
        <time>2010-05-02T10:14:42Z</time>
      </trkpt>
      <trkpt lat="43.54713" lon="6.74822">
        <ele>386</ele>
        <time>2010-05-02T10:14:43Z</time>
      </trkpt>
      <trkpt lat="43.54722" lon="6.74816">
        <ele>384</ele>
        <time>2010-05-02T10:14:45Z</time>
      </trkpt>
      <trkpt lat="43.54728" lon="6.74813">
        <ele>384</ele>
        <time>2010-05-02T10:14:46Z</time>
      </trkpt>
      <trkpt lat="43.54734" lon="6.74811">
        <ele>384</ele>
        <time>2010-05-02T10:14:48Z</time>
      </trkpt>
      <trkpt lat="43.54743" lon="6.74809">
        <ele>384</ele>
        <time>2010-05-02T10:14:50Z</time>
      </trkpt>
      <trkpt lat="43.54748" lon="6.74808">
        <ele>384</ele>
        <time>2010-05-02T10:14:51Z</time>
      </trkpt>
      <trkpt lat="43.54754" lon="6.74806">
        <ele>383</ele>
        <time>2010-05-02T10:14:52Z</time>
      </trkpt>
      <trkpt lat="43.54759" lon="6.74805">
        <ele>383</ele>
        <time>2010-05-02T10:14:53Z</time>
      </trkpt>
      <trkpt lat="43.54764" lon="6.74802">
        <ele>382</ele>
        <time>2010-05-02T10:14:54Z</time>
      </trkpt>
      <trkpt lat="43.54779" lon="6.748">
        <ele>383</ele>
        <time>2010-05-02T10:14:58Z</time>
      </trkpt>
      <trkpt lat="43.54784" lon="6.74798">
        <ele>382</ele>
        <time>2010-05-02T10:15:00Z</time>
      </trkpt>
      <trkpt lat="43.54789" lon="6.74797">
        <ele>382</ele>
        <time>2010-05-02T10:15:03Z</time>
      </trkpt>
      <trkpt lat="43.54793" lon="6.74793">
        <ele>378</ele>
        <time>2010-05-02T10:15:06Z</time>
      </trkpt>
      <trkpt lat="43.54794" lon="6.74788">
        <ele>378</ele>
        <time>2010-05-02T10:15:15Z</time>
      </trkpt>
      <trkpt lat="43.54794" lon="6.74783">
        <ele>376</ele>
        <time>2010-05-02T10:15:27Z</time>
      </trkpt>
      <trkpt lat="43.54795" lon="6.74782">
        <ele>376</ele>
        <time>2010-05-02T10:15:28Z</time>
      </trkpt>
      <trkpt lat="43.54796" lon="6.7478">
        <ele>375</ele>
        <time>2010-05-02T10:15:30Z</time>
      </trkpt>
      <trkpt lat="43.54798" lon="6.74775">
        <ele>370</ele>
        <time>2010-05-02T10:16:03Z</time>
      </trkpt>
      <trkpt lat="43.54798" lon="6.74774">
        <ele>370</ele>
        <time>2010-05-02T10:16:04Z</time>
      </trkpt>
      <trkpt lat="43.54798" lon="6.74774">
        <ele>370</ele>
        <time>2010-05-02T10:16:04Z</time>
      </trkpt>
      <trkpt lat="43.54796" lon="6.74768">
        <ele>364</ele>
        <time>2010-05-02T10:16:40Z</time>
      </trkpt>
      <trkpt lat="43.54796" lon="6.74768">
        <ele>363</ele>
        <time>2010-05-02T10:16:41Z</time>
      </trkpt>
      <trkpt lat="43.54795" lon="6.74765">
        <ele>361</ele>
        <time>2010-05-02T10:16:47Z</time>
      </trkpt>
      <trkpt lat="43.54798" lon="6.7477">
        <ele>362</ele>
        <time>2010-05-02T10:17:08Z</time>
      </trkpt>
      <trkpt lat="43.54799" lon="6.74772">
        <ele>363</ele>
        <time>2010-05-02T10:17:11Z</time>
      </trkpt>
      <trkpt lat="43.54799" lon="6.74772">
        <ele>363</ele>
        <time>2010-05-02T10:17:11Z</time>
      </trkpt>
      <trkpt lat="43.54799" lon="6.74775">
        <ele>365</ele>
        <time>2010-05-02T10:17:30Z</time>
      </trkpt>
      <trkpt lat="43.54801" lon="6.74784">
        <ele>360</ele>
        <time>2010-05-02T10:17:31Z</time>
      </trkpt>
      <trkpt lat="43.54802" lon="6.74784">
        <ele>360</ele>
        <time>2010-05-02T10:17:32Z</time>
      </trkpt>
      <trkpt lat="43.54802" lon="6.7478">
        <ele>362</ele>
        <time>2010-05-02T10:19:06Z</time>
      </trkpt>
      <trkpt lat="43.54806" lon="6.74774">
        <ele>361</ele>
        <time>2010-05-02T10:19:07Z</time>
      </trkpt>
      <trkpt lat="43.54807" lon="6.74774">
        <ele>359</ele>
        <time>2010-05-02T10:19:12Z</time>
      </trkpt>
      <trkpt lat="43.54807" lon="6.74774">
        <ele>357</ele>
        <time>2010-05-02T10:19:34Z</time>
      </trkpt>
      <trkpt lat="43.54814" lon="6.74765">
        <ele>357</ele>
        <time>2010-05-02T10:19:37Z</time>
      </trkpt>
      <trkpt lat="43.54818" lon="6.74757">
        <ele>357</ele>
        <time>2010-05-02T10:19:39Z</time>
      </trkpt>
      <trkpt lat="43.54819" lon="6.74747">
        <ele>357</ele>
        <time>2010-05-02T10:19:41Z</time>
      </trkpt>
      <trkpt lat="43.54817" lon="6.74736">
        <ele>358</ele>
        <time>2010-05-02T10:19:43Z</time>
      </trkpt>
      <trkpt lat="43.54815" lon="6.74724">
        <ele>358</ele>
        <time>2010-05-02T10:19:45Z</time>
      </trkpt>
      <trkpt lat="43.54813" lon="6.74711">
        <ele>357</ele>
        <time>2010-05-02T10:19:47Z</time>
      </trkpt>
      <trkpt lat="43.54811" lon="6.74703">
        <ele>357</ele>
        <time>2010-05-02T10:19:48Z</time>
      </trkpt>
      <trkpt lat="43.54809" lon="6.74694">
        <ele>356</ele>
        <time>2010-05-02T10:19:49Z</time>
      </trkpt>
      <trkpt lat="43.54807" lon="6.74684">
        <ele>355</ele>
        <time>2010-05-02T10:19:50Z</time>
      </trkpt>
      <trkpt lat="43.54805" lon="6.74674">
        <ele>354</ele>
        <time>2010-05-02T10:19:51Z</time>
      </trkpt>
      <trkpt lat="43.54802" lon="6.74664">
        <ele>354</ele>
        <time>2010-05-02T10:19:52Z</time>
      </trkpt>
      <trkpt lat="43.548" lon="6.74653">
        <ele>353</ele>
        <time>2010-05-02T10:19:53Z</time>
      </trkpt>
      <trkpt lat="43.54796" lon="6.74643">
        <ele>352</ele>
        <time>2010-05-02T10:19:54Z</time>
      </trkpt>
      <trkpt lat="43.54794" lon="6.74632">
        <ele>351</ele>
        <time>2010-05-02T10:19:55Z</time>
      </trkpt>
      <trkpt lat="43.54783" lon="6.74602">
        <ele>350</ele>
        <time>2010-05-02T10:19:58Z</time>
      </trkpt>
      <trkpt lat="43.54779" lon="6.74593">
        <ele>350</ele>
        <time>2010-05-02T10:19:59Z</time>
      </trkpt>
      <trkpt lat="43.54776" lon="6.74585">
        <ele>349</ele>
        <time>2010-05-02T10:20:00Z</time>
      </trkpt>
      <trkpt lat="43.54773" lon="6.74576">
        <ele>349</ele>
        <time>2010-05-02T10:20:01Z</time>
      </trkpt>
      <trkpt lat="43.54772" lon="6.74566">
        <ele>349</ele>
        <time>2010-05-02T10:20:02Z</time>
      </trkpt>
      <trkpt lat="43.54771" lon="6.74556">
        <ele>348</ele>
        <time>2010-05-02T10:20:03Z</time>
      </trkpt>
      <trkpt lat="43.54769" lon="6.74547">
        <ele>348</ele>
        <time>2010-05-02T10:20:04Z</time>
      </trkpt>
      <trkpt lat="43.54766" lon="6.74537">
        <ele>347</ele>
        <time>2010-05-02T10:20:05Z</time>
      </trkpt>
      <trkpt lat="43.54764" lon="6.74528">
        <ele>347</ele>
        <time>2010-05-02T10:20:06Z</time>
      </trkpt>
      <trkpt lat="43.54761" lon="6.74519">
        <ele>346</ele>
        <time>2010-05-02T10:20:07Z</time>
      </trkpt>
      <trkpt lat="43.54757" lon="6.7451">
        <ele>346</ele>
        <time>2010-05-02T10:20:08Z</time>
      </trkpt>
      <trkpt lat="43.54747" lon="6.74483">
        <ele>345</ele>
        <time>2010-05-02T10:20:11Z</time>
      </trkpt>
      <trkpt lat="43.54743" lon="6.74476">
        <ele>345</ele>
        <time>2010-05-02T10:20:12Z</time>
      </trkpt>
      <trkpt lat="43.54739" lon="6.7447">
        <ele>344</ele>
        <time>2010-05-02T10:20:13Z</time>
      </trkpt>
      <trkpt lat="43.54734" lon="6.74466">
        <ele>344</ele>
        <time>2010-05-02T10:20:14Z</time>
      </trkpt>
      <trkpt lat="43.54728" lon="6.74465">
        <ele>344</ele>
        <time>2010-05-02T10:20:15Z</time>
      </trkpt>
      <trkpt lat="43.54723" lon="6.74464">
        <ele>344</ele>
        <time>2010-05-02T10:20:16Z</time>
      </trkpt>
      <trkpt lat="43.54713" lon="6.74467">
        <ele>344</ele>
        <time>2010-05-02T10:20:18Z</time>
      </trkpt>
      <trkpt lat="43.54708" lon="6.74468">
        <ele>344</ele>
        <time>2010-05-02T10:20:19Z</time>
      </trkpt>
      <trkpt lat="43.54703" lon="6.74465">
        <ele>344</ele>
        <time>2010-05-02T10:20:20Z</time>
      </trkpt>
      <trkpt lat="43.54699" lon="6.7446">
        <ele>343</ele>
        <time>2010-05-02T10:20:21Z</time>
      </trkpt>
      <trkpt lat="43.54696" lon="6.74439">
        <ele>342</ele>
        <time>2010-05-02T10:20:24Z</time>
      </trkpt>
      <trkpt lat="43.54697" lon="6.74431">
        <ele>342</ele>
        <time>2010-05-02T10:20:25Z</time>
      </trkpt>
      <trkpt lat="43.54698" lon="6.74423">
        <ele>342</ele>
        <time>2010-05-02T10:20:26Z</time>
      </trkpt>
      <trkpt lat="43.547" lon="6.74414">
        <ele>342</ele>
        <time>2010-05-02T10:20:27Z</time>
      </trkpt>
      <trkpt lat="43.54702" lon="6.74406">
        <ele>342</ele>
        <time>2010-05-02T10:20:28Z</time>
      </trkpt>
      <trkpt lat="43.54705" lon="6.74396">
        <ele>342</ele>
        <time>2010-05-02T10:20:29Z</time>
      </trkpt>
      <trkpt lat="43.54706" lon="6.74387">
        <ele>342</ele>
        <time>2010-05-02T10:20:30Z</time>
      </trkpt>
      <trkpt lat="43.54708" lon="6.74379">
        <ele>341</ele>
        <time>2010-05-02T10:20:31Z</time>
      </trkpt>
      <trkpt lat="43.54709" lon="6.7437">
        <ele>342</ele>
        <time>2010-05-02T10:20:32Z</time>
      </trkpt>
      <trkpt lat="43.54709" lon="6.7436">
        <ele>342</ele>
        <time>2010-05-02T10:20:33Z</time>
      </trkpt>
      <trkpt lat="43.54708" lon="6.7435">
        <ele>341</ele>
        <time>2010-05-02T10:20:34Z</time>
      </trkpt>
      <trkpt lat="43.54697" lon="6.74323">
        <ele>340</ele>
        <time>2010-05-02T10:20:37Z</time>
      </trkpt>
      <trkpt lat="43.54692" lon="6.74316">
        <ele>339</ele>
        <time>2010-05-02T10:20:38Z</time>
      </trkpt>
      <trkpt lat="43.54689" lon="6.7431">
        <ele>339</ele>
        <time>2010-05-02T10:20:39Z</time>
      </trkpt>
      <trkpt lat="43.54688" lon="6.74302">
        <ele>338</ele>
        <time>2010-05-02T10:20:40Z</time>
      </trkpt>
      <trkpt lat="43.54689" lon="6.74293">
        <ele>338</ele>
        <time>2010-05-02T10:20:41Z</time>
      </trkpt>
      <trkpt lat="43.54693" lon="6.74287">
        <ele>339</ele>
        <time>2010-05-02T10:20:42Z</time>
      </trkpt>
      <trkpt lat="43.54697" lon="6.74282">
        <ele>338</ele>
        <time>2010-05-02T10:20:43Z</time>
      </trkpt>
      <trkpt lat="43.54706" lon="6.74278">
        <ele>339</ele>
        <time>2010-05-02T10:20:45Z</time>
      </trkpt>
      <trkpt lat="43.54713" lon="6.74274">
        <ele>339</ele>
        <time>2010-05-02T10:20:46Z</time>
      </trkpt>
      <trkpt lat="43.54719" lon="6.74269">
        <ele>339</ele>
        <time>2010-05-02T10:20:47Z</time>
      </trkpt>
      <trkpt lat="43.54725" lon="6.74263">
        <ele>339</ele>
        <time>2010-05-02T10:20:48Z</time>
      </trkpt>
      <trkpt lat="43.5473" lon="6.74256">
        <ele>338</ele>
        <time>2010-05-02T10:20:49Z</time>
      </trkpt>
      <trkpt lat="43.54736" lon="6.74247">
        <ele>337</ele>
        <time>2010-05-02T10:20:50Z</time>
      </trkpt>
      <trkpt lat="43.54739" lon="6.74237">
        <ele>336</ele>
        <time>2010-05-02T10:20:51Z</time>
      </trkpt>
      <trkpt lat="43.54739" lon="6.74227">
        <ele>336</ele>
        <time>2010-05-02T10:20:52Z</time>
      </trkpt>
      <trkpt lat="43.54737" lon="6.74216">
        <ele>335</ele>
        <time>2010-05-02T10:20:53Z</time>
      </trkpt>
      <trkpt lat="43.54735" lon="6.74207">
        <ele>334</ele>
        <time>2010-05-02T10:20:54Z</time>
      </trkpt>
      <trkpt lat="43.54732" lon="6.74198">
        <ele>333</ele>
        <time>2010-05-02T10:20:55Z</time>
      </trkpt>
      <trkpt lat="43.54716" lon="6.7418">
        <ele>331</ele>
        <time>2010-05-02T10:20:58Z</time>
      </trkpt>
      <trkpt lat="43.5471" lon="6.74175">
        <ele>331</ele>
        <time>2010-05-02T10:20:59Z</time>
      </trkpt>
      <trkpt lat="43.54704" lon="6.74169">
        <ele>331</ele>
        <time>2010-05-02T10:21:00Z</time>
      </trkpt>
      <trkpt lat="43.547" lon="6.7416">
        <ele>330</ele>
        <time>2010-05-02T10:21:01Z</time>
      </trkpt>
      <trkpt lat="43.54696" lon="6.74152">
        <ele>330</ele>
        <time>2010-05-02T10:21:02Z</time>
      </trkpt>
      <trkpt lat="43.54691" lon="6.74145">
        <ele>330</ele>
        <time>2010-05-02T10:21:03Z</time>
      </trkpt>
      <trkpt lat="43.54685" lon="6.74141">
        <ele>329</ele>
        <time>2010-05-02T10:21:04Z</time>
      </trkpt>
      <trkpt lat="43.54678" lon="6.74139">
        <ele>329</ele>
        <time>2010-05-02T10:21:05Z</time>
      </trkpt>
      <trkpt lat="43.54671" lon="6.74141">
        <ele>328</ele>
        <time>2010-05-02T10:21:06Z</time>
      </trkpt>
      <trkpt lat="43.54665" lon="6.74142">
        <ele>328</ele>
        <time>2010-05-02T10:21:07Z</time>
      </trkpt>
      <trkpt lat="43.54658" lon="6.74142">
        <ele>328</ele>
        <time>2010-05-02T10:21:08Z</time>
      </trkpt>
      <trkpt lat="43.54638" lon="6.74148">
        <ele>327</ele>
        <time>2010-05-02T10:21:11Z</time>
      </trkpt>
      <trkpt lat="43.54632" lon="6.74152">
        <ele>327</ele>
        <time>2010-05-02T10:21:12Z</time>
      </trkpt>
      <trkpt lat="43.54627" lon="6.74158">
        <ele>327</ele>
        <time>2010-05-02T10:21:13Z</time>
      </trkpt>
      <trkpt lat="43.54622" lon="6.74161">
        <ele>327</ele>
        <time>2010-05-02T10:21:14Z</time>
      </trkpt>
      <trkpt lat="43.54615" lon="6.74161">
        <ele>327</ele>
        <time>2010-05-02T10:21:15Z</time>
      </trkpt>
      <trkpt lat="43.54609" lon="6.74162">
        <ele>327</ele>
        <time>2010-05-02T10:21:16Z</time>
      </trkpt>
      <trkpt lat="43.54602" lon="6.74163">
        <ele>326</ele>
        <time>2010-05-02T10:21:17Z</time>
      </trkpt>
      <trkpt lat="43.54595" lon="6.74165">
        <ele>325</ele>
        <time>2010-05-02T10:21:18Z</time>
      </trkpt>
      <trkpt lat="43.54588" lon="6.74168">
        <ele>324</ele>
        <time>2010-05-02T10:21:19Z</time>
      </trkpt>
      <trkpt lat="43.54581" lon="6.74172">
        <ele>324</ele>
        <time>2010-05-02T10:21:20Z</time>
      </trkpt>
      <trkpt lat="43.54573" lon="6.74174">
        <ele>324</ele>
        <time>2010-05-02T10:21:21Z</time>
      </trkpt>
      <trkpt lat="43.5455" lon="6.74187">
        <ele>322</ele>
        <time>2010-05-02T10:21:24Z</time>
      </trkpt>
      <trkpt lat="43.54543" lon="6.74194">
        <ele>322</ele>
        <time>2010-05-02T10:21:25Z</time>
      </trkpt>
      <trkpt lat="43.54536" lon="6.742">
        <ele>322</ele>
        <time>2010-05-02T10:21:26Z</time>
      </trkpt>
      <trkpt lat="43.54529" lon="6.74205">
        <ele>321</ele>
        <time>2010-05-02T10:21:27Z</time>
      </trkpt>
      <trkpt lat="43.54522" lon="6.74212">
        <ele>321</ele>
        <time>2010-05-02T10:21:28Z</time>
      </trkpt>
      <trkpt lat="43.54517" lon="6.74218">
        <ele>320</ele>
        <time>2010-05-02T10:21:29Z</time>
      </trkpt>
      <trkpt lat="43.54513" lon="6.74225">
        <ele>320</ele>
        <time>2010-05-02T10:21:30Z</time>
      </trkpt>
      <trkpt lat="43.54509" lon="6.74228">
        <ele>320</ele>
        <time>2010-05-02T10:21:31Z</time>
      </trkpt>
      <trkpt lat="43.54505" lon="6.74231">
        <ele>320</ele>
        <time>2010-05-02T10:21:32Z</time>
      </trkpt>
      <trkpt lat="43.54499" lon="6.74228">
        <ele>320</ele>
        <time>2010-05-02T10:21:34Z</time>
      </trkpt>
      <trkpt lat="43.54501" lon="6.7421">
        <ele>319</ele>
        <time>2010-05-02T10:21:37Z</time>
      </trkpt>
      <trkpt lat="43.54503" lon="6.74204">
        <ele>319</ele>
        <time>2010-05-02T10:21:38Z</time>
      </trkpt>
      <trkpt lat="43.54505" lon="6.74198">
        <ele>318</ele>
        <time>2010-05-02T10:21:39Z</time>
      </trkpt>
      <trkpt lat="43.54511" lon="6.74186">
        <ele>316</ele>
        <time>2010-05-02T10:21:41Z</time>
      </trkpt>
      <trkpt lat="43.54514" lon="6.7418">
        <ele>316</ele>
        <time>2010-05-02T10:21:42Z</time>
      </trkpt>
      <trkpt lat="43.54516" lon="6.74174">
        <ele>316</ele>
        <time>2010-05-02T10:21:43Z</time>
      </trkpt>
      <trkpt lat="43.54519" lon="6.7416">
        <ele>315</ele>
        <time>2010-05-02T10:21:45Z</time>
      </trkpt>
      <trkpt lat="43.54521" lon="6.74152">
        <ele>315</ele>
        <time>2010-05-02T10:21:46Z</time>
      </trkpt>
      <trkpt lat="43.54522" lon="6.74146">
        <ele>315</ele>
        <time>2010-05-02T10:21:47Z</time>
      </trkpt>
      <trkpt lat="43.54524" lon="6.74138">
        <ele>315</ele>
        <time>2010-05-02T10:21:48Z</time>
      </trkpt>
      <trkpt lat="43.54527" lon="6.74131">
        <ele>315</ele>
        <time>2010-05-02T10:21:49Z</time>
      </trkpt>
      <trkpt lat="43.54529" lon="6.74124">
        <ele>315</ele>
        <time>2010-05-02T10:21:50Z</time>
      </trkpt>
      <trkpt lat="43.54532" lon="6.74116">
        <ele>315</ele>
        <time>2010-05-02T10:21:51Z</time>
      </trkpt>
      <trkpt lat="43.54536" lon="6.74109">
        <ele>315</ele>
        <time>2010-05-02T10:21:52Z</time>
      </trkpt>
      <trkpt lat="43.5454" lon="6.74102">
        <ele>315</ele>
        <time>2010-05-02T10:21:53Z</time>
      </trkpt>
      <trkpt lat="43.54543" lon="6.74094">
        <ele>316</ele>
        <time>2010-05-02T10:21:54Z</time>
      </trkpt>
      <trkpt lat="43.54546" lon="6.74087">
        <ele>316</ele>
        <time>2010-05-02T10:21:55Z</time>
      </trkpt>
      <trkpt lat="43.54559" lon="6.74066">
        <ele>316</ele>
        <time>2010-05-02T10:21:58Z</time>
      </trkpt>
      <trkpt lat="43.54564" lon="6.74058">
        <ele>316</ele>
        <time>2010-05-02T10:21:59Z</time>
      </trkpt>
      <trkpt lat="43.54567" lon="6.74053">
        <ele>317</ele>
        <time>2010-05-02T10:22:00Z</time>
      </trkpt>
      <trkpt lat="43.54572" lon="6.74046">
        <ele>317</ele>
        <time>2010-05-02T10:22:01Z</time>
      </trkpt>
      <trkpt lat="43.54576" lon="6.74039">
        <ele>317</ele>
        <time>2010-05-02T10:22:02Z</time>
      </trkpt>
      <trkpt lat="43.5458" lon="6.74032">
        <ele>318</ele>
        <time>2010-05-02T10:22:03Z</time>
      </trkpt>
      <trkpt lat="43.54585" lon="6.74025">
        <ele>318</ele>
        <time>2010-05-02T10:22:04Z</time>
      </trkpt>
      <trkpt lat="43.5459" lon="6.74017">
        <ele>318</ele>
        <time>2010-05-02T10:22:05Z</time>
      </trkpt>
      <trkpt lat="43.54594" lon="6.74009">
        <ele>318</ele>
        <time>2010-05-02T10:22:06Z</time>
      </trkpt>
      <trkpt lat="43.546" lon="6.74001">
        <ele>318</ele>
        <time>2010-05-02T10:22:07Z</time>
      </trkpt>
      <trkpt lat="43.54604" lon="6.73994">
        <ele>318</ele>
        <time>2010-05-02T10:22:08Z</time>
      </trkpt>
      <trkpt lat="43.54621" lon="6.73979">
        <ele>318</ele>
        <time>2010-05-02T10:22:11Z</time>
      </trkpt>
      <trkpt lat="43.54627" lon="6.73974">
        <ele>317</ele>
        <time>2010-05-02T10:22:12Z</time>
      </trkpt>
      <trkpt lat="43.54632" lon="6.73969">
        <ele>317</ele>
        <time>2010-05-02T10:22:13Z</time>
      </trkpt>
      <trkpt lat="43.54638" lon="6.73963">
        <ele>316</ele>
        <time>2010-05-02T10:22:14Z</time>
      </trkpt>
      <trkpt lat="43.54643" lon="6.73957">
        <ele>316</ele>
        <time>2010-05-02T10:22:15Z</time>
      </trkpt>
      <trkpt lat="43.54648" lon="6.73951">
        <ele>315</ele>
        <time>2010-05-02T10:22:16Z</time>
      </trkpt>
      <trkpt lat="43.54653" lon="6.73945">
        <ele>315</ele>
        <time>2010-05-02T10:22:17Z</time>
      </trkpt>
      <trkpt lat="43.54658" lon="6.7394">
        <ele>315</ele>
        <time>2010-05-02T10:22:18Z</time>
      </trkpt>
      <trkpt lat="43.54662" lon="6.73934">
        <ele>314</ele>
        <time>2010-05-02T10:22:19Z</time>
      </trkpt>
      <trkpt lat="43.54667" lon="6.73928">
        <ele>314</ele>
        <time>2010-05-02T10:22:20Z</time>
      </trkpt>
      <trkpt lat="43.54671" lon="6.73923">
        <ele>314</ele>
        <time>2010-05-02T10:22:21Z</time>
      </trkpt>
      <trkpt lat="43.54686" lon="6.7391">
        <ele>313</ele>
        <time>2010-05-02T10:22:24Z</time>
      </trkpt>
      <trkpt lat="43.54692" lon="6.73905">
        <ele>313</ele>
        <time>2010-05-02T10:22:25Z</time>
      </trkpt>
      <trkpt lat="43.54697" lon="6.73901">
        <ele>312</ele>
        <time>2010-05-02T10:22:26Z</time>
      </trkpt>
      <trkpt lat="43.54703" lon="6.73896">
        <ele>312</ele>
        <time>2010-05-02T10:22:27Z</time>
      </trkpt>
      <trkpt lat="43.54707" lon="6.73892">
        <ele>311</ele>
        <time>2010-05-02T10:22:28Z</time>
      </trkpt>
      <trkpt lat="43.54712" lon="6.73887">
        <ele>311</ele>
        <time>2010-05-02T10:22:29Z</time>
      </trkpt>
      <trkpt lat="43.54717" lon="6.73882">
        <ele>311</ele>
        <time>2010-05-02T10:22:30Z</time>
      </trkpt>
      <trkpt lat="43.54721" lon="6.73879">
        <ele>311</ele>
        <time>2010-05-02T10:22:31Z</time>
      </trkpt>
      <trkpt lat="43.54726" lon="6.73876">
        <ele>311</ele>
        <time>2010-05-02T10:22:32Z</time>
      </trkpt>
      <trkpt lat="43.5473" lon="6.73872">
        <ele>311</ele>
        <time>2010-05-02T10:22:33Z</time>
      </trkpt>
      <trkpt lat="43.54734" lon="6.73868">
        <ele>311</ele>
        <time>2010-05-02T10:22:34Z</time>
      </trkpt>
      <trkpt lat="43.54745" lon="6.73854">
        <ele>311</ele>
        <time>2010-05-02T10:22:37Z</time>
      </trkpt>
      <trkpt lat="43.54748" lon="6.73848">
        <ele>311</ele>
        <time>2010-05-02T10:22:38Z</time>
      </trkpt>
      <trkpt lat="43.5475" lon="6.73842">
        <ele>311</ele>
        <time>2010-05-02T10:22:39Z</time>
      </trkpt>
      <trkpt lat="43.54752" lon="6.73831">
        <ele>310</ele>
        <time>2010-05-02T10:22:41Z</time>
      </trkpt>
      <trkpt lat="43.54754" lon="6.7382">
        <ele>310</ele>
        <time>2010-05-02T10:22:43Z</time>
      </trkpt>
      <trkpt lat="43.54757" lon="6.73809">
        <ele>310</ele>
        <time>2010-05-02T10:22:45Z</time>
      </trkpt>
      <trkpt lat="43.54761" lon="6.73801">
        <ele>310</ele>
        <time>2010-05-02T10:22:47Z</time>
      </trkpt>
      <trkpt lat="43.54766" lon="6.73796">
        <ele>311</ele>
        <time>2010-05-02T10:22:49Z</time>
      </trkpt>
      <trkpt lat="43.54771" lon="6.73792">
        <ele>311</ele>
        <time>2010-05-02T10:22:51Z</time>
      </trkpt>
      <trkpt lat="43.54778" lon="6.73788">
        <ele>312</ele>
        <time>2010-05-02T10:22:53Z</time>
      </trkpt>
      <trkpt lat="43.54785" lon="6.73783">
        <ele>312</ele>
        <time>2010-05-02T10:22:55Z</time>
      </trkpt>
      <trkpt lat="43.5479" lon="6.73777">
        <ele>312</ele>
        <time>2010-05-02T10:22:57Z</time>
      </trkpt>
      <trkpt lat="43.54794" lon="6.73764">
        <ele>313</ele>
        <time>2010-05-02T10:23:00Z</time>
      </trkpt>
      <trkpt lat="43.54795" lon="6.73756">
        <ele>313</ele>
        <time>2010-05-02T10:23:02Z</time>
      </trkpt>
      <trkpt lat="43.54796" lon="6.73748">
        <ele>313</ele>
        <time>2010-05-02T10:23:04Z</time>
      </trkpt>
      <trkpt lat="43.54797" lon="6.7374">
        <ele>314</ele>
        <time>2010-05-02T10:23:06Z</time>
      </trkpt>
      <trkpt lat="43.54796" lon="6.73732">
        <ele>314</ele>
        <time>2010-05-02T10:23:08Z</time>
      </trkpt>
      <trkpt lat="43.54794" lon="6.73724">
        <ele>315</ele>
        <time>2010-05-02T10:23:10Z</time>
      </trkpt>
      <trkpt lat="43.54794" lon="6.73711">
        <ele>315</ele>
        <time>2010-05-02T10:23:13Z</time>
      </trkpt>
      <trkpt lat="43.54795" lon="6.73704">
        <ele>316</ele>
        <time>2010-05-02T10:23:15Z</time>
      </trkpt>
      <trkpt lat="43.54797" lon="6.73696">
        <ele>316</ele>
        <time>2010-05-02T10:23:17Z</time>
      </trkpt>
      <trkpt lat="43.54799" lon="6.73687">
        <ele>317</ele>
        <time>2010-05-02T10:23:19Z</time>
      </trkpt>
      <trkpt lat="43.54802" lon="6.73679">
        <ele>317</ele>
        <time>2010-05-02T10:23:21Z</time>
      </trkpt>
      <trkpt lat="43.54805" lon="6.73671">
        <ele>318</ele>
        <time>2010-05-02T10:23:23Z</time>
      </trkpt>
      <trkpt lat="43.54808" lon="6.73658">
        <ele>319</ele>
        <time>2010-05-02T10:23:26Z</time>
      </trkpt>
      <trkpt lat="43.54808" lon="6.73649">
        <ele>318</ele>
        <time>2010-05-02T10:23:28Z</time>
      </trkpt>
      <trkpt lat="43.54808" lon="6.73639">
        <ele>318</ele>
        <time>2010-05-02T10:23:30Z</time>
      </trkpt>
      <trkpt lat="43.54808" lon="6.7363">
        <ele>318</ele>
        <time>2010-05-02T10:23:32Z</time>
      </trkpt>
      <trkpt lat="43.54806" lon="6.73622">
        <ele>317</ele>
        <time>2010-05-02T10:23:34Z</time>
      </trkpt>
      <trkpt lat="43.54805" lon="6.73616">
        <ele>317</ele>
        <time>2010-05-02T10:23:36Z</time>
      </trkpt>
      <trkpt lat="43.54802" lon="6.7361">
        <ele>317</ele>
        <time>2010-05-02T10:23:39Z</time>
      </trkpt>
      <trkpt lat="43.54801" lon="6.73608">
        <ele>318</ele>
        <time>2010-05-02T10:23:45Z</time>
      </trkpt>
      <trkpt lat="43.54802" lon="6.73605">
        <ele>316</ele>
        <time>2010-05-02T10:26:40Z</time>
      </trkpt>
      <trkpt lat="43.54802" lon="6.73595">
        <ele>315</ele>
        <time>2010-05-02T10:26:41Z</time>
      </trkpt>
      <trkpt lat="43.548" lon="6.73587">
        <ele>315</ele>
        <time>2010-05-02T10:26:43Z</time>
      </trkpt>
      <trkpt lat="43.54798" lon="6.73579">
        <ele>316</ele>
        <time>2010-05-02T10:26:45Z</time>
      </trkpt>
      <trkpt lat="43.54795" lon="6.73572">
        <ele>316</ele>
        <time>2010-05-02T10:26:47Z</time>
      </trkpt>
      <trkpt lat="43.54793" lon="6.73565">
        <ele>316</ele>
        <time>2010-05-02T10:26:49Z</time>
      </trkpt>
      <trkpt lat="43.54791" lon="6.73557">
        <ele>316</ele>
        <time>2010-05-02T10:26:51Z</time>
      </trkpt>
      <trkpt lat="43.54787" lon="6.7355">
        <ele>316</ele>
        <time>2010-05-02T10:26:53Z</time>
      </trkpt>
      <trkpt lat="43.54783" lon="6.73542">
        <ele>316</ele>
        <time>2010-05-02T10:26:55Z</time>
      </trkpt>
      <trkpt lat="43.54777" lon="6.73528">
        <ele>317</ele>
        <time>2010-05-02T10:26:58Z</time>
      </trkpt>
      <trkpt lat="43.54773" lon="6.73518">
        <ele>317</ele>
        <time>2010-05-02T10:27:00Z</time>
      </trkpt>
      <trkpt lat="43.5477" lon="6.73507">
        <ele>317</ele>
        <time>2010-05-02T10:27:02Z</time>
      </trkpt>
      <trkpt lat="43.54766" lon="6.73497">
        <ele>317</ele>
        <time>2010-05-02T10:27:04Z</time>
      </trkpt>
      <trkpt lat="43.54762" lon="6.73486">
        <ele>317</ele>
        <time>2010-05-02T10:27:06Z</time>
      </trkpt>
      <trkpt lat="43.54759" lon="6.7348">
        <ele>317</ele>
        <time>2010-05-02T10:27:07Z</time>
      </trkpt>
      <trkpt lat="43.54756" lon="6.73475">
        <ele>317</ele>
        <time>2010-05-02T10:27:08Z</time>
      </trkpt>
      <trkpt lat="43.54747" lon="6.7346">
        <ele>318</ele>
        <time>2010-05-02T10:27:11Z</time>
      </trkpt>
      <trkpt lat="43.54741" lon="6.73451">
        <ele>318</ele>
        <time>2010-05-02T10:27:13Z</time>
      </trkpt>
      <trkpt lat="43.54737" lon="6.73447">
        <ele>317</ele>
        <time>2010-05-02T10:27:14Z</time>
      </trkpt>
      <trkpt lat="43.54734" lon="6.73442">
        <ele>317</ele>
        <time>2010-05-02T10:27:15Z</time>
      </trkpt>
      <trkpt lat="43.5473" lon="6.73437">
        <ele>317</ele>
        <time>2010-05-02T10:27:16Z</time>
      </trkpt>
      <trkpt lat="43.54727" lon="6.73431">
        <ele>317</ele>
        <time>2010-05-02T10:27:17Z</time>
      </trkpt>
      <trkpt lat="43.54724" lon="6.73425">
        <ele>317</ele>
        <time>2010-05-02T10:27:18Z</time>
      </trkpt>
      <trkpt lat="43.54721" lon="6.73418">
        <ele>317</ele>
        <time>2010-05-02T10:27:19Z</time>
      </trkpt>
      <trkpt lat="43.54719" lon="6.7341">
        <ele>316</ele>
        <time>2010-05-02T10:27:20Z</time>
      </trkpt>
      <trkpt lat="43.54716" lon="6.73402">
        <ele>316</ele>
        <time>2010-05-02T10:27:21Z</time>
      </trkpt>
      <trkpt lat="43.5471" lon="6.73373">
        <ele>316</ele>
        <time>2010-05-02T10:27:24Z</time>
      </trkpt>
      <trkpt lat="43.54709" lon="6.73365">
        <ele>316</ele>
        <time>2010-05-02T10:27:25Z</time>
      </trkpt>
      <trkpt lat="43.54708" lon="6.73356">
        <ele>316</ele>
        <time>2010-05-02T10:27:26Z</time>
      </trkpt>
      <trkpt lat="43.54707" lon="6.73347">
        <ele>315</ele>
        <time>2010-05-02T10:27:27Z</time>
      </trkpt>
      <trkpt lat="43.54706" lon="6.73337">
        <ele>315</ele>
        <time>2010-05-02T10:27:28Z</time>
      </trkpt>
      <trkpt lat="43.54704" lon="6.73327">
        <ele>315</ele>
        <time>2010-05-02T10:27:29Z</time>
      </trkpt>
      <trkpt lat="43.54702" lon="6.73317">
        <ele>315</ele>
        <time>2010-05-02T10:27:30Z</time>
      </trkpt>
      <trkpt lat="43.54699" lon="6.73306">
        <ele>315</ele>
        <time>2010-05-02T10:27:31Z</time>
      </trkpt>
      <trkpt lat="43.54697" lon="6.73295">
        <ele>315</ele>
        <time>2010-05-02T10:27:32Z</time>
      </trkpt>
      <trkpt lat="43.54695" lon="6.73284">
        <ele>315</ele>
        <time>2010-05-02T10:27:33Z</time>
      </trkpt>
      <trkpt lat="43.54692" lon="6.73274">
        <ele>315</ele>
        <time>2010-05-02T10:27:34Z</time>
      </trkpt>
      <trkpt lat="43.54687" lon="6.73238">
        <ele>313</ele>
        <time>2010-05-02T10:27:37Z</time>
      </trkpt>
      <trkpt lat="43.54688" lon="6.73227">
        <ele>312</ele>
        <time>2010-05-02T10:27:38Z</time>
      </trkpt>
      <trkpt lat="43.54689" lon="6.73216">
        <ele>312</ele>
        <time>2010-05-02T10:27:39Z</time>
      </trkpt>
      <trkpt lat="43.54692" lon="6.73204">
        <ele>312</ele>
        <time>2010-05-02T10:27:40Z</time>
      </trkpt>
      <trkpt lat="43.54695" lon="6.73194">
        <ele>311</ele>
        <time>2010-05-02T10:27:41Z</time>
      </trkpt>
      <trkpt lat="43.54697" lon="6.73183">
        <ele>311</ele>
        <time>2010-05-02T10:27:42Z</time>
      </trkpt>
      <trkpt lat="43.54698" lon="6.73174">
        <ele>311</ele>
        <time>2010-05-02T10:27:43Z</time>
      </trkpt>
      <trkpt lat="43.54696" lon="6.73167">
        <ele>311</ele>
        <time>2010-05-02T10:27:44Z</time>
      </trkpt>
      <trkpt lat="43.54694" lon="6.73159">
        <ele>311</ele>
        <time>2010-05-02T10:27:45Z</time>
      </trkpt>
      <trkpt lat="43.54691" lon="6.73151">
        <ele>311</ele>
        <time>2010-05-02T10:27:46Z</time>
      </trkpt>
      <trkpt lat="43.54689" lon="6.73143">
        <ele>311</ele>
        <time>2010-05-02T10:27:47Z</time>
      </trkpt>
      <trkpt lat="43.54686" lon="6.73136">
        <ele>311</ele>
        <time>2010-05-02T10:27:48Z</time>
      </trkpt>
      <trkpt lat="43.54681" lon="6.73126">
        <ele>311</ele>
        <time>2010-05-02T10:27:50Z</time>
      </trkpt>
      <trkpt lat="43.54676" lon="6.73118">
        <ele>312</ele>
        <time>2010-05-02T10:27:52Z</time>
      </trkpt>
      <trkpt lat="43.54673" lon="6.73107">
        <ele>312</ele>
        <time>2010-05-02T10:27:54Z</time>
      </trkpt>
      <trkpt lat="43.54665" lon="6.73093">
        <ele>313</ele>
        <time>2010-05-02T10:27:57Z</time>
      </trkpt>
      <trkpt lat="43.54661" lon="6.73084">
        <ele>313</ele>
        <time>2010-05-02T10:27:59Z</time>
      </trkpt>
      <trkpt lat="43.54657" lon="6.73076">
        <ele>313</ele>
        <time>2010-05-02T10:28:01Z</time>
      </trkpt>
      <trkpt lat="43.54653" lon="6.73068">
        <ele>314</ele>
        <time>2010-05-02T10:28:03Z</time>
      </trkpt>
      <trkpt lat="43.5465" lon="6.7306">
        <ele>314</ele>
        <time>2010-05-02T10:28:05Z</time>
      </trkpt>
      <trkpt lat="43.54645" lon="6.7305">
        <ele>314</ele>
        <time>2010-05-02T10:28:07Z</time>
      </trkpt>
      <trkpt lat="43.54639" lon="6.73038">
        <ele>316</ele>
        <time>2010-05-02T10:28:10Z</time>
      </trkpt>
      <trkpt lat="43.54634" lon="6.7303">
        <ele>317</ele>
        <time>2010-05-02T10:28:12Z</time>
      </trkpt>
      <trkpt lat="43.54631" lon="6.73022">
        <ele>318</ele>
        <time>2010-05-02T10:28:14Z</time>
      </trkpt>
      <trkpt lat="43.54627" lon="6.73015">
        <ele>319</ele>
        <time>2010-05-02T10:28:16Z</time>
      </trkpt>
      <trkpt lat="43.54624" lon="6.73007">
        <ele>319</ele>
        <time>2010-05-02T10:28:18Z</time>
      </trkpt>
      <trkpt lat="43.54618" lon="6.72997">
        <ele>319</ele>
        <time>2010-05-02T10:28:20Z</time>
      </trkpt>
      <trkpt lat="43.54612" lon="6.72974">
        <ele>319</ele>
        <time>2010-05-02T10:28:23Z</time>
      </trkpt>
      <trkpt lat="43.5461" lon="6.72967">
        <ele>318</ele>
        <time>2010-05-02T10:28:24Z</time>
      </trkpt>
      <trkpt lat="43.54608" lon="6.7296">
        <ele>318</ele>
        <time>2010-05-02T10:28:25Z</time>
      </trkpt>
      <trkpt lat="43.54606" lon="6.72953">
        <ele>317</ele>
        <time>2010-05-02T10:28:26Z</time>
      </trkpt>
      <trkpt lat="43.54604" lon="6.72947">
        <ele>317</ele>
        <time>2010-05-02T10:28:27Z</time>
      </trkpt>
      <trkpt lat="43.54601" lon="6.72938">
        <ele>315</ele>
        <time>2010-05-02T10:28:29Z</time>
      </trkpt>
      <trkpt lat="43.54599" lon="6.72931">
        <ele>315</ele>
        <time>2010-05-02T10:28:32Z</time>
      </trkpt>
      <trkpt lat="43.54596" lon="6.72925">
        <ele>314</ele>
        <time>2010-05-02T10:28:39Z</time>
      </trkpt>
      <trkpt lat="43.54595" lon="6.72924">
        <ele>314</ele>
        <time>2010-05-02T10:28:41Z</time>
      </trkpt>
      <trkpt lat="43.54594" lon="6.72919">
        <ele>313</ele>
        <time>2010-05-02T10:29:04Z</time>
      </trkpt>
      <trkpt lat="43.54594" lon="6.72918">
        <ele>313</ele>
        <time>2010-05-02T10:29:05Z</time>
      </trkpt>
      <trkpt lat="43.54594" lon="6.72918">
        <ele>313</ele>
        <time>2010-05-02T10:29:05Z</time>
      </trkpt>
      <trkpt lat="43.54593" lon="6.72918">
        <ele>312</ele>
        <time>2010-05-02T10:29:53Z</time>
      </trkpt>
      <trkpt lat="43.54589" lon="6.72911">
        <ele>311</ele>
        <time>2010-05-02T10:29:54Z</time>
      </trkpt>
      <trkpt lat="43.54584" lon="6.72897">
        <ele>311</ele>
        <time>2010-05-02T10:29:57Z</time>
      </trkpt>
      <trkpt lat="43.54582" lon="6.72891">
        <ele>311</ele>
        <time>2010-05-02T10:29:58Z</time>
      </trkpt>
      <trkpt lat="43.54579" lon="6.72884">
        <ele>310</ele>
        <time>2010-05-02T10:29:59Z</time>
      </trkpt>
      <trkpt lat="43.54574" lon="6.72875">
        <ele>309</ele>
        <time>2010-05-02T10:30:00Z</time>
      </trkpt>
      <trkpt lat="43.54573" lon="6.72866">
        <ele>308</ele>
        <time>2010-05-02T10:30:01Z</time>
      </trkpt>
      <trkpt lat="43.54573" lon="6.72857">
        <ele>308</ele>
        <time>2010-05-02T10:30:02Z</time>
      </trkpt>
      <trkpt lat="43.54574" lon="6.72848">
        <ele>308</ele>
        <time>2010-05-02T10:30:03Z</time>
      </trkpt>
      <trkpt lat="43.54576" lon="6.72839">
        <ele>308</ele>
        <time>2010-05-02T10:30:04Z</time>
      </trkpt>
      <trkpt lat="43.54579" lon="6.72829">
        <ele>308</ele>
        <time>2010-05-02T10:30:05Z</time>
      </trkpt>
      <trkpt lat="43.5458" lon="6.72819">
        <ele>307</ele>
        <time>2010-05-02T10:30:06Z</time>
      </trkpt>
      <trkpt lat="43.54582" lon="6.72808">
        <ele>307</ele>
        <time>2010-05-02T10:30:07Z</time>
      </trkpt>
      <trkpt lat="43.54582" lon="6.72765">
        <ele>305</ele>
        <time>2010-05-02T10:30:11Z</time>
      </trkpt>
      <trkpt lat="43.54581" lon="6.72757">
        <ele>306</ele>
        <time>2010-05-02T10:30:12Z</time>
      </trkpt>
      <trkpt lat="43.54579" lon="6.7275">
        <ele>305</ele>
        <time>2010-05-02T10:30:13Z</time>
      </trkpt>
      <trkpt lat="43.54578" lon="6.7274">
        <ele>305</ele>
        <time>2010-05-02T10:30:14Z</time>
      </trkpt>
      <trkpt lat="43.54577" lon="6.72731">
        <ele>305</ele>
        <time>2010-05-02T10:30:15Z</time>
      </trkpt>
      <trkpt lat="43.54576" lon="6.72721">
        <ele>305</ele>
        <time>2010-05-02T10:30:16Z</time>
      </trkpt>
      <trkpt lat="43.54573" lon="6.72713">
        <ele>305</ele>
        <time>2010-05-02T10:30:17Z</time>
      </trkpt>
      <trkpt lat="43.5457" lon="6.72706">
        <ele>305</ele>
        <time>2010-05-02T10:30:18Z</time>
      </trkpt>
      <trkpt lat="43.54566" lon="6.72699">
        <ele>305</ele>
        <time>2010-05-02T10:30:19Z</time>
      </trkpt>
      <trkpt lat="43.54564" lon="6.72689">
        <ele>304</ele>
        <time>2010-05-02T10:30:21Z</time>
      </trkpt>
      <trkpt lat="43.54553" lon="6.7268">
        <ele>304</ele>
        <time>2010-05-02T10:30:24Z</time>
      </trkpt>
      <trkpt lat="43.54546" lon="6.72678">
        <ele>305</ele>
        <time>2010-05-02T10:30:26Z</time>
      </trkpt>
      <trkpt lat="43.54538" lon="6.72675">
        <ele>306</ele>
        <time>2010-05-02T10:30:28Z</time>
      </trkpt>
      <trkpt lat="43.54534" lon="6.72671">
        <ele>307</ele>
        <time>2010-05-02T10:30:30Z</time>
      </trkpt>
      <trkpt lat="43.54529" lon="6.72666">
        <ele>307</ele>
        <time>2010-05-02T10:30:32Z</time>
      </trkpt>
      <trkpt lat="43.54525" lon="6.72659">
        <ele>307</ele>
        <time>2010-05-02T10:30:34Z</time>
      </trkpt>
      <trkpt lat="43.54521" lon="6.72649">
        <ele>308</ele>
        <time>2010-05-02T10:30:37Z</time>
      </trkpt>
      <trkpt lat="43.5452" lon="6.72641">
        <ele>309</ele>
        <time>2010-05-02T10:30:40Z</time>
      </trkpt>
      <trkpt lat="43.54518" lon="6.72634">
        <ele>310</ele>
        <time>2010-05-02T10:30:45Z</time>
      </trkpt>
      <trkpt lat="43.54517" lon="6.72627">
        <ele>311</ele>
        <time>2010-05-02T10:30:48Z</time>
      </trkpt>
      <trkpt lat="43.54517" lon="6.7262">
        <ele>313</ele>
        <time>2010-05-02T10:30:51Z</time>
      </trkpt>
      <trkpt lat="43.54518" lon="6.72612">
        <ele>314</ele>
        <time>2010-05-02T10:30:55Z</time>
      </trkpt>
      <trkpt lat="43.54518" lon="6.72605">
        <ele>316</ele>
        <time>2010-05-02T10:30:58Z</time>
      </trkpt>
      <trkpt lat="43.54519" lon="6.72598">
        <ele>317</ele>
        <time>2010-05-02T10:31:01Z</time>
      </trkpt>
      <trkpt lat="43.54519" lon="6.72591">
        <ele>317</ele>
        <time>2010-05-02T10:31:04Z</time>
      </trkpt>
      <trkpt lat="43.54522" lon="6.72584">
        <ele>318</ele>
        <time>2010-05-02T10:31:07Z</time>
      </trkpt>
      <trkpt lat="43.54524" lon="6.72575">
        <ele>320</ele>
        <time>2010-05-02T10:31:11Z</time>
      </trkpt>
      <trkpt lat="43.54526" lon="6.72568">
        <ele>323</ele>
        <time>2010-05-02T10:31:16Z</time>
      </trkpt>
      <trkpt lat="43.54529" lon="6.72561">
        <ele>324</ele>
        <time>2010-05-02T10:31:20Z</time>
      </trkpt>
      <trkpt lat="43.54531" lon="6.72554">
        <ele>325</ele>
        <time>2010-05-02T10:31:24Z</time>
      </trkpt>
      <trkpt lat="43.54533" lon="6.72547">
        <ele>327</ele>
        <time>2010-05-02T10:31:27Z</time>
      </trkpt>
      <trkpt lat="43.54535" lon="6.72541">
        <ele>330</ele>
        <time>2010-05-02T10:31:31Z</time>
      </trkpt>
      <trkpt lat="43.54538" lon="6.72529">
        <ele>334</ele>
        <time>2010-05-02T10:31:37Z</time>
      </trkpt>
      <trkpt lat="43.54538" lon="6.7252">
        <ele>334</ele>
        <time>2010-05-02T10:31:40Z</time>
      </trkpt>
      <trkpt lat="43.54538" lon="6.72512">
        <ele>334</ele>
        <time>2010-05-02T10:31:43Z</time>
      </trkpt>
      <trkpt lat="43.54537" lon="6.72504">
        <ele>335</ele>
        <time>2010-05-02T10:31:46Z</time>
      </trkpt>
      <trkpt lat="43.54537" lon="6.72496">
        <ele>335</ele>
        <time>2010-05-02T10:31:49Z</time>
      </trkpt>
      <trkpt lat="43.54537" lon="6.72488">
        <ele>334</ele>
        <time>2010-05-02T10:31:52Z</time>
      </trkpt>
      <trkpt lat="43.54536" lon="6.72475">
        <ele>332</ele>
        <time>2010-05-02T10:31:57Z</time>
      </trkpt>
      <trkpt lat="43.54534" lon="6.72469">
        <ele>332</ele>
        <time>2010-05-02T10:32:00Z</time>
      </trkpt>
      <trkpt lat="43.54533" lon="6.72463">
        <ele>332</ele>
        <time>2010-05-02T10:32:03Z</time>
      </trkpt>
      <trkpt lat="43.54533" lon="6.72454">
        <ele>330</ele>
        <time>2010-05-02T10:32:06Z</time>
      </trkpt>
      <trkpt lat="43.54532" lon="6.72444">
        <ele>330</ele>
        <time>2010-05-02T10:32:10Z</time>
      </trkpt>
      <trkpt lat="43.54531" lon="6.72438">
        <ele>330</ele>
        <time>2010-05-02T10:32:14Z</time>
      </trkpt>
      <trkpt lat="43.5453" lon="6.72431">
        <ele>331</ele>
        <time>2010-05-02T10:32:17Z</time>
      </trkpt>
      <trkpt lat="43.54528" lon="6.72424">
        <ele>331</ele>
        <time>2010-05-02T10:32:20Z</time>
      </trkpt>
      <trkpt lat="43.54527" lon="6.72416">
        <ele>332</ele>
        <time>2010-05-02T10:32:24Z</time>
      </trkpt>
      <trkpt lat="43.54525" lon="6.72409">
        <ele>332</ele>
        <time>2010-05-02T10:32:27Z</time>
      </trkpt>
      <trkpt lat="43.54523" lon="6.72402">
        <ele>334</ele>
        <time>2010-05-02T10:32:32Z</time>
      </trkpt>
      <trkpt lat="43.54522" lon="6.72395">
        <ele>337</ele>
        <time>2010-05-02T10:32:38Z</time>
      </trkpt>
      <trkpt lat="43.54524" lon="6.72387">
        <ele>339</ele>
        <time>2010-05-02T10:32:42Z</time>
      </trkpt>
      <trkpt lat="43.54527" lon="6.7238">
        <ele>342</ele>
        <time>2010-05-02T10:32:46Z</time>
      </trkpt>
      <trkpt lat="43.54531" lon="6.72373">
        <ele>344</ele>
        <time>2010-05-02T10:32:49Z</time>
      </trkpt>
      <trkpt lat="43.54534" lon="6.72366">
        <ele>347</ele>
        <time>2010-05-02T10:32:52Z</time>
      </trkpt>
      <trkpt lat="43.54536" lon="6.7236">
        <ele>347</ele>
        <time>2010-05-02T10:32:55Z</time>
      </trkpt>
      <trkpt lat="43.54539" lon="6.72355">
        <ele>348</ele>
        <time>2010-05-02T10:32:58Z</time>
      </trkpt>
      <trkpt lat="43.54541" lon="6.72349">
        <ele>349</ele>
        <time>2010-05-02T10:33:02Z</time>
      </trkpt>
      <trkpt lat="43.54543" lon="6.72342">
        <ele>352</ele>
        <time>2010-05-02T10:33:07Z</time>
      </trkpt>
      <trkpt lat="43.54547" lon="6.72333">
        <ele>354</ele>
        <time>2010-05-02T10:33:11Z</time>
      </trkpt>
      <trkpt lat="43.5455" lon="6.72327">
        <ele>355</ele>
        <time>2010-05-02T10:33:14Z</time>
      </trkpt>
      <trkpt lat="43.54554" lon="6.72324">
        <ele>356</ele>
        <time>2010-05-02T10:33:16Z</time>
      </trkpt>
      <trkpt lat="43.54557" lon="6.72318">
        <ele>357</ele>
        <time>2010-05-02T10:33:18Z</time>
      </trkpt>
      <trkpt lat="43.54559" lon="6.7231">
        <ele>358</ele>
        <time>2010-05-02T10:33:21Z</time>
      </trkpt>
      <trkpt lat="43.54561" lon="6.72303">
        <ele>358</ele>
        <time>2010-05-02T10:33:24Z</time>
      </trkpt>
      <trkpt lat="43.54563" lon="6.72296">
        <ele>360</ele>
        <time>2010-05-02T10:33:27Z</time>
      </trkpt>
      <trkpt lat="43.54566" lon="6.7229">
        <ele>360</ele>
        <time>2010-05-02T10:33:31Z</time>
      </trkpt>
      <trkpt lat="43.54569" lon="6.72284">
        <ele>360</ele>
        <time>2010-05-02T10:33:34Z</time>
      </trkpt>
      <trkpt lat="43.54571" lon="6.72277">
        <ele>361</ele>
        <time>2010-05-02T10:33:37Z</time>
      </trkpt>
      <trkpt lat="43.54572" lon="6.72269">
        <ele>361</ele>
        <time>2010-05-02T10:33:40Z</time>
      </trkpt>
      <trkpt lat="43.54573" lon="6.7226">
        <ele>360</ele>
        <time>2010-05-02T10:33:43Z</time>
      </trkpt>
      <trkpt lat="43.54575" lon="6.72252">
        <ele>360</ele>
        <time>2010-05-02T10:33:46Z</time>
      </trkpt>
      <trkpt lat="43.54578" lon="6.72244">
        <ele>361</ele>
        <time>2010-05-02T10:33:50Z</time>
      </trkpt>
      <trkpt lat="43.5458" lon="6.72238">
        <ele>361</ele>
        <time>2010-05-02T10:33:54Z</time>
      </trkpt>
      <trkpt lat="43.54582" lon="6.72227">
        <ele>362</ele>
        <time>2010-05-02T10:33:58Z</time>
      </trkpt>
      <trkpt lat="43.54584" lon="6.7222">
        <ele>362</ele>
        <time>2010-05-02T10:34:01Z</time>
      </trkpt>
      <trkpt lat="43.54585" lon="6.72214">
        <ele>364</ele>
        <time>2010-05-02T10:34:06Z</time>
      </trkpt>
      <trkpt lat="43.54585" lon="6.72206">
        <ele>365</ele>
        <time>2010-05-02T10:34:11Z</time>
      </trkpt>
      <trkpt lat="43.54586" lon="6.72199">
        <ele>366</ele>
        <time>2010-05-02T10:34:15Z</time>
      </trkpt>
      <trkpt lat="43.54588" lon="6.72191">
        <ele>365</ele>
        <time>2010-05-02T10:34:19Z</time>
      </trkpt>
      <trkpt lat="43.54588" lon="6.72182">
        <ele>366</ele>
        <time>2010-05-02T10:34:24Z</time>
      </trkpt>
      <trkpt lat="43.54589" lon="6.72174">
        <ele>368</ele>
        <time>2010-05-02T10:34:30Z</time>
      </trkpt>
      <trkpt lat="43.54592" lon="6.72169">
        <ele>369</ele>
        <time>2010-05-02T10:34:33Z</time>
      </trkpt>
      <trkpt lat="43.54597" lon="6.72156">
        <ele>369</ele>
        <time>2010-05-02T10:34:37Z</time>
      </trkpt>
      <trkpt lat="43.54597" lon="6.72147">
        <ele>370</ele>
        <time>2010-05-02T10:34:40Z</time>
      </trkpt>
      <trkpt lat="43.54599" lon="6.7214">
        <ele>370</ele>
        <time>2010-05-02T10:34:43Z</time>
      </trkpt>
      <trkpt lat="43.54598" lon="6.7213">
        <ele>369</ele>
        <time>2010-05-02T10:34:46Z</time>
      </trkpt>
      <trkpt lat="43.54596" lon="6.72124">
        <ele>369</ele>
        <time>2010-05-02T10:34:48Z</time>
      </trkpt>
      <trkpt lat="43.54599" lon="6.72117">
        <ele>366</ele>
        <time>2010-05-02T10:34:49Z</time>
      </trkpt>
      <trkpt lat="43.54601" lon="6.72106">
        <ele>361</ele>
        <time>2010-05-02T10:34:50Z</time>
      </trkpt>
      <trkpt lat="43.54602" lon="6.72096">
        <ele>358</ele>
        <time>2010-05-02T10:34:52Z</time>
      </trkpt>
      <trkpt lat="43.54598" lon="6.72092">
        <ele>356</ele>
        <time>2010-05-02T10:34:58Z</time>
      </trkpt>
      <trkpt lat="43.54595" lon="6.72093">
        <ele>356</ele>
        <time>2010-05-02T10:35:02Z</time>
      </trkpt>
      <trkpt lat="43.54593" lon="6.72096">
        <ele>357</ele>
        <time>2010-05-02T10:35:07Z</time>
      </trkpt>
      <trkpt lat="43.5459" lon="6.72099">
        <ele>357</ele>
        <time>2010-05-02T10:35:10Z</time>
      </trkpt>
      <trkpt lat="43.54587" lon="6.72105">
        <ele>357</ele>
        <time>2010-05-02T10:35:15Z</time>
      </trkpt>
      <trkpt lat="43.54583" lon="6.72111">
        <ele>358</ele>
        <time>2010-05-02T10:35:20Z</time>
      </trkpt>
      <trkpt lat="43.54582" lon="6.72118">
        <ele>359</ele>
        <time>2010-05-02T10:35:25Z</time>
      </trkpt>
      <trkpt lat="43.54579" lon="6.72126">
        <ele>358</ele>
        <time>2010-05-02T10:35:29Z</time>
      </trkpt>
      <trkpt lat="43.54575" lon="6.72131">
        <ele>359</ele>
        <time>2010-05-02T10:35:33Z</time>
      </trkpt>
      <trkpt lat="43.54573" lon="6.72138">
        <ele>360</ele>
        <time>2010-05-02T10:35:38Z</time>
      </trkpt>
      <trkpt lat="43.54568" lon="6.72143">
        <ele>360</ele>
        <time>2010-05-02T10:35:42Z</time>
      </trkpt>
      <trkpt lat="43.54566" lon="6.72149">
        <ele>361</ele>
        <time>2010-05-02T10:35:45Z</time>
      </trkpt>
      <trkpt lat="43.54563" lon="6.72155">
        <ele>362</ele>
        <time>2010-05-02T10:35:50Z</time>
      </trkpt>
      <trkpt lat="43.54558" lon="6.72161">
        <ele>363</ele>
        <time>2010-05-02T10:35:53Z</time>
      </trkpt>
      <trkpt lat="43.54555" lon="6.72169">
        <ele>362</ele>
        <time>2010-05-02T10:35:57Z</time>
      </trkpt>
      <trkpt lat="43.54552" lon="6.72176">
        <ele>362</ele>
        <time>2010-05-02T10:36:01Z</time>
      </trkpt>
      <trkpt lat="43.54548" lon="6.72181">
        <ele>362</ele>
        <time>2010-05-02T10:36:05Z</time>
      </trkpt>
      <trkpt lat="43.54544" lon="6.72188">
        <ele>364</ele>
        <time>2010-05-02T10:36:10Z</time>
      </trkpt>
      <trkpt lat="43.54544" lon="6.72194">
        <ele>365</ele>
        <time>2010-05-02T10:36:13Z</time>
      </trkpt>
      <trkpt lat="43.54541" lon="6.722">
        <ele>365</ele>
        <time>2010-05-02T10:36:16Z</time>
      </trkpt>
      <trkpt lat="43.54537" lon="6.72206">
        <ele>365</ele>
        <time>2010-05-02T10:36:19Z</time>
      </trkpt>
      <trkpt lat="43.54533" lon="6.72212">
        <ele>364</ele>
        <time>2010-05-02T10:36:23Z</time>
      </trkpt>
      <trkpt lat="43.5453" lon="6.72217">
        <ele>365</ele>
        <time>2010-05-02T10:36:26Z</time>
      </trkpt>
      <trkpt lat="43.54526" lon="6.72223">
        <ele>366</ele>
        <time>2010-05-02T10:36:29Z</time>
      </trkpt>
      <trkpt lat="43.54522" lon="6.7223">
        <ele>368</ele>
        <time>2010-05-02T10:36:32Z</time>
      </trkpt>
      <trkpt lat="43.54518" lon="6.72237">
        <ele>369</ele>
        <time>2010-05-02T10:36:36Z</time>
      </trkpt>
      <trkpt lat="43.54514" lon="6.72241">
        <ele>368</ele>
        <time>2010-05-02T10:36:39Z</time>
      </trkpt>
      <trkpt lat="43.54509" lon="6.72245">
        <ele>368</ele>
        <time>2010-05-02T10:36:43Z</time>
      </trkpt>
      <trkpt lat="43.54505" lon="6.72249">
        <ele>368</ele>
        <time>2010-05-02T10:36:46Z</time>
      </trkpt>
      <trkpt lat="43.545" lon="6.72254">
        <ele>368</ele>
        <time>2010-05-02T10:36:50Z</time>
      </trkpt>
      <trkpt lat="43.54495" lon="6.72259">
        <ele>369</ele>
        <time>2010-05-02T10:36:54Z</time>
      </trkpt>
      <trkpt lat="43.5449" lon="6.72262">
        <ele>369</ele>
        <time>2010-05-02T10:36:59Z</time>
      </trkpt>
      <trkpt lat="43.54487" lon="6.72268">
        <ele>368</ele>
        <time>2010-05-02T10:37:02Z</time>
      </trkpt>
      <trkpt lat="43.54484" lon="6.72275">
        <ele>369</ele>
        <time>2010-05-02T10:37:04Z</time>
      </trkpt>
      <trkpt lat="43.54479" lon="6.72282">
        <ele>369</ele>
        <time>2010-05-02T10:37:07Z</time>
      </trkpt>
      <trkpt lat="43.54471" lon="6.72289">
        <ele>370</ele>
        <time>2010-05-02T10:37:11Z</time>
      </trkpt>
      <trkpt lat="43.54467" lon="6.72293">
        <ele>371</ele>
        <time>2010-05-02T10:37:13Z</time>
      </trkpt>
      <trkpt lat="43.54463" lon="6.72297">
        <ele>372</ele>
        <time>2010-05-02T10:37:15Z</time>
      </trkpt>
      <trkpt lat="43.54456" lon="6.723">
        <ele>373</ele>
        <time>2010-05-02T10:37:17Z</time>
      </trkpt>
      <trkpt lat="43.54449" lon="6.72304">
        <ele>372</ele>
        <time>2010-05-02T10:37:19Z</time>
      </trkpt>
      <trkpt lat="43.54437" lon="6.723">
        <ele>370</ele>
        <time>2010-05-02T10:37:24Z</time>
      </trkpt>
      <trkpt lat="43.54432" lon="6.723">
        <ele>367</ele>
        <time>2010-05-02T10:37:27Z</time>
      </trkpt>
      <trkpt lat="43.54426" lon="6.72301">
        <ele>369</ele>
        <time>2010-05-02T10:37:31Z</time>
      </trkpt>
      <trkpt lat="43.54423" lon="6.72301">
        <ele>370</ele>
        <time>2010-05-02T10:37:39Z</time>
      </trkpt>
      <trkpt lat="43.54421" lon="6.72304">
        <ele>376</ele>
        <time>2010-05-02T10:39:01Z</time>
      </trkpt>
      <trkpt lat="43.5442" lon="6.72313">
        <ele>377</ele>
        <time>2010-05-02T10:39:02Z</time>
      </trkpt>
      <trkpt lat="43.54418" lon="6.72321">
        <ele>377</ele>
        <time>2010-05-02T10:39:05Z</time>
      </trkpt>
      <trkpt lat="43.54416" lon="6.72327">
        <ele>377</ele>
        <time>2010-05-02T10:39:07Z</time>
      </trkpt>
      <trkpt lat="43.5441" lon="6.72338">
        <ele>378</ele>
        <time>2010-05-02T10:39:11Z</time>
      </trkpt>
      <trkpt lat="43.54409" lon="6.72346">
        <ele>380</ele>
        <time>2010-05-02T10:39:13Z</time>
      </trkpt>
      <trkpt lat="43.5441" lon="6.72354">
        <ele>380</ele>
        <time>2010-05-02T10:39:15Z</time>
      </trkpt>
      <trkpt lat="43.54409" lon="6.72362">
        <ele>380</ele>
        <time>2010-05-02T10:39:17Z</time>
      </trkpt>
      <trkpt lat="43.54409" lon="6.72371">
        <ele>380</ele>
        <time>2010-05-02T10:39:19Z</time>
      </trkpt>
      <trkpt lat="43.5441" lon="6.72383">
        <ele>380</ele>
        <time>2010-05-02T10:39:21Z</time>
      </trkpt>
      <trkpt lat="43.54408" lon="6.72397">
        <ele>378</ele>
        <time>2010-05-02T10:39:24Z</time>
      </trkpt>
      <trkpt lat="43.54408" lon="6.72404">
        <ele>378</ele>
        <time>2010-05-02T10:39:26Z</time>
      </trkpt>
      <trkpt lat="43.54405" lon="6.7241">
        <ele>378</ele>
        <time>2010-05-02T10:39:29Z</time>
      </trkpt>
      <trkpt lat="43.54404" lon="6.72417">
        <ele>379</ele>
        <time>2010-05-02T10:39:32Z</time>
      </trkpt>
      <trkpt lat="43.544" lon="6.72427">
        <ele>379</ele>
        <time>2010-05-02T10:39:37Z</time>
      </trkpt>
      <trkpt lat="43.544" lon="6.7243">
        <ele>379</ele>
        <time>2010-05-02T10:39:40Z</time>
      </trkpt>
      <trkpt lat="43.54402" lon="6.72436">
        <ele>377</ele>
        <time>2010-05-02T10:39:50Z</time>
      </trkpt>
      <trkpt lat="43.54402" lon="6.72436">
        <ele>377</ele>
        <time>2010-05-02T10:39:51Z</time>
      </trkpt>
      <trkpt lat="43.54405" lon="6.72445">
        <ele>378</ele>
        <time>2010-05-02T10:39:54Z</time>
      </trkpt>
      <trkpt lat="43.54399" lon="6.72464">
        <ele>377</ele>
        <time>2010-05-02T10:39:58Z</time>
      </trkpt>
      <trkpt lat="43.54396" lon="6.72472">
        <ele>376</ele>
        <time>2010-05-02T10:40:00Z</time>
      </trkpt>
      <trkpt lat="43.5439" lon="6.7248">
        <ele>376</ele>
        <time>2010-05-02T10:40:02Z</time>
      </trkpt>
      <trkpt lat="43.54386" lon="6.7249">
        <ele>377</ele>
        <time>2010-05-02T10:40:04Z</time>
      </trkpt>
      <trkpt lat="43.54384" lon="6.72497">
        <ele>376</ele>
        <time>2010-05-02T10:40:05Z</time>
      </trkpt>
      <trkpt lat="43.54382" lon="6.72504">
        <ele>376</ele>
        <time>2010-05-02T10:40:06Z</time>
      </trkpt>
      <trkpt lat="43.54381" lon="6.72511">
        <ele>375</ele>
        <time>2010-05-02T10:40:07Z</time>
      </trkpt>
      <trkpt lat="43.54378" lon="6.72517">
        <ele>374</ele>
        <time>2010-05-02T10:40:08Z</time>
      </trkpt>
      <trkpt lat="43.5437" lon="6.7253">
        <ele>375</ele>
        <time>2010-05-02T10:40:11Z</time>
      </trkpt>
      <trkpt lat="43.54366" lon="6.72533">
        <ele>375</ele>
        <time>2010-05-02T10:40:12Z</time>
      </trkpt>
      <trkpt lat="43.54361" lon="6.72536">
        <ele>375</ele>
        <time>2010-05-02T10:40:13Z</time>
      </trkpt>
      <trkpt lat="43.54356" lon="6.72541">
        <ele>375</ele>
        <time>2010-05-02T10:40:15Z</time>
      </trkpt>
      <trkpt lat="43.5435" lon="6.72545">
        <ele>376</ele>
        <time>2010-05-02T10:40:17Z</time>
      </trkpt>
      <trkpt lat="43.54342" lon="6.72547">
        <ele>375</ele>
        <time>2010-05-02T10:40:19Z</time>
      </trkpt>
      <trkpt lat="43.54335" lon="6.72548">
        <ele>376</ele>
        <time>2010-05-02T10:40:21Z</time>
      </trkpt>
      <trkpt lat="43.54325" lon="6.72547">
        <ele>376</ele>
        <time>2010-05-02T10:40:24Z</time>
      </trkpt>
      <trkpt lat="43.54317" lon="6.72547">
        <ele>378</ele>
        <time>2010-05-02T10:40:26Z</time>
      </trkpt>
      <trkpt lat="43.54312" lon="6.72547">
        <ele>378</ele>
        <time>2010-05-02T10:40:27Z</time>
      </trkpt>
      <trkpt lat="43.54303" lon="6.72548">
        <ele>380</ele>
        <time>2010-05-02T10:40:29Z</time>
      </trkpt>
      <trkpt lat="43.54298" lon="6.72549">
        <ele>380</ele>
        <time>2010-05-02T10:40:30Z</time>
      </trkpt>
      <trkpt lat="43.54292" lon="6.7255">
        <ele>379</ele>
        <time>2010-05-02T10:40:32Z</time>
      </trkpt>
      <trkpt lat="43.54284" lon="6.72549">
        <ele>379</ele>
        <time>2010-05-02T10:40:34Z</time>
      </trkpt>
      <trkpt lat="43.54273" lon="6.72549">
        <ele>378</ele>
        <time>2010-05-02T10:40:37Z</time>
      </trkpt>
      <trkpt lat="43.54268" lon="6.72549">
        <ele>378</ele>
        <time>2010-05-02T10:40:39Z</time>
      </trkpt>
      <trkpt lat="43.54262" lon="6.72548">
        <ele>379</ele>
        <time>2010-05-02T10:40:41Z</time>
      </trkpt>
      <trkpt lat="43.54254" lon="6.72547">
        <ele>378</ele>
        <time>2010-05-02T10:40:43Z</time>
      </trkpt>
      <trkpt lat="43.54244" lon="6.72545">
        <ele>379</ele>
        <time>2010-05-02T10:40:45Z</time>
      </trkpt>
      <trkpt lat="43.54237" lon="6.72545">
        <ele>379</ele>
        <time>2010-05-02T10:40:47Z</time>
      </trkpt>
      <trkpt lat="43.54228" lon="6.72545">
        <ele>378</ele>
        <time>2010-05-02T10:40:49Z</time>
      </trkpt>
      <trkpt lat="43.54219" lon="6.72545">
        <ele>379</ele>
        <time>2010-05-02T10:40:51Z</time>
      </trkpt>
      <trkpt lat="43.54209" lon="6.72547">
        <ele>379</ele>
        <time>2010-05-02T10:40:53Z</time>
      </trkpt>
      <trkpt lat="43.54199" lon="6.72547">
        <ele>380</ele>
        <time>2010-05-02T10:40:55Z</time>
      </trkpt>
      <trkpt lat="43.54187" lon="6.72547">
        <ele>381</ele>
        <time>2010-05-02T10:40:58Z</time>
      </trkpt>
      <trkpt lat="43.5418" lon="6.72546">
        <ele>382</ele>
        <time>2010-05-02T10:41:00Z</time>
      </trkpt>
      <trkpt lat="43.54172" lon="6.72547">
        <ele>384</ele>
        <time>2010-05-02T10:41:02Z</time>
      </trkpt>
      <trkpt lat="43.54163" lon="6.72549">
        <ele>383</ele>
        <time>2010-05-02T10:41:04Z</time>
      </trkpt>
      <trkpt lat="43.54155" lon="6.7255">
        <ele>381</ele>
        <time>2010-05-02T10:41:06Z</time>
      </trkpt>
      <trkpt lat="43.5415" lon="6.72551">
        <ele>381</ele>
        <time>2010-05-02T10:41:08Z</time>
      </trkpt>
      <trkpt lat="43.54139" lon="6.72551">
        <ele>380</ele>
        <time>2010-05-02T10:41:11Z</time>
      </trkpt>
      <trkpt lat="43.54133" lon="6.72552">
        <ele>380</ele>
        <time>2010-05-02T10:41:13Z</time>
      </trkpt>
      <trkpt lat="43.54128" lon="6.72553">
        <ele>380</ele>
        <time>2010-05-02T10:41:15Z</time>
      </trkpt>
      <trkpt lat="43.5412" lon="6.72553">
        <ele>380</ele>
        <time>2010-05-02T10:41:17Z</time>
      </trkpt>
      <trkpt lat="43.54115" lon="6.72553">
        <ele>381</ele>
        <time>2010-05-02T10:41:19Z</time>
      </trkpt>
      <trkpt lat="43.5411" lon="6.72553">
        <ele>381</ele>
        <time>2010-05-02T10:41:21Z</time>
      </trkpt>
      <trkpt lat="43.54101" lon="6.72553">
        <ele>382</ele>
        <time>2010-05-02T10:41:24Z</time>
      </trkpt>
      <trkpt lat="43.54094" lon="6.72553">
        <ele>382</ele>
        <time>2010-05-02T10:41:26Z</time>
      </trkpt>
      <trkpt lat="43.54088" lon="6.72553">
        <ele>381</ele>
        <time>2010-05-02T10:41:28Z</time>
      </trkpt>
      <trkpt lat="43.54082" lon="6.72551">
        <ele>379</ele>
        <time>2010-05-02T10:41:30Z</time>
      </trkpt>
      <trkpt lat="43.54073" lon="6.7255">
        <ele>376</ele>
        <time>2010-05-02T10:41:32Z</time>
      </trkpt>
      <trkpt lat="43.54064" lon="6.72548">
        <ele>374</ele>
        <time>2010-05-02T10:41:34Z</time>
      </trkpt>
      <trkpt lat="43.54049" lon="6.72542">
        <ele>374</ele>
        <time>2010-05-02T10:41:37Z</time>
      </trkpt>
      <trkpt lat="43.5404" lon="6.72539">
        <ele>373</ele>
        <time>2010-05-02T10:41:39Z</time>
      </trkpt>
      <trkpt lat="43.5403" lon="6.72533">
        <ele>372</ele>
        <time>2010-05-02T10:41:41Z</time>
      </trkpt>
      <trkpt lat="43.54026" lon="6.72529">
        <ele>372</ele>
        <time>2010-05-02T10:41:42Z</time>
      </trkpt>
      <trkpt lat="43.54016" lon="6.72519">
        <ele>372</ele>
        <time>2010-05-02T10:41:45Z</time>
      </trkpt>
      <trkpt lat="43.54012" lon="6.72516">
        <ele>372</ele>
        <time>2010-05-02T10:41:46Z</time>
      </trkpt>
      <trkpt lat="43.54006" lon="6.7251">
        <ele>370</ele>
        <time>2010-05-02T10:41:48Z</time>
      </trkpt>
      <trkpt lat="43.54003" lon="6.72506">
        <ele>370</ele>
        <time>2010-05-02T10:41:49Z</time>
      </trkpt>
      <trkpt lat="43.53998" lon="6.72502">
        <ele>370</ele>
        <time>2010-05-02T10:41:50Z</time>
      </trkpt>
      <trkpt lat="43.53993" lon="6.72498">
        <ele>370</ele>
        <time>2010-05-02T10:41:51Z</time>
      </trkpt>
      <trkpt lat="43.53988" lon="6.72495">
        <ele>371</ele>
        <time>2010-05-02T10:41:52Z</time>
      </trkpt>
      <trkpt lat="43.53984" lon="6.72491">
        <ele>371</ele>
        <time>2010-05-02T10:41:53Z</time>
      </trkpt>
      <trkpt lat="43.53977" lon="6.72488">
        <ele>370</ele>
        <time>2010-05-02T10:41:55Z</time>
      </trkpt>
      <trkpt lat="43.53967" lon="6.72481">
        <ele>370</ele>
        <time>2010-05-02T10:41:58Z</time>
      </trkpt>
      <trkpt lat="43.53961" lon="6.72476">
        <ele>370</ele>
        <time>2010-05-02T10:42:00Z</time>
      </trkpt>
      <trkpt lat="43.53957" lon="6.72472">
        <ele>370</ele>
        <time>2010-05-02T10:42:02Z</time>
      </trkpt>
      <trkpt lat="43.53952" lon="6.72469">
        <ele>370</ele>
        <time>2010-05-02T10:42:04Z</time>
      </trkpt>
      <trkpt lat="43.53946" lon="6.72465">
        <ele>370</ele>
        <time>2010-05-02T10:42:06Z</time>
      </trkpt>
      <trkpt lat="43.53939" lon="6.72462">
        <ele>372</ele>
        <time>2010-05-02T10:42:08Z</time>
      </trkpt>
      <trkpt lat="43.53933" lon="6.72457">
        <ele>373</ele>
        <time>2010-05-02T10:42:11Z</time>
      </trkpt>
      <trkpt lat="43.53929" lon="6.72453">
        <ele>374</ele>
        <time>2010-05-02T10:42:13Z</time>
      </trkpt>
      <trkpt lat="43.53922" lon="6.7245">
        <ele>374</ele>
        <time>2010-05-02T10:42:15Z</time>
      </trkpt>
      <trkpt lat="43.53915" lon="6.72448">
        <ele>374</ele>
        <time>2010-05-02T10:42:17Z</time>
      </trkpt>
      <trkpt lat="43.53908" lon="6.72445">
        <ele>374</ele>
        <time>2010-05-02T10:42:19Z</time>
      </trkpt>
      <trkpt lat="43.53901" lon="6.72441">
        <ele>374</ele>
        <time>2010-05-02T10:42:21Z</time>
      </trkpt>
      <trkpt lat="43.53891" lon="6.72435">
        <ele>375</ele>
        <time>2010-05-02T10:42:24Z</time>
      </trkpt>
      <trkpt lat="43.53883" lon="6.72429">
        <ele>374</ele>
        <time>2010-05-02T10:42:26Z</time>
      </trkpt>
      <trkpt lat="43.53878" lon="6.72422">
        <ele>374</ele>
        <time>2010-05-02T10:42:28Z</time>
      </trkpt>
      <trkpt lat="43.53873" lon="6.72418">
        <ele>374</ele>
        <time>2010-05-02T10:42:30Z</time>
      </trkpt>
      <trkpt lat="43.53866" lon="6.72415">
        <ele>375</ele>
        <time>2010-05-02T10:42:32Z</time>
      </trkpt>
      <trkpt lat="43.53861" lon="6.72413">
        <ele>375</ele>
        <time>2010-05-02T10:42:34Z</time>
      </trkpt>
      <trkpt lat="43.53853" lon="6.72407">
        <ele>376</ele>
        <time>2010-05-02T10:42:37Z</time>
      </trkpt>
      <trkpt lat="43.53849" lon="6.72399">
        <ele>377</ele>
        <time>2010-05-02T10:42:40Z</time>
      </trkpt>
      <trkpt lat="43.53844" lon="6.7239">
        <ele>376</ele>
        <time>2010-05-02T10:42:42Z</time>
      </trkpt>
      <trkpt lat="43.53829" lon="6.72377">
        <ele>373</ele>
        <time>2010-05-02T10:42:45Z</time>
      </trkpt>
      <trkpt lat="43.53823" lon="6.72373">
        <ele>372</ele>
        <time>2010-05-02T10:42:46Z</time>
      </trkpt>
      <trkpt lat="43.5382" lon="6.72369">
        <ele>372</ele>
        <time>2010-05-02T10:42:47Z</time>
      </trkpt>
      <trkpt lat="43.53815" lon="6.72365">
        <ele>371</ele>
        <time>2010-05-02T10:42:48Z</time>
      </trkpt>
      <trkpt lat="43.5381" lon="6.72361">
        <ele>371</ele>
        <time>2010-05-02T10:42:49Z</time>
      </trkpt>
      <trkpt lat="43.53807" lon="6.72355">
        <ele>371</ele>
        <time>2010-05-02T10:42:50Z</time>
      </trkpt>
      <trkpt lat="43.53803" lon="6.72349">
        <ele>370</ele>
        <time>2010-05-02T10:42:51Z</time>
      </trkpt>
      <trkpt lat="43.53799" lon="6.72342">
        <ele>370</ele>
        <time>2010-05-02T10:42:52Z</time>
      </trkpt>
      <trkpt lat="43.53796" lon="6.72336">
        <ele>370</ele>
        <time>2010-05-02T10:42:53Z</time>
      </trkpt>
      <trkpt lat="43.53793" lon="6.72331">
        <ele>370</ele>
        <time>2010-05-02T10:42:54Z</time>
      </trkpt>
      <trkpt lat="43.53791" lon="6.72325">
        <ele>369</ele>
        <time>2010-05-02T10:42:55Z</time>
      </trkpt>
      <trkpt lat="43.53781" lon="6.72309">
        <ele>370</ele>
        <time>2010-05-02T10:42:58Z</time>
      </trkpt>
      <trkpt lat="43.53778" lon="6.72304">
        <ele>369</ele>
        <time>2010-05-02T10:42:59Z</time>
      </trkpt>
      <trkpt lat="43.53774" lon="6.72298">
        <ele>368</ele>
        <time>2010-05-02T10:43:00Z</time>
      </trkpt>
      <trkpt lat="43.53771" lon="6.72294">
        <ele>368</ele>
        <time>2010-05-02T10:43:01Z</time>
      </trkpt>
      <trkpt lat="43.53767" lon="6.7229">
        <ele>369</ele>
        <time>2010-05-02T10:43:02Z</time>
      </trkpt>
      <trkpt lat="43.53763" lon="6.72285">
        <ele>369</ele>
        <time>2010-05-02T10:43:03Z</time>
      </trkpt>
      <trkpt lat="43.5376" lon="6.72281">
        <ele>369</ele>
        <time>2010-05-02T10:43:04Z</time>
      </trkpt>
      <trkpt lat="43.53756" lon="6.72276">
        <ele>369</ele>
        <time>2010-05-02T10:43:05Z</time>
      </trkpt>
      <trkpt lat="43.53752" lon="6.72271">
        <ele>370</ele>
        <time>2010-05-02T10:43:06Z</time>
      </trkpt>
      <trkpt lat="43.53748" lon="6.72263">
        <ele>370</ele>
        <time>2010-05-02T10:43:08Z</time>
      </trkpt>
      <trkpt lat="43.53743" lon="6.72255">
        <ele>371</ele>
        <time>2010-05-02T10:43:11Z</time>
      </trkpt>
      <trkpt lat="43.53738" lon="6.72248">
        <ele>371</ele>
        <time>2010-05-02T10:43:13Z</time>
      </trkpt>
      <trkpt lat="43.53736" lon="6.72241">
        <ele>371</ele>
        <time>2010-05-02T10:43:15Z</time>
      </trkpt>
      <trkpt lat="43.53735" lon="6.72231">
        <ele>370</ele>
        <time>2010-05-02T10:43:17Z</time>
      </trkpt>
      <trkpt lat="43.53732" lon="6.72223">
        <ele>369</ele>
        <time>2010-05-02T10:43:19Z</time>
      </trkpt>
      <trkpt lat="43.53728" lon="6.72217">
        <ele>367</ele>
        <time>2010-05-02T10:43:21Z</time>
      </trkpt>
      <trkpt lat="43.53719" lon="6.722">
        <ele>368</ele>
        <time>2010-05-02T10:43:24Z</time>
      </trkpt>
      <trkpt lat="43.53712" lon="6.72191">
        <ele>368</ele>
        <time>2010-05-02T10:43:26Z</time>
      </trkpt>
      <trkpt lat="43.53706" lon="6.72183">
        <ele>369</ele>
        <time>2010-05-02T10:43:28Z</time>
      </trkpt>
      <trkpt lat="43.53701" lon="6.72177">
        <ele>370</ele>
        <time>2010-05-02T10:43:30Z</time>
      </trkpt>
      <trkpt lat="43.53697" lon="6.72173">
        <ele>371</ele>
        <time>2010-05-02T10:43:31Z</time>
      </trkpt>
      <trkpt lat="43.53692" lon="6.7217">
        <ele>372</ele>
        <time>2010-05-02T10:43:33Z</time>
      </trkpt>
      <trkpt lat="43.53682" lon="6.72158">
        <ele>373</ele>
        <time>2010-05-02T10:43:37Z</time>
      </trkpt>
      <trkpt lat="43.5368" lon="6.72152">
        <ele>374</ele>
        <time>2010-05-02T10:43:39Z</time>
      </trkpt>
      <trkpt lat="43.53679" lon="6.72145">
        <ele>377</ele>
        <time>2010-05-02T10:43:41Z</time>
      </trkpt>
      <trkpt lat="43.53676" lon="6.72138">
        <ele>379</ele>
        <time>2010-05-02T10:43:43Z</time>
      </trkpt>
      <trkpt lat="43.53675" lon="6.7213">
        <ele>380</ele>
        <time>2010-05-02T10:43:45Z</time>
      </trkpt>
      <trkpt lat="43.53675" lon="6.7212">
        <ele>381</ele>
        <time>2010-05-02T10:43:47Z</time>
      </trkpt>
      <trkpt lat="43.53675" lon="6.7211">
        <ele>382</ele>
        <time>2010-05-02T10:43:49Z</time>
      </trkpt>
      <trkpt lat="43.53675" lon="6.72101">
        <ele>382</ele>
        <time>2010-05-02T10:43:51Z</time>
      </trkpt>
      <trkpt lat="43.53674" lon="6.72091">
        <ele>383</ele>
        <time>2010-05-02T10:43:53Z</time>
      </trkpt>
      <trkpt lat="43.53672" lon="6.72081">
        <ele>384</ele>
        <time>2010-05-02T10:43:55Z</time>
      </trkpt>
      <trkpt lat="43.53669" lon="6.72065">
        <ele>385</ele>
        <time>2010-05-02T10:43:58Z</time>
      </trkpt>
      <trkpt lat="43.53668" lon="6.72058">
        <ele>385</ele>
        <time>2010-05-02T10:43:59Z</time>
      </trkpt>
      <trkpt lat="43.53667" lon="6.72051">
        <ele>386</ele>
        <time>2010-05-02T10:44:00Z</time>
      </trkpt>
      <trkpt lat="43.53666" lon="6.72045">
        <ele>387</ele>
        <time>2010-05-02T10:44:01Z</time>
      </trkpt>
      <trkpt lat="43.53664" lon="6.72036">
        <ele>388</ele>
        <time>2010-05-02T10:44:03Z</time>
      </trkpt>
      <trkpt lat="43.53663" lon="6.7203">
        <ele>388</ele>
        <time>2010-05-02T10:44:04Z</time>
      </trkpt>
      <trkpt lat="43.53663" lon="6.72023">
        <ele>388</ele>
        <time>2010-05-02T10:44:05Z</time>
      </trkpt>
      <trkpt lat="43.53665" lon="6.72017">
        <ele>388</ele>
        <time>2010-05-02T10:44:06Z</time>
      </trkpt>
      <trkpt lat="43.53665" lon="6.72008">
        <ele>389</ele>
        <time>2010-05-02T10:44:07Z</time>
      </trkpt>
      <trkpt lat="43.53664" lon="6.72001">
        <ele>391</ele>
        <time>2010-05-02T10:44:08Z</time>
      </trkpt>
      <trkpt lat="43.53664" lon="6.71983">
        <ele>391</ele>
        <time>2010-05-02T10:44:11Z</time>
      </trkpt>
      <trkpt lat="43.53665" lon="6.71977">
        <ele>390</ele>
        <time>2010-05-02T10:44:12Z</time>
      </trkpt>
      <trkpt lat="43.53665" lon="6.71966">
        <ele>391</ele>
        <time>2010-05-02T10:44:14Z</time>
      </trkpt>
      <trkpt lat="43.53665" lon="6.71955">
        <ele>390</ele>
        <time>2010-05-02T10:44:16Z</time>
      </trkpt>
      <trkpt lat="43.53664" lon="6.71944">
        <ele>390</ele>
        <time>2010-05-02T10:44:18Z</time>
      </trkpt>
      <trkpt lat="43.53663" lon="6.7193">
        <ele>391</ele>
        <time>2010-05-02T10:44:20Z</time>
      </trkpt>
      <trkpt lat="43.53663" lon="6.71923">
        <ele>394</ele>
        <time>2010-05-02T10:44:21Z</time>
      </trkpt>
      <trkpt lat="43.53665" lon="6.71906">
        <ele>395</ele>
        <time>2010-05-02T10:44:24Z</time>
      </trkpt>
      <trkpt lat="43.53666" lon="6.71898">
        <ele>395</ele>
        <time>2010-05-02T10:44:25Z</time>
      </trkpt>
      <trkpt lat="43.53666" lon="6.71889">
        <ele>395</ele>
        <time>2010-05-02T10:44:26Z</time>
      </trkpt>
      <trkpt lat="43.53667" lon="6.71875">
        <ele>394</ele>
        <time>2010-05-02T10:44:28Z</time>
      </trkpt>
      <trkpt lat="43.53667" lon="6.71864">
        <ele>395</ele>
        <time>2010-05-02T10:44:30Z</time>
      </trkpt>
      <trkpt lat="43.53667" lon="6.71857">
        <ele>396</ele>
        <time>2010-05-02T10:44:31Z</time>
      </trkpt>
      <trkpt lat="43.53667" lon="6.7185">
        <ele>396</ele>
        <time>2010-05-02T10:44:32Z</time>
      </trkpt>
      <trkpt lat="43.53669" lon="6.71833">
        <ele>394</ele>
        <time>2010-05-02T10:44:34Z</time>
      </trkpt>
      <trkpt lat="43.53666" lon="6.71806">
        <ele>391</ele>
        <time>2010-05-02T10:44:37Z</time>
      </trkpt>
      <trkpt lat="43.53665" lon="6.71799">
        <ele>392</ele>
        <time>2010-05-02T10:44:38Z</time>
      </trkpt>
      <trkpt lat="43.53664" lon="6.71789">
        <ele>391</ele>
        <time>2010-05-02T10:44:39Z</time>
      </trkpt>
      <trkpt lat="43.53662" lon="6.7178">
        <ele>391</ele>
        <time>2010-05-02T10:44:40Z</time>
      </trkpt>
      <trkpt lat="43.53659" lon="6.7177">
        <ele>391</ele>
        <time>2010-05-02T10:44:41Z</time>
      </trkpt>
      <trkpt lat="43.53655" lon="6.71761">
        <ele>392</ele>
        <time>2010-05-02T10:44:42Z</time>
      </trkpt>
      <trkpt lat="43.53652" lon="6.7175">
        <ele>392</ele>
        <time>2010-05-02T10:44:43Z</time>
      </trkpt>
      <trkpt lat="43.53649" lon="6.71739">
        <ele>393</ele>
        <time>2010-05-02T10:44:44Z</time>
      </trkpt>
      <trkpt lat="43.53646" lon="6.71728">
        <ele>393</ele>
        <time>2010-05-02T10:44:45Z</time>
      </trkpt>
      <trkpt lat="43.53644" lon="6.71715">
        <ele>393</ele>
        <time>2010-05-02T10:44:46Z</time>
      </trkpt>
      <trkpt lat="43.53641" lon="6.71706">
        <ele>393</ele>
        <time>2010-05-02T10:44:47Z</time>
      </trkpt>
      <trkpt lat="43.53638" lon="6.71696">
        <ele>394</ele>
        <time>2010-05-02T10:44:48Z</time>
      </trkpt>
      <trkpt lat="43.53635" lon="6.71687">
        <ele>394</ele>
        <time>2010-05-02T10:44:49Z</time>
      </trkpt>
      <trkpt lat="43.53635" lon="6.71676">
        <ele>395</ele>
        <time>2010-05-02T10:44:50Z</time>
      </trkpt>
      <trkpt lat="43.53633" lon="6.71665">
        <ele>395</ele>
        <time>2010-05-02T10:44:51Z</time>
      </trkpt>
      <trkpt lat="43.53633" lon="6.71657">
        <ele>395</ele>
        <time>2010-05-02T10:44:52Z</time>
      </trkpt>
      <trkpt lat="43.53632" lon="6.71645">
        <ele>395</ele>
        <time>2010-05-02T10:44:53Z</time>
      </trkpt>
      <trkpt lat="43.53632" lon="6.71636">
        <ele>394</ele>
        <time>2010-05-02T10:44:54Z</time>
      </trkpt>
      <trkpt lat="43.53628" lon="6.71619">
        <ele>395</ele>
        <time>2010-05-02T10:44:57Z</time>
      </trkpt>
      <trkpt lat="43.53625" lon="6.71608">
        <ele>395</ele>
        <time>2010-05-02T10:44:59Z</time>
      </trkpt>
      <trkpt lat="43.53625" lon="6.71599">
        <ele>394</ele>
        <time>2010-05-02T10:45:00Z</time>
      </trkpt>
      <trkpt lat="43.53624" lon="6.71592">
        <ele>394</ele>
        <time>2010-05-02T10:45:01Z</time>
      </trkpt>
      <trkpt lat="43.53625" lon="6.71582">
        <ele>391</ele>
        <time>2010-05-02T10:45:02Z</time>
      </trkpt>
      <trkpt lat="43.53626" lon="6.71568">
        <ele>389</ele>
        <time>2010-05-02T10:45:04Z</time>
      </trkpt>
      <trkpt lat="43.53625" lon="6.7156">
        <ele>388</ele>
        <time>2010-05-02T10:45:05Z</time>
      </trkpt>
      <trkpt lat="43.53623" lon="6.71554">
        <ele>387</ele>
        <time>2010-05-02T10:45:06Z</time>
      </trkpt>
      <trkpt lat="43.53615" lon="6.71535">
        <ele>386</ele>
        <time>2010-05-02T10:45:10Z</time>
      </trkpt>
      <trkpt lat="43.53611" lon="6.71531">
        <ele>386</ele>
        <time>2010-05-02T10:45:11Z</time>
      </trkpt>
      <trkpt lat="43.53606" lon="6.71526">
        <ele>385</ele>
        <time>2010-05-02T10:45:12Z</time>
      </trkpt>
      <trkpt lat="43.53601" lon="6.71517">
        <ele>384</ele>
        <time>2010-05-02T10:45:14Z</time>
      </trkpt>
      <trkpt lat="43.53597" lon="6.71514">
        <ele>384</ele>
        <time>2010-05-02T10:45:15Z</time>
      </trkpt>
      <trkpt lat="43.53591" lon="6.71507">
        <ele>384</ele>
        <time>2010-05-02T10:45:17Z</time>
      </trkpt>
      <trkpt lat="43.53588" lon="6.715">
        <ele>385</ele>
        <time>2010-05-02T10:45:19Z</time>
      </trkpt>
      <trkpt lat="43.53584" lon="6.71486">
        <ele>387</ele>
        <time>2010-05-02T10:45:23Z</time>
      </trkpt>
      <trkpt lat="43.5358" lon="6.7148">
        <ele>388</ele>
        <time>2010-05-02T10:45:25Z</time>
      </trkpt>
      <trkpt lat="43.53577" lon="6.71473">
        <ele>389</ele>
        <time>2010-05-02T10:45:27Z</time>
      </trkpt>
      <trkpt lat="43.53573" lon="6.71465">
        <ele>390</ele>
        <time>2010-05-02T10:45:29Z</time>
      </trkpt>
      <trkpt lat="43.53571" lon="6.71457">
        <ele>388</ele>
        <time>2010-05-02T10:45:31Z</time>
      </trkpt>
      <trkpt lat="43.53567" lon="6.71449">
        <ele>387</ele>
        <time>2010-05-02T10:45:33Z</time>
      </trkpt>
      <trkpt lat="43.53564" lon="6.71438">
        <ele>387</ele>
        <time>2010-05-02T10:45:36Z</time>
      </trkpt>
      <trkpt lat="43.53561" lon="6.7143">
        <ele>387</ele>
        <time>2010-05-02T10:45:38Z</time>
      </trkpt>
      <trkpt lat="43.53558" lon="6.71422">
        <ele>388</ele>
        <time>2010-05-02T10:45:40Z</time>
      </trkpt>
      <trkpt lat="43.53558" lon="6.71415">
        <ele>387</ele>
        <time>2010-05-02T10:45:41Z</time>
      </trkpt>
      <trkpt lat="43.53556" lon="6.71406">
        <ele>387</ele>
        <time>2010-05-02T10:45:43Z</time>
      </trkpt>
      <trkpt lat="43.53554" lon="6.71398">
        <ele>387</ele>
        <time>2010-05-02T10:45:45Z</time>
      </trkpt>
      <trkpt lat="43.5355" lon="6.7139">
        <ele>386</ele>
        <time>2010-05-02T10:45:47Z</time>
      </trkpt>
      <trkpt lat="43.53547" lon="6.71382">
        <ele>386</ele>
        <time>2010-05-02T10:45:49Z</time>
      </trkpt>
      <trkpt lat="43.53541" lon="6.71372">
        <ele>388</ele>
        <time>2010-05-02T10:45:51Z</time>
      </trkpt>
      <trkpt lat="43.5354" lon="6.71362">
        <ele>387</ele>
        <time>2010-05-02T10:45:53Z</time>
      </trkpt>
      <trkpt lat="43.53535" lon="6.71346">
        <ele>387</ele>
        <time>2010-05-02T10:45:57Z</time>
      </trkpt>
      <trkpt lat="43.5353" lon="6.71339">
        <ele>386</ele>
        <time>2010-05-02T10:45:59Z</time>
      </trkpt>
      <trkpt lat="43.53526" lon="6.71333">
        <ele>387</ele>
        <time>2010-05-02T10:46:01Z</time>
      </trkpt>
      <trkpt lat="43.53521" lon="6.71326">
        <ele>387</ele>
        <time>2010-05-02T10:46:03Z</time>
      </trkpt>
      <trkpt lat="43.53517" lon="6.71319">
        <ele>387</ele>
        <time>2010-05-02T10:46:05Z</time>
      </trkpt>
      <trkpt lat="43.53513" lon="6.71311">
        <ele>387</ele>
        <time>2010-05-02T10:46:07Z</time>
      </trkpt>
      <trkpt lat="43.53511" lon="6.71301">
        <ele>387</ele>
        <time>2010-05-02T10:46:10Z</time>
      </trkpt>
      <trkpt lat="43.53506" lon="6.71294">
        <ele>387</ele>
        <time>2010-05-02T10:46:12Z</time>
      </trkpt>
      <trkpt lat="43.53503" lon="6.71287">
        <ele>387</ele>
        <time>2010-05-02T10:46:14Z</time>
      </trkpt>
      <trkpt lat="43.53499" lon="6.71279">
        <ele>387</ele>
        <time>2010-05-02T10:46:16Z</time>
      </trkpt>
      <trkpt lat="43.53493" lon="6.71275">
        <ele>387</ele>
        <time>2010-05-02T10:46:17Z</time>
      </trkpt>
      <trkpt lat="43.53489" lon="6.71272">
        <ele>387</ele>
        <time>2010-05-02T10:46:18Z</time>
      </trkpt>
      <trkpt lat="43.53483" lon="6.71264">
        <ele>387</ele>
        <time>2010-05-02T10:46:20Z</time>
      </trkpt>
      <trkpt lat="43.53476" lon="6.71254">
        <ele>388</ele>
        <time>2010-05-02T10:46:23Z</time>
      </trkpt>
      <trkpt lat="43.53471" lon="6.71248">
        <ele>389</ele>
        <time>2010-05-02T10:46:25Z</time>
      </trkpt>
      <trkpt lat="43.53468" lon="6.71241">
        <ele>389</ele>
        <time>2010-05-02T10:46:27Z</time>
      </trkpt>
      <trkpt lat="43.53467" lon="6.71233">
        <ele>390</ele>
        <time>2010-05-02T10:46:29Z</time>
      </trkpt>
      <trkpt lat="43.53465" lon="6.71225">
        <ele>390</ele>
        <time>2010-05-02T10:46:31Z</time>
      </trkpt>
      <trkpt lat="43.53462" lon="6.71217">
        <ele>390</ele>
        <time>2010-05-02T10:46:33Z</time>
      </trkpt>
      <trkpt lat="43.5346" lon="6.71206">
        <ele>391</ele>
        <time>2010-05-02T10:46:36Z</time>
      </trkpt>
      <trkpt lat="43.53457" lon="6.712">
        <ele>392</ele>
        <time>2010-05-02T10:46:37Z</time>
      </trkpt>
      <trkpt lat="43.53455" lon="6.7119">
        <ele>393</ele>
        <time>2010-05-02T10:46:39Z</time>
      </trkpt>
      <trkpt lat="43.53454" lon="6.7118">
        <ele>394</ele>
        <time>2010-05-02T10:46:41Z</time>
      </trkpt>
      <trkpt lat="43.53454" lon="6.71169">
        <ele>395</ele>
        <time>2010-05-02T10:46:43Z</time>
      </trkpt>
      <trkpt lat="43.53455" lon="6.71162">
        <ele>396</ele>
        <time>2010-05-02T10:46:44Z</time>
      </trkpt>
      <trkpt lat="43.53452" lon="6.71152">
        <ele>397</ele>
        <time>2010-05-02T10:46:46Z</time>
      </trkpt>
      <trkpt lat="43.5345" lon="6.71143">
        <ele>398</ele>
        <time>2010-05-02T10:46:48Z</time>
      </trkpt>
      <trkpt lat="43.5345" lon="6.71134">
        <ele>399</ele>
        <time>2010-05-02T10:46:50Z</time>
      </trkpt>
      <trkpt lat="43.53449" lon="6.71127">
        <ele>400</ele>
        <time>2010-05-02T10:46:52Z</time>
      </trkpt>
      <trkpt lat="43.5345" lon="6.71111">
        <ele>400</ele>
        <time>2010-05-02T10:46:57Z</time>
      </trkpt>
      <trkpt lat="43.5345" lon="6.71103">
        <ele>400</ele>
        <time>2010-05-02T10:46:59Z</time>
      </trkpt>
      <trkpt lat="43.53449" lon="6.71091">
        <ele>401</ele>
        <time>2010-05-02T10:47:01Z</time>
      </trkpt>
      <trkpt lat="43.53449" lon="6.71082">
        <ele>401</ele>
        <time>2010-05-02T10:47:03Z</time>
      </trkpt>
      <trkpt lat="43.53448" lon="6.71075">
        <ele>401</ele>
        <time>2010-05-02T10:47:04Z</time>
      </trkpt>
      <trkpt lat="43.53449" lon="6.71069">
        <ele>402</ele>
        <time>2010-05-02T10:47:05Z</time>
      </trkpt>
      <trkpt lat="43.53449" lon="6.71062">
        <ele>402</ele>
        <time>2010-05-02T10:47:06Z</time>
      </trkpt>
      <trkpt lat="43.53444" lon="6.71038">
        <ele>405</ele>
        <time>2010-05-02T10:47:10Z</time>
      </trkpt>
      <trkpt lat="43.53445" lon="6.7103">
        <ele>406</ele>
        <time>2010-05-02T10:47:11Z</time>
      </trkpt>
      <trkpt lat="43.53444" lon="6.71018">
        <ele>409</ele>
        <time>2010-05-02T10:47:13Z</time>
      </trkpt>
      <trkpt lat="43.53444" lon="6.71011">
        <ele>411</ele>
        <time>2010-05-02T10:47:14Z</time>
      </trkpt>
      <trkpt lat="43.53442" lon="6.71">
        <ele>414</ele>
        <time>2010-05-02T10:47:16Z</time>
      </trkpt>
      <trkpt lat="43.53442" lon="6.70992">
        <ele>416</ele>
        <time>2010-05-02T10:47:17Z</time>
      </trkpt>
      <trkpt lat="43.53445" lon="6.70983">
        <ele>416</ele>
        <time>2010-05-02T10:47:18Z</time>
      </trkpt>
      <trkpt lat="43.53447" lon="6.70973">
        <ele>416</ele>
        <time>2010-05-02T10:47:19Z</time>
      </trkpt>
      <trkpt lat="43.53452" lon="6.70962">
        <ele>415</ele>
        <time>2010-05-02T10:47:20Z</time>
      </trkpt>
      <trkpt lat="43.5346" lon="6.7093">
        <ele>411</ele>
        <time>2010-05-02T10:47:23Z</time>
      </trkpt>
      <trkpt lat="43.53464" lon="6.70916">
        <ele>407</ele>
        <time>2010-05-02T10:47:24Z</time>
      </trkpt>
      <trkpt lat="43.53469" lon="6.70903">
        <ele>406</ele>
        <time>2010-05-02T10:47:25Z</time>
      </trkpt>
      <trkpt lat="43.53474" lon="6.7089">
        <ele>405</ele>
        <time>2010-05-02T10:47:26Z</time>
      </trkpt>
      <trkpt lat="43.53477" lon="6.70879">
        <ele>404</ele>
        <time>2010-05-02T10:47:27Z</time>
      </trkpt>
      <trkpt lat="43.53482" lon="6.70868">
        <ele>403</ele>
        <time>2010-05-02T10:47:28Z</time>
      </trkpt>
      <trkpt lat="43.53485" lon="6.70855">
        <ele>402</ele>
        <time>2010-05-02T10:47:29Z</time>
      </trkpt>
      <trkpt lat="43.53489" lon="6.70843">
        <ele>401</ele>
        <time>2010-05-02T10:47:30Z</time>
      </trkpt>
      <trkpt lat="43.53491" lon="6.70831">
        <ele>400</ele>
        <time>2010-05-02T10:47:31Z</time>
      </trkpt>
      <trkpt lat="43.53495" lon="6.70819">
        <ele>399</ele>
        <time>2010-05-02T10:47:32Z</time>
      </trkpt>
      <trkpt lat="43.53498" lon="6.70806">
        <ele>399</ele>
        <time>2010-05-02T10:47:33Z</time>
      </trkpt>
      <trkpt lat="43.53507" lon="6.70765">
        <ele>396</ele>
        <time>2010-05-02T10:47:36Z</time>
      </trkpt>
      <trkpt lat="43.53512" lon="6.70753">
        <ele>396</ele>
        <time>2010-05-02T10:47:37Z</time>
      </trkpt>
      <trkpt lat="43.53515" lon="6.70738">
        <ele>395</ele>
        <time>2010-05-02T10:47:38Z</time>
      </trkpt>
      <trkpt lat="43.53517" lon="6.70727">
        <ele>394</ele>
        <time>2010-05-02T10:47:39Z</time>
      </trkpt>
      <trkpt lat="43.53521" lon="6.70714">
        <ele>393</ele>
        <time>2010-05-02T10:47:40Z</time>
      </trkpt>
      <trkpt lat="43.53524" lon="6.707">
        <ele>393</ele>
        <time>2010-05-02T10:47:41Z</time>
      </trkpt>
      <trkpt lat="43.53528" lon="6.70686">
        <ele>392</ele>
        <time>2010-05-02T10:47:42Z</time>
      </trkpt>
      <trkpt lat="43.53532" lon="6.70673">
        <ele>392</ele>
        <time>2010-05-02T10:47:43Z</time>
      </trkpt>
      <trkpt lat="43.53537" lon="6.7065">
        <ele>391</ele>
        <time>2010-05-02T10:47:45Z</time>
      </trkpt>
      <trkpt lat="43.53539" lon="6.70639">
        <ele>390</ele>
        <time>2010-05-02T10:47:46Z</time>
      </trkpt>
      <trkpt lat="43.53542" lon="6.70628">
        <ele>389</ele>
        <time>2010-05-02T10:47:47Z</time>
      </trkpt>
      <trkpt lat="43.53543" lon="6.70618">
        <ele>389</ele>
        <time>2010-05-02T10:47:48Z</time>
      </trkpt>
      <trkpt lat="43.53545" lon="6.70608">
        <ele>389</ele>
        <time>2010-05-02T10:47:49Z</time>
      </trkpt>
      <trkpt lat="43.53547" lon="6.70599">
        <ele>388</ele>
        <time>2010-05-02T10:47:50Z</time>
      </trkpt>
      <trkpt lat="43.53548" lon="6.7059">
        <ele>387</ele>
        <time>2010-05-02T10:47:51Z</time>
      </trkpt>
      <trkpt lat="43.53548" lon="6.7058">
        <ele>387</ele>
        <time>2010-05-02T10:47:53Z</time>
      </trkpt>
      <trkpt lat="43.53551" lon="6.70567">
        <ele>386</ele>
        <time>2010-05-02T10:47:55Z</time>
      </trkpt>
      <trkpt lat="43.53556" lon="6.70549">
        <ele>386</ele>
        <time>2010-05-02T10:47:58Z</time>
      </trkpt>
      <trkpt lat="43.53558" lon="6.70539">
        <ele>385</ele>
        <time>2010-05-02T10:48:00Z</time>
      </trkpt>
      <trkpt lat="43.5356" lon="6.70531">
        <ele>385</ele>
        <time>2010-05-02T10:48:01Z</time>
      </trkpt>
      <trkpt lat="43.53563" lon="6.70522">
        <ele>384</ele>
        <time>2010-05-02T10:48:02Z</time>
      </trkpt>
      <trkpt lat="43.53565" lon="6.70514">
        <ele>384</ele>
        <time>2010-05-02T10:48:03Z</time>
      </trkpt>
      <trkpt lat="43.53567" lon="6.70506">
        <ele>384</ele>
        <time>2010-05-02T10:48:04Z</time>
      </trkpt>
      <trkpt lat="43.53571" lon="6.70495">
        <ele>383</ele>
        <time>2010-05-02T10:48:06Z</time>
      </trkpt>
      <trkpt lat="43.53572" lon="6.70486">
        <ele>383</ele>
        <time>2010-05-02T10:48:08Z</time>
      </trkpt>
      <trkpt lat="43.53569" lon="6.70472">
        <ele>381</ele>
        <time>2010-05-02T10:48:11Z</time>
      </trkpt>
      <trkpt lat="43.53568" lon="6.70463">
        <ele>380</ele>
        <time>2010-05-02T10:48:13Z</time>
      </trkpt>
      <trkpt lat="43.53565" lon="6.70456">
        <ele>380</ele>
        <time>2010-05-02T10:48:15Z</time>
      </trkpt>
      <trkpt lat="43.53563" lon="6.70448">
        <ele>380</ele>
        <time>2010-05-02T10:48:17Z</time>
      </trkpt>
      <trkpt lat="43.53561" lon="6.70441">
        <ele>380</ele>
        <time>2010-05-02T10:48:19Z</time>
      </trkpt>
      <trkpt lat="43.53558" lon="6.7043">
        <ele>379</ele>
        <time>2010-05-02T10:48:21Z</time>
      </trkpt>
      <trkpt lat="43.53555" lon="6.70413">
        <ele>379</ele>
        <time>2010-05-02T10:48:24Z</time>
      </trkpt>
      <trkpt lat="43.53552" lon="6.704">
        <ele>379</ele>
        <time>2010-05-02T10:48:26Z</time>
      </trkpt>
      <trkpt lat="43.53551" lon="6.70386">
        <ele>379</ele>
        <time>2010-05-02T10:48:28Z</time>
      </trkpt>
      <trkpt lat="43.53551" lon="6.70379">
        <ele>379</ele>
        <time>2010-05-02T10:48:29Z</time>
      </trkpt>
      <trkpt lat="43.5355" lon="6.70372">
        <ele>379</ele>
        <time>2010-05-02T10:48:30Z</time>
      </trkpt>
      <trkpt lat="43.53549" lon="6.70364">
        <ele>379</ele>
        <time>2010-05-02T10:48:31Z</time>
      </trkpt>
      <trkpt lat="43.53549" lon="6.70356">
        <ele>379</ele>
        <time>2010-05-02T10:48:32Z</time>
      </trkpt>
      <trkpt lat="43.5355" lon="6.70347">
        <ele>378</ele>
        <time>2010-05-02T10:48:33Z</time>
      </trkpt>
      <trkpt lat="43.5355" lon="6.70338">
        <ele>378</ele>
        <time>2010-05-02T10:48:34Z</time>
      </trkpt>
      <trkpt lat="43.53553" lon="6.70312">
        <ele>378</ele>
        <time>2010-05-02T10:48:37Z</time>
      </trkpt>
      <trkpt lat="43.53554" lon="6.70303">
        <ele>378</ele>
        <time>2010-05-02T10:48:38Z</time>
      </trkpt>
      <trkpt lat="43.53555" lon="6.70294">
        <ele>378</ele>
        <time>2010-05-02T10:48:39Z</time>
      </trkpt>
      <trkpt lat="43.53557" lon="6.70283">
        <ele>377</ele>
        <time>2010-05-02T10:48:40Z</time>
      </trkpt>
      <trkpt lat="43.53559" lon="6.7027">
        <ele>376</ele>
        <time>2010-05-02T10:48:41Z</time>
      </trkpt>
      <trkpt lat="43.53561" lon="6.70259">
        <ele>376</ele>
        <time>2010-05-02T10:48:42Z</time>
      </trkpt>
      <trkpt lat="43.53562" lon="6.70247">
        <ele>375</ele>
        <time>2010-05-02T10:48:43Z</time>
      </trkpt>
      <trkpt lat="43.53564" lon="6.70235">
        <ele>374</ele>
        <time>2010-05-02T10:48:44Z</time>
      </trkpt>
      <trkpt lat="43.53567" lon="6.70223">
        <ele>373</ele>
        <time>2010-05-02T10:48:45Z</time>
      </trkpt>
      <trkpt lat="43.53571" lon="6.70212">
        <ele>372</ele>
        <time>2010-05-02T10:48:46Z</time>
      </trkpt>
      <trkpt lat="43.53574" lon="6.702">
        <ele>371</ele>
        <time>2010-05-02T10:48:47Z</time>
      </trkpt>
      <trkpt lat="43.53577" lon="6.70189">
        <ele>371</ele>
        <time>2010-05-02T10:48:48Z</time>
      </trkpt>
      <trkpt lat="43.53581" lon="6.70178">
        <ele>370</ele>
        <time>2010-05-02T10:48:49Z</time>
      </trkpt>
      <trkpt lat="43.53585" lon="6.70166">
        <ele>369</ele>
        <time>2010-05-02T10:48:50Z</time>
      </trkpt>
      <trkpt lat="43.53589" lon="6.70154">
        <ele>368</ele>
        <time>2010-05-02T10:48:51Z</time>
      </trkpt>
      <trkpt lat="43.53593" lon="6.70143">
        <ele>367</ele>
        <time>2010-05-02T10:48:52Z</time>
      </trkpt>
      <trkpt lat="43.53597" lon="6.70132">
        <ele>366</ele>
        <time>2010-05-02T10:48:53Z</time>
      </trkpt>
      <trkpt lat="43.53601" lon="6.7012">
        <ele>365</ele>
        <time>2010-05-02T10:48:54Z</time>
      </trkpt>
      <trkpt lat="43.53613" lon="6.70085">
        <ele>363</ele>
        <time>2010-05-02T10:48:57Z</time>
      </trkpt>
      <trkpt lat="43.53617" lon="6.70074">
        <ele>363</ele>
        <time>2010-05-02T10:48:58Z</time>
      </trkpt>
      <trkpt lat="43.53623" lon="6.70064">
        <ele>362</ele>
        <time>2010-05-02T10:48:59Z</time>
      </trkpt>
      <trkpt lat="43.53628" lon="6.70056">
        <ele>362</ele>
        <time>2010-05-02T10:49:00Z</time>
      </trkpt>
      <trkpt lat="43.53633" lon="6.70047">
        <ele>361</ele>
        <time>2010-05-02T10:49:01Z</time>
      </trkpt>
      <trkpt lat="43.53638" lon="6.7004">
        <ele>360</ele>
        <time>2010-05-02T10:49:02Z</time>
      </trkpt>
      <trkpt lat="43.53642" lon="6.70033">
        <ele>360</ele>
        <time>2010-05-02T10:49:03Z</time>
      </trkpt>
      <trkpt lat="43.53647" lon="6.70027">
        <ele>359</ele>
        <time>2010-05-02T10:49:04Z</time>
      </trkpt>
      <trkpt lat="43.53653" lon="6.70019">
        <ele>359</ele>
        <time>2010-05-02T10:49:05Z</time>
      </trkpt>
      <trkpt lat="43.53658" lon="6.70012">
        <ele>359</ele>
        <time>2010-05-02T10:49:06Z</time>
      </trkpt>
      <trkpt lat="43.53664" lon="6.70005">
        <ele>358</ele>
        <time>2010-05-02T10:49:07Z</time>
      </trkpt>
      <trkpt lat="43.53678" lon="6.69978">
        <ele>357</ele>
        <time>2010-05-02T10:49:10Z</time>
      </trkpt>
      <trkpt lat="43.53683" lon="6.69969">
        <ele>357</ele>
        <time>2010-05-02T10:49:11Z</time>
      </trkpt>
      <trkpt lat="43.53688" lon="6.69958">
        <ele>356</ele>
        <time>2010-05-02T10:49:12Z</time>
      </trkpt>
      <trkpt lat="43.53692" lon="6.69948">
        <ele>356</ele>
        <time>2010-05-02T10:49:13Z</time>
      </trkpt>
      <trkpt lat="43.53696" lon="6.69938">
        <ele>355</ele>
        <time>2010-05-02T10:49:14Z</time>
      </trkpt>
      <trkpt lat="43.53699" lon="6.69929">
        <ele>355</ele>
        <time>2010-05-02T10:49:15Z</time>
      </trkpt>
      <trkpt lat="43.53702" lon="6.6992">
        <ele>355</ele>
        <time>2010-05-02T10:49:16Z</time>
      </trkpt>
      <trkpt lat="43.53705" lon="6.6991">
        <ele>355</ele>
        <time>2010-05-02T10:49:17Z</time>
      </trkpt>
      <trkpt lat="43.53704" lon="6.69903">
        <ele>356</ele>
        <time>2010-05-02T10:49:19Z</time>
      </trkpt>
      <trkpt lat="43.53704" lon="6.6989">
        <ele>360</ele>
        <time>2010-05-02T10:49:23Z</time>
      </trkpt>
      <trkpt lat="43.53706" lon="6.69877">
        <ele>361</ele>
        <time>2010-05-02T10:49:26Z</time>
      </trkpt>
      <trkpt lat="43.5371" lon="6.69867">
        <ele>361</ele>
        <time>2010-05-02T10:49:27Z</time>
      </trkpt>
      <trkpt lat="43.53715" lon="6.69854">
        <ele>361</ele>
        <time>2010-05-02T10:49:28Z</time>
      </trkpt>
      <trkpt lat="43.5372" lon="6.69841">
        <ele>360</ele>
        <time>2010-05-02T10:49:29Z</time>
      </trkpt>
      <trkpt lat="43.53728" lon="6.69826">
        <ele>359</ele>
        <time>2010-05-02T10:49:30Z</time>
      </trkpt>
      <trkpt lat="43.53734" lon="6.69813">
        <ele>358</ele>
        <time>2010-05-02T10:49:31Z</time>
      </trkpt>
      <trkpt lat="43.53742" lon="6.69799">
        <ele>357</ele>
        <time>2010-05-02T10:49:32Z</time>
      </trkpt>
      <trkpt lat="43.53747" lon="6.69784">
        <ele>357</ele>
        <time>2010-05-02T10:49:33Z</time>
      </trkpt>
      <trkpt lat="43.5377" lon="6.69758">
        <ele>355</ele>
        <time>2010-05-02T10:49:36Z</time>
      </trkpt>
      <trkpt lat="43.53778" lon="6.69749">
        <ele>355</ele>
        <time>2010-05-02T10:49:37Z</time>
      </trkpt>
      <trkpt lat="43.53786" lon="6.69741">
        <ele>354</ele>
        <time>2010-05-02T10:49:38Z</time>
      </trkpt>
      <trkpt lat="43.53794" lon="6.69731">
        <ele>353</ele>
        <time>2010-05-02T10:49:39Z</time>
      </trkpt>
      <trkpt lat="43.538" lon="6.69722">
        <ele>353</ele>
        <time>2010-05-02T10:49:40Z</time>
      </trkpt>
      <trkpt lat="43.53807" lon="6.69715">
        <ele>353</ele>
        <time>2010-05-02T10:49:41Z</time>
      </trkpt>
      <trkpt lat="43.53814" lon="6.69706">
        <ele>352</ele>
        <time>2010-05-02T10:49:42Z</time>
      </trkpt>
      <trkpt lat="43.53821" lon="6.69698">
        <ele>352</ele>
        <time>2010-05-02T10:49:43Z</time>
      </trkpt>
      <trkpt lat="43.53827" lon="6.6969">
        <ele>352</ele>
        <time>2010-05-02T10:49:44Z</time>
      </trkpt>
      <trkpt lat="43.53835" lon="6.69682">
        <ele>351</ele>
        <time>2010-05-02T10:49:45Z</time>
      </trkpt>
      <trkpt lat="43.53843" lon="6.69674">
        <ele>351</ele>
        <time>2010-05-02T10:49:46Z</time>
      </trkpt>
      <trkpt lat="43.5386" lon="6.69662">
        <ele>352</ele>
        <time>2010-05-02T10:49:49Z</time>
      </trkpt>
      <trkpt lat="43.53865" lon="6.6966">
        <ele>352</ele>
        <time>2010-05-02T10:49:50Z</time>
      </trkpt>
      <trkpt lat="43.53871" lon="6.69655">
        <ele>351</ele>
        <time>2010-05-02T10:49:51Z</time>
      </trkpt>
      <trkpt lat="43.53878" lon="6.69655">
        <ele>349</ele>
        <time>2010-05-02T10:49:52Z</time>
      </trkpt>
      <trkpt lat="43.53882" lon="6.69652">
        <ele>349</ele>
        <time>2010-05-02T10:49:53Z</time>
      </trkpt>
      <trkpt lat="43.53887" lon="6.69649">
        <ele>349</ele>
        <time>2010-05-02T10:49:54Z</time>
      </trkpt>
      <trkpt lat="43.5389" lon="6.69641">
        <ele>350</ele>
        <time>2010-05-02T10:49:55Z</time>
      </trkpt>
      <trkpt lat="43.53892" lon="6.6963">
        <ele>348</ele>
        <time>2010-05-02T10:49:56Z</time>
      </trkpt>
      <trkpt lat="43.5389" lon="6.69619">
        <ele>346</ele>
        <time>2010-05-02T10:49:57Z</time>
      </trkpt>
      <trkpt lat="43.53886" lon="6.69615">
        <ele>344</ele>
        <time>2010-05-02T10:49:58Z</time>
      </trkpt>
      <trkpt lat="43.53881" lon="6.69615">
        <ele>342</ele>
        <time>2010-05-02T10:49:59Z</time>
      </trkpt>
      <trkpt lat="43.53875" lon="6.69616">
        <ele>341</ele>
        <time>2010-05-02T10:50:00Z</time>
      </trkpt>
      <trkpt lat="43.53869" lon="6.69619">
        <ele>341</ele>
        <time>2010-05-02T10:50:01Z</time>
      </trkpt>
      <trkpt lat="43.53864" lon="6.69622">
        <ele>340</ele>
        <time>2010-05-02T10:50:02Z</time>
      </trkpt>
      <trkpt lat="43.53858" lon="6.69625">
        <ele>340</ele>
        <time>2010-05-02T10:50:03Z</time>
      </trkpt>
      <trkpt lat="43.53853" lon="6.69629">
        <ele>340</ele>
        <time>2010-05-02T10:50:04Z</time>
      </trkpt>
      <trkpt lat="43.53848" lon="6.69631">
        <ele>340</ele>
        <time>2010-05-02T10:50:05Z</time>
      </trkpt>
      <trkpt lat="43.53842" lon="6.69634">
        <ele>339</ele>
        <time>2010-05-02T10:50:06Z</time>
      </trkpt>
      <trkpt lat="43.53836" lon="6.69638">
        <ele>339</ele>
        <time>2010-05-02T10:50:07Z</time>
      </trkpt>
      <trkpt lat="43.53817" lon="6.69648">
        <ele>338</ele>
        <time>2010-05-02T10:50:10Z</time>
      </trkpt>
      <trkpt lat="43.53808" lon="6.6965">
        <ele>337</ele>
        <time>2010-05-02T10:50:11Z</time>
      </trkpt>
      <trkpt lat="43.538" lon="6.69653">
        <ele>336</ele>
        <time>2010-05-02T10:50:12Z</time>
      </trkpt>
      <trkpt lat="43.53792" lon="6.69655">
        <ele>334</ele>
        <time>2010-05-02T10:50:13Z</time>
      </trkpt>
      <trkpt lat="43.53785" lon="6.69659">
        <ele>333</ele>
        <time>2010-05-02T10:50:14Z</time>
      </trkpt>
      <trkpt lat="43.53778" lon="6.69664">
        <ele>332</ele>
        <time>2010-05-02T10:50:15Z</time>
      </trkpt>
      <trkpt lat="43.53771" lon="6.69667">
        <ele>332</ele>
        <time>2010-05-02T10:50:16Z</time>
      </trkpt>
      <trkpt lat="43.53767" lon="6.6967">
        <ele>332</ele>
        <time>2010-05-02T10:50:17Z</time>
      </trkpt>
      <trkpt lat="43.53758" lon="6.69678">
        <ele>332</ele>
        <time>2010-05-02T10:50:19Z</time>
      </trkpt>
      <trkpt lat="43.53751" lon="6.69682">
        <ele>332</ele>
        <time>2010-05-02T10:50:20Z</time>
      </trkpt>
      <trkpt lat="43.53727" lon="6.69692">
        <ele>330</ele>
        <time>2010-05-02T10:50:23Z</time>
      </trkpt>
      <trkpt lat="43.5372" lon="6.69696">
        <ele>329</ele>
        <time>2010-05-02T10:50:24Z</time>
      </trkpt>
      <trkpt lat="43.53715" lon="6.69699">
        <ele>329</ele>
        <time>2010-05-02T10:50:25Z</time>
      </trkpt>
      <trkpt lat="43.53711" lon="6.69704">
        <ele>328</ele>
        <time>2010-05-02T10:50:26Z</time>
      </trkpt>
      <trkpt lat="43.53709" lon="6.69711">
        <ele>325</ele>
        <time>2010-05-02T10:50:27Z</time>
      </trkpt>
      <trkpt lat="43.53706" lon="6.69719">
        <ele>321</ele>
        <time>2010-05-02T10:50:28Z</time>
      </trkpt>
      <trkpt lat="43.5371" lon="6.69713">
        <ele>320</ele>
        <time>2010-05-02T10:50:31Z</time>
      </trkpt>
      <trkpt lat="43.53717" lon="6.69704">
        <ele>320</ele>
        <time>2010-05-02T10:50:33Z</time>
      </trkpt>
      <trkpt lat="43.53734" lon="6.69685">
        <ele>320</ele>
        <time>2010-05-02T10:50:36Z</time>
      </trkpt>
      <trkpt lat="43.5374" lon="6.69677">
        <ele>320</ele>
        <time>2010-05-02T10:50:37Z</time>
      </trkpt>
      <trkpt lat="43.53746" lon="6.69668">
        <ele>320</ele>
        <time>2010-05-02T10:50:38Z</time>
      </trkpt>
      <trkpt lat="43.53753" lon="6.69659">
        <ele>320</ele>
        <time>2010-05-02T10:50:39Z</time>
      </trkpt>
      <trkpt lat="43.5376" lon="6.6965">
        <ele>320</ele>
        <time>2010-05-02T10:50:40Z</time>
      </trkpt>
      <trkpt lat="43.53767" lon="6.69642">
        <ele>319</ele>
        <time>2010-05-02T10:50:41Z</time>
      </trkpt>
      <trkpt lat="43.53774" lon="6.69634">
        <ele>319</ele>
        <time>2010-05-02T10:50:42Z</time>
      </trkpt>
      <trkpt lat="43.53782" lon="6.69626">
        <ele>319</ele>
        <time>2010-05-02T10:50:43Z</time>
      </trkpt>
      <trkpt lat="43.53791" lon="6.69618">
        <ele>318</ele>
        <time>2010-05-02T10:50:44Z</time>
      </trkpt>
      <trkpt lat="43.53799" lon="6.69609">
        <ele>318</ele>
        <time>2010-05-02T10:50:45Z</time>
      </trkpt>
      <trkpt lat="43.53807" lon="6.696">
        <ele>318</ele>
        <time>2010-05-02T10:50:46Z</time>
      </trkpt>
      <trkpt lat="43.53814" lon="6.6959">
        <ele>317</ele>
        <time>2010-05-02T10:50:47Z</time>
      </trkpt>
      <trkpt lat="43.53822" lon="6.69582">
        <ele>317</ele>
        <time>2010-05-02T10:50:48Z</time>
      </trkpt>
      <trkpt lat="43.5383" lon="6.69574">
        <ele>316</ele>
        <time>2010-05-02T10:50:49Z</time>
      </trkpt>
      <trkpt lat="43.53839" lon="6.69568">
        <ele>315</ele>
        <time>2010-05-02T10:50:50Z</time>
      </trkpt>
      <trkpt lat="43.53849" lon="6.69561">
        <ele>315</ele>
        <time>2010-05-02T10:50:51Z</time>
      </trkpt>
      <trkpt lat="43.53858" lon="6.69557">
        <ele>314</ele>
        <time>2010-05-02T10:50:52Z</time>
      </trkpt>
      <trkpt lat="43.53867" lon="6.69553">
        <ele>314</ele>
        <time>2010-05-02T10:50:53Z</time>
      </trkpt>
      <trkpt lat="43.53878" lon="6.69552">
        <ele>314</ele>
        <time>2010-05-02T10:50:54Z</time>
      </trkpt>
      <trkpt lat="43.53911" lon="6.69558">
        <ele>312</ele>
        <time>2010-05-02T10:50:57Z</time>
      </trkpt>
      <trkpt lat="43.53922" lon="6.6956">
        <ele>310</ele>
        <time>2010-05-02T10:50:58Z</time>
      </trkpt>
      <trkpt lat="43.53933" lon="6.69563">
        <ele>310</ele>
        <time>2010-05-02T10:50:59Z</time>
      </trkpt>
      <trkpt lat="43.53945" lon="6.69566">
        <ele>310</ele>
        <time>2010-05-02T10:51:00Z</time>
      </trkpt>
      <trkpt lat="43.53957" lon="6.69568">
        <ele>310</ele>
        <time>2010-05-02T10:51:01Z</time>
      </trkpt>
      <trkpt lat="43.53969" lon="6.69569">
        <ele>309</ele>
        <time>2010-05-02T10:51:02Z</time>
      </trkpt>
      <trkpt lat="43.53982" lon="6.69571">
        <ele>308</ele>
        <time>2010-05-02T10:51:03Z</time>
      </trkpt>
      <trkpt lat="43.53993" lon="6.69572">
        <ele>307</ele>
        <time>2010-05-02T10:51:04Z</time>
      </trkpt>
      <trkpt lat="43.54004" lon="6.69572">
        <ele>307</ele>
        <time>2010-05-02T10:51:05Z</time>
      </trkpt>
      <trkpt lat="43.54013" lon="6.69573">
        <ele>306</ele>
        <time>2010-05-02T10:51:06Z</time>
      </trkpt>
      <trkpt lat="43.54021" lon="6.69573">
        <ele>305</ele>
        <time>2010-05-02T10:51:07Z</time>
      </trkpt>
      <trkpt lat="43.54033" lon="6.69557">
        <ele>301</ele>
        <time>2010-05-02T10:51:10Z</time>
      </trkpt>
      <trkpt lat="43.54032" lon="6.6955">
        <ele>301</ele>
        <time>2010-05-02T10:51:11Z</time>
      </trkpt>
      <trkpt lat="43.54027" lon="6.69542">
        <ele>301</ele>
        <time>2010-05-02T10:51:12Z</time>
      </trkpt>
      <trkpt lat="43.54022" lon="6.69534">
        <ele>301</ele>
        <time>2010-05-02T10:51:13Z</time>
      </trkpt>
      <trkpt lat="43.54016" lon="6.69526">
        <ele>301</ele>
        <time>2010-05-02T10:51:14Z</time>
      </trkpt>
      <trkpt lat="43.54011" lon="6.69516">
        <ele>300</ele>
        <time>2010-05-02T10:51:15Z</time>
      </trkpt>
      <trkpt lat="43.54005" lon="6.69506">
        <ele>300</ele>
        <time>2010-05-02T10:51:16Z</time>
      </trkpt>
      <trkpt lat="43.54" lon="6.69497">
        <ele>300</ele>
        <time>2010-05-02T10:51:17Z</time>
      </trkpt>
      <trkpt lat="43.53995" lon="6.69486">
        <ele>300</ele>
        <time>2010-05-02T10:51:18Z</time>
      </trkpt>
      <trkpt lat="43.5399" lon="6.69477">
        <ele>300</ele>
        <time>2010-05-02T10:51:19Z</time>
      </trkpt>
      <trkpt lat="43.53984" lon="6.69468">
        <ele>300</ele>
        <time>2010-05-02T10:51:20Z</time>
      </trkpt>
      <trkpt lat="43.53968" lon="6.69444">
        <ele>299</ele>
        <time>2010-05-02T10:51:23Z</time>
      </trkpt>
      <trkpt lat="43.53961" lon="6.69438">
        <ele>299</ele>
        <time>2010-05-02T10:51:24Z</time>
      </trkpt>
      <trkpt lat="43.53954" lon="6.69432">
        <ele>299</ele>
        <time>2010-05-02T10:51:25Z</time>
      </trkpt>
      <trkpt lat="43.53947" lon="6.69428">
        <ele>298</ele>
        <time>2010-05-02T10:51:26Z</time>
      </trkpt>
      <trkpt lat="43.5394" lon="6.69425">
        <ele>297</ele>
        <time>2010-05-02T10:51:27Z</time>
      </trkpt>
      <trkpt lat="43.53933" lon="6.69421">
        <ele>297</ele>
        <time>2010-05-02T10:51:28Z</time>
      </trkpt>
      <trkpt lat="43.53926" lon="6.6942">
        <ele>296</ele>
        <time>2010-05-02T10:51:29Z</time>
      </trkpt>
      <trkpt lat="43.53919" lon="6.69417">
        <ele>295</ele>
        <time>2010-05-02T10:51:30Z</time>
      </trkpt>
      <trkpt lat="43.53914" lon="6.69413">
        <ele>295</ele>
        <time>2010-05-02T10:51:31Z</time>
      </trkpt>
      <trkpt lat="43.53909" lon="6.69407">
        <ele>294</ele>
        <time>2010-05-02T10:51:32Z</time>
      </trkpt>
      <trkpt lat="43.53904" lon="6.69401">
        <ele>294</ele>
        <time>2010-05-02T10:51:33Z</time>
      </trkpt>
      <trkpt lat="43.53899" lon="6.69378">
        <ele>293</ele>
        <time>2010-05-02T10:51:36Z</time>
      </trkpt>
      <trkpt lat="43.53901" lon="6.6937">
        <ele>292</ele>
        <time>2010-05-02T10:51:37Z</time>
      </trkpt>
      <trkpt lat="43.53903" lon="6.69362">
        <ele>292</ele>
        <time>2010-05-02T10:51:38Z</time>
      </trkpt>
      <trkpt lat="43.53906" lon="6.69354">
        <ele>292</ele>
        <time>2010-05-02T10:51:39Z</time>
      </trkpt>
      <trkpt lat="43.53909" lon="6.69346">
        <ele>292</ele>
        <time>2010-05-02T10:51:40Z</time>
      </trkpt>
      <trkpt lat="43.53912" lon="6.69339">
        <ele>292</ele>
        <time>2010-05-02T10:51:41Z</time>
      </trkpt>
      <trkpt lat="43.53915" lon="6.69333">
        <ele>292</ele>
        <time>2010-05-02T10:51:42Z</time>
      </trkpt>
      <trkpt lat="43.53917" lon="6.69327">
        <ele>292</ele>
        <time>2010-05-02T10:51:43Z</time>
      </trkpt>
      <trkpt lat="43.53919" lon="6.69315">
        <ele>291</ele>
        <time>2010-05-02T10:51:45Z</time>
      </trkpt>
      <trkpt lat="43.53919" lon="6.69304">
        <ele>291</ele>
        <time>2010-05-02T10:51:47Z</time>
      </trkpt>
      <trkpt lat="43.53915" lon="6.69296">
        <ele>291</ele>
        <time>2010-05-02T10:51:49Z</time>
      </trkpt>
      <trkpt lat="43.53909" lon="6.69291">
        <ele>290</ele>
        <time>2010-05-02T10:51:51Z</time>
      </trkpt>
      <trkpt lat="43.53904" lon="6.69288">
        <ele>290</ele>
        <time>2010-05-02T10:51:53Z</time>
      </trkpt>
      <trkpt lat="43.53891" lon="6.69283">
        <ele>290</ele>
        <time>2010-05-02T10:51:57Z</time>
      </trkpt>
      <trkpt lat="43.53884" lon="6.69281">
        <ele>290</ele>
        <time>2010-05-02T10:51:59Z</time>
      </trkpt>
      <trkpt lat="43.53879" lon="6.69278">
        <ele>290</ele>
        <time>2010-05-02T10:52:01Z</time>
      </trkpt>
      <trkpt lat="43.53874" lon="6.69274">
        <ele>291</ele>
        <time>2010-05-02T10:52:03Z</time>
      </trkpt>
      <trkpt lat="43.53871" lon="6.69266">
        <ele>291</ele>
        <time>2010-05-02T10:52:05Z</time>
      </trkpt>
      <trkpt lat="43.53868" lon="6.6926">
        <ele>291</ele>
        <time>2010-05-02T10:52:07Z</time>
      </trkpt>
      <trkpt lat="43.53865" lon="6.6925">
        <ele>292</ele>
        <time>2010-05-02T10:52:10Z</time>
      </trkpt>
      <trkpt lat="43.53861" lon="6.69242">
        <ele>292</ele>
        <time>2010-05-02T10:52:13Z</time>
      </trkpt>
      <trkpt lat="43.53858" lon="6.69236">
        <ele>292</ele>
        <time>2010-05-02T10:52:15Z</time>
      </trkpt>
      <trkpt lat="43.53853" lon="6.69229">
        <ele>293</ele>
        <time>2010-05-02T10:52:18Z</time>
      </trkpt>
      <trkpt lat="43.53848" lon="6.69223">
        <ele>294</ele>
        <time>2010-05-02T10:52:20Z</time>
      </trkpt>
      <trkpt lat="43.53843" lon="6.69215">
        <ele>295</ele>
        <time>2010-05-02T10:52:23Z</time>
      </trkpt>
      <trkpt lat="43.5384" lon="6.6921">
        <ele>295</ele>
        <time>2010-05-02T10:52:25Z</time>
      </trkpt>
      <trkpt lat="43.53839" lon="6.69201">
        <ele>295</ele>
        <time>2010-05-02T10:52:27Z</time>
      </trkpt>
      <trkpt lat="43.53839" lon="6.69192">
        <ele>295</ele>
        <time>2010-05-02T10:52:29Z</time>
      </trkpt>
      <trkpt lat="43.53839" lon="6.69182">
        <ele>295</ele>
        <time>2010-05-02T10:52:31Z</time>
      </trkpt>
      <trkpt lat="43.53838" lon="6.69174">
        <ele>296</ele>
        <time>2010-05-02T10:52:33Z</time>
      </trkpt>
      <trkpt lat="43.53836" lon="6.69161">
        <ele>295</ele>
        <time>2010-05-02T10:52:36Z</time>
      </trkpt>
      <trkpt lat="43.53833" lon="6.69154">
        <ele>294</ele>
        <time>2010-05-02T10:52:38Z</time>
      </trkpt>
      <trkpt lat="43.53829" lon="6.69149">
        <ele>294</ele>
        <time>2010-05-02T10:52:40Z</time>
      </trkpt>
      <trkpt lat="43.53825" lon="6.69147">
        <ele>294</ele>
        <time>2010-05-02T10:52:43Z</time>
      </trkpt>
      <trkpt lat="43.53819" lon="6.69146">
        <ele>295</ele>
        <time>2010-05-02T10:52:46Z</time>
      </trkpt>
      <trkpt lat="43.53814" lon="6.69146">
        <ele>295</ele>
        <time>2010-05-02T10:52:49Z</time>
      </trkpt>
      <trkpt lat="43.53808" lon="6.69145">
        <ele>297</ele>
        <time>2010-05-02T10:52:51Z</time>
      </trkpt>
      <trkpt lat="43.53803" lon="6.69144">
        <ele>297</ele>
        <time>2010-05-02T10:52:53Z</time>
      </trkpt>
      <trkpt lat="43.53798" lon="6.69143">
        <ele>297</ele>
        <time>2010-05-02T10:52:55Z</time>
      </trkpt>
      <trkpt lat="43.5379" lon="6.69141">
        <ele>296</ele>
        <time>2010-05-02T10:52:58Z</time>
      </trkpt>
      <trkpt lat="43.53785" lon="6.69138">
        <ele>296</ele>
        <time>2010-05-02T10:53:00Z</time>
      </trkpt>
      <trkpt lat="43.53778" lon="6.69132">
        <ele>296</ele>
        <time>2010-05-02T10:53:02Z</time>
      </trkpt>
      <trkpt lat="43.53775" lon="6.69128">
        <ele>295</ele>
        <time>2010-05-02T10:53:03Z</time>
      </trkpt>
      <trkpt lat="43.53768" lon="6.69118">
        <ele>294</ele>
        <time>2010-05-02T10:53:05Z</time>
      </trkpt>
      <trkpt lat="43.53764" lon="6.69111">
        <ele>294</ele>
        <time>2010-05-02T10:53:06Z</time>
      </trkpt>
      <trkpt lat="43.53763" lon="6.69105">
        <ele>294</ele>
        <time>2010-05-02T10:53:07Z</time>
      </trkpt>
      <trkpt lat="43.53761" lon="6.691">
        <ele>294</ele>
        <time>2010-05-02T10:53:08Z</time>
      </trkpt>
      <trkpt lat="43.53758" lon="6.69085">
        <ele>297</ele>
        <time>2010-05-02T10:53:11Z</time>
      </trkpt>
      <trkpt lat="43.53756" lon="6.69075">
        <ele>298</ele>
        <time>2010-05-02T10:53:13Z</time>
      </trkpt>
      <trkpt lat="43.53755" lon="6.69065">
        <ele>299</ele>
        <time>2010-05-02T10:53:15Z</time>
      </trkpt>
      <trkpt lat="43.53755" lon="6.69058">
        <ele>299</ele>
        <time>2010-05-02T10:53:16Z</time>
      </trkpt>
      <trkpt lat="43.53754" lon="6.69051">
        <ele>299</ele>
        <time>2010-05-02T10:53:17Z</time>
      </trkpt>
      <trkpt lat="43.53754" lon="6.69044">
        <ele>299</ele>
        <time>2010-05-02T10:53:18Z</time>
      </trkpt>
      <trkpt lat="43.53754" lon="6.69037">
        <ele>299</ele>
        <time>2010-05-02T10:53:19Z</time>
      </trkpt>
      <trkpt lat="43.53754" lon="6.6903">
        <ele>299</ele>
        <time>2010-05-02T10:53:20Z</time>
      </trkpt>
      <trkpt lat="43.53754" lon="6.69024">
        <ele>299</ele>
        <time>2010-05-02T10:53:21Z</time>
      </trkpt>
      <trkpt lat="43.53754" lon="6.69004">
        <ele>298</ele>
        <time>2010-05-02T10:53:24Z</time>
      </trkpt>
      <trkpt lat="43.53755" lon="6.68997">
        <ele>298</ele>
        <time>2010-05-02T10:53:25Z</time>
      </trkpt>
      <trkpt lat="43.53755" lon="6.68984">
        <ele>298</ele>
        <time>2010-05-02T10:53:27Z</time>
      </trkpt>
      <trkpt lat="43.53755" lon="6.68978">
        <ele>298</ele>
        <time>2010-05-02T10:53:28Z</time>
      </trkpt>
      <trkpt lat="43.53755" lon="6.68965">
        <ele>298</ele>
        <time>2010-05-02T10:53:30Z</time>
      </trkpt>
      <trkpt lat="43.53755" lon="6.68954">
        <ele>298</ele>
        <time>2010-05-02T10:53:32Z</time>
      </trkpt>
      <trkpt lat="43.53755" lon="6.68945">
        <ele>298</ele>
        <time>2010-05-02T10:53:34Z</time>
      </trkpt>
      <trkpt lat="43.53752" lon="6.6893">
        <ele>297</ele>
        <time>2010-05-02T10:53:37Z</time>
      </trkpt>
      <trkpt lat="43.53749" lon="6.68921">
        <ele>297</ele>
        <time>2010-05-02T10:53:39Z</time>
      </trkpt>
      <trkpt lat="43.53742" lon="6.68913">
        <ele>296</ele>
        <time>2010-05-02T10:53:41Z</time>
      </trkpt>
      <trkpt lat="43.53735" lon="6.68907">
        <ele>295</ele>
        <time>2010-05-02T10:53:43Z</time>
      </trkpt>
      <trkpt lat="43.53726" lon="6.68901">
        <ele>295</ele>
        <time>2010-05-02T10:53:45Z</time>
      </trkpt>
      <trkpt lat="43.53722" lon="6.68898">
        <ele>295</ele>
        <time>2010-05-02T10:53:46Z</time>
      </trkpt>
      <trkpt lat="43.53718" lon="6.68896">
        <ele>295</ele>
        <time>2010-05-02T10:53:47Z</time>
      </trkpt>
      <trkpt lat="43.53713" lon="6.68894">
        <ele>295</ele>
        <time>2010-05-02T10:53:48Z</time>
      </trkpt>
      <trkpt lat="43.53708" lon="6.68891">
        <ele>295</ele>
        <time>2010-05-02T10:53:49Z</time>
      </trkpt>
      <trkpt lat="43.53704" lon="6.68889">
        <ele>295</ele>
        <time>2010-05-02T10:53:50Z</time>
      </trkpt>
      <trkpt lat="43.53699" lon="6.68887">
        <ele>295</ele>
        <time>2010-05-02T10:53:51Z</time>
      </trkpt>
      <trkpt lat="43.53694" lon="6.68885">
        <ele>295</ele>
        <time>2010-05-02T10:53:52Z</time>
      </trkpt>
      <trkpt lat="43.53689" lon="6.68883">
        <ele>294</ele>
        <time>2010-05-02T10:53:53Z</time>
      </trkpt>
      <trkpt lat="43.53684" lon="6.68881">
        <ele>294</ele>
        <time>2010-05-02T10:53:54Z</time>
      </trkpt>
      <trkpt lat="43.53679" lon="6.68881">
        <ele>294</ele>
        <time>2010-05-02T10:53:55Z</time>
      </trkpt>
      <trkpt lat="43.53664" lon="6.68879">
        <ele>294</ele>
        <time>2010-05-02T10:53:58Z</time>
      </trkpt>
      <trkpt lat="43.53659" lon="6.68878">
        <ele>294</ele>
        <time>2010-05-02T10:53:59Z</time>
      </trkpt>
      <trkpt lat="43.53651" lon="6.68875">
        <ele>294</ele>
        <time>2010-05-02T10:54:01Z</time>
      </trkpt>
      <trkpt lat="43.53642" lon="6.68874">
        <ele>294</ele>
        <time>2010-05-02T10:54:03Z</time>
      </trkpt>
      <trkpt lat="43.53633" lon="6.68874">
        <ele>294</ele>
        <time>2010-05-02T10:54:05Z</time>
      </trkpt>
      <trkpt lat="43.53626" lon="6.68872">
        <ele>294</ele>
        <time>2010-05-02T10:54:07Z</time>
      </trkpt>
      <trkpt lat="43.5362" lon="6.68871">
        <ele>294</ele>
        <time>2010-05-02T10:54:11Z</time>
      </trkpt>
      <trkpt lat="43.53619" lon="6.68872">
        <ele>294</ele>
        <time>2010-05-02T10:54:13Z</time>
      </trkpt>
    </trkseg>
  </trk>
</gpx>